<?xml version="1.0" encoding="UTF-8" standalone="no" ?>
<gpx xmlns="http://www.topografix.com/GPX/1/1" xmlns:xsi="http://www.w3.org/2001/XMLSchema-instance" xsi:schemaLocation="http://www.topografix.com/GPX/1/1 http://www.topografix.com/GPX/1/1/gpx.xsd" version="1.1" creator="VisuGPX - https://www.visugpx.com">
  <metadata>
    <name>Chorges Cyclisme</name>
    <desc><![CDATA[col de la gardette michel;christian]]></desc>
  </metadata>
  <trk>
    <name><![CDATA[Chorges Cyclisme]]></name>
    <trkseg>
      <trkpt lat="44.54571" lon="6.27275">
        <ele>860.59997558594</ele>
        <time>2021-06-10T07:03:38.000Z</time>
      </trkpt>
      <trkpt lat="44.54575" lon="6.27274">
        <ele>860.59997558594</ele>
        <time>2021-06-10T07:03:49.000Z</time>
      </trkpt>
      <trkpt lat="44.54576" lon="6.27267">
        <ele>860.59997558594</ele>
        <time>2021-06-10T07:03:58.000Z</time>
      </trkpt>
      <trkpt lat="44.54582" lon="6.27253">
        <ele>860.59997558594</ele>
        <time>2021-06-10T07:04:04.000Z</time>
      </trkpt>
      <trkpt lat="44.54592" lon="6.27235">
        <ele>860.40002441406</ele>
        <time>2021-06-10T07:04:11.000Z</time>
      </trkpt>
      <trkpt lat="44.54605" lon="6.2721">
        <ele>860</ele>
        <time>2021-06-10T07:04:19.000Z</time>
      </trkpt>
      <trkpt lat="44.54611" lon="6.27191">
        <ele>859.79998779297</ele>
        <time>2021-06-10T07:04:24.000Z</time>
      </trkpt>
      <trkpt lat="44.54616" lon="6.27173">
        <ele>859.40002441406</ele>
        <time>2021-06-10T07:04:29.000Z</time>
      </trkpt>
      <trkpt lat="44.54617" lon="6.27171">
        <ele>859.40002441406</ele>
        <time>2021-06-10T07:04:30.000Z</time>
      </trkpt>
      <trkpt lat="44.54619" lon="6.27171">
        <ele>859.40002441406</ele>
        <time>2021-06-10T07:04:31.000Z</time>
      </trkpt>
      <trkpt lat="44.54622" lon="6.27176">
        <ele>859.20001220703</ele>
        <time>2021-06-10T07:04:34.000Z</time>
      </trkpt>
      <trkpt lat="44.5462" lon="6.27184">
        <ele>859.20001220703</ele>
        <time>2021-06-10T07:04:37.000Z</time>
      </trkpt>
      <trkpt lat="44.5462" lon="6.27187">
        <ele>859.20001220703</ele>
        <time>2021-06-10T07:04:40.000Z</time>
      </trkpt>
      <trkpt lat="44.5462" lon="6.27187">
        <ele>859.59997558594</ele>
        <time>2021-06-10T07:04:52.000Z</time>
      </trkpt>
      <trkpt lat="44.54619" lon="6.27187">
        <ele>859.59997558594</ele>
        <time>2021-06-10T07:05:02.000Z</time>
      </trkpt>
      <trkpt lat="44.54619" lon="6.27187">
        <ele>859.79998779297</ele>
        <time>2021-06-10T07:05:11.000Z</time>
      </trkpt>
      <trkpt lat="44.54619" lon="6.27186">
        <ele>860</ele>
        <time>2021-06-10T07:05:22.000Z</time>
      </trkpt>
      <trkpt lat="44.54619" lon="6.27186">
        <ele>860</ele>
        <time>2021-06-10T07:05:37.000Z</time>
      </trkpt>
      <trkpt lat="44.54619" lon="6.27186">
        <ele>860</ele>
        <time>2021-06-10T07:06:06.000Z</time>
      </trkpt>
      <trkpt lat="44.54619" lon="6.27186">
        <ele>860</ele>
        <time>2021-06-10T07:06:24.000Z</time>
      </trkpt>
      <trkpt lat="44.54619" lon="6.27186">
        <ele>859.79998779297</ele>
        <time>2021-06-10T07:06:40.000Z</time>
      </trkpt>
      <trkpt lat="44.54619" lon="6.27186">
        <ele>859.59997558594</ele>
        <time>2021-06-10T07:06:59.000Z</time>
      </trkpt>
      <trkpt lat="44.54619" lon="6.27186">
        <ele>859.79998779297</ele>
        <time>2021-06-10T07:07:16.000Z</time>
      </trkpt>
      <trkpt lat="44.54619" lon="6.27186">
        <ele>860</ele>
        <time>2021-06-10T07:07:41.000Z</time>
      </trkpt>
      <trkpt lat="44.5462" lon="6.27186">
        <ele>859.79998779297</ele>
        <time>2021-06-10T07:07:57.000Z</time>
      </trkpt>
      <trkpt lat="44.54621" lon="6.27188">
        <ele>859.79998779297</ele>
        <time>2021-06-10T07:08:00.000Z</time>
      </trkpt>
      <trkpt lat="44.54623" lon="6.27191">
        <ele>859.79998779297</ele>
        <time>2021-06-10T07:08:02.000Z</time>
      </trkpt>
      <trkpt lat="44.54624" lon="6.272">
        <ele>859.79998779297</ele>
        <time>2021-06-10T07:08:05.000Z</time>
      </trkpt>
      <trkpt lat="44.54624" lon="6.27203">
        <ele>859.79998779297</ele>
        <time>2021-06-10T07:08:06.000Z</time>
      </trkpt>
      <trkpt lat="44.54625" lon="6.27205">
        <ele>859.79998779297</ele>
        <time>2021-06-10T07:08:07.000Z</time>
      </trkpt>
      <trkpt lat="44.54632" lon="6.27212">
        <ele>859.79998779297</ele>
        <time>2021-06-10T07:08:10.000Z</time>
      </trkpt>
      <trkpt lat="44.5464" lon="6.27211">
        <ele>859.79998779297</ele>
        <time>2021-06-10T07:08:13.000Z</time>
      </trkpt>
      <trkpt lat="44.54644" lon="6.27211">
        <ele>859.79998779297</ele>
        <time>2021-06-10T07:08:14.000Z</time>
      </trkpt>
      <trkpt lat="44.54647" lon="6.27213">
        <ele>859.79998779297</ele>
        <time>2021-06-10T07:08:15.000Z</time>
      </trkpt>
      <trkpt lat="44.5465" lon="6.27218">
        <ele>859.79998779297</ele>
        <time>2021-06-10T07:08:17.000Z</time>
      </trkpt>
      <trkpt lat="44.54649" lon="6.27232">
        <ele>860.20001220703</ele>
        <time>2021-06-10T07:08:21.000Z</time>
      </trkpt>
      <trkpt lat="44.54644" lon="6.27249">
        <ele>860.79998779297</ele>
        <time>2021-06-10T07:08:26.000Z</time>
      </trkpt>
      <trkpt lat="44.54643" lon="6.27253">
        <ele>861</ele>
        <time>2021-06-10T07:08:27.000Z</time>
      </trkpt>
      <trkpt lat="44.54638" lon="6.27272">
        <ele>861.20001220703</ele>
        <time>2021-06-10T07:08:32.000Z</time>
      </trkpt>
      <trkpt lat="44.54637" lon="6.27275">
        <ele>861.40002441406</ele>
        <time>2021-06-10T07:08:33.000Z</time>
      </trkpt>
      <trkpt lat="44.54625" lon="6.27306">
        <ele>861.79998779297</ele>
        <time>2021-06-10T07:08:41.000Z</time>
      </trkpt>
      <trkpt lat="44.54613" lon="6.27343">
        <ele>862.40002441406</ele>
        <time>2021-06-10T07:08:49.000Z</time>
      </trkpt>
      <trkpt lat="44.54612" lon="6.27347">
        <ele>862.40002441406</ele>
        <time>2021-06-10T07:08:50.000Z</time>
      </trkpt>
      <trkpt lat="44.54595" lon="6.27401">
        <ele>863.20001220703</ele>
        <time>2021-06-10T07:09:01.000Z</time>
      </trkpt>
      <trkpt lat="44.54592" lon="6.27411">
        <ele>863.40002441406</ele>
        <time>2021-06-10T07:09:03.000Z</time>
      </trkpt>
      <trkpt lat="44.54578" lon="6.27454">
        <ele>864</ele>
        <time>2021-06-10T07:09:12.000Z</time>
      </trkpt>
      <trkpt lat="44.54577" lon="6.27481">
        <ele>864.40002441406</ele>
        <time>2021-06-10T07:09:18.000Z</time>
      </trkpt>
      <trkpt lat="44.54588" lon="6.27499">
        <ele>865.20001220703</ele>
        <time>2021-06-10T07:09:23.000Z</time>
      </trkpt>
      <trkpt lat="44.54596" lon="6.27511">
        <ele>865.40002441406</ele>
        <time>2021-06-10T07:09:26.000Z</time>
      </trkpt>
      <trkpt lat="44.54604" lon="6.2752">
        <ele>865.79998779297</ele>
        <time>2021-06-10T07:09:29.000Z</time>
      </trkpt>
      <trkpt lat="44.54619" lon="6.2754">
        <ele>866.59997558594</ele>
        <time>2021-06-10T07:09:35.000Z</time>
      </trkpt>
      <trkpt lat="44.54621" lon="6.27545">
        <ele>866.59997558594</ele>
        <time>2021-06-10T07:09:36.000Z</time>
      </trkpt>
      <trkpt lat="44.5463" lon="6.27583">
        <ele>867.40002441406</ele>
        <time>2021-06-10T07:09:43.000Z</time>
      </trkpt>
      <trkpt lat="44.54632" lon="6.27594">
        <ele>867.59997558594</ele>
        <time>2021-06-10T07:09:45.000Z</time>
      </trkpt>
      <trkpt lat="44.54634" lon="6.27619">
        <ele>868</ele>
        <time>2021-06-10T07:09:50.000Z</time>
      </trkpt>
      <trkpt lat="44.54635" lon="6.27625">
        <ele>868.20001220703</ele>
        <time>2021-06-10T07:09:51.000Z</time>
      </trkpt>
      <trkpt lat="44.54631" lon="6.27647">
        <ele>868.59997558594</ele>
        <time>2021-06-10T07:09:55.000Z</time>
      </trkpt>
      <trkpt lat="44.54629" lon="6.27657">
        <ele>868.59997558594</ele>
        <time>2021-06-10T07:09:57.000Z</time>
      </trkpt>
      <trkpt lat="44.54627" lon="6.27684">
        <ele>868.79998779297</ele>
        <time>2021-06-10T07:10:02.000Z</time>
      </trkpt>
      <trkpt lat="44.54636" lon="6.27699">
        <ele>869</ele>
        <time>2021-06-10T07:10:06.000Z</time>
      </trkpt>
      <trkpt lat="44.54659" lon="6.27716">
        <ele>869.79998779297</ele>
        <time>2021-06-10T07:10:13.000Z</time>
      </trkpt>
      <trkpt lat="44.54665" lon="6.27721">
        <ele>869.79998779297</ele>
        <time>2021-06-10T07:10:15.000Z</time>
      </trkpt>
      <trkpt lat="44.54686" lon="6.27733">
        <ele>870.79998779297</ele>
        <time>2021-06-10T07:10:21.000Z</time>
      </trkpt>
      <trkpt lat="44.54689" lon="6.27736">
        <ele>871</ele>
        <time>2021-06-10T07:10:22.000Z</time>
      </trkpt>
      <trkpt lat="44.54711" lon="6.27757">
        <ele>872</ele>
        <time>2021-06-10T07:10:29.000Z</time>
      </trkpt>
      <trkpt lat="44.54717" lon="6.27763">
        <ele>872.40002441406</ele>
        <time>2021-06-10T07:10:31.000Z</time>
      </trkpt>
      <trkpt lat="44.54733" lon="6.27771">
        <ele>873.20001220703</ele>
        <time>2021-06-10T07:10:36.000Z</time>
      </trkpt>
      <trkpt lat="44.54746" lon="6.27759">
        <ele>873.59997558594</ele>
        <time>2021-06-10T07:10:40.000Z</time>
      </trkpt>
      <trkpt lat="44.54759" lon="6.27744">
        <ele>874.40002441406</ele>
        <time>2021-06-10T07:10:44.000Z</time>
      </trkpt>
      <trkpt lat="44.54777" lon="6.27731">
        <ele>874.59997558594</ele>
        <time>2021-06-10T07:10:49.000Z</time>
      </trkpt>
      <trkpt lat="44.54803" lon="6.27728">
        <ele>875</ele>
        <time>2021-06-10T07:10:56.000Z</time>
      </trkpt>
      <trkpt lat="44.54814" lon="6.27729">
        <ele>875.40002441406</ele>
        <time>2021-06-10T07:10:59.000Z</time>
      </trkpt>
      <trkpt lat="44.54832" lon="6.27731">
        <ele>876.20001220703</ele>
        <time>2021-06-10T07:11:04.000Z</time>
      </trkpt>
      <trkpt lat="44.54839" lon="6.27731">
        <ele>876.59997558594</ele>
        <time>2021-06-10T07:11:06.000Z</time>
      </trkpt>
      <trkpt lat="44.54861" lon="6.27734">
        <ele>877.59997558594</ele>
        <time>2021-06-10T07:11:12.000Z</time>
      </trkpt>
      <trkpt lat="44.54886" lon="6.27736">
        <ele>878.59997558594</ele>
        <time>2021-06-10T07:11:19.000Z</time>
      </trkpt>
      <trkpt lat="44.54897" lon="6.27738">
        <ele>879.20001220703</ele>
        <time>2021-06-10T07:11:22.000Z</time>
      </trkpt>
      <trkpt lat="44.54907" lon="6.27742">
        <ele>879.79998779297</ele>
        <time>2021-06-10T07:11:25.000Z</time>
      </trkpt>
      <trkpt lat="44.5492" lon="6.27751">
        <ele>880.20001220703</ele>
        <time>2021-06-10T07:11:29.000Z</time>
      </trkpt>
      <trkpt lat="44.5493" lon="6.27758">
        <ele>880.79998779297</ele>
        <time>2021-06-10T07:11:32.000Z</time>
      </trkpt>
      <trkpt lat="44.54946" lon="6.27766">
        <ele>882</ele>
        <time>2021-06-10T07:11:37.000Z</time>
      </trkpt>
      <trkpt lat="44.5497" lon="6.27774">
        <ele>883</ele>
        <time>2021-06-10T07:11:44.000Z</time>
      </trkpt>
      <trkpt lat="44.54986" lon="6.27781">
        <ele>884.20001220703</ele>
        <time>2021-06-10T07:11:49.000Z</time>
      </trkpt>
      <trkpt lat="44.54996" lon="6.27784">
        <ele>885</ele>
        <time>2021-06-10T07:11:52.000Z</time>
      </trkpt>
      <trkpt lat="44.5501" lon="6.27788">
        <ele>885.59997558594</ele>
        <time>2021-06-10T07:11:56.000Z</time>
      </trkpt>
      <trkpt lat="44.55032" lon="6.27795">
        <ele>886.79998779297</ele>
        <time>2021-06-10T07:12:02.000Z</time>
      </trkpt>
      <trkpt lat="44.55052" lon="6.278">
        <ele>887.79998779297</ele>
        <time>2021-06-10T07:12:08.000Z</time>
      </trkpt>
      <trkpt lat="44.55061" lon="6.27803">
        <ele>888.40002441406</ele>
        <time>2021-06-10T07:12:11.000Z</time>
      </trkpt>
      <trkpt lat="44.55071" lon="6.27805">
        <ele>888.79998779297</ele>
        <time>2021-06-10T07:12:14.000Z</time>
      </trkpt>
      <trkpt lat="44.5509" lon="6.27813">
        <ele>890</ele>
        <time>2021-06-10T07:12:20.000Z</time>
      </trkpt>
      <trkpt lat="44.55093" lon="6.27815">
        <ele>890.20001220703</ele>
        <time>2021-06-10T07:12:21.000Z</time>
      </trkpt>
      <trkpt lat="44.55108" lon="6.27821">
        <ele>891</ele>
        <time>2021-06-10T07:12:26.000Z</time>
      </trkpt>
      <trkpt lat="44.5512" lon="6.27826">
        <ele>891.79998779297</ele>
        <time>2021-06-10T07:12:30.000Z</time>
      </trkpt>
      <trkpt lat="44.55126" lon="6.27827">
        <ele>892.20001220703</ele>
        <time>2021-06-10T07:12:32.000Z</time>
      </trkpt>
      <trkpt lat="44.55139" lon="6.27829">
        <ele>893.20001220703</ele>
        <time>2021-06-10T07:12:36.000Z</time>
      </trkpt>
      <trkpt lat="44.55148" lon="6.27829">
        <ele>893.79998779297</ele>
        <time>2021-06-10T07:12:39.000Z</time>
      </trkpt>
      <trkpt lat="44.55155" lon="6.27829">
        <ele>894.40002441406</ele>
        <time>2021-06-10T07:12:41.000Z</time>
      </trkpt>
      <trkpt lat="44.55171" lon="6.27827">
        <ele>895.20001220703</ele>
        <time>2021-06-10T07:12:46.000Z</time>
      </trkpt>
      <trkpt lat="44.55175" lon="6.27827">
        <ele>895.40002441406</ele>
        <time>2021-06-10T07:12:47.000Z</time>
      </trkpt>
      <trkpt lat="44.55204" lon="6.2783">
        <ele>896.40002441406</ele>
        <time>2021-06-10T07:12:56.000Z</time>
      </trkpt>
      <trkpt lat="44.55226" lon="6.27835">
        <ele>897.40002441406</ele>
        <time>2021-06-10T07:13:03.000Z</time>
      </trkpt>
      <trkpt lat="44.55229" lon="6.27836">
        <ele>897.59997558594</ele>
        <time>2021-06-10T07:13:04.000Z</time>
      </trkpt>
      <trkpt lat="44.55244" lon="6.27842">
        <ele>898.59997558594</ele>
        <time>2021-06-10T07:13:09.000Z</time>
      </trkpt>
      <trkpt lat="44.55258" lon="6.2785">
        <ele>899.40002441406</ele>
        <time>2021-06-10T07:13:14.000Z</time>
      </trkpt>
      <trkpt lat="44.55261" lon="6.27852">
        <ele>899.79998779297</ele>
        <time>2021-06-10T07:13:15.000Z</time>
      </trkpt>
      <trkpt lat="44.55276" lon="6.27857">
        <ele>901</ele>
        <time>2021-06-10T07:13:20.000Z</time>
      </trkpt>
      <trkpt lat="44.55288" lon="6.2786">
        <ele>902</ele>
        <time>2021-06-10T07:13:24.000Z</time>
      </trkpt>
      <trkpt lat="44.55291" lon="6.27861">
        <ele>902.40002441406</ele>
        <time>2021-06-10T07:13:25.000Z</time>
      </trkpt>
      <trkpt lat="44.55306" lon="6.27864">
        <ele>903.40002441406</ele>
        <time>2021-06-10T07:13:30.000Z</time>
      </trkpt>
      <trkpt lat="44.5532" lon="6.27867">
        <ele>904.40002441406</ele>
        <time>2021-06-10T07:13:35.000Z</time>
      </trkpt>
      <trkpt lat="44.55323" lon="6.27868">
        <ele>904.79998779297</ele>
        <time>2021-06-10T07:13:36.000Z</time>
      </trkpt>
      <trkpt lat="44.55335" lon="6.27871">
        <ele>905.59997558594</ele>
        <time>2021-06-10T07:13:40.000Z</time>
      </trkpt>
      <trkpt lat="44.55346" lon="6.27874">
        <ele>907</ele>
        <time>2021-06-10T07:13:44.000Z</time>
      </trkpt>
      <trkpt lat="44.55351" lon="6.27876">
        <ele>907.40002441406</ele>
        <time>2021-06-10T07:13:46.000Z</time>
      </trkpt>
      <trkpt lat="44.55359" lon="6.27877">
        <ele>908</ele>
        <time>2021-06-10T07:13:49.000Z</time>
      </trkpt>
      <trkpt lat="44.55372" lon="6.27882">
        <ele>909.20001220703</ele>
        <time>2021-06-10T07:13:54.000Z</time>
      </trkpt>
      <trkpt lat="44.55384" lon="6.27892">
        <ele>910.20001220703</ele>
        <time>2021-06-10T07:13:59.000Z</time>
      </trkpt>
      <trkpt lat="44.55386" lon="6.27895">
        <ele>910.40002441406</ele>
        <time>2021-06-10T07:14:00.000Z</time>
      </trkpt>
      <trkpt lat="44.55392" lon="6.27903">
        <ele>911.20001220703</ele>
        <time>2021-06-10T07:14:03.000Z</time>
      </trkpt>
      <trkpt lat="44.55403" lon="6.27917">
        <ele>912.40002441406</ele>
        <time>2021-06-10T07:14:08.000Z</time>
      </trkpt>
      <trkpt lat="44.55413" lon="6.2793">
        <ele>913.79998779297</ele>
        <time>2021-06-10T07:14:13.000Z</time>
      </trkpt>
      <trkpt lat="44.5542" lon="6.27938">
        <ele>914.59997558594</ele>
        <time>2021-06-10T07:14:16.000Z</time>
      </trkpt>
      <trkpt lat="44.55422" lon="6.2794">
        <ele>914.79998779297</ele>
        <time>2021-06-10T07:14:17.000Z</time>
      </trkpt>
      <trkpt lat="44.55436" lon="6.27956">
        <ele>916</ele>
        <time>2021-06-10T07:14:23.000Z</time>
      </trkpt>
      <trkpt lat="44.5544" lon="6.27961">
        <ele>916.59997558594</ele>
        <time>2021-06-10T07:14:25.000Z</time>
      </trkpt>
      <trkpt lat="44.55446" lon="6.27969">
        <ele>917.20001220703</ele>
        <time>2021-06-10T07:14:28.000Z</time>
      </trkpt>
      <trkpt lat="44.55457" lon="6.27981">
        <ele>918.20001220703</ele>
        <time>2021-06-10T07:14:33.000Z</time>
      </trkpt>
      <trkpt lat="44.55459" lon="6.27983">
        <ele>918.59997558594</ele>
        <time>2021-06-10T07:14:34.000Z</time>
      </trkpt>
      <trkpt lat="44.55467" lon="6.27992">
        <ele>919.40002441406</ele>
        <time>2021-06-10T07:14:38.000Z</time>
      </trkpt>
      <trkpt lat="44.55472" lon="6.27996">
        <ele>920</ele>
        <time>2021-06-10T07:14:40.000Z</time>
      </trkpt>
      <trkpt lat="44.55476" lon="6.28001">
        <ele>920.59997558594</ele>
        <time>2021-06-10T07:14:42.000Z</time>
      </trkpt>
      <trkpt lat="44.55486" lon="6.2801">
        <ele>921.79998779297</ele>
        <time>2021-06-10T07:14:46.000Z</time>
      </trkpt>
      <trkpt lat="44.55491" lon="6.28013">
        <ele>922.40002441406</ele>
        <time>2021-06-10T07:14:48.000Z</time>
      </trkpt>
      <trkpt lat="44.55496" lon="6.28015">
        <ele>922.79998779297</ele>
        <time>2021-06-10T07:14:50.000Z</time>
      </trkpt>
      <trkpt lat="44.55511" lon="6.28017">
        <ele>924</ele>
        <time>2021-06-10T07:14:55.000Z</time>
      </trkpt>
      <trkpt lat="44.55513" lon="6.28017">
        <ele>924</ele>
        <time>2021-06-10T07:14:56.000Z</time>
      </trkpt>
      <trkpt lat="44.55524" lon="6.28014">
        <ele>925</ele>
        <time>2021-06-10T07:15:00.000Z</time>
      </trkpt>
      <trkpt lat="44.55532" lon="6.28009">
        <ele>925.59997558594</ele>
        <time>2021-06-10T07:15:03.000Z</time>
      </trkpt>
      <trkpt lat="44.55536" lon="6.28005">
        <ele>926</ele>
        <time>2021-06-10T07:15:05.000Z</time>
      </trkpt>
      <trkpt lat="44.55546" lon="6.27991">
        <ele>927</ele>
        <time>2021-06-10T07:15:10.000Z</time>
      </trkpt>
      <trkpt lat="44.55552" lon="6.27978">
        <ele>928.20001220703</ele>
        <time>2021-06-10T07:15:14.000Z</time>
      </trkpt>
      <trkpt lat="44.55558" lon="6.27961">
        <ele>929.40002441406</ele>
        <time>2021-06-10T07:15:19.000Z</time>
      </trkpt>
      <trkpt lat="44.55561" lon="6.27954">
        <ele>929.79998779297</ele>
        <time>2021-06-10T07:15:21.000Z</time>
      </trkpt>
      <trkpt lat="44.55565" lon="6.27943">
        <ele>930.40002441406</ele>
        <time>2021-06-10T07:15:24.000Z</time>
      </trkpt>
      <trkpt lat="44.55572" lon="6.27927">
        <ele>931.40002441406</ele>
        <time>2021-06-10T07:15:29.000Z</time>
      </trkpt>
      <trkpt lat="44.55574" lon="6.2792">
        <ele>931.79998779297</ele>
        <time>2021-06-10T07:15:31.000Z</time>
      </trkpt>
      <trkpt lat="44.5558" lon="6.27907">
        <ele>932.59997558594</ele>
        <time>2021-06-10T07:15:35.000Z</time>
      </trkpt>
      <trkpt lat="44.55587" lon="6.27893">
        <ele>933.79998779297</ele>
        <time>2021-06-10T07:15:39.000Z</time>
      </trkpt>
      <trkpt lat="44.55591" lon="6.27882">
        <ele>934.79998779297</ele>
        <time>2021-06-10T07:15:42.000Z</time>
      </trkpt>
      <trkpt lat="44.55593" lon="6.27879">
        <ele>935</ele>
        <time>2021-06-10T07:15:43.000Z</time>
      </trkpt>
      <trkpt lat="44.556" lon="6.27865">
        <ele>936</ele>
        <time>2021-06-10T07:15:47.000Z</time>
      </trkpt>
      <trkpt lat="44.55606" lon="6.27852">
        <ele>936.79998779297</ele>
        <time>2021-06-10T07:15:51.000Z</time>
      </trkpt>
      <trkpt lat="44.55609" lon="6.27845">
        <ele>937</ele>
        <time>2021-06-10T07:15:53.000Z</time>
      </trkpt>
      <trkpt lat="44.55617" lon="6.27825">
        <ele>938.20001220703</ele>
        <time>2021-06-10T07:15:59.000Z</time>
      </trkpt>
      <trkpt lat="44.5562" lon="6.27818">
        <ele>938.79998779297</ele>
        <time>2021-06-10T07:16:01.000Z</time>
      </trkpt>
      <trkpt lat="44.55624" lon="6.27808">
        <ele>939.40002441406</ele>
        <time>2021-06-10T07:16:04.000Z</time>
      </trkpt>
      <trkpt lat="44.5563" lon="6.27791">
        <ele>940.59997558594</ele>
        <time>2021-06-10T07:16:09.000Z</time>
      </trkpt>
      <trkpt lat="44.55634" lon="6.2778">
        <ele>941.20001220703</ele>
        <time>2021-06-10T07:16:12.000Z</time>
      </trkpt>
      <trkpt lat="44.55636" lon="6.27773">
        <ele>941.59997558594</ele>
        <time>2021-06-10T07:16:14.000Z</time>
      </trkpt>
      <trkpt lat="44.55641" lon="6.27759">
        <ele>942.79998779297</ele>
        <time>2021-06-10T07:16:18.000Z</time>
      </trkpt>
      <trkpt lat="44.55646" lon="6.27745">
        <ele>943.79998779297</ele>
        <time>2021-06-10T07:16:22.000Z</time>
      </trkpt>
      <trkpt lat="44.55651" lon="6.27723">
        <ele>945</ele>
        <time>2021-06-10T07:16:28.000Z</time>
      </trkpt>
      <trkpt lat="44.55652" lon="6.27716">
        <ele>945.40002441406</ele>
        <time>2021-06-10T07:16:30.000Z</time>
      </trkpt>
      <trkpt lat="44.55652" lon="6.27708">
        <ele>946</ele>
        <time>2021-06-10T07:16:32.000Z</time>
      </trkpt>
      <trkpt lat="44.55649" lon="6.2769">
        <ele>947</ele>
        <time>2021-06-10T07:16:37.000Z</time>
      </trkpt>
      <trkpt lat="44.55645" lon="6.27675">
        <ele>948.20001220703</ele>
        <time>2021-06-10T07:16:41.000Z</time>
      </trkpt>
      <trkpt lat="44.55643" lon="6.27658">
        <ele>949.20001220703</ele>
        <time>2021-06-10T07:16:45.000Z</time>
      </trkpt>
      <trkpt lat="44.55643" lon="6.27655">
        <ele>949.59997558594</ele>
        <time>2021-06-10T07:16:46.000Z</time>
      </trkpt>
      <trkpt lat="44.55643" lon="6.27647">
        <ele>950.20001220703</ele>
        <time>2021-06-10T07:16:48.000Z</time>
      </trkpt>
      <trkpt lat="44.55646" lon="6.27628">
        <ele>951.20001220703</ele>
        <time>2021-06-10T07:16:53.000Z</time>
      </trkpt>
      <trkpt lat="44.55647" lon="6.27625">
        <ele>951.40002441406</ele>
        <time>2021-06-10T07:16:54.000Z</time>
      </trkpt>
      <trkpt lat="44.55649" lon="6.27611">
        <ele>952.40002441406</ele>
        <time>2021-06-10T07:16:58.000Z</time>
      </trkpt>
      <trkpt lat="44.5565" lon="6.27601">
        <ele>953</ele>
        <time>2021-06-10T07:17:01.000Z</time>
      </trkpt>
      <trkpt lat="44.55651" lon="6.27593">
        <ele>953.40002441406</ele>
        <time>2021-06-10T07:17:03.000Z</time>
      </trkpt>
      <trkpt lat="44.5565" lon="6.27573">
        <ele>954.59997558594</ele>
        <time>2021-06-10T07:17:08.000Z</time>
      </trkpt>
      <trkpt lat="44.55649" lon="6.27569">
        <ele>954.79998779297</ele>
        <time>2021-06-10T07:17:09.000Z</time>
      </trkpt>
      <trkpt lat="44.55649" lon="6.27549">
        <ele>955.79998779297</ele>
        <time>2021-06-10T07:17:14.000Z</time>
      </trkpt>
      <trkpt lat="44.55647" lon="6.27529">
        <ele>956.79998779297</ele>
        <time>2021-06-10T07:17:19.000Z</time>
      </trkpt>
      <trkpt lat="44.55646" lon="6.27506">
        <ele>957.79998779297</ele>
        <time>2021-06-10T07:17:25.000Z</time>
      </trkpt>
      <trkpt lat="44.55644" lon="6.27487">
        <ele>959.20001220703</ele>
        <time>2021-06-10T07:17:30.000Z</time>
      </trkpt>
      <trkpt lat="44.55643" lon="6.27473">
        <ele>960.20001220703</ele>
        <time>2021-06-10T07:17:34.000Z</time>
      </trkpt>
      <trkpt lat="44.55642" lon="6.27462">
        <ele>961.40002441406</ele>
        <time>2021-06-10T07:17:37.000Z</time>
      </trkpt>
      <trkpt lat="44.55642" lon="6.27454">
        <ele>961.79998779297</ele>
        <time>2021-06-10T07:17:39.000Z</time>
      </trkpt>
      <trkpt lat="44.55642" lon="6.27447">
        <ele>962.40002441406</ele>
        <time>2021-06-10T07:17:41.000Z</time>
      </trkpt>
      <trkpt lat="44.55642" lon="6.27431">
        <ele>963.59997558594</ele>
        <time>2021-06-10T07:17:45.000Z</time>
      </trkpt>
      <trkpt lat="44.55643" lon="6.2742">
        <ele>964.40002441406</ele>
        <time>2021-06-10T07:17:48.000Z</time>
      </trkpt>
      <trkpt lat="44.55643" lon="6.27417">
        <ele>964.59997558594</ele>
        <time>2021-06-10T07:17:49.000Z</time>
      </trkpt>
      <trkpt lat="44.55647" lon="6.27399">
        <ele>965.59997558594</ele>
        <time>2021-06-10T07:17:54.000Z</time>
      </trkpt>
      <trkpt lat="44.55648" lon="6.27396">
        <ele>965.79998779297</ele>
        <time>2021-06-10T07:17:55.000Z</time>
      </trkpt>
      <trkpt lat="44.55652" lon="6.27382">
        <ele>966.79998779297</ele>
        <time>2021-06-10T07:17:59.000Z</time>
      </trkpt>
      <trkpt lat="44.55657" lon="6.27365">
        <ele>967.59997558594</ele>
        <time>2021-06-10T07:18:04.000Z</time>
      </trkpt>
      <trkpt lat="44.55659" lon="6.27362">
        <ele>967.79998779297</ele>
        <time>2021-06-10T07:18:05.000Z</time>
      </trkpt>
      <trkpt lat="44.55665" lon="6.2735">
        <ele>969</ele>
        <time>2021-06-10T07:18:09.000Z</time>
      </trkpt>
      <trkpt lat="44.5567" lon="6.27341">
        <ele>969.59997558594</ele>
        <time>2021-06-10T07:18:12.000Z</time>
      </trkpt>
      <trkpt lat="44.55672" lon="6.27335">
        <ele>970</ele>
        <time>2021-06-10T07:18:14.000Z</time>
      </trkpt>
      <trkpt lat="44.55679" lon="6.27323">
        <ele>971</ele>
        <time>2021-06-10T07:18:18.000Z</time>
      </trkpt>
      <trkpt lat="44.55686" lon="6.27308">
        <ele>972</ele>
        <time>2021-06-10T07:18:23.000Z</time>
      </trkpt>
      <trkpt lat="44.55694" lon="6.2729">
        <ele>973.20001220703</ele>
        <time>2021-06-10T07:18:29.000Z</time>
      </trkpt>
      <trkpt lat="44.55699" lon="6.27278">
        <ele>974.20001220703</ele>
        <time>2021-06-10T07:18:33.000Z</time>
      </trkpt>
      <trkpt lat="44.557" lon="6.27275">
        <ele>974.40002441406</ele>
        <time>2021-06-10T07:18:34.000Z</time>
      </trkpt>
      <trkpt lat="44.55702" lon="6.27264">
        <ele>975.40002441406</ele>
        <time>2021-06-10T07:18:37.000Z</time>
      </trkpt>
      <trkpt lat="44.55707" lon="6.27247">
        <ele>976.40002441406</ele>
        <time>2021-06-10T07:18:42.000Z</time>
      </trkpt>
      <trkpt lat="44.55708" lon="6.27243">
        <ele>976.79998779297</ele>
        <time>2021-06-10T07:18:43.000Z</time>
      </trkpt>
      <trkpt lat="44.5571" lon="6.27225">
        <ele>977.79998779297</ele>
        <time>2021-06-10T07:18:48.000Z</time>
      </trkpt>
      <trkpt lat="44.5571" lon="6.27217">
        <ele>978.40002441406</ele>
        <time>2021-06-10T07:18:50.000Z</time>
      </trkpt>
      <trkpt lat="44.55712" lon="6.27205">
        <ele>979.20001220703</ele>
        <time>2021-06-10T07:18:53.000Z</time>
      </trkpt>
      <trkpt lat="44.55718" lon="6.27188">
        <ele>980.20001220703</ele>
        <time>2021-06-10T07:18:58.000Z</time>
      </trkpt>
      <trkpt lat="44.5572" lon="6.27185">
        <ele>980.40002441406</ele>
        <time>2021-06-10T07:18:59.000Z</time>
      </trkpt>
      <trkpt lat="44.5573" lon="6.27173">
        <ele>981.40002441406</ele>
        <time>2021-06-10T07:19:04.000Z</time>
      </trkpt>
      <trkpt lat="44.55734" lon="6.27168">
        <ele>981.79998779297</ele>
        <time>2021-06-10T07:19:06.000Z</time>
      </trkpt>
      <trkpt lat="44.5574" lon="6.27162">
        <ele>982.40002441406</ele>
        <time>2021-06-10T07:19:09.000Z</time>
      </trkpt>
      <trkpt lat="44.55749" lon="6.27154">
        <ele>983.59997558594</ele>
        <time>2021-06-10T07:19:13.000Z</time>
      </trkpt>
      <trkpt lat="44.55753" lon="6.2715">
        <ele>984.40002441406</ele>
        <time>2021-06-10T07:19:15.000Z</time>
      </trkpt>
      <trkpt lat="44.55756" lon="6.27148">
        <ele>984.59997558594</ele>
        <time>2021-06-10T07:19:16.000Z</time>
      </trkpt>
      <trkpt lat="44.55765" lon="6.27141">
        <ele>985.79998779297</ele>
        <time>2021-06-10T07:19:20.000Z</time>
      </trkpt>
      <trkpt lat="44.55774" lon="6.27133">
        <ele>986.59997558594</ele>
        <time>2021-06-10T07:19:24.000Z</time>
      </trkpt>
      <trkpt lat="44.55776" lon="6.27131">
        <ele>986.79998779297</ele>
        <time>2021-06-10T07:19:25.000Z</time>
      </trkpt>
      <trkpt lat="44.55789" lon="6.27121">
        <ele>988</ele>
        <time>2021-06-10T07:19:31.000Z</time>
      </trkpt>
      <trkpt lat="44.55793" lon="6.27117">
        <ele>988.79998779297</ele>
        <time>2021-06-10T07:19:33.000Z</time>
      </trkpt>
      <trkpt lat="44.55797" lon="6.27114">
        <ele>989.20001220703</ele>
        <time>2021-06-10T07:19:35.000Z</time>
      </trkpt>
      <trkpt lat="44.55808" lon="6.27103">
        <ele>990.40002441406</ele>
        <time>2021-06-10T07:19:40.000Z</time>
      </trkpt>
      <trkpt lat="44.55812" lon="6.27099">
        <ele>990.79998779297</ele>
        <time>2021-06-10T07:19:42.000Z</time>
      </trkpt>
      <trkpt lat="44.55817" lon="6.27095">
        <ele>991.59997558594</ele>
        <time>2021-06-10T07:19:44.000Z</time>
      </trkpt>
      <trkpt lat="44.55825" lon="6.27086">
        <ele>992.59997558594</ele>
        <time>2021-06-10T07:19:48.000Z</time>
      </trkpt>
      <trkpt lat="44.55829" lon="6.27081">
        <ele>993.20001220703</ele>
        <time>2021-06-10T07:19:50.000Z</time>
      </trkpt>
      <trkpt lat="44.55835" lon="6.27075">
        <ele>993.79998779297</ele>
        <time>2021-06-10T07:19:53.000Z</time>
      </trkpt>
      <trkpt lat="44.55841" lon="6.27069">
        <ele>995</ele>
        <time>2021-06-10T07:19:56.000Z</time>
      </trkpt>
      <trkpt lat="44.5585" lon="6.2706">
        <ele>996</ele>
        <time>2021-06-10T07:20:00.000Z</time>
      </trkpt>
      <trkpt lat="44.55852" lon="6.27057">
        <ele>996.20001220703</ele>
        <time>2021-06-10T07:20:01.000Z</time>
      </trkpt>
      <trkpt lat="44.5586" lon="6.27048">
        <ele>997.40002441406</ele>
        <time>2021-06-10T07:20:05.000Z</time>
      </trkpt>
      <trkpt lat="44.5587" lon="6.27038">
        <ele>998.59997558594</ele>
        <time>2021-06-10T07:20:10.000Z</time>
      </trkpt>
      <trkpt lat="44.55872" lon="6.27035">
        <ele>998.79998779297</ele>
        <time>2021-06-10T07:20:11.000Z</time>
      </trkpt>
      <trkpt lat="44.55879" lon="6.27028">
        <ele>999.79998779297</ele>
        <time>2021-06-10T07:20:15.000Z</time>
      </trkpt>
      <trkpt lat="44.55888" lon="6.2702">
        <ele>1000.5999755859</ele>
        <time>2021-06-10T07:20:19.000Z</time>
      </trkpt>
      <trkpt lat="44.5589" lon="6.27019">
        <ele>1001</ele>
        <time>2021-06-10T07:20:20.000Z</time>
      </trkpt>
      <trkpt lat="44.55901" lon="6.2701">
        <ele>1002</ele>
        <time>2021-06-10T07:20:25.000Z</time>
      </trkpt>
      <trkpt lat="44.5591" lon="6.27005">
        <ele>1003.4000244141</ele>
        <time>2021-06-10T07:20:29.000Z</time>
      </trkpt>
      <trkpt lat="44.55912" lon="6.27003">
        <ele>1003.799987793</ele>
        <time>2021-06-10T07:20:30.000Z</time>
      </trkpt>
      <trkpt lat="44.55917" lon="6.27001">
        <ele>1004.5999755859</ele>
        <time>2021-06-10T07:20:32.000Z</time>
      </trkpt>
      <trkpt lat="44.55929" lon="6.26994">
        <ele>1005.799987793</ele>
        <time>2021-06-10T07:20:37.000Z</time>
      </trkpt>
      <trkpt lat="44.55937" lon="6.2699">
        <ele>1006.5999755859</ele>
        <time>2021-06-10T07:20:40.000Z</time>
      </trkpt>
      <trkpt lat="44.55939" lon="6.26989">
        <ele>1006.799987793</ele>
        <time>2021-06-10T07:20:41.000Z</time>
      </trkpt>
      <trkpt lat="44.55951" lon="6.26986">
        <ele>1007.799987793</ele>
        <time>2021-06-10T07:20:46.000Z</time>
      </trkpt>
      <trkpt lat="44.55953" lon="6.26987">
        <ele>1008</ele>
        <time>2021-06-10T07:20:47.000Z</time>
      </trkpt>
      <trkpt lat="44.55961" lon="6.26999">
        <ele>1009</ele>
        <time>2021-06-10T07:20:52.000Z</time>
      </trkpt>
      <trkpt lat="44.55961" lon="6.27003">
        <ele>1009.200012207</ele>
        <time>2021-06-10T07:20:53.000Z</time>
      </trkpt>
      <trkpt lat="44.55959" lon="6.27013">
        <ele>1010</ele>
        <time>2021-06-10T07:20:56.000Z</time>
      </trkpt>
      <trkpt lat="44.55958" lon="6.27016">
        <ele>1010.200012207</ele>
        <time>2021-06-10T07:20:57.000Z</time>
      </trkpt>
      <trkpt lat="44.55953" lon="6.27029">
        <ele>1011.5999755859</ele>
        <time>2021-06-10T07:21:01.000Z</time>
      </trkpt>
      <trkpt lat="44.55951" lon="6.27042">
        <ele>1012.5999755859</ele>
        <time>2021-06-10T07:21:05.000Z</time>
      </trkpt>
      <trkpt lat="44.5595" lon="6.27055">
        <ele>1013.799987793</ele>
        <time>2021-06-10T07:21:09.000Z</time>
      </trkpt>
      <trkpt lat="44.55952" lon="6.27068">
        <ele>1015</ele>
        <time>2021-06-10T07:21:13.000Z</time>
      </trkpt>
      <trkpt lat="44.55953" lon="6.27071">
        <ele>1015.200012207</ele>
        <time>2021-06-10T07:21:14.000Z</time>
      </trkpt>
      <trkpt lat="44.55957" lon="6.27079">
        <ele>1016</ele>
        <time>2021-06-10T07:21:17.000Z</time>
      </trkpt>
      <trkpt lat="44.55962" lon="6.2709">
        <ele>1017.200012207</ele>
        <time>2021-06-10T07:21:21.000Z</time>
      </trkpt>
      <trkpt lat="44.55966" lon="6.27099">
        <ele>1018</ele>
        <time>2021-06-10T07:21:24.000Z</time>
      </trkpt>
      <trkpt lat="44.55967" lon="6.27101">
        <ele>1018.200012207</ele>
        <time>2021-06-10T07:21:25.000Z</time>
      </trkpt>
      <trkpt lat="44.55972" lon="6.27112">
        <ele>1019.4000244141</ele>
        <time>2021-06-10T07:21:29.000Z</time>
      </trkpt>
      <trkpt lat="44.55975" lon="6.27118">
        <ele>1020.200012207</ele>
        <time>2021-06-10T07:21:31.000Z</time>
      </trkpt>
      <trkpt lat="44.55976" lon="6.27121">
        <ele>1020.5999755859</ele>
        <time>2021-06-10T07:21:32.000Z</time>
      </trkpt>
      <trkpt lat="44.55983" lon="6.27134">
        <ele>1021.5999755859</ele>
        <time>2021-06-10T07:21:37.000Z</time>
      </trkpt>
      <trkpt lat="44.55985" lon="6.2714">
        <ele>1022</ele>
        <time>2021-06-10T07:21:39.000Z</time>
      </trkpt>
      <trkpt lat="44.55989" lon="6.27149">
        <ele>1022.799987793</ele>
        <time>2021-06-10T07:21:42.000Z</time>
      </trkpt>
      <trkpt lat="44.55994" lon="6.27164">
        <ele>1024</ele>
        <time>2021-06-10T07:21:47.000Z</time>
      </trkpt>
      <trkpt lat="44.55998" lon="6.27176">
        <ele>1025</ele>
        <time>2021-06-10T07:21:51.000Z</time>
      </trkpt>
      <trkpt lat="44.56003" lon="6.27192">
        <ele>1026.1999511719</ele>
        <time>2021-06-10T07:21:56.000Z</time>
      </trkpt>
      <trkpt lat="44.56008" lon="6.27208">
        <ele>1027.1999511719</ele>
        <time>2021-06-10T07:22:01.000Z</time>
      </trkpt>
      <trkpt lat="44.56009" lon="6.27217">
        <ele>1027.5999755859</ele>
        <time>2021-06-10T07:22:04.000Z</time>
      </trkpt>
      <trkpt lat="44.56008" lon="6.27234">
        <ele>1028.4000244141</ele>
        <time>2021-06-10T07:22:09.000Z</time>
      </trkpt>
      <trkpt lat="44.56006" lon="6.2724">
        <ele>1028.8000488281</ele>
        <time>2021-06-10T07:22:11.000Z</time>
      </trkpt>
      <trkpt lat="44.56005" lon="6.27246">
        <ele>1029.4000244141</ele>
        <time>2021-06-10T07:22:13.000Z</time>
      </trkpt>
      <trkpt lat="44.56002" lon="6.27262">
        <ele>1030.4000244141</ele>
        <time>2021-06-10T07:22:18.000Z</time>
      </trkpt>
      <trkpt lat="44.56" lon="6.27268">
        <ele>1030.8000488281</ele>
        <time>2021-06-10T07:22:20.000Z</time>
      </trkpt>
      <trkpt lat="44.55998" lon="6.27277">
        <ele>1031.4000244141</ele>
        <time>2021-06-10T07:22:23.000Z</time>
      </trkpt>
      <trkpt lat="44.55996" lon="6.27289">
        <ele>1032.5999755859</ele>
        <time>2021-06-10T07:22:27.000Z</time>
      </trkpt>
      <trkpt lat="44.55994" lon="6.27298">
        <ele>1033.4000244141</ele>
        <time>2021-06-10T07:22:30.000Z</time>
      </trkpt>
      <trkpt lat="44.55993" lon="6.27301">
        <ele>1033.8000488281</ele>
        <time>2021-06-10T07:22:31.000Z</time>
      </trkpt>
      <trkpt lat="44.55992" lon="6.27317">
        <ele>1035</ele>
        <time>2021-06-10T07:22:36.000Z</time>
      </trkpt>
      <trkpt lat="44.55989" lon="6.27329">
        <ele>1036</ele>
        <time>2021-06-10T07:22:40.000Z</time>
      </trkpt>
      <trkpt lat="44.55987" lon="6.27342">
        <ele>1037.1999511719</ele>
        <time>2021-06-10T07:22:44.000Z</time>
      </trkpt>
      <trkpt lat="44.55984" lon="6.27354">
        <ele>1038.1999511719</ele>
        <time>2021-06-10T07:22:48.000Z</time>
      </trkpt>
      <trkpt lat="44.55981" lon="6.27369">
        <ele>1039.1999511719</ele>
        <time>2021-06-10T07:22:53.000Z</time>
      </trkpt>
      <trkpt lat="44.55977" lon="6.2738">
        <ele>1040.4000244141</ele>
        <time>2021-06-10T07:22:57.000Z</time>
      </trkpt>
      <trkpt lat="44.55975" lon="6.27389">
        <ele>1041.1999511719</ele>
        <time>2021-06-10T07:23:00.000Z</time>
      </trkpt>
      <trkpt lat="44.55973" lon="6.27394">
        <ele>1041.5999755859</ele>
        <time>2021-06-10T07:23:02.000Z</time>
      </trkpt>
      <trkpt lat="44.55971" lon="6.27409">
        <ele>1043</ele>
        <time>2021-06-10T07:23:07.000Z</time>
      </trkpt>
      <trkpt lat="44.55971" lon="6.27416">
        <ele>1043.5999755859</ele>
        <time>2021-06-10T07:23:09.000Z</time>
      </trkpt>
      <trkpt lat="44.55971" lon="6.27419">
        <ele>1044</ele>
        <time>2021-06-10T07:23:10.000Z</time>
      </trkpt>
      <trkpt lat="44.55972" lon="6.27429">
        <ele>1045</ele>
        <time>2021-06-10T07:23:13.000Z</time>
      </trkpt>
      <trkpt lat="44.55975" lon="6.27444">
        <ele>1046.1999511719</ele>
        <time>2021-06-10T07:23:17.000Z</time>
      </trkpt>
      <trkpt lat="44.55976" lon="6.27447">
        <ele>1046.4000244141</ele>
        <time>2021-06-10T07:23:18.000Z</time>
      </trkpt>
      <trkpt lat="44.55982" lon="6.27472">
        <ele>1047.1999511719</ele>
        <time>2021-06-10T07:23:26.000Z</time>
      </trkpt>
      <trkpt lat="44.55983" lon="6.27475">
        <ele>1047.4000244141</ele>
        <time>2021-06-10T07:23:27.000Z</time>
      </trkpt>
      <trkpt lat="44.55986" lon="6.27487">
        <ele>1048.4000244141</ele>
        <time>2021-06-10T07:23:31.000Z</time>
      </trkpt>
      <trkpt lat="44.55988" lon="6.27497">
        <ele>1049</ele>
        <time>2021-06-10T07:23:34.000Z</time>
      </trkpt>
      <trkpt lat="44.5599" lon="6.27507">
        <ele>1049.5999755859</ele>
        <time>2021-06-10T07:23:37.000Z</time>
      </trkpt>
      <trkpt lat="44.55992" lon="6.27526">
        <ele>1050.8000488281</ele>
        <time>2021-06-10T07:23:43.000Z</time>
      </trkpt>
      <trkpt lat="44.55993" lon="6.27532">
        <ele>1051.1999511719</ele>
        <time>2021-06-10T07:23:45.000Z</time>
      </trkpt>
      <trkpt lat="44.55994" lon="6.27542">
        <ele>1051.8000488281</ele>
        <time>2021-06-10T07:23:48.000Z</time>
      </trkpt>
      <trkpt lat="44.55997" lon="6.27558">
        <ele>1052.8000488281</ele>
        <time>2021-06-10T07:23:53.000Z</time>
      </trkpt>
      <trkpt lat="44.55999" lon="6.27567">
        <ele>1054</ele>
        <time>2021-06-10T07:23:56.000Z</time>
      </trkpt>
      <trkpt lat="44.56001" lon="6.27577">
        <ele>1054.4000244141</ele>
        <time>2021-06-10T07:23:59.000Z</time>
      </trkpt>
      <trkpt lat="44.56002" lon="6.27586">
        <ele>1055</ele>
        <time>2021-06-10T07:24:02.000Z</time>
      </trkpt>
      <trkpt lat="44.56004" lon="6.27598">
        <ele>1055.5999755859</ele>
        <time>2021-06-10T07:24:06.000Z</time>
      </trkpt>
      <trkpt lat="44.56004" lon="6.27605">
        <ele>1056.1999511719</ele>
        <time>2021-06-10T07:24:08.000Z</time>
      </trkpt>
      <trkpt lat="44.56006" lon="6.27618">
        <ele>1057.1999511719</ele>
        <time>2021-06-10T07:24:12.000Z</time>
      </trkpt>
      <trkpt lat="44.56006" lon="6.27628">
        <ele>1058</ele>
        <time>2021-06-10T07:24:15.000Z</time>
      </trkpt>
      <trkpt lat="44.56006" lon="6.27631">
        <ele>1058.1999511719</ele>
        <time>2021-06-10T07:24:16.000Z</time>
      </trkpt>
      <trkpt lat="44.56009" lon="6.27647">
        <ele>1059.4000244141</ele>
        <time>2021-06-10T07:24:21.000Z</time>
      </trkpt>
      <trkpt lat="44.5601" lon="6.27656">
        <ele>1060.1999511719</ele>
        <time>2021-06-10T07:24:24.000Z</time>
      </trkpt>
      <trkpt lat="44.56011" lon="6.27659">
        <ele>1060.5999755859</ele>
        <time>2021-06-10T07:24:25.000Z</time>
      </trkpt>
      <trkpt lat="44.56016" lon="6.27674">
        <ele>1061.8000488281</ele>
        <time>2021-06-10T07:24:30.000Z</time>
      </trkpt>
      <trkpt lat="44.56018" lon="6.27677">
        <ele>1062</ele>
        <time>2021-06-10T07:24:31.000Z</time>
      </trkpt>
      <trkpt lat="44.56024" lon="6.27687">
        <ele>1063</ele>
        <time>2021-06-10T07:24:35.000Z</time>
      </trkpt>
      <trkpt lat="44.56032" lon="6.27699">
        <ele>1064.1999511719</ele>
        <time>2021-06-10T07:24:40.000Z</time>
      </trkpt>
      <trkpt lat="44.56041" lon="6.27713">
        <ele>1065.1999511719</ele>
        <time>2021-06-10T07:24:46.000Z</time>
      </trkpt>
      <trkpt lat="44.56042" lon="6.27715">
        <ele>1065.4000244141</ele>
        <time>2021-06-10T07:24:47.000Z</time>
      </trkpt>
      <trkpt lat="44.56052" lon="6.27729">
        <ele>1066.1999511719</ele>
        <time>2021-06-10T07:24:53.000Z</time>
      </trkpt>
      <trkpt lat="44.56058" lon="6.27735">
        <ele>1067</ele>
        <time>2021-06-10T07:24:56.000Z</time>
      </trkpt>
      <trkpt lat="44.56062" lon="6.27739">
        <ele>1067.4000244141</ele>
        <time>2021-06-10T07:24:58.000Z</time>
      </trkpt>
      <trkpt lat="44.56073" lon="6.27745">
        <ele>1068.4000244141</ele>
        <time>2021-06-10T07:25:03.000Z</time>
      </trkpt>
      <trkpt lat="44.56084" lon="6.2775">
        <ele>1069.4000244141</ele>
        <time>2021-06-10T07:25:08.000Z</time>
      </trkpt>
      <trkpt lat="44.56095" lon="6.27756">
        <ele>1070.5999755859</ele>
        <time>2021-06-10T07:25:13.000Z</time>
      </trkpt>
      <trkpt lat="44.56106" lon="6.27762">
        <ele>1071.8000488281</ele>
        <time>2021-06-10T07:25:18.000Z</time>
      </trkpt>
      <trkpt lat="44.56114" lon="6.27767">
        <ele>1072.8000488281</ele>
        <time>2021-06-10T07:25:22.000Z</time>
      </trkpt>
      <trkpt lat="44.56116" lon="6.27768">
        <ele>1073.1999511719</ele>
        <time>2021-06-10T07:25:23.000Z</time>
      </trkpt>
      <trkpt lat="44.56131" lon="6.27776">
        <ele>1074.4000244141</ele>
        <time>2021-06-10T07:25:30.000Z</time>
      </trkpt>
      <trkpt lat="44.56136" lon="6.27778">
        <ele>1074.5999755859</ele>
        <time>2021-06-10T07:25:32.000Z</time>
      </trkpt>
      <trkpt lat="44.56145" lon="6.27783">
        <ele>1075.4000244141</ele>
        <time>2021-06-10T07:25:36.000Z</time>
      </trkpt>
      <trkpt lat="44.5616" lon="6.2779">
        <ele>1076.4000244141</ele>
        <time>2021-06-10T07:25:43.000Z</time>
      </trkpt>
      <trkpt lat="44.56173" lon="6.27796">
        <ele>1077.5999755859</ele>
        <time>2021-06-10T07:25:49.000Z</time>
      </trkpt>
      <trkpt lat="44.56179" lon="6.278">
        <ele>1078.5999755859</ele>
        <time>2021-06-10T07:25:52.000Z</time>
      </trkpt>
      <trkpt lat="44.56184" lon="6.27802">
        <ele>1079.1999511719</ele>
        <time>2021-06-10T07:25:54.000Z</time>
      </trkpt>
      <trkpt lat="44.56186" lon="6.27804">
        <ele>1079.5999755859</ele>
        <time>2021-06-10T07:25:55.000Z</time>
      </trkpt>
      <trkpt lat="44.56196" lon="6.27813">
        <ele>1080.5999755859</ele>
        <time>2021-06-10T07:26:00.000Z</time>
      </trkpt>
      <trkpt lat="44.56199" lon="6.27816">
        <ele>1081</ele>
        <time>2021-06-10T07:26:02.000Z</time>
      </trkpt>
      <trkpt lat="44.56207" lon="6.27821">
        <ele>1081.8000488281</ele>
        <time>2021-06-10T07:26:06.000Z</time>
      </trkpt>
      <trkpt lat="44.56212" lon="6.27821">
        <ele>1082.4000244141</ele>
        <time>2021-06-10T07:26:08.000Z</time>
      </trkpt>
      <trkpt lat="44.56218" lon="6.27821">
        <ele>1083</ele>
        <time>2021-06-10T07:26:11.000Z</time>
      </trkpt>
      <trkpt lat="44.56226" lon="6.2782">
        <ele>1083.5999755859</ele>
        <time>2021-06-10T07:26:15.000Z</time>
      </trkpt>
      <trkpt lat="44.56229" lon="6.27819">
        <ele>1084.1999511719</ele>
        <time>2021-06-10T07:26:17.000Z</time>
      </trkpt>
      <trkpt lat="44.56237" lon="6.27817">
        <ele>1085.5999755859</ele>
        <time>2021-06-10T07:26:22.000Z</time>
      </trkpt>
      <trkpt lat="44.56243" lon="6.27815">
        <ele>1086.5999755859</ele>
        <time>2021-06-10T07:26:25.000Z</time>
      </trkpt>
      <trkpt lat="44.56248" lon="6.27812">
        <ele>1087.8000488281</ele>
        <time>2021-06-10T07:26:28.000Z</time>
      </trkpt>
      <trkpt lat="44.56251" lon="6.27811">
        <ele>1088.1999511719</ele>
        <time>2021-06-10T07:26:30.000Z</time>
      </trkpt>
      <trkpt lat="44.56255" lon="6.2781">
        <ele>1089</ele>
        <time>2021-06-10T07:26:32.000Z</time>
      </trkpt>
      <trkpt lat="44.5626" lon="6.27812">
        <ele>1090.1999511719</ele>
        <time>2021-06-10T07:26:35.000Z</time>
      </trkpt>
      <trkpt lat="44.56263" lon="6.27814">
        <ele>1091</ele>
        <time>2021-06-10T07:26:37.000Z</time>
      </trkpt>
      <trkpt lat="44.56264" lon="6.27816">
        <ele>1091.4000244141</ele>
        <time>2021-06-10T07:26:38.000Z</time>
      </trkpt>
      <trkpt lat="44.56269" lon="6.27821">
        <ele>1092.5999755859</ele>
        <time>2021-06-10T07:26:41.000Z</time>
      </trkpt>
      <trkpt lat="44.56274" lon="6.27826">
        <ele>1093.8000488281</ele>
        <time>2021-06-10T07:26:44.000Z</time>
      </trkpt>
      <trkpt lat="44.56276" lon="6.27828">
        <ele>1094.1999511719</ele>
        <time>2021-06-10T07:26:45.000Z</time>
      </trkpt>
      <trkpt lat="44.56279" lon="6.27831">
        <ele>1095</ele>
        <time>2021-06-10T07:26:47.000Z</time>
      </trkpt>
      <trkpt lat="44.56283" lon="6.27837">
        <ele>1096.1999511719</ele>
        <time>2021-06-10T07:26:50.000Z</time>
      </trkpt>
      <trkpt lat="44.56286" lon="6.2784">
        <ele>1097.4000244141</ele>
        <time>2021-06-10T07:26:52.000Z</time>
      </trkpt>
      <trkpt lat="44.56287" lon="6.27841">
        <ele>1097.8000488281</ele>
        <time>2021-06-10T07:26:53.000Z</time>
      </trkpt>
      <trkpt lat="44.5629" lon="6.27844">
        <ele>1098.5999755859</ele>
        <time>2021-06-10T07:26:56.000Z</time>
      </trkpt>
      <trkpt lat="44.56295" lon="6.27851">
        <ele>1099.8000488281</ele>
        <time>2021-06-10T07:27:00.000Z</time>
      </trkpt>
      <trkpt lat="44.56301" lon="6.27862">
        <ele>1101</ele>
        <time>2021-06-10T07:27:05.000Z</time>
      </trkpt>
      <trkpt lat="44.56305" lon="6.27868">
        <ele>1101.5999755859</ele>
        <time>2021-06-10T07:27:08.000Z</time>
      </trkpt>
      <trkpt lat="44.56307" lon="6.27873">
        <ele>1102</ele>
        <time>2021-06-10T07:27:10.000Z</time>
      </trkpt>
      <trkpt lat="44.56311" lon="6.27882">
        <ele>1103.1999511719</ele>
        <time>2021-06-10T07:27:14.000Z</time>
      </trkpt>
      <trkpt lat="44.56313" lon="6.27884">
        <ele>1103.4000244141</ele>
        <time>2021-06-10T07:27:15.000Z</time>
      </trkpt>
      <trkpt lat="44.56316" lon="6.27891">
        <ele>1104.1999511719</ele>
        <time>2021-06-10T07:27:18.000Z</time>
      </trkpt>
      <trkpt lat="44.56319" lon="6.27898">
        <ele>1105.4000244141</ele>
        <time>2021-06-10T07:27:21.000Z</time>
      </trkpt>
      <trkpt lat="44.56322" lon="6.27906">
        <ele>1106.4000244141</ele>
        <time>2021-06-10T07:27:24.000Z</time>
      </trkpt>
      <trkpt lat="44.56323" lon="6.27908">
        <ele>1106.5999755859</ele>
        <time>2021-06-10T07:27:25.000Z</time>
      </trkpt>
      <trkpt lat="44.56327" lon="6.27917">
        <ele>1107.8000488281</ele>
        <time>2021-06-10T07:27:29.000Z</time>
      </trkpt>
      <trkpt lat="44.56329" lon="6.27924">
        <ele>1108.5999755859</ele>
        <time>2021-06-10T07:27:32.000Z</time>
      </trkpt>
      <trkpt lat="44.5633" lon="6.27927">
        <ele>1108.8000488281</ele>
        <time>2021-06-10T07:27:33.000Z</time>
      </trkpt>
      <trkpt lat="44.5633" lon="6.27937">
        <ele>1110</ele>
        <time>2021-06-10T07:27:37.000Z</time>
      </trkpt>
      <trkpt lat="44.56329" lon="6.27941">
        <ele>1110.5999755859</ele>
        <time>2021-06-10T07:27:39.000Z</time>
      </trkpt>
      <trkpt lat="44.56328" lon="6.27946">
        <ele>1111.1999511719</ele>
        <time>2021-06-10T07:27:41.000Z</time>
      </trkpt>
      <trkpt lat="44.56326" lon="6.27955">
        <ele>1112.5999755859</ele>
        <time>2021-06-10T07:27:45.000Z</time>
      </trkpt>
      <trkpt lat="44.56326" lon="6.27958">
        <ele>1112.8000488281</ele>
        <time>2021-06-10T07:27:46.000Z</time>
      </trkpt>
      <trkpt lat="44.56327" lon="6.27965">
        <ele>1113.5999755859</ele>
        <time>2021-06-10T07:27:49.000Z</time>
      </trkpt>
      <trkpt lat="44.56329" lon="6.27973">
        <ele>1114.8000488281</ele>
        <time>2021-06-10T07:27:52.000Z</time>
      </trkpt>
      <trkpt lat="44.56332" lon="6.27979">
        <ele>1115.8000488281</ele>
        <time>2021-06-10T07:27:55.000Z</time>
      </trkpt>
      <trkpt lat="44.56334" lon="6.2798">
        <ele>1116</ele>
        <time>2021-06-10T07:27:56.000Z</time>
      </trkpt>
      <trkpt lat="44.56342" lon="6.27983">
        <ele>1117</ele>
        <time>2021-06-10T07:28:00.000Z</time>
      </trkpt>
      <trkpt lat="44.56352" lon="6.27983">
        <ele>1118.1999511719</ele>
        <time>2021-06-10T07:28:05.000Z</time>
      </trkpt>
      <trkpt lat="44.56356" lon="6.27983">
        <ele>1118.4000244141</ele>
        <time>2021-06-10T07:28:07.000Z</time>
      </trkpt>
      <trkpt lat="44.56367" lon="6.27982">
        <ele>1119</ele>
        <time>2021-06-10T07:28:13.000Z</time>
      </trkpt>
      <trkpt lat="44.56373" lon="6.27981">
        <ele>1119.1999511719</ele>
        <time>2021-06-10T07:28:16.000Z</time>
      </trkpt>
      <trkpt lat="44.56379" lon="6.27978">
        <ele>1119.5999755859</ele>
        <time>2021-06-10T07:28:19.000Z</time>
      </trkpt>
      <trkpt lat="44.56386" lon="6.27976">
        <ele>1120.1999511719</ele>
        <time>2021-06-10T07:28:23.000Z</time>
      </trkpt>
      <trkpt lat="44.56394" lon="6.27972">
        <ele>1121</ele>
        <time>2021-06-10T07:28:27.000Z</time>
      </trkpt>
      <trkpt lat="44.564" lon="6.27969">
        <ele>1121.4000244141</ele>
        <time>2021-06-10T07:28:29.000Z</time>
      </trkpt>
      <trkpt lat="44.56408" lon="6.27961">
        <ele>1122.5999755859</ele>
        <time>2021-06-10T07:28:33.000Z</time>
      </trkpt>
      <trkpt lat="44.5641" lon="6.2796">
        <ele>1122.8000488281</ele>
        <time>2021-06-10T07:28:34.000Z</time>
      </trkpt>
      <trkpt lat="44.56414" lon="6.27956">
        <ele>1123.5999755859</ele>
        <time>2021-06-10T07:28:36.000Z</time>
      </trkpt>
      <trkpt lat="44.56419" lon="6.2795">
        <ele>1124.5999755859</ele>
        <time>2021-06-10T07:28:39.000Z</time>
      </trkpt>
      <trkpt lat="44.56421" lon="6.27949">
        <ele>1125</ele>
        <time>2021-06-10T07:28:40.000Z</time>
      </trkpt>
      <trkpt lat="44.56425" lon="6.27945">
        <ele>1125.5999755859</ele>
        <time>2021-06-10T07:28:42.000Z</time>
      </trkpt>
      <trkpt lat="44.56433" lon="6.27937">
        <ele>1126.8000488281</ele>
        <time>2021-06-10T07:28:46.000Z</time>
      </trkpt>
      <trkpt lat="44.56437" lon="6.27933">
        <ele>1127.8000488281</ele>
        <time>2021-06-10T07:28:48.000Z</time>
      </trkpt>
      <trkpt lat="44.56441" lon="6.27927">
        <ele>1129.1999511719</ele>
        <time>2021-06-10T07:28:51.000Z</time>
      </trkpt>
      <trkpt lat="44.56446" lon="6.2792">
        <ele>1130.4000244141</ele>
        <time>2021-06-10T07:28:54.000Z</time>
      </trkpt>
      <trkpt lat="44.56447" lon="6.27918">
        <ele>1130.5999755859</ele>
        <time>2021-06-10T07:28:55.000Z</time>
      </trkpt>
      <trkpt lat="44.56451" lon="6.27914">
        <ele>1131.4000244141</ele>
        <time>2021-06-10T07:28:57.000Z</time>
      </trkpt>
      <trkpt lat="44.56457" lon="6.27906">
        <ele>1132.5999755859</ele>
        <time>2021-06-10T07:29:01.000Z</time>
      </trkpt>
      <trkpt lat="44.5646" lon="6.27902">
        <ele>1133</ele>
        <time>2021-06-10T07:29:03.000Z</time>
      </trkpt>
      <trkpt lat="44.56467" lon="6.27895">
        <ele>1133.8000488281</ele>
        <time>2021-06-10T07:29:07.000Z</time>
      </trkpt>
      <trkpt lat="44.56473" lon="6.27887">
        <ele>1134.4000244141</ele>
        <time>2021-06-10T07:29:11.000Z</time>
      </trkpt>
      <trkpt lat="44.56477" lon="6.27882">
        <ele>1135</ele>
        <time>2021-06-10T07:29:14.000Z</time>
      </trkpt>
      <trkpt lat="44.56482" lon="6.27874">
        <ele>1136</ele>
        <time>2021-06-10T07:29:18.000Z</time>
      </trkpt>
      <trkpt lat="44.56484" lon="6.27871">
        <ele>1136.4000244141</ele>
        <time>2021-06-10T07:29:20.000Z</time>
      </trkpt>
      <trkpt lat="44.5649" lon="6.27864">
        <ele>1137</ele>
        <time>2021-06-10T07:29:24.000Z</time>
      </trkpt>
      <trkpt lat="44.56494" lon="6.27857">
        <ele>1137.5999755859</ele>
        <time>2021-06-10T07:29:27.000Z</time>
      </trkpt>
      <trkpt lat="44.56496" lon="6.27852">
        <ele>1138.1999511719</ele>
        <time>2021-06-10T07:29:29.000Z</time>
      </trkpt>
      <trkpt lat="44.56504" lon="6.27844">
        <ele>1139.4000244141</ele>
        <time>2021-06-10T07:29:34.000Z</time>
      </trkpt>
      <trkpt lat="44.56511" lon="6.27837">
        <ele>1140.5999755859</ele>
        <time>2021-06-10T07:29:39.000Z</time>
      </trkpt>
      <trkpt lat="44.56514" lon="6.27836">
        <ele>1141.1999511719</ele>
        <time>2021-06-10T07:29:41.000Z</time>
      </trkpt>
      <trkpt lat="44.56516" lon="6.27834">
        <ele>1141.8000488281</ele>
        <time>2021-06-10T07:29:43.000Z</time>
      </trkpt>
      <trkpt lat="44.5652" lon="6.27832">
        <ele>1143</ele>
        <time>2021-06-10T07:29:46.000Z</time>
      </trkpt>
      <trkpt lat="44.56522" lon="6.27831">
        <ele>1144.1999511719</ele>
        <time>2021-06-10T07:29:48.000Z</time>
      </trkpt>
      <trkpt lat="44.56524" lon="6.27831">
        <ele>1144.5999755859</ele>
        <time>2021-06-10T07:29:49.000Z</time>
      </trkpt>
      <trkpt lat="44.56527" lon="6.27829">
        <ele>1145.1999511719</ele>
        <time>2021-06-10T07:29:52.000Z</time>
      </trkpt>
      <trkpt lat="44.56533" lon="6.27825">
        <ele>1146.4000244141</ele>
        <time>2021-06-10T07:29:56.000Z</time>
      </trkpt>
      <trkpt lat="44.56535" lon="6.27823">
        <ele>1147</ele>
        <time>2021-06-10T07:29:57.000Z</time>
      </trkpt>
      <trkpt lat="44.56536" lon="6.27821">
        <ele>1147.5999755859</ele>
        <time>2021-06-10T07:29:58.000Z</time>
      </trkpt>
      <trkpt lat="44.56541" lon="6.27818">
        <ele>1148.8000488281</ele>
        <time>2021-06-10T07:30:00.000Z</time>
      </trkpt>
      <trkpt lat="44.56545" lon="6.27815">
        <ele>1149.5999755859</ele>
        <time>2021-06-10T07:30:02.000Z</time>
      </trkpt>
      <trkpt lat="44.56548" lon="6.27813">
        <ele>1150</ele>
        <time>2021-06-10T07:30:03.000Z</time>
      </trkpt>
      <trkpt lat="44.56553" lon="6.27807">
        <ele>1151.1999511719</ele>
        <time>2021-06-10T07:30:06.000Z</time>
      </trkpt>
      <trkpt lat="44.56555" lon="6.27804">
        <ele>1152</ele>
        <time>2021-06-10T07:30:08.000Z</time>
      </trkpt>
      <trkpt lat="44.56556" lon="6.27803">
        <ele>1152.4000244141</ele>
        <time>2021-06-10T07:30:09.000Z</time>
      </trkpt>
      <trkpt lat="44.5656" lon="6.278">
        <ele>1153.5999755859</ele>
        <time>2021-06-10T07:30:12.000Z</time>
      </trkpt>
      <trkpt lat="44.56563" lon="6.27795">
        <ele>1154.1999511719</ele>
        <time>2021-06-10T07:30:15.000Z</time>
      </trkpt>
      <trkpt lat="44.56567" lon="6.27791">
        <ele>1154.5999755859</ele>
        <time>2021-06-10T07:30:18.000Z</time>
      </trkpt>
      <trkpt lat="44.56571" lon="6.27786">
        <ele>1155.5999755859</ele>
        <time>2021-06-10T07:30:22.000Z</time>
      </trkpt>
      <trkpt lat="44.56572" lon="6.27784">
        <ele>1156</ele>
        <time>2021-06-10T07:30:23.000Z</time>
      </trkpt>
      <trkpt lat="44.56577" lon="6.27777">
        <ele>1157.1999511719</ele>
        <time>2021-06-10T07:30:27.000Z</time>
      </trkpt>
      <trkpt lat="44.56581" lon="6.27771">
        <ele>1158.1999511719</ele>
        <time>2021-06-10T07:30:30.000Z</time>
      </trkpt>
      <trkpt lat="44.56582" lon="6.27768">
        <ele>1158.4000244141</ele>
        <time>2021-06-10T07:30:31.000Z</time>
      </trkpt>
      <trkpt lat="44.56586" lon="6.2776">
        <ele>1159.5999755859</ele>
        <time>2021-06-10T07:30:35.000Z</time>
      </trkpt>
      <trkpt lat="44.56588" lon="6.27755">
        <ele>1160.4000244141</ele>
        <time>2021-06-10T07:30:37.000Z</time>
      </trkpt>
      <trkpt lat="44.5659" lon="6.27751">
        <ele>1160.8000488281</ele>
        <time>2021-06-10T07:30:39.000Z</time>
      </trkpt>
      <trkpt lat="44.56595" lon="6.2774">
        <ele>1162</ele>
        <time>2021-06-10T07:30:44.000Z</time>
      </trkpt>
      <trkpt lat="44.56596" lon="6.27738">
        <ele>1162.4000244141</ele>
        <time>2021-06-10T07:30:45.000Z</time>
      </trkpt>
      <trkpt lat="44.56599" lon="6.27735">
        <ele>1163.4000244141</ele>
        <time>2021-06-10T07:30:47.000Z</time>
      </trkpt>
      <trkpt lat="44.56603" lon="6.27729">
        <ele>1164.5999755859</ele>
        <time>2021-06-10T07:30:50.000Z</time>
      </trkpt>
      <trkpt lat="44.56606" lon="6.27724">
        <ele>1165.1999511719</ele>
        <time>2021-06-10T07:30:52.000Z</time>
      </trkpt>
      <trkpt lat="44.56608" lon="6.2772">
        <ele>1165.5999755859</ele>
        <time>2021-06-10T07:30:54.000Z</time>
      </trkpt>
      <trkpt lat="44.56612" lon="6.27713">
        <ele>1166.4000244141</ele>
        <time>2021-06-10T07:30:58.000Z</time>
      </trkpt>
      <trkpt lat="44.56615" lon="6.27709">
        <ele>1166.5999755859</ele>
        <time>2021-06-10T07:31:00.000Z</time>
      </trkpt>
      <trkpt lat="44.56622" lon="6.27698">
        <ele>1168</ele>
        <time>2021-06-10T07:31:06.000Z</time>
      </trkpt>
      <trkpt lat="44.56626" lon="6.2769">
        <ele>1169</ele>
        <time>2021-06-10T07:31:10.000Z</time>
      </trkpt>
      <trkpt lat="44.5663" lon="6.27681">
        <ele>1170.1999511719</ele>
        <time>2021-06-10T07:31:14.000Z</time>
      </trkpt>
      <trkpt lat="44.56631" lon="6.27679">
        <ele>1170.5999755859</ele>
        <time>2021-06-10T07:31:15.000Z</time>
      </trkpt>
      <trkpt lat="44.56634" lon="6.27674">
        <ele>1171.4000244141</ele>
        <time>2021-06-10T07:31:18.000Z</time>
      </trkpt>
      <trkpt lat="44.56638" lon="6.27665">
        <ele>1172.5999755859</ele>
        <time>2021-06-10T07:31:22.000Z</time>
      </trkpt>
      <trkpt lat="44.56639" lon="6.27664">
        <ele>1172.8000488281</ele>
        <time>2021-06-10T07:31:23.000Z</time>
      </trkpt>
      <trkpt lat="44.56642" lon="6.27658">
        <ele>1173.8000488281</ele>
        <time>2021-06-10T07:31:26.000Z</time>
      </trkpt>
      <trkpt lat="44.56647" lon="6.27652">
        <ele>1174.8000488281</ele>
        <time>2021-06-10T07:31:30.000Z</time>
      </trkpt>
      <trkpt lat="44.56647" lon="6.2765">
        <ele>1175.1999511719</ele>
        <time>2021-06-10T07:31:31.000Z</time>
      </trkpt>
      <trkpt lat="44.56651" lon="6.27646">
        <ele>1176</ele>
        <time>2021-06-10T07:31:34.000Z</time>
      </trkpt>
      <trkpt lat="44.56654" lon="6.27641">
        <ele>1176.8000488281</ele>
        <time>2021-06-10T07:31:37.000Z</time>
      </trkpt>
      <trkpt lat="44.56656" lon="6.27639">
        <ele>1177.5999755859</ele>
        <time>2021-06-10T07:31:39.000Z</time>
      </trkpt>
      <trkpt lat="44.56659" lon="6.27635">
        <ele>1178</ele>
        <time>2021-06-10T07:31:41.000Z</time>
      </trkpt>
      <trkpt lat="44.56662" lon="6.2763">
        <ele>1179.1999511719</ele>
        <time>2021-06-10T07:31:44.000Z</time>
      </trkpt>
      <trkpt lat="44.56667" lon="6.27623">
        <ele>1180.1999511719</ele>
        <time>2021-06-10T07:31:48.000Z</time>
      </trkpt>
      <trkpt lat="44.56668" lon="6.27622">
        <ele>1180.5999755859</ele>
        <time>2021-06-10T07:31:49.000Z</time>
      </trkpt>
      <trkpt lat="44.56673" lon="6.27614">
        <ele>1181.8000488281</ele>
        <time>2021-06-10T07:31:53.000Z</time>
      </trkpt>
      <trkpt lat="44.56673" lon="6.27611">
        <ele>1182</ele>
        <time>2021-06-10T07:31:54.000Z</time>
      </trkpt>
      <trkpt lat="44.56675" lon="6.27604">
        <ele>1183</ele>
        <time>2021-06-10T07:31:57.000Z</time>
      </trkpt>
      <trkpt lat="44.56676" lon="6.27597">
        <ele>1184</ele>
        <time>2021-06-10T07:32:00.000Z</time>
      </trkpt>
      <trkpt lat="44.56677" lon="6.27595">
        <ele>1184.4000244141</ele>
        <time>2021-06-10T07:32:01.000Z</time>
      </trkpt>
      <trkpt lat="44.56681" lon="6.2759">
        <ele>1185.1999511719</ele>
        <time>2021-06-10T07:32:04.000Z</time>
      </trkpt>
      <trkpt lat="44.56685" lon="6.27587">
        <ele>1186.1999511719</ele>
        <time>2021-06-10T07:32:07.000Z</time>
      </trkpt>
      <trkpt lat="44.56688" lon="6.27585">
        <ele>1187</ele>
        <time>2021-06-10T07:32:09.000Z</time>
      </trkpt>
      <trkpt lat="44.56689" lon="6.27584">
        <ele>1187.1999511719</ele>
        <time>2021-06-10T07:32:10.000Z</time>
      </trkpt>
      <trkpt lat="44.56692" lon="6.2758">
        <ele>1188.4000244141</ele>
        <time>2021-06-10T07:32:13.000Z</time>
      </trkpt>
      <trkpt lat="44.56694" lon="6.27577">
        <ele>1189.5999755859</ele>
        <time>2021-06-10T07:32:15.000Z</time>
      </trkpt>
      <trkpt lat="44.56696" lon="6.27575">
        <ele>1189.8000488281</ele>
        <time>2021-06-10T07:32:16.000Z</time>
      </trkpt>
      <trkpt lat="44.56698" lon="6.27573">
        <ele>1190.5999755859</ele>
        <time>2021-06-10T07:32:18.000Z</time>
      </trkpt>
      <trkpt lat="44.56702" lon="6.27571">
        <ele>1191.8000488281</ele>
        <time>2021-06-10T07:32:21.000Z</time>
      </trkpt>
      <trkpt lat="44.56707" lon="6.27567">
        <ele>1192.8000488281</ele>
        <time>2021-06-10T07:32:24.000Z</time>
      </trkpt>
      <trkpt lat="44.5671" lon="6.27566">
        <ele>1193.8000488281</ele>
        <time>2021-06-10T07:32:27.000Z</time>
      </trkpt>
      <trkpt lat="44.56714" lon="6.27566">
        <ele>1195</ele>
        <time>2021-06-10T07:32:30.000Z</time>
      </trkpt>
      <trkpt lat="44.56716" lon="6.27566">
        <ele>1195.1999511719</ele>
        <time>2021-06-10T07:32:31.000Z</time>
      </trkpt>
      <trkpt lat="44.56719" lon="6.27566">
        <ele>1195.8000488281</ele>
        <time>2021-06-10T07:32:33.000Z</time>
      </trkpt>
      <trkpt lat="44.56722" lon="6.27565">
        <ele>1197</ele>
        <time>2021-06-10T07:32:36.000Z</time>
      </trkpt>
      <trkpt lat="44.56726" lon="6.27564">
        <ele>1198</ele>
        <time>2021-06-10T07:32:39.000Z</time>
      </trkpt>
      <trkpt lat="44.56728" lon="6.27564">
        <ele>1198.1999511719</ele>
        <time>2021-06-10T07:32:40.000Z</time>
      </trkpt>
      <trkpt lat="44.56732" lon="6.27563">
        <ele>1199.8000488281</ele>
        <time>2021-06-10T07:32:43.000Z</time>
      </trkpt>
      <trkpt lat="44.56736" lon="6.27562">
        <ele>1201</ele>
        <time>2021-06-10T07:32:46.000Z</time>
      </trkpt>
      <trkpt lat="44.5674" lon="6.2756">
        <ele>1202</ele>
        <time>2021-06-10T07:32:50.000Z</time>
      </trkpt>
      <trkpt lat="44.56742" lon="6.27558">
        <ele>1202.5999755859</ele>
        <time>2021-06-10T07:32:52.000Z</time>
      </trkpt>
      <trkpt lat="44.56744" lon="6.27556">
        <ele>1203</ele>
        <time>2021-06-10T07:32:53.000Z</time>
      </trkpt>
      <trkpt lat="44.56745" lon="6.27555">
        <ele>1203.1999511719</ele>
        <time>2021-06-10T07:32:54.000Z</time>
      </trkpt>
      <trkpt lat="44.56749" lon="6.27551">
        <ele>1204</ele>
        <time>2021-06-10T07:32:56.000Z</time>
      </trkpt>
      <trkpt lat="44.56752" lon="6.27547">
        <ele>1204.4000244141</ele>
        <time>2021-06-10T07:32:58.000Z</time>
      </trkpt>
      <trkpt lat="44.56755" lon="6.27543">
        <ele>1205</ele>
        <time>2021-06-10T07:33:00.000Z</time>
      </trkpt>
      <trkpt lat="44.56757" lon="6.27539">
        <ele>1205.5999755859</ele>
        <time>2021-06-10T07:33:02.000Z</time>
      </trkpt>
      <trkpt lat="44.56762" lon="6.27532">
        <ele>1206.8000488281</ele>
        <time>2021-06-10T07:33:06.000Z</time>
      </trkpt>
      <trkpt lat="44.56766" lon="6.27527">
        <ele>1207.5999755859</ele>
        <time>2021-06-10T07:33:09.000Z</time>
      </trkpt>
      <trkpt lat="44.56767" lon="6.27525">
        <ele>1207.8000488281</ele>
        <time>2021-06-10T07:33:10.000Z</time>
      </trkpt>
      <trkpt lat="44.5677" lon="6.27519">
        <ele>1209</ele>
        <time>2021-06-10T07:33:13.000Z</time>
      </trkpt>
      <trkpt lat="44.56774" lon="6.27513">
        <ele>1210</ele>
        <time>2021-06-10T07:33:16.000Z</time>
      </trkpt>
      <trkpt lat="44.56777" lon="6.27507">
        <ele>1211.1999511719</ele>
        <time>2021-06-10T07:33:19.000Z</time>
      </trkpt>
      <trkpt lat="44.56781" lon="6.27499">
        <ele>1212.4000244141</ele>
        <time>2021-06-10T07:33:23.000Z</time>
      </trkpt>
      <trkpt lat="44.56782" lon="6.27497">
        <ele>1212.8000488281</ele>
        <time>2021-06-10T07:33:24.000Z</time>
      </trkpt>
      <trkpt lat="44.56784" lon="6.27491">
        <ele>1213.5999755859</ele>
        <time>2021-06-10T07:33:27.000Z</time>
      </trkpt>
      <trkpt lat="44.56787" lon="6.27485">
        <ele>1214.8000488281</ele>
        <time>2021-06-10T07:33:30.000Z</time>
      </trkpt>
      <trkpt lat="44.56788" lon="6.27481">
        <ele>1215.1999511719</ele>
        <time>2021-06-10T07:33:32.000Z</time>
      </trkpt>
      <trkpt lat="44.56789" lon="6.27476">
        <ele>1215.8000488281</ele>
        <time>2021-06-10T07:33:34.000Z</time>
      </trkpt>
      <trkpt lat="44.56792" lon="6.27467">
        <ele>1217.1999511719</ele>
        <time>2021-06-10T07:33:38.000Z</time>
      </trkpt>
      <trkpt lat="44.56793" lon="6.27463">
        <ele>1217.8000488281</ele>
        <time>2021-06-10T07:33:40.000Z</time>
      </trkpt>
      <trkpt lat="44.56795" lon="6.2746">
        <ele>1218.8000488281</ele>
        <time>2021-06-10T07:33:42.000Z</time>
      </trkpt>
      <trkpt lat="44.56799" lon="6.27452">
        <ele>1220</ele>
        <time>2021-06-10T07:33:46.000Z</time>
      </trkpt>
      <trkpt lat="44.56802" lon="6.27447">
        <ele>1220.8000488281</ele>
        <time>2021-06-10T07:33:49.000Z</time>
      </trkpt>
      <trkpt lat="44.56804" lon="6.27443">
        <ele>1221.1999511719</ele>
        <time>2021-06-10T07:33:51.000Z</time>
      </trkpt>
      <trkpt lat="44.56811" lon="6.27434">
        <ele>1222.4000244141</ele>
        <time>2021-06-10T07:33:57.000Z</time>
      </trkpt>
      <trkpt lat="44.56814" lon="6.27431">
        <ele>1223</ele>
        <time>2021-06-10T07:33:59.000Z</time>
      </trkpt>
      <trkpt lat="44.56817" lon="6.27428">
        <ele>1223.4000244141</ele>
        <time>2021-06-10T07:34:01.000Z</time>
      </trkpt>
      <trkpt lat="44.56822" lon="6.27424">
        <ele>1224.5999755859</ele>
        <time>2021-06-10T07:34:05.000Z</time>
      </trkpt>
      <trkpt lat="44.56828" lon="6.27421">
        <ele>1225.4000244141</ele>
        <time>2021-06-10T07:34:09.000Z</time>
      </trkpt>
      <trkpt lat="44.5683" lon="6.27421">
        <ele>1225.5999755859</ele>
        <time>2021-06-10T07:34:10.000Z</time>
      </trkpt>
      <trkpt lat="44.56834" lon="6.27421">
        <ele>1226.8000488281</ele>
        <time>2021-06-10T07:34:13.000Z</time>
      </trkpt>
      <trkpt lat="44.56838" lon="6.2742">
        <ele>1227.1999511719</ele>
        <time>2021-06-10T07:34:15.000Z</time>
      </trkpt>
      <trkpt lat="44.5684" lon="6.27417">
        <ele>1228</ele>
        <time>2021-06-10T07:34:17.000Z</time>
      </trkpt>
      <trkpt lat="44.56844" lon="6.27414">
        <ele>1229</ele>
        <time>2021-06-10T07:34:20.000Z</time>
      </trkpt>
      <trkpt lat="44.56845" lon="6.27414">
        <ele>1229.4000244141</ele>
        <time>2021-06-10T07:34:21.000Z</time>
      </trkpt>
      <trkpt lat="44.5685" lon="6.27411">
        <ele>1230</ele>
        <time>2021-06-10T07:34:24.000Z</time>
      </trkpt>
      <trkpt lat="44.56855" lon="6.27408">
        <ele>1231.1999511719</ele>
        <time>2021-06-10T07:34:28.000Z</time>
      </trkpt>
      <trkpt lat="44.56856" lon="6.27408">
        <ele>1231.5999755859</ele>
        <time>2021-06-10T07:34:29.000Z</time>
      </trkpt>
      <trkpt lat="44.56862" lon="6.27408">
        <ele>1232.4000244141</ele>
        <time>2021-06-10T07:34:33.000Z</time>
      </trkpt>
      <trkpt lat="44.56869" lon="6.27407">
        <ele>1233.4000244141</ele>
        <time>2021-06-10T07:34:37.000Z</time>
      </trkpt>
      <trkpt lat="44.5687" lon="6.27406">
        <ele>1233.5999755859</ele>
        <time>2021-06-10T07:34:38.000Z</time>
      </trkpt>
      <trkpt lat="44.56875" lon="6.27405">
        <ele>1234.8000488281</ele>
        <time>2021-06-10T07:34:42.000Z</time>
      </trkpt>
      <trkpt lat="44.56878" lon="6.27404">
        <ele>1235.4000244141</ele>
        <time>2021-06-10T07:34:44.000Z</time>
      </trkpt>
      <trkpt lat="44.56881" lon="6.27403">
        <ele>1235.8000488281</ele>
        <time>2021-06-10T07:34:46.000Z</time>
      </trkpt>
      <trkpt lat="44.56887" lon="6.274">
        <ele>1237</ele>
        <time>2021-06-10T07:34:50.000Z</time>
      </trkpt>
      <trkpt lat="44.5689" lon="6.27398">
        <ele>1237.8000488281</ele>
        <time>2021-06-10T07:34:52.000Z</time>
      </trkpt>
      <trkpt lat="44.56893" lon="6.27397">
        <ele>1238.1999511719</ele>
        <time>2021-06-10T07:34:54.000Z</time>
      </trkpt>
      <trkpt lat="44.56899" lon="6.27396">
        <ele>1239.4000244141</ele>
        <time>2021-06-10T07:34:58.000Z</time>
      </trkpt>
      <trkpt lat="44.569" lon="6.27396">
        <ele>1239.5999755859</ele>
        <time>2021-06-10T07:34:59.000Z</time>
      </trkpt>
      <trkpt lat="44.56903" lon="6.27394">
        <ele>1240.5999755859</ele>
        <time>2021-06-10T07:35:02.000Z</time>
      </trkpt>
      <trkpt lat="44.56904" lon="6.27394">
        <ele>1241</ele>
        <time>2021-06-10T07:35:04.000Z</time>
      </trkpt>
      <trkpt lat="44.56905" lon="6.27394">
        <ele>1241.8000488281</ele>
        <time>2021-06-10T07:35:06.000Z</time>
      </trkpt>
      <trkpt lat="44.56906" lon="6.27394">
        <ele>1242.5999755859</ele>
        <time>2021-06-10T07:35:09.000Z</time>
      </trkpt>
      <trkpt lat="44.56907" lon="6.27394">
        <ele>1243.4000244141</ele>
        <time>2021-06-10T07:35:11.000Z</time>
      </trkpt>
      <trkpt lat="44.56912" lon="6.27393">
        <ele>1243.5999755859</ele>
        <time>2021-06-10T07:35:17.000Z</time>
      </trkpt>
      <trkpt lat="44.56912" lon="6.27392">
        <ele>1243.8000488281</ele>
        <time>2021-06-10T07:35:19.000Z</time>
      </trkpt>
      <trkpt lat="44.56912" lon="6.27392">
        <ele>1244.5999755859</ele>
        <time>2021-06-10T07:35:29.000Z</time>
      </trkpt>
      <trkpt lat="44.56911" lon="6.27392">
        <ele>1244.8000488281</ele>
        <time>2021-06-10T07:35:33.000Z</time>
      </trkpt>
      <trkpt lat="44.56911" lon="6.27392">
        <ele>1244.8000488281</ele>
        <time>2021-06-10T07:35:42.000Z</time>
      </trkpt>
      <trkpt lat="44.56912" lon="6.27395">
        <ele>1244.8000488281</ele>
        <time>2021-06-10T07:35:52.000Z</time>
      </trkpt>
      <trkpt lat="44.56913" lon="6.27397">
        <ele>1244.8000488281</ele>
        <time>2021-06-10T07:35:53.000Z</time>
      </trkpt>
      <trkpt lat="44.56916" lon="6.27417">
        <ele>1245.1999511719</ele>
        <time>2021-06-10T07:36:01.000Z</time>
      </trkpt>
      <trkpt lat="44.56916" lon="6.27428">
        <ele>1245.5999755859</ele>
        <time>2021-06-10T07:36:05.000Z</time>
      </trkpt>
      <trkpt lat="44.56915" lon="6.27439">
        <ele>1246.1999511719</ele>
        <time>2021-06-10T07:36:09.000Z</time>
      </trkpt>
      <trkpt lat="44.56914" lon="6.27448">
        <ele>1246.8000488281</ele>
        <time>2021-06-10T07:36:12.000Z</time>
      </trkpt>
      <trkpt lat="44.5691" lon="6.27462">
        <ele>1247.4000244141</ele>
        <time>2021-06-10T07:36:17.000Z</time>
      </trkpt>
      <trkpt lat="44.56908" lon="6.27468">
        <ele>1247.5999755859</ele>
        <time>2021-06-10T07:36:19.000Z</time>
      </trkpt>
      <trkpt lat="44.56898" lon="6.27485">
        <ele>1248.8000488281</ele>
        <time>2021-06-10T07:36:26.000Z</time>
      </trkpt>
      <trkpt lat="44.56897" lon="6.27487">
        <ele>1249</ele>
        <time>2021-06-10T07:36:27.000Z</time>
      </trkpt>
      <trkpt lat="44.5689" lon="6.275">
        <ele>1249.8000488281</ele>
        <time>2021-06-10T07:36:32.000Z</time>
      </trkpt>
      <trkpt lat="44.56886" lon="6.27507">
        <ele>1250.4000244141</ele>
        <time>2021-06-10T07:36:35.000Z</time>
      </trkpt>
      <trkpt lat="44.56883" lon="6.27514">
        <ele>1251.1999511719</ele>
        <time>2021-06-10T07:36:38.000Z</time>
      </trkpt>
      <trkpt lat="44.56878" lon="6.27528">
        <ele>1252</ele>
        <time>2021-06-10T07:36:43.000Z</time>
      </trkpt>
      <trkpt lat="44.56877" lon="6.27531">
        <ele>1252.4000244141</ele>
        <time>2021-06-10T07:36:44.000Z</time>
      </trkpt>
      <trkpt lat="44.56874" lon="6.27542">
        <ele>1253.4000244141</ele>
        <time>2021-06-10T07:36:49.000Z</time>
      </trkpt>
      <trkpt lat="44.56873" lon="6.27547">
        <ele>1253.5999755859</ele>
        <time>2021-06-10T07:36:51.000Z</time>
      </trkpt>
      <trkpt lat="44.5687" lon="6.27561">
        <ele>1254.1999511719</ele>
        <time>2021-06-10T07:36:56.000Z</time>
      </trkpt>
      <trkpt lat="44.5687" lon="6.27568">
        <ele>1254.5999755859</ele>
        <time>2021-06-10T07:36:58.000Z</time>
      </trkpt>
      <trkpt lat="44.56869" lon="6.2758">
        <ele>1255.4000244141</ele>
        <time>2021-06-10T07:37:02.000Z</time>
      </trkpt>
      <trkpt lat="44.56868" lon="6.27589">
        <ele>1255.8000488281</ele>
        <time>2021-06-10T07:37:05.000Z</time>
      </trkpt>
      <trkpt lat="44.56867" lon="6.27594">
        <ele>1256.4000244141</ele>
        <time>2021-06-10T07:37:07.000Z</time>
      </trkpt>
      <trkpt lat="44.56865" lon="6.27614">
        <ele>1257.4000244141</ele>
        <time>2021-06-10T07:37:13.000Z</time>
      </trkpt>
      <trkpt lat="44.56862" lon="6.27633">
        <ele>1258.4000244141</ele>
        <time>2021-06-10T07:37:19.000Z</time>
      </trkpt>
      <trkpt lat="44.56862" lon="6.27637">
        <ele>1258.8000488281</ele>
        <time>2021-06-10T07:37:20.000Z</time>
      </trkpt>
      <trkpt lat="44.5686" lon="6.2765">
        <ele>1259.5999755859</ele>
        <time>2021-06-10T07:37:24.000Z</time>
      </trkpt>
      <trkpt lat="44.56857" lon="6.27663">
        <ele>1260.1999511719</ele>
        <time>2021-06-10T07:37:28.000Z</time>
      </trkpt>
      <trkpt lat="44.56856" lon="6.2767">
        <ele>1260.5999755859</ele>
        <time>2021-06-10T07:37:30.000Z</time>
      </trkpt>
      <trkpt lat="44.56852" lon="6.27682">
        <ele>1261.1999511719</ele>
        <time>2021-06-10T07:37:34.000Z</time>
      </trkpt>
      <trkpt lat="44.5685" lon="6.27688">
        <ele>1262</ele>
        <time>2021-06-10T07:37:36.000Z</time>
      </trkpt>
      <trkpt lat="44.56843" lon="6.27709">
        <ele>1263</ele>
        <time>2021-06-10T07:37:43.000Z</time>
      </trkpt>
      <trkpt lat="44.56842" lon="6.27712">
        <ele>1263.4000244141</ele>
        <time>2021-06-10T07:37:44.000Z</time>
      </trkpt>
      <trkpt lat="44.56839" lon="6.27727">
        <ele>1264.1999511719</ele>
        <time>2021-06-10T07:37:49.000Z</time>
      </trkpt>
      <trkpt lat="44.56837" lon="6.27739">
        <ele>1264.8000488281</ele>
        <time>2021-06-10T07:37:53.000Z</time>
      </trkpt>
      <trkpt lat="44.56835" lon="6.27749">
        <ele>1265.1999511719</ele>
        <time>2021-06-10T07:37:56.000Z</time>
      </trkpt>
      <trkpt lat="44.56835" lon="6.27769">
        <ele>1266.1999511719</ele>
        <time>2021-06-10T07:38:02.000Z</time>
      </trkpt>
      <trkpt lat="44.56838" lon="6.27789">
        <ele>1267.4000244141</ele>
        <time>2021-06-10T07:38:08.000Z</time>
      </trkpt>
      <trkpt lat="44.56839" lon="6.27796">
        <ele>1267.5999755859</ele>
        <time>2021-06-10T07:38:10.000Z</time>
      </trkpt>
      <trkpt lat="44.56844" lon="6.27809">
        <ele>1268.5999755859</ele>
        <time>2021-06-10T07:38:14.000Z</time>
      </trkpt>
      <trkpt lat="44.56851" lon="6.2782">
        <ele>1269.1999511719</ele>
        <time>2021-06-10T07:38:18.000Z</time>
      </trkpt>
      <trkpt lat="44.56859" lon="6.2783">
        <ele>1269.5999755859</ele>
        <time>2021-06-10T07:38:22.000Z</time>
      </trkpt>
      <trkpt lat="44.56871" lon="6.27843">
        <ele>1270.4000244141</ele>
        <time>2021-06-10T07:38:27.000Z</time>
      </trkpt>
      <trkpt lat="44.56874" lon="6.27849">
        <ele>1270.5999755859</ele>
        <time>2021-06-10T07:38:29.000Z</time>
      </trkpt>
      <trkpt lat="44.56878" lon="6.27864">
        <ele>1271</ele>
        <time>2021-06-10T07:38:33.000Z</time>
      </trkpt>
      <trkpt lat="44.5688" lon="6.27876">
        <ele>1271.4000244141</ele>
        <time>2021-06-10T07:38:36.000Z</time>
      </trkpt>
      <trkpt lat="44.56885" lon="6.27889">
        <ele>1272.1999511719</ele>
        <time>2021-06-10T07:38:40.000Z</time>
      </trkpt>
      <trkpt lat="44.56889" lon="6.27892">
        <ele>1272.4000244141</ele>
        <time>2021-06-10T07:38:42.000Z</time>
      </trkpt>
      <trkpt lat="44.56891" lon="6.27892">
        <ele>1272.5999755859</ele>
        <time>2021-06-10T07:38:43.000Z</time>
      </trkpt>
      <trkpt lat="44.56893" lon="6.27891">
        <ele>1272.5999755859</ele>
        <time>2021-06-10T07:38:44.000Z</time>
      </trkpt>
      <trkpt lat="44.56897" lon="6.2788">
        <ele>1273.1999511719</ele>
        <time>2021-06-10T07:38:48.000Z</time>
      </trkpt>
      <trkpt lat="44.56897" lon="6.27872">
        <ele>1273.5999755859</ele>
        <time>2021-06-10T07:38:50.000Z</time>
      </trkpt>
      <trkpt lat="44.56894" lon="6.27857">
        <ele>1274.4000244141</ele>
        <time>2021-06-10T07:38:54.000Z</time>
      </trkpt>
      <trkpt lat="44.56892" lon="6.27854">
        <ele>1274.5999755859</ele>
        <time>2021-06-10T07:38:55.000Z</time>
      </trkpt>
      <trkpt lat="44.56891" lon="6.2785">
        <ele>1274.8000488281</ele>
        <time>2021-06-10T07:38:56.000Z</time>
      </trkpt>
      <trkpt lat="44.56881" lon="6.27821">
        <ele>1275.8000488281</ele>
        <time>2021-06-10T07:39:04.000Z</time>
      </trkpt>
      <trkpt lat="44.56878" lon="6.27794">
        <ele>1276.5999755859</ele>
        <time>2021-06-10T07:39:11.000Z</time>
      </trkpt>
      <trkpt lat="44.56879" lon="6.2779">
        <ele>1276.8000488281</ele>
        <time>2021-06-10T07:39:12.000Z</time>
      </trkpt>
      <trkpt lat="44.56885" lon="6.27768">
        <ele>1277.5999755859</ele>
        <time>2021-06-10T07:39:18.000Z</time>
      </trkpt>
      <trkpt lat="44.56886" lon="6.27765">
        <ele>1277.8000488281</ele>
        <time>2021-06-10T07:39:19.000Z</time>
      </trkpt>
      <trkpt lat="44.56892" lon="6.27746">
        <ele>1279</ele>
        <time>2021-06-10T07:39:24.000Z</time>
      </trkpt>
      <trkpt lat="44.56894" lon="6.27735">
        <ele>1279.5999755859</ele>
        <time>2021-06-10T07:39:27.000Z</time>
      </trkpt>
      <trkpt lat="44.56897" lon="6.27724">
        <ele>1280</ele>
        <time>2021-06-10T07:39:30.000Z</time>
      </trkpt>
      <trkpt lat="44.56901" lon="6.2771">
        <ele>1281.1999511719</ele>
        <time>2021-06-10T07:39:34.000Z</time>
      </trkpt>
      <trkpt lat="44.56903" lon="6.27703">
        <ele>1281.4000244141</ele>
        <time>2021-06-10T07:39:36.000Z</time>
      </trkpt>
      <trkpt lat="44.56907" lon="6.27693">
        <ele>1282.1999511719</ele>
        <time>2021-06-10T07:39:39.000Z</time>
      </trkpt>
      <trkpt lat="44.56916" lon="6.27682">
        <ele>1283</ele>
        <time>2021-06-10T07:39:43.000Z</time>
      </trkpt>
      <trkpt lat="44.56919" lon="6.2768">
        <ele>1283.4000244141</ele>
        <time>2021-06-10T07:39:44.000Z</time>
      </trkpt>
      <trkpt lat="44.56933" lon="6.27674">
        <ele>1284.4000244141</ele>
        <time>2021-06-10T07:39:49.000Z</time>
      </trkpt>
      <trkpt lat="44.56935" lon="6.27674">
        <ele>1284.5999755859</ele>
        <time>2021-06-10T07:39:50.000Z</time>
      </trkpt>
      <trkpt lat="44.56944" lon="6.27673">
        <ele>1285.4000244141</ele>
        <time>2021-06-10T07:39:53.000Z</time>
      </trkpt>
      <trkpt lat="44.56957" lon="6.27672">
        <ele>1286.5999755859</ele>
        <time>2021-06-10T07:39:58.000Z</time>
      </trkpt>
      <trkpt lat="44.56959" lon="6.27672">
        <ele>1286.8000488281</ele>
        <time>2021-06-10T07:39:59.000Z</time>
      </trkpt>
      <trkpt lat="44.56967" lon="6.27671">
        <ele>1287.5999755859</ele>
        <time>2021-06-10T07:40:02.000Z</time>
      </trkpt>
      <trkpt lat="44.5698" lon="6.2767">
        <ele>1288.8000488281</ele>
        <time>2021-06-10T07:40:07.000Z</time>
      </trkpt>
      <trkpt lat="44.56986" lon="6.27669">
        <ele>1289.1999511719</ele>
        <time>2021-06-10T07:40:09.000Z</time>
      </trkpt>
      <trkpt lat="44.56997" lon="6.27666">
        <ele>1290</ele>
        <time>2021-06-10T07:40:13.000Z</time>
      </trkpt>
      <trkpt lat="44.57013" lon="6.27663">
        <ele>1291</ele>
        <time>2021-06-10T07:40:19.000Z</time>
      </trkpt>
      <trkpt lat="44.57016" lon="6.27662">
        <ele>1291</ele>
        <time>2021-06-10T07:40:20.000Z</time>
      </trkpt>
      <trkpt lat="44.57026" lon="6.27659">
        <ele>1292</ele>
        <time>2021-06-10T07:40:24.000Z</time>
      </trkpt>
      <trkpt lat="44.57034" lon="6.27655">
        <ele>1292.5999755859</ele>
        <time>2021-06-10T07:40:27.000Z</time>
      </trkpt>
      <trkpt lat="44.57038" lon="6.27651">
        <ele>1293</ele>
        <time>2021-06-10T07:40:29.000Z</time>
      </trkpt>
      <trkpt lat="44.57048" lon="6.27643">
        <ele>1294.1999511719</ele>
        <time>2021-06-10T07:40:33.000Z</time>
      </trkpt>
      <trkpt lat="44.57057" lon="6.27635">
        <ele>1294.5999755859</ele>
        <time>2021-06-10T07:40:37.000Z</time>
      </trkpt>
      <trkpt lat="44.57062" lon="6.27631">
        <ele>1295</ele>
        <time>2021-06-10T07:40:39.000Z</time>
      </trkpt>
      <trkpt lat="44.57074" lon="6.27616">
        <ele>1296</ele>
        <time>2021-06-10T07:40:45.000Z</time>
      </trkpt>
      <trkpt lat="44.57076" lon="6.27613">
        <ele>1296.1999511719</ele>
        <time>2021-06-10T07:40:46.000Z</time>
      </trkpt>
      <trkpt lat="44.57084" lon="6.27599">
        <ele>1297.1999511719</ele>
        <time>2021-06-10T07:40:51.000Z</time>
      </trkpt>
      <trkpt lat="44.57091" lon="6.27587">
        <ele>1298</ele>
        <time>2021-06-10T07:40:55.000Z</time>
      </trkpt>
      <trkpt lat="44.57094" lon="6.27581">
        <ele>1298.4000244141</ele>
        <time>2021-06-10T07:40:57.000Z</time>
      </trkpt>
      <trkpt lat="44.57103" lon="6.27563">
        <ele>1299.4000244141</ele>
        <time>2021-06-10T07:41:03.000Z</time>
      </trkpt>
      <trkpt lat="44.57108" lon="6.27553">
        <ele>1300</ele>
        <time>2021-06-10T07:41:06.000Z</time>
      </trkpt>
      <trkpt lat="44.57115" lon="6.27542">
        <ele>1300.5999755859</ele>
        <time>2021-06-10T07:41:10.000Z</time>
      </trkpt>
      <trkpt lat="44.57123" lon="6.27531">
        <ele>1301.5999755859</ele>
        <time>2021-06-10T07:41:14.000Z</time>
      </trkpt>
      <trkpt lat="44.57125" lon="6.27529">
        <ele>1301.8000488281</ele>
        <time>2021-06-10T07:41:15.000Z</time>
      </trkpt>
      <trkpt lat="44.57138" lon="6.27517">
        <ele>1302.8000488281</ele>
        <time>2021-06-10T07:41:21.000Z</time>
      </trkpt>
      <trkpt lat="44.57139" lon="6.27515">
        <ele>1303</ele>
        <time>2021-06-10T07:41:22.000Z</time>
      </trkpt>
      <trkpt lat="44.57144" lon="6.27508">
        <ele>1303.8000488281</ele>
        <time>2021-06-10T07:41:27.000Z</time>
      </trkpt>
      <trkpt lat="44.57149" lon="6.2751">
        <ele>1304.5999755859</ele>
        <time>2021-06-10T07:41:31.000Z</time>
      </trkpt>
      <trkpt lat="44.5715" lon="6.27511">
        <ele>1304.8000488281</ele>
        <time>2021-06-10T07:41:32.000Z</time>
      </trkpt>
      <trkpt lat="44.57163" lon="6.27513">
        <ele>1306</ele>
        <time>2021-06-10T07:41:40.000Z</time>
      </trkpt>
      <trkpt lat="44.57167" lon="6.27516">
        <ele>1307.4000244141</ele>
        <time>2021-06-10T07:41:43.000Z</time>
      </trkpt>
      <trkpt lat="44.5717" lon="6.27521">
        <ele>1308.5999755859</ele>
        <time>2021-06-10T07:41:46.000Z</time>
      </trkpt>
      <trkpt lat="44.57174" lon="6.27522">
        <ele>1309.8000488281</ele>
        <time>2021-06-10T07:41:49.000Z</time>
      </trkpt>
      <trkpt lat="44.57178" lon="6.27524">
        <ele>1310.8000488281</ele>
        <time>2021-06-10T07:41:52.000Z</time>
      </trkpt>
      <trkpt lat="44.57179" lon="6.27525">
        <ele>1311.1999511719</ele>
        <time>2021-06-10T07:41:53.000Z</time>
      </trkpt>
      <trkpt lat="44.57182" lon="6.27527">
        <ele>1312</ele>
        <time>2021-06-10T07:41:55.000Z</time>
      </trkpt>
      <trkpt lat="44.57187" lon="6.27529">
        <ele>1313</ele>
        <time>2021-06-10T07:41:58.000Z</time>
      </trkpt>
      <trkpt lat="44.57189" lon="6.27529">
        <ele>1313.5999755859</ele>
        <time>2021-06-10T07:41:59.000Z</time>
      </trkpt>
      <trkpt lat="44.57191" lon="6.27529">
        <ele>1314.1999511719</ele>
        <time>2021-06-10T07:42:01.000Z</time>
      </trkpt>
      <trkpt lat="44.57196" lon="6.27528">
        <ele>1315.4000244141</ele>
        <time>2021-06-10T07:42:04.000Z</time>
      </trkpt>
      <trkpt lat="44.57198" lon="6.27528">
        <ele>1315.8000488281</ele>
        <time>2021-06-10T07:42:05.000Z</time>
      </trkpt>
      <trkpt lat="44.57202" lon="6.27527">
        <ele>1316.4000244141</ele>
        <time>2021-06-10T07:42:07.000Z</time>
      </trkpt>
      <trkpt lat="44.5721" lon="6.27525">
        <ele>1317.5999755859</ele>
        <time>2021-06-10T07:42:12.000Z</time>
      </trkpt>
      <trkpt lat="44.57212" lon="6.27524">
        <ele>1317.8000488281</ele>
        <time>2021-06-10T07:42:13.000Z</time>
      </trkpt>
      <trkpt lat="44.57221" lon="6.27519">
        <ele>1318.5999755859</ele>
        <time>2021-06-10T07:42:18.000Z</time>
      </trkpt>
      <trkpt lat="44.57226" lon="6.27517">
        <ele>1319.1999511719</ele>
        <time>2021-06-10T07:42:21.000Z</time>
      </trkpt>
      <trkpt lat="44.57232" lon="6.27518">
        <ele>1319.8000488281</ele>
        <time>2021-06-10T07:42:25.000Z</time>
      </trkpt>
      <trkpt lat="44.57235" lon="6.27518">
        <ele>1320</ele>
        <time>2021-06-10T07:42:26.000Z</time>
      </trkpt>
      <trkpt lat="44.57251" lon="6.27525">
        <ele>1320.8000488281</ele>
        <time>2021-06-10T07:42:33.000Z</time>
      </trkpt>
      <trkpt lat="44.57255" lon="6.27528">
        <ele>1321</ele>
        <time>2021-06-10T07:42:35.000Z</time>
      </trkpt>
      <trkpt lat="44.57265" lon="6.27534">
        <ele>1321</ele>
        <time>2021-06-10T07:42:39.000Z</time>
      </trkpt>
      <trkpt lat="44.57282" lon="6.27546">
        <ele>1321.1999511719</ele>
        <time>2021-06-10T07:42:46.000Z</time>
      </trkpt>
      <trkpt lat="44.57299" lon="6.27558">
        <ele>1321.8000488281</ele>
        <time>2021-06-10T07:42:53.000Z</time>
      </trkpt>
      <trkpt lat="44.57302" lon="6.2756">
        <ele>1322</ele>
        <time>2021-06-10T07:42:54.000Z</time>
      </trkpt>
      <trkpt lat="44.57311" lon="6.27563">
        <ele>1323</ele>
        <time>2021-06-10T07:42:58.000Z</time>
      </trkpt>
      <trkpt lat="44.57321" lon="6.27565">
        <ele>1323.5999755859</ele>
        <time>2021-06-10T07:43:02.000Z</time>
      </trkpt>
      <trkpt lat="44.5733" lon="6.27564">
        <ele>1324</ele>
        <time>2021-06-10T07:43:05.000Z</time>
      </trkpt>
      <trkpt lat="44.5734" lon="6.27564">
        <ele>1325</ele>
        <time>2021-06-10T07:43:09.000Z</time>
      </trkpt>
      <trkpt lat="44.57342" lon="6.27564">
        <ele>1325.1999511719</ele>
        <time>2021-06-10T07:43:10.000Z</time>
      </trkpt>
      <trkpt lat="44.57351" lon="6.27565">
        <ele>1326.4000244141</ele>
        <time>2021-06-10T07:43:14.000Z</time>
      </trkpt>
      <trkpt lat="44.57359" lon="6.27563">
        <ele>1327.8000488281</ele>
        <time>2021-06-10T07:43:18.000Z</time>
      </trkpt>
      <trkpt lat="44.57368" lon="6.27557">
        <ele>1329</ele>
        <time>2021-06-10T07:43:22.000Z</time>
      </trkpt>
      <trkpt lat="44.57371" lon="6.27554">
        <ele>1329.5999755859</ele>
        <time>2021-06-10T07:43:24.000Z</time>
      </trkpt>
      <trkpt lat="44.57373" lon="6.27552">
        <ele>1330</ele>
        <time>2021-06-10T07:43:25.000Z</time>
      </trkpt>
      <trkpt lat="44.57377" lon="6.27548">
        <ele>1331</ele>
        <time>2021-06-10T07:43:27.000Z</time>
      </trkpt>
      <trkpt lat="44.57382" lon="6.27544">
        <ele>1332.1999511719</ele>
        <time>2021-06-10T07:43:30.000Z</time>
      </trkpt>
      <trkpt lat="44.57388" lon="6.27538">
        <ele>1333</ele>
        <time>2021-06-10T07:43:33.000Z</time>
      </trkpt>
      <trkpt lat="44.57389" lon="6.27535">
        <ele>1333.4000244141</ele>
        <time>2021-06-10T07:43:34.000Z</time>
      </trkpt>
      <trkpt lat="44.57398" lon="6.27526">
        <ele>1334.4000244141</ele>
        <time>2021-06-10T07:43:39.000Z</time>
      </trkpt>
      <trkpt lat="44.57403" lon="6.2752">
        <ele>1334.8000488281</ele>
        <time>2021-06-10T07:43:42.000Z</time>
      </trkpt>
      <trkpt lat="44.57409" lon="6.27511">
        <ele>1335.5999755859</ele>
        <time>2021-06-10T07:43:46.000Z</time>
      </trkpt>
      <trkpt lat="44.57413" lon="6.27506">
        <ele>1336</ele>
        <time>2021-06-10T07:43:48.000Z</time>
      </trkpt>
      <trkpt lat="44.5742" lon="6.27497">
        <ele>1336.8000488281</ele>
        <time>2021-06-10T07:43:52.000Z</time>
      </trkpt>
      <trkpt lat="44.57425" lon="6.27487">
        <ele>1337.8000488281</ele>
        <time>2021-06-10T07:43:56.000Z</time>
      </trkpt>
      <trkpt lat="44.57428" lon="6.27479">
        <ele>1339</ele>
        <time>2021-06-10T07:43:59.000Z</time>
      </trkpt>
      <trkpt lat="44.57433" lon="6.27469">
        <ele>1340.1999511719</ele>
        <time>2021-06-10T07:44:03.000Z</time>
      </trkpt>
      <trkpt lat="44.57435" lon="6.27467">
        <ele>1340.5999755859</ele>
        <time>2021-06-10T07:44:04.000Z</time>
      </trkpt>
      <trkpt lat="44.57438" lon="6.2746">
        <ele>1341.1999511719</ele>
        <time>2021-06-10T07:44:07.000Z</time>
      </trkpt>
      <trkpt lat="44.57443" lon="6.27451">
        <ele>1342.4000244141</ele>
        <time>2021-06-10T07:44:11.000Z</time>
      </trkpt>
      <trkpt lat="44.57445" lon="6.2745">
        <ele>1342.5999755859</ele>
        <time>2021-06-10T07:44:12.000Z</time>
      </trkpt>
      <trkpt lat="44.57449" lon="6.27445">
        <ele>1343.5999755859</ele>
        <time>2021-06-10T07:44:15.000Z</time>
      </trkpt>
      <trkpt lat="44.57453" lon="6.27439">
        <ele>1344.5999755859</ele>
        <time>2021-06-10T07:44:18.000Z</time>
      </trkpt>
      <trkpt lat="44.57456" lon="6.2743">
        <ele>1346</ele>
        <time>2021-06-10T07:44:22.000Z</time>
      </trkpt>
      <trkpt lat="44.5746" lon="6.27421">
        <ele>1347.4000244141</ele>
        <time>2021-06-10T07:44:26.000Z</time>
      </trkpt>
      <trkpt lat="44.57464" lon="6.27414">
        <ele>1348.8000488281</ele>
        <time>2021-06-10T07:44:30.000Z</time>
      </trkpt>
      <trkpt lat="44.57467" lon="6.27408">
        <ele>1350</ele>
        <time>2021-06-10T07:44:33.000Z</time>
      </trkpt>
      <trkpt lat="44.57467" lon="6.27406">
        <ele>1350.1999511719</ele>
        <time>2021-06-10T07:44:34.000Z</time>
      </trkpt>
      <trkpt lat="44.57468" lon="6.27401">
        <ele>1351</ele>
        <time>2021-06-10T07:44:36.000Z</time>
      </trkpt>
      <trkpt lat="44.57471" lon="6.274">
        <ele>1351.8000488281</ele>
        <time>2021-06-10T07:44:38.000Z</time>
      </trkpt>
      <trkpt lat="44.57473" lon="6.27402">
        <ele>1352.1999511719</ele>
        <time>2021-06-10T07:44:39.000Z</time>
      </trkpt>
      <trkpt lat="44.57474" lon="6.27408">
        <ele>1353</ele>
        <time>2021-06-10T07:44:42.000Z</time>
      </trkpt>
      <trkpt lat="44.57474" lon="6.27411">
        <ele>1353.1999511719</ele>
        <time>2021-06-10T07:44:43.000Z</time>
      </trkpt>
      <trkpt lat="44.57475" lon="6.27415">
        <ele>1353.1999511719</ele>
        <time>2021-06-10T07:44:45.000Z</time>
      </trkpt>
      <trkpt lat="44.57478" lon="6.27423">
        <ele>1353.8000488281</ele>
        <time>2021-06-10T07:44:49.000Z</time>
      </trkpt>
      <trkpt lat="44.57481" lon="6.27428">
        <ele>1354.5999755859</ele>
        <time>2021-06-10T07:44:52.000Z</time>
      </trkpt>
      <trkpt lat="44.57483" lon="6.27434">
        <ele>1355.5999755859</ele>
        <time>2021-06-10T07:44:55.000Z</time>
      </trkpt>
      <trkpt lat="44.57485" lon="6.27439">
        <ele>1356.1999511719</ele>
        <time>2021-06-10T07:44:57.000Z</time>
      </trkpt>
      <trkpt lat="44.57488" lon="6.27445">
        <ele>1356.8000488281</ele>
        <time>2021-06-10T07:45:00.000Z</time>
      </trkpt>
      <trkpt lat="44.57492" lon="6.27453">
        <ele>1357.8000488281</ele>
        <time>2021-06-10T07:45:04.000Z</time>
      </trkpt>
      <trkpt lat="44.57494" lon="6.27455">
        <ele>1358.1999511719</ele>
        <time>2021-06-10T07:45:05.000Z</time>
      </trkpt>
      <trkpt lat="44.57497" lon="6.27461">
        <ele>1359.1999511719</ele>
        <time>2021-06-10T07:45:08.000Z</time>
      </trkpt>
      <trkpt lat="44.575" lon="6.27469">
        <ele>1360.1999511719</ele>
        <time>2021-06-10T07:45:12.000Z</time>
      </trkpt>
      <trkpt lat="44.57503" lon="6.27476">
        <ele>1361.4000244141</ele>
        <time>2021-06-10T07:45:16.000Z</time>
      </trkpt>
      <trkpt lat="44.57507" lon="6.27481">
        <ele>1362.5999755859</ele>
        <time>2021-06-10T07:45:20.000Z</time>
      </trkpt>
      <trkpt lat="44.57511" lon="6.27485">
        <ele>1364</ele>
        <time>2021-06-10T07:45:23.000Z</time>
      </trkpt>
      <trkpt lat="44.57513" lon="6.27487">
        <ele>1365</ele>
        <time>2021-06-10T07:45:25.000Z</time>
      </trkpt>
      <trkpt lat="44.57519" lon="6.27489">
        <ele>1366</ele>
        <time>2021-06-10T07:45:28.000Z</time>
      </trkpt>
      <trkpt lat="44.57523" lon="6.27491">
        <ele>1367</ele>
        <time>2021-06-10T07:45:31.000Z</time>
      </trkpt>
      <trkpt lat="44.57528" lon="6.27493">
        <ele>1368.1999511719</ele>
        <time>2021-06-10T07:45:34.000Z</time>
      </trkpt>
      <trkpt lat="44.57532" lon="6.27495">
        <ele>1368.8000488281</ele>
        <time>2021-06-10T07:45:36.000Z</time>
      </trkpt>
      <trkpt lat="44.57533" lon="6.27495">
        <ele>1369.4000244141</ele>
        <time>2021-06-10T07:45:37.000Z</time>
      </trkpt>
      <trkpt lat="44.57537" lon="6.27497">
        <ele>1370.5999755859</ele>
        <time>2021-06-10T07:45:40.000Z</time>
      </trkpt>
      <trkpt lat="44.5754" lon="6.27497">
        <ele>1371.4000244141</ele>
        <time>2021-06-10T07:45:42.000Z</time>
      </trkpt>
      <trkpt lat="44.57541" lon="6.27498">
        <ele>1371.8000488281</ele>
        <time>2021-06-10T07:45:43.000Z</time>
      </trkpt>
      <trkpt lat="44.57542" lon="6.275">
        <ele>1373</ele>
        <time>2021-06-10T07:45:46.000Z</time>
      </trkpt>
      <trkpt lat="44.57542" lon="6.275">
        <ele>1373.5999755859</ele>
        <time>2021-06-10T07:45:47.000Z</time>
      </trkpt>
      <trkpt lat="44.57543" lon="6.27501">
        <ele>1374.4000244141</ele>
        <time>2021-06-10T07:45:49.000Z</time>
      </trkpt>
      <trkpt lat="44.57543" lon="6.27501">
        <ele>1375.4000244141</ele>
        <time>2021-06-10T07:45:52.000Z</time>
      </trkpt>
      <trkpt lat="44.57545" lon="6.27503">
        <ele>1376</ele>
        <time>2021-06-10T07:45:55.000Z</time>
      </trkpt>
      <trkpt lat="44.57549" lon="6.27506">
        <ele>1376.1999511719</ele>
        <time>2021-06-10T07:45:58.000Z</time>
      </trkpt>
      <trkpt lat="44.57553" lon="6.27511">
        <ele>1376.4000244141</ele>
        <time>2021-06-10T07:46:01.000Z</time>
      </trkpt>
      <trkpt lat="44.57557" lon="6.27521">
        <ele>1377.1999511719</ele>
        <time>2021-06-10T07:46:06.000Z</time>
      </trkpt>
      <trkpt lat="44.57557" lon="6.27524">
        <ele>1377.5999755859</ele>
        <time>2021-06-10T07:46:07.000Z</time>
      </trkpt>
      <trkpt lat="44.57557" lon="6.27528">
        <ele>1378.4000244141</ele>
        <time>2021-06-10T07:46:09.000Z</time>
      </trkpt>
      <trkpt lat="44.57558" lon="6.27539">
        <ele>1379.5999755859</ele>
        <time>2021-06-10T07:46:14.000Z</time>
      </trkpt>
      <trkpt lat="44.57558" lon="6.27543">
        <ele>1380.1999511719</ele>
        <time>2021-06-10T07:46:16.000Z</time>
      </trkpt>
      <trkpt lat="44.57556" lon="6.27552">
        <ele>1380.8000488281</ele>
        <time>2021-06-10T07:46:20.000Z</time>
      </trkpt>
      <trkpt lat="44.57554" lon="6.27558">
        <ele>1382</ele>
        <time>2021-06-10T07:46:23.000Z</time>
      </trkpt>
      <trkpt lat="44.57554" lon="6.27561">
        <ele>1382.1999511719</ele>
        <time>2021-06-10T07:46:24.000Z</time>
      </trkpt>
      <trkpt lat="44.57552" lon="6.27569">
        <ele>1383</ele>
        <time>2021-06-10T07:46:28.000Z</time>
      </trkpt>
      <trkpt lat="44.57551" lon="6.27577">
        <ele>1384.1999511719</ele>
        <time>2021-06-10T07:46:32.000Z</time>
      </trkpt>
      <trkpt lat="44.57549" lon="6.27585">
        <ele>1385.1999511719</ele>
        <time>2021-06-10T07:46:36.000Z</time>
      </trkpt>
      <trkpt lat="44.57548" lon="6.27591">
        <ele>1385.8000488281</ele>
        <time>2021-06-10T07:46:39.000Z</time>
      </trkpt>
      <trkpt lat="44.57548" lon="6.27595">
        <ele>1386.1999511719</ele>
        <time>2021-06-10T07:46:41.000Z</time>
      </trkpt>
      <trkpt lat="44.57546" lon="6.27606">
        <ele>1387.4000244141</ele>
        <time>2021-06-10T07:46:46.000Z</time>
      </trkpt>
      <trkpt lat="44.57545" lon="6.27616">
        <ele>1388.5999755859</ele>
        <time>2021-06-10T07:46:51.000Z</time>
      </trkpt>
      <trkpt lat="44.57546" lon="6.27621">
        <ele>1389.1999511719</ele>
        <time>2021-06-10T07:46:53.000Z</time>
      </trkpt>
      <trkpt lat="44.57547" lon="6.27625">
        <ele>1389.5999755859</ele>
        <time>2021-06-10T07:46:55.000Z</time>
      </trkpt>
      <trkpt lat="44.5755" lon="6.27634">
        <ele>1390.8000488281</ele>
        <time>2021-06-10T07:46:59.000Z</time>
      </trkpt>
      <trkpt lat="44.57551" lon="6.27636">
        <ele>1391</ele>
        <time>2021-06-10T07:47:00.000Z</time>
      </trkpt>
      <trkpt lat="44.57556" lon="6.27647">
        <ele>1392</ele>
        <time>2021-06-10T07:47:05.000Z</time>
      </trkpt>
      <trkpt lat="44.57559" lon="6.27654">
        <ele>1392.8000488281</ele>
        <time>2021-06-10T07:47:08.000Z</time>
      </trkpt>
      <trkpt lat="44.5756" lon="6.27656">
        <ele>1393</ele>
        <time>2021-06-10T07:47:09.000Z</time>
      </trkpt>
      <trkpt lat="44.57565" lon="6.27663">
        <ele>1394</ele>
        <time>2021-06-10T07:47:13.000Z</time>
      </trkpt>
      <trkpt lat="44.5757" lon="6.2767">
        <ele>1395</ele>
        <time>2021-06-10T07:47:17.000Z</time>
      </trkpt>
      <trkpt lat="44.57571" lon="6.27672">
        <ele>1395.4000244141</ele>
        <time>2021-06-10T07:47:18.000Z</time>
      </trkpt>
      <trkpt lat="44.57576" lon="6.27678">
        <ele>1396.8000488281</ele>
        <time>2021-06-10T07:47:22.000Z</time>
      </trkpt>
      <trkpt lat="44.57581" lon="6.27685">
        <ele>1398</ele>
        <time>2021-06-10T07:47:26.000Z</time>
      </trkpt>
      <trkpt lat="44.57587" lon="6.2769">
        <ele>1399.4000244141</ele>
        <time>2021-06-10T07:47:30.000Z</time>
      </trkpt>
      <trkpt lat="44.57592" lon="6.27695">
        <ele>1400.5999755859</ele>
        <time>2021-06-10T07:47:34.000Z</time>
      </trkpt>
      <trkpt lat="44.57595" lon="6.27697">
        <ele>1401.1999511719</ele>
        <time>2021-06-10T07:47:36.000Z</time>
      </trkpt>
      <trkpt lat="44.57598" lon="6.277">
        <ele>1401.8000488281</ele>
        <time>2021-06-10T07:47:38.000Z</time>
      </trkpt>
      <trkpt lat="44.57604" lon="6.27703">
        <ele>1403</ele>
        <time>2021-06-10T07:47:42.000Z</time>
      </trkpt>
      <trkpt lat="44.5761" lon="6.27704">
        <ele>1404.1999511719</ele>
        <time>2021-06-10T07:47:46.000Z</time>
      </trkpt>
      <trkpt lat="44.57616" lon="6.27705">
        <ele>1405.4000244141</ele>
        <time>2021-06-10T07:47:49.000Z</time>
      </trkpt>
      <trkpt lat="44.57619" lon="6.27707">
        <ele>1406</ele>
        <time>2021-06-10T07:47:51.000Z</time>
      </trkpt>
      <trkpt lat="44.5762" lon="6.27708">
        <ele>1406.5999755859</ele>
        <time>2021-06-10T07:47:52.000Z</time>
      </trkpt>
      <trkpt lat="44.57626" lon="6.27712">
        <ele>1408</ele>
        <time>2021-06-10T07:47:56.000Z</time>
      </trkpt>
      <trkpt lat="44.57632" lon="6.27713">
        <ele>1408.8000488281</ele>
        <time>2021-06-10T07:47:59.000Z</time>
      </trkpt>
      <trkpt lat="44.57633" lon="6.27714">
        <ele>1409</ele>
        <time>2021-06-10T07:48:00.000Z</time>
      </trkpt>
      <trkpt lat="44.57639" lon="6.27719">
        <ele>1410.4000244141</ele>
        <time>2021-06-10T07:48:04.000Z</time>
      </trkpt>
      <trkpt lat="44.57642" lon="6.2772">
        <ele>1410.8000488281</ele>
        <time>2021-06-10T07:48:06.000Z</time>
      </trkpt>
      <trkpt lat="44.57646" lon="6.27722">
        <ele>1411.5999755859</ele>
        <time>2021-06-10T07:48:09.000Z</time>
      </trkpt>
      <trkpt lat="44.57653" lon="6.27726">
        <ele>1412.5999755859</ele>
        <time>2021-06-10T07:48:13.000Z</time>
      </trkpt>
      <trkpt lat="44.57655" lon="6.27728">
        <ele>1413.1999511719</ele>
        <time>2021-06-10T07:48:15.000Z</time>
      </trkpt>
      <trkpt lat="44.57659" lon="6.2773">
        <ele>1414</ele>
        <time>2021-06-10T07:48:17.000Z</time>
      </trkpt>
      <trkpt lat="44.57665" lon="6.27733">
        <ele>1414.8000488281</ele>
        <time>2021-06-10T07:48:21.000Z</time>
      </trkpt>
      <trkpt lat="44.57671" lon="6.27735">
        <ele>1416</ele>
        <time>2021-06-10T07:48:24.000Z</time>
      </trkpt>
      <trkpt lat="44.57672" lon="6.27736">
        <ele>1416.1999511719</ele>
        <time>2021-06-10T07:48:25.000Z</time>
      </trkpt>
      <trkpt lat="44.57678" lon="6.27739">
        <ele>1417</ele>
        <time>2021-06-10T07:48:28.000Z</time>
      </trkpt>
      <trkpt lat="44.57685" lon="6.27745">
        <ele>1418.1999511719</ele>
        <time>2021-06-10T07:48:33.000Z</time>
      </trkpt>
      <trkpt lat="44.57688" lon="6.27748">
        <ele>1418.8000488281</ele>
        <time>2021-06-10T07:48:35.000Z</time>
      </trkpt>
      <trkpt lat="44.57691" lon="6.2775">
        <ele>1419.1999511719</ele>
        <time>2021-06-10T07:48:37.000Z</time>
      </trkpt>
      <trkpt lat="44.57695" lon="6.27753">
        <ele>1420.4000244141</ele>
        <time>2021-06-10T07:48:40.000Z</time>
      </trkpt>
      <trkpt lat="44.57701" lon="6.27759">
        <ele>1421.5999755859</ele>
        <time>2021-06-10T07:48:44.000Z</time>
      </trkpt>
      <trkpt lat="44.57707" lon="6.27765">
        <ele>1422.8000488281</ele>
        <time>2021-06-10T07:48:48.000Z</time>
      </trkpt>
      <trkpt lat="44.57711" lon="6.27769">
        <ele>1424</ele>
        <time>2021-06-10T07:48:51.000Z</time>
      </trkpt>
      <trkpt lat="44.57717" lon="6.27773">
        <ele>1425.4000244141</ele>
        <time>2021-06-10T07:48:55.000Z</time>
      </trkpt>
      <trkpt lat="44.57725" lon="6.27778">
        <ele>1426.5999755859</ele>
        <time>2021-06-10T07:49:00.000Z</time>
      </trkpt>
      <trkpt lat="44.57728" lon="6.27779">
        <ele>1427</ele>
        <time>2021-06-10T07:49:02.000Z</time>
      </trkpt>
      <trkpt lat="44.57733" lon="6.27779">
        <ele>1427.8000488281</ele>
        <time>2021-06-10T07:49:05.000Z</time>
      </trkpt>
      <trkpt lat="44.5774" lon="6.2778">
        <ele>1428.8000488281</ele>
        <time>2021-06-10T07:49:09.000Z</time>
      </trkpt>
      <trkpt lat="44.57745" lon="6.27779">
        <ele>1429.4000244141</ele>
        <time>2021-06-10T07:49:12.000Z</time>
      </trkpt>
      <trkpt lat="44.57746" lon="6.27779">
        <ele>1429.8000488281</ele>
        <time>2021-06-10T07:49:13.000Z</time>
      </trkpt>
      <trkpt lat="44.57752" lon="6.27778">
        <ele>1430.8000488281</ele>
        <time>2021-06-10T07:49:17.000Z</time>
      </trkpt>
      <trkpt lat="44.57758" lon="6.27776">
        <ele>1432</ele>
        <time>2021-06-10T07:49:21.000Z</time>
      </trkpt>
      <trkpt lat="44.57764" lon="6.27774">
        <ele>1433</ele>
        <time>2021-06-10T07:49:25.000Z</time>
      </trkpt>
      <trkpt lat="44.5777" lon="6.27771">
        <ele>1434</ele>
        <time>2021-06-10T07:49:29.000Z</time>
      </trkpt>
      <trkpt lat="44.57771" lon="6.27771">
        <ele>1434.1999511719</ele>
        <time>2021-06-10T07:49:30.000Z</time>
      </trkpt>
      <trkpt lat="44.57776" lon="6.2777">
        <ele>1435.1999511719</ele>
        <time>2021-06-10T07:49:33.000Z</time>
      </trkpt>
      <trkpt lat="44.5778" lon="6.2777">
        <ele>1436.4000244141</ele>
        <time>2021-06-10T07:49:36.000Z</time>
      </trkpt>
      <trkpt lat="44.57784" lon="6.27769">
        <ele>1437.1999511719</ele>
        <time>2021-06-10T07:49:39.000Z</time>
      </trkpt>
      <trkpt lat="44.57786" lon="6.27769">
        <ele>1437.4000244141</ele>
        <time>2021-06-10T07:49:40.000Z</time>
      </trkpt>
      <trkpt lat="44.57792" lon="6.27767">
        <ele>1438.5999755859</ele>
        <time>2021-06-10T07:49:44.000Z</time>
      </trkpt>
      <trkpt lat="44.57796" lon="6.27767">
        <ele>1439.4000244141</ele>
        <time>2021-06-10T07:49:47.000Z</time>
      </trkpt>
      <trkpt lat="44.57797" lon="6.27766">
        <ele>1439.8000488281</ele>
        <time>2021-06-10T07:49:48.000Z</time>
      </trkpt>
      <trkpt lat="44.578" lon="6.27766">
        <ele>1440.5999755859</ele>
        <time>2021-06-10T07:49:50.000Z</time>
      </trkpt>
      <trkpt lat="44.57805" lon="6.27767">
        <ele>1441.8000488281</ele>
        <time>2021-06-10T07:49:54.000Z</time>
      </trkpt>
      <trkpt lat="44.57807" lon="6.27767">
        <ele>1442</ele>
        <time>2021-06-10T07:49:55.000Z</time>
      </trkpt>
      <trkpt lat="44.57811" lon="6.27769">
        <ele>1442.8000488281</ele>
        <time>2021-06-10T07:49:58.000Z</time>
      </trkpt>
      <trkpt lat="44.57816" lon="6.27768">
        <ele>1444</ele>
        <time>2021-06-10T07:50:02.000Z</time>
      </trkpt>
      <trkpt lat="44.57819" lon="6.27769">
        <ele>1444.5999755859</ele>
        <time>2021-06-10T07:50:04.000Z</time>
      </trkpt>
      <trkpt lat="44.5782" lon="6.27772">
        <ele>1445.5999755859</ele>
        <time>2021-06-10T07:50:06.000Z</time>
      </trkpt>
      <trkpt lat="44.5782" lon="6.27774">
        <ele>1445.8000488281</ele>
        <time>2021-06-10T07:50:07.000Z</time>
      </trkpt>
      <trkpt lat="44.57819" lon="6.27778">
        <ele>1446.1999511719</ele>
        <time>2021-06-10T07:50:09.000Z</time>
      </trkpt>
      <trkpt lat="44.57819" lon="6.27785">
        <ele>1446.5999755859</ele>
        <time>2021-06-10T07:50:13.000Z</time>
      </trkpt>
      <trkpt lat="44.57819" lon="6.27789">
        <ele>1447</ele>
        <time>2021-06-10T07:50:15.000Z</time>
      </trkpt>
      <trkpt lat="44.57822" lon="6.27795">
        <ele>1447.5999755859</ele>
        <time>2021-06-10T07:50:18.000Z</time>
      </trkpt>
      <trkpt lat="44.57825" lon="6.278">
        <ele>1448.5999755859</ele>
        <time>2021-06-10T07:50:21.000Z</time>
      </trkpt>
      <trkpt lat="44.57826" lon="6.27802">
        <ele>1449</ele>
        <time>2021-06-10T07:50:22.000Z</time>
      </trkpt>
      <trkpt lat="44.57829" lon="6.27807">
        <ele>1450.1999511719</ele>
        <time>2021-06-10T07:50:25.000Z</time>
      </trkpt>
      <trkpt lat="44.57832" lon="6.27812">
        <ele>1451.1999511719</ele>
        <time>2021-06-10T07:50:28.000Z</time>
      </trkpt>
      <trkpt lat="44.57833" lon="6.27814">
        <ele>1451.4000244141</ele>
        <time>2021-06-10T07:50:29.000Z</time>
      </trkpt>
      <trkpt lat="44.57836" lon="6.27821">
        <ele>1452.5999755859</ele>
        <time>2021-06-10T07:50:33.000Z</time>
      </trkpt>
      <trkpt lat="44.57837" lon="6.27825">
        <ele>1453.1999511719</ele>
        <time>2021-06-10T07:50:35.000Z</time>
      </trkpt>
      <trkpt lat="44.57838" lon="6.2783">
        <ele>1453.5999755859</ele>
        <time>2021-06-10T07:50:38.000Z</time>
      </trkpt>
      <trkpt lat="44.5784" lon="6.27838">
        <ele>1454.4000244141</ele>
        <time>2021-06-10T07:50:42.000Z</time>
      </trkpt>
      <trkpt lat="44.5784" lon="6.27842">
        <ele>1454.4000244141</ele>
        <time>2021-06-10T07:50:44.000Z</time>
      </trkpt>
      <trkpt lat="44.57842" lon="6.27853">
        <ele>1455.8000488281</ele>
        <time>2021-06-10T07:50:49.000Z</time>
      </trkpt>
      <trkpt lat="44.57844" lon="6.2786">
        <ele>1456.5999755859</ele>
        <time>2021-06-10T07:50:52.000Z</time>
      </trkpt>
      <trkpt lat="44.57845" lon="6.27863">
        <ele>1457</ele>
        <time>2021-06-10T07:50:53.000Z</time>
      </trkpt>
      <trkpt lat="44.57847" lon="6.27872">
        <ele>1458.1999511719</ele>
        <time>2021-06-10T07:50:57.000Z</time>
      </trkpt>
      <trkpt lat="44.57849" lon="6.27882">
        <ele>1458.5999755859</ele>
        <time>2021-06-10T07:51:01.000Z</time>
      </trkpt>
      <trkpt lat="44.57852" lon="6.27891">
        <ele>1459.1999511719</ele>
        <time>2021-06-10T07:51:05.000Z</time>
      </trkpt>
      <trkpt lat="44.57856" lon="6.27899">
        <ele>1460.4000244141</ele>
        <time>2021-06-10T07:51:09.000Z</time>
      </trkpt>
      <trkpt lat="44.57859" lon="6.27905">
        <ele>1460.8000488281</ele>
        <time>2021-06-10T07:51:12.000Z</time>
      </trkpt>
      <trkpt lat="44.57864" lon="6.27912">
        <ele>1461.4000244141</ele>
        <time>2021-06-10T07:51:16.000Z</time>
      </trkpt>
      <trkpt lat="44.57868" lon="6.27917">
        <ele>1462</ele>
        <time>2021-06-10T07:51:19.000Z</time>
      </trkpt>
      <trkpt lat="44.57872" lon="6.27922">
        <ele>1462.4000244141</ele>
        <time>2021-06-10T07:51:22.000Z</time>
      </trkpt>
      <trkpt lat="44.57882" lon="6.27929">
        <ele>1463.1999511719</ele>
        <time>2021-06-10T07:51:28.000Z</time>
      </trkpt>
      <trkpt lat="44.57885" lon="6.27931">
        <ele>1463.4000244141</ele>
        <time>2021-06-10T07:51:30.000Z</time>
      </trkpt>
      <trkpt lat="44.57897" lon="6.27939">
        <ele>1464.5999755859</ele>
        <time>2021-06-10T07:51:37.000Z</time>
      </trkpt>
      <trkpt lat="44.57898" lon="6.27941">
        <ele>1464.8000488281</ele>
        <time>2021-06-10T07:51:38.000Z</time>
      </trkpt>
      <trkpt lat="44.57905" lon="6.27949">
        <ele>1465.8000488281</ele>
        <time>2021-06-10T07:51:43.000Z</time>
      </trkpt>
      <trkpt lat="44.57908" lon="6.27956">
        <ele>1466.4000244141</ele>
        <time>2021-06-10T07:51:46.000Z</time>
      </trkpt>
      <trkpt lat="44.57909" lon="6.27958">
        <ele>1467</ele>
        <time>2021-06-10T07:51:47.000Z</time>
      </trkpt>
      <trkpt lat="44.57912" lon="6.27974">
        <ele>1468</ele>
        <time>2021-06-10T07:51:53.000Z</time>
      </trkpt>
      <trkpt lat="44.57912" lon="6.27979">
        <ele>1468.1999511719</ele>
        <time>2021-06-10T07:51:55.000Z</time>
      </trkpt>
      <trkpt lat="44.57912" lon="6.27992">
        <ele>1469</ele>
        <time>2021-06-10T07:52:00.000Z</time>
      </trkpt>
      <trkpt lat="44.57911" lon="6.28004">
        <ele>1470</ele>
        <time>2021-06-10T07:52:05.000Z</time>
      </trkpt>
      <trkpt lat="44.57911" lon="6.28006">
        <ele>1470</ele>
        <time>2021-06-10T07:52:06.000Z</time>
      </trkpt>
      <trkpt lat="44.57909" lon="6.28019">
        <ele>1471.1999511719</ele>
        <time>2021-06-10T07:52:11.000Z</time>
      </trkpt>
      <trkpt lat="44.57907" lon="6.28024">
        <ele>1471.4000244141</ele>
        <time>2021-06-10T07:52:13.000Z</time>
      </trkpt>
      <trkpt lat="44.57903" lon="6.28034">
        <ele>1472.1999511719</ele>
        <time>2021-06-10T07:52:17.000Z</time>
      </trkpt>
      <trkpt lat="44.57896" lon="6.28046">
        <ele>1473.1999511719</ele>
        <time>2021-06-10T07:52:22.000Z</time>
      </trkpt>
      <trkpt lat="44.57885" lon="6.28064">
        <ele>1474.1999511719</ele>
        <time>2021-06-10T07:52:30.000Z</time>
      </trkpt>
      <trkpt lat="44.57884" lon="6.28066">
        <ele>1474.4000244141</ele>
        <time>2021-06-10T07:52:31.000Z</time>
      </trkpt>
      <trkpt lat="44.57876" lon="6.2808">
        <ele>1475.1999511719</ele>
        <time>2021-06-10T07:52:37.000Z</time>
      </trkpt>
      <trkpt lat="44.57874" lon="6.28082">
        <ele>1475.1999511719</ele>
        <time>2021-06-10T07:52:38.000Z</time>
      </trkpt>
      <trkpt lat="44.57862" lon="6.28096">
        <ele>1476.1999511719</ele>
        <time>2021-06-10T07:52:45.000Z</time>
      </trkpt>
      <trkpt lat="44.57848" lon="6.28111">
        <ele>1477.4000244141</ele>
        <time>2021-06-10T07:52:52.000Z</time>
      </trkpt>
      <trkpt lat="44.57839" lon="6.2812">
        <ele>1478</ele>
        <time>2021-06-10T07:52:57.000Z</time>
      </trkpt>
      <trkpt lat="44.57833" lon="6.28125">
        <ele>1478.4000244141</ele>
        <time>2021-06-10T07:53:00.000Z</time>
      </trkpt>
      <trkpt lat="44.57822" lon="6.28133">
        <ele>1479</ele>
        <time>2021-06-10T07:53:05.000Z</time>
      </trkpt>
      <trkpt lat="44.57817" lon="6.28135">
        <ele>1479.4000244141</ele>
        <time>2021-06-10T07:53:07.000Z</time>
      </trkpt>
      <trkpt lat="44.57803" lon="6.2814">
        <ele>1480.4000244141</ele>
        <time>2021-06-10T07:53:13.000Z</time>
      </trkpt>
      <trkpt lat="44.57801" lon="6.2814">
        <ele>1480.4000244141</ele>
        <time>2021-06-10T07:53:14.000Z</time>
      </trkpt>
      <trkpt lat="44.57785" lon="6.28145">
        <ele>1481.1999511719</ele>
        <time>2021-06-10T07:53:21.000Z</time>
      </trkpt>
      <trkpt lat="44.57783" lon="6.28146">
        <ele>1481.4000244141</ele>
        <time>2021-06-10T07:53:22.000Z</time>
      </trkpt>
      <trkpt lat="44.57771" lon="6.28153">
        <ele>1481.8000488281</ele>
        <time>2021-06-10T07:53:28.000Z</time>
      </trkpt>
      <trkpt lat="44.5777" lon="6.28155">
        <ele>1482</ele>
        <time>2021-06-10T07:53:29.000Z</time>
      </trkpt>
      <trkpt lat="44.57769" lon="6.28161">
        <ele>1482.4000244141</ele>
        <time>2021-06-10T07:53:31.000Z</time>
      </trkpt>
      <trkpt lat="44.57769" lon="6.28167">
        <ele>1482.5999755859</ele>
        <time>2021-06-10T07:53:33.000Z</time>
      </trkpt>
      <trkpt lat="44.57774" lon="6.28177">
        <ele>1483.4000244141</ele>
        <time>2021-06-10T07:53:37.000Z</time>
      </trkpt>
      <trkpt lat="44.57776" lon="6.2818">
        <ele>1483.5999755859</ele>
        <time>2021-06-10T07:53:38.000Z</time>
      </trkpt>
      <trkpt lat="44.57784" lon="6.28187">
        <ele>1484.4000244141</ele>
        <time>2021-06-10T07:53:42.000Z</time>
      </trkpt>
      <trkpt lat="44.57792" lon="6.28193">
        <ele>1485.4000244141</ele>
        <time>2021-06-10T07:53:46.000Z</time>
      </trkpt>
      <trkpt lat="44.57802" lon="6.28201">
        <ele>1486.5999755859</ele>
        <time>2021-06-10T07:53:51.000Z</time>
      </trkpt>
      <trkpt lat="44.57811" lon="6.28206">
        <ele>1487.4000244141</ele>
        <time>2021-06-10T07:53:55.000Z</time>
      </trkpt>
      <trkpt lat="44.57815" lon="6.28209">
        <ele>1487.5999755859</ele>
        <time>2021-06-10T07:53:57.000Z</time>
      </trkpt>
      <trkpt lat="44.5783" lon="6.28215">
        <ele>1488.5999755859</ele>
        <time>2021-06-10T07:54:04.000Z</time>
      </trkpt>
      <trkpt lat="44.5784" lon="6.28213">
        <ele>1489.5999755859</ele>
        <time>2021-06-10T07:54:08.000Z</time>
      </trkpt>
      <trkpt lat="44.57854" lon="6.28209">
        <ele>1490.8000488281</ele>
        <time>2021-06-10T07:54:14.000Z</time>
      </trkpt>
      <trkpt lat="44.57871" lon="6.28199">
        <ele>1492</ele>
        <time>2021-06-10T07:54:22.000Z</time>
      </trkpt>
      <trkpt lat="44.57875" lon="6.28196">
        <ele>1492.1999511719</ele>
        <time>2021-06-10T07:54:24.000Z</time>
      </trkpt>
      <trkpt lat="44.57892" lon="6.2818">
        <ele>1492.5999755859</ele>
        <time>2021-06-10T07:54:32.000Z</time>
      </trkpt>
      <trkpt lat="44.57899" lon="6.28175">
        <ele>1492.8000488281</ele>
        <time>2021-06-10T07:54:35.000Z</time>
      </trkpt>
      <trkpt lat="44.5791" lon="6.28166">
        <ele>1493.1999511719</ele>
        <time>2021-06-10T07:54:40.000Z</time>
      </trkpt>
      <trkpt lat="44.57924" lon="6.28157">
        <ele>1493.8000488281</ele>
        <time>2021-06-10T07:54:46.000Z</time>
      </trkpt>
      <trkpt lat="44.57941" lon="6.28139">
        <ele>1495</ele>
        <time>2021-06-10T07:54:55.000Z</time>
      </trkpt>
      <trkpt lat="44.57952" lon="6.28127">
        <ele>1496</ele>
        <time>2021-06-10T07:55:01.000Z</time>
      </trkpt>
      <trkpt lat="44.57954" lon="6.28125">
        <ele>1496</ele>
        <time>2021-06-10T07:55:02.000Z</time>
      </trkpt>
      <trkpt lat="44.57969" lon="6.28114">
        <ele>1497</ele>
        <time>2021-06-10T07:55:10.000Z</time>
      </trkpt>
      <trkpt lat="44.57979" lon="6.28107">
        <ele>1498</ele>
        <time>2021-06-10T07:55:15.000Z</time>
      </trkpt>
      <trkpt lat="44.57986" lon="6.28101">
        <ele>1499</ele>
        <time>2021-06-10T07:55:19.000Z</time>
      </trkpt>
      <trkpt lat="44.57988" lon="6.281">
        <ele>1499.1999511719</ele>
        <time>2021-06-10T07:55:20.000Z</time>
      </trkpt>
      <trkpt lat="44.57994" lon="6.28093">
        <ele>1500.4000244141</ele>
        <time>2021-06-10T07:55:24.000Z</time>
      </trkpt>
      <trkpt lat="44.57996" lon="6.28092">
        <ele>1500.5999755859</ele>
        <time>2021-06-10T07:55:25.000Z</time>
      </trkpt>
      <trkpt lat="44.58002" lon="6.28084">
        <ele>1501.5999755859</ele>
        <time>2021-06-10T07:55:29.000Z</time>
      </trkpt>
      <trkpt lat="44.58006" lon="6.28078">
        <ele>1502.1999511719</ele>
        <time>2021-06-10T07:55:32.000Z</time>
      </trkpt>
      <trkpt lat="44.58007" lon="6.28075">
        <ele>1502.5999755859</ele>
        <time>2021-06-10T07:55:33.000Z</time>
      </trkpt>
      <trkpt lat="44.58013" lon="6.28062">
        <ele>1503.8000488281</ele>
        <time>2021-06-10T07:55:38.000Z</time>
      </trkpt>
      <trkpt lat="44.58017" lon="6.28052">
        <ele>1505</ele>
        <time>2021-06-10T07:55:42.000Z</time>
      </trkpt>
      <trkpt lat="44.58022" lon="6.28038">
        <ele>1505.8000488281</ele>
        <time>2021-06-10T07:55:47.000Z</time>
      </trkpt>
      <trkpt lat="44.58023" lon="6.2803">
        <ele>1506.5999755859</ele>
        <time>2021-06-10T07:55:50.000Z</time>
      </trkpt>
      <trkpt lat="44.58024" lon="6.28027">
        <ele>1506.8000488281</ele>
        <time>2021-06-10T07:55:51.000Z</time>
      </trkpt>
      <trkpt lat="44.58026" lon="6.28012">
        <ele>1507.8000488281</ele>
        <time>2021-06-10T07:55:56.000Z</time>
      </trkpt>
      <trkpt lat="44.58027" lon="6.28006">
        <ele>1508.1999511719</ele>
        <time>2021-06-10T07:55:58.000Z</time>
      </trkpt>
      <trkpt lat="44.58029" lon="6.27994">
        <ele>1509</ele>
        <time>2021-06-10T07:56:02.000Z</time>
      </trkpt>
      <trkpt lat="44.58033" lon="6.2798">
        <ele>1509.8000488281</ele>
        <time>2021-06-10T07:56:07.000Z</time>
      </trkpt>
      <trkpt lat="44.58034" lon="6.27977">
        <ele>1510</ele>
        <time>2021-06-10T07:56:08.000Z</time>
      </trkpt>
      <trkpt lat="44.58042" lon="6.27963">
        <ele>1511</ele>
        <time>2021-06-10T07:56:14.000Z</time>
      </trkpt>
      <trkpt lat="44.58046" lon="6.27953">
        <ele>1511.5999755859</ele>
        <time>2021-06-10T07:56:18.000Z</time>
      </trkpt>
      <trkpt lat="44.5805" lon="6.27946">
        <ele>1512.1999511719</ele>
        <time>2021-06-10T07:56:21.000Z</time>
      </trkpt>
      <trkpt lat="44.58058" lon="6.27932">
        <ele>1513.1999511719</ele>
        <time>2021-06-10T07:56:27.000Z</time>
      </trkpt>
      <trkpt lat="44.58061" lon="6.27925">
        <ele>1514</ele>
        <time>2021-06-10T07:56:30.000Z</time>
      </trkpt>
      <trkpt lat="44.58064" lon="6.2792">
        <ele>1514.4000244141</ele>
        <time>2021-06-10T07:56:32.000Z</time>
      </trkpt>
      <trkpt lat="44.58071" lon="6.27905">
        <ele>1515.5999755859</ele>
        <time>2021-06-10T07:56:38.000Z</time>
      </trkpt>
      <trkpt lat="44.58074" lon="6.279">
        <ele>1516</ele>
        <time>2021-06-10T07:56:40.000Z</time>
      </trkpt>
      <trkpt lat="44.58077" lon="6.27892">
        <ele>1516.5999755859</ele>
        <time>2021-06-10T07:56:43.000Z</time>
      </trkpt>
      <trkpt lat="44.58084" lon="6.2788">
        <ele>1517.8000488281</ele>
        <time>2021-06-10T07:56:48.000Z</time>
      </trkpt>
      <trkpt lat="44.58087" lon="6.27876">
        <ele>1518.1999511719</ele>
        <time>2021-06-10T07:56:50.000Z</time>
      </trkpt>
      <trkpt lat="44.58093" lon="6.27864">
        <ele>1519</ele>
        <time>2021-06-10T07:56:55.000Z</time>
      </trkpt>
      <trkpt lat="44.58098" lon="6.27854">
        <ele>1520</ele>
        <time>2021-06-10T07:56:59.000Z</time>
      </trkpt>
      <trkpt lat="44.58102" lon="6.27847">
        <ele>1520.5999755859</ele>
        <time>2021-06-10T07:57:02.000Z</time>
      </trkpt>
      <trkpt lat="44.58105" lon="6.2784">
        <ele>1520.8000488281</ele>
        <time>2021-06-10T07:57:05.000Z</time>
      </trkpt>
      <trkpt lat="44.5811" lon="6.27831">
        <ele>1522</ele>
        <time>2021-06-10T07:57:09.000Z</time>
      </trkpt>
      <trkpt lat="44.58112" lon="6.27827">
        <ele>1522.1999511719</ele>
        <time>2021-06-10T07:57:11.000Z</time>
      </trkpt>
      <trkpt lat="44.58116" lon="6.27817">
        <ele>1523</ele>
        <time>2021-06-10T07:57:15.000Z</time>
      </trkpt>
      <trkpt lat="44.5812" lon="6.27808">
        <ele>1523.8000488281</ele>
        <time>2021-06-10T07:57:19.000Z</time>
      </trkpt>
      <trkpt lat="44.58123" lon="6.27804">
        <ele>1524.1999511719</ele>
        <time>2021-06-10T07:57:21.000Z</time>
      </trkpt>
      <trkpt lat="44.58129" lon="6.27793">
        <ele>1525</ele>
        <time>2021-06-10T07:57:26.000Z</time>
      </trkpt>
      <trkpt lat="44.5813" lon="6.27791">
        <ele>1525.1999511719</ele>
        <time>2021-06-10T07:57:27.000Z</time>
      </trkpt>
      <trkpt lat="44.58136" lon="6.27781">
        <ele>1526.1999511719</ele>
        <time>2021-06-10T07:57:32.000Z</time>
      </trkpt>
      <trkpt lat="44.58137" lon="6.27779">
        <ele>1526.4000244141</ele>
        <time>2021-06-10T07:57:33.000Z</time>
      </trkpt>
      <trkpt lat="44.58141" lon="6.27768">
        <ele>1527.8000488281</ele>
        <time>2021-06-10T07:57:38.000Z</time>
      </trkpt>
      <trkpt lat="44.58143" lon="6.27762">
        <ele>1528.1999511719</ele>
        <time>2021-06-10T07:57:40.000Z</time>
      </trkpt>
      <trkpt lat="44.58147" lon="6.27752">
        <ele>1528.5999755859</ele>
        <time>2021-06-10T07:57:44.000Z</time>
      </trkpt>
      <trkpt lat="44.5815" lon="6.27737">
        <ele>1529.5999755859</ele>
        <time>2021-06-10T07:57:49.000Z</time>
      </trkpt>
      <trkpt lat="44.5815" lon="6.27734">
        <ele>1530</ele>
        <time>2021-06-10T07:57:50.000Z</time>
      </trkpt>
      <trkpt lat="44.58151" lon="6.27719">
        <ele>1531</ele>
        <time>2021-06-10T07:57:55.000Z</time>
      </trkpt>
      <trkpt lat="44.58151" lon="6.2771">
        <ele>1531.5999755859</ele>
        <time>2021-06-10T07:57:58.000Z</time>
      </trkpt>
      <trkpt lat="44.58152" lon="6.27701">
        <ele>1532</ele>
        <time>2021-06-10T07:58:01.000Z</time>
      </trkpt>
      <trkpt lat="44.58154" lon="6.27685">
        <ele>1533</ele>
        <time>2021-06-10T07:58:06.000Z</time>
      </trkpt>
      <trkpt lat="44.58155" lon="6.27679">
        <ele>1533.5999755859</ele>
        <time>2021-06-10T07:58:08.000Z</time>
      </trkpt>
      <trkpt lat="44.58157" lon="6.27668">
        <ele>1534.1999511719</ele>
        <time>2021-06-10T07:58:12.000Z</time>
      </trkpt>
      <trkpt lat="44.58161" lon="6.27656">
        <ele>1535.1999511719</ele>
        <time>2021-06-10T07:58:17.000Z</time>
      </trkpt>
      <trkpt lat="44.58163" lon="6.27651">
        <ele>1535.4000244141</ele>
        <time>2021-06-10T07:58:19.000Z</time>
      </trkpt>
      <trkpt lat="44.58169" lon="6.27635">
        <ele>1536.4000244141</ele>
        <time>2021-06-10T07:58:25.000Z</time>
      </trkpt>
      <trkpt lat="44.5817" lon="6.27633">
        <ele>1536.5999755859</ele>
        <time>2021-06-10T07:58:26.000Z</time>
      </trkpt>
      <trkpt lat="44.58174" lon="6.27623">
        <ele>1537.1999511719</ele>
        <time>2021-06-10T07:58:30.000Z</time>
      </trkpt>
      <trkpt lat="44.58178" lon="6.27613">
        <ele>1538.4000244141</ele>
        <time>2021-06-10T07:58:34.000Z</time>
      </trkpt>
      <trkpt lat="44.5818" lon="6.27607">
        <ele>1539</ele>
        <time>2021-06-10T07:58:36.000Z</time>
      </trkpt>
      <trkpt lat="44.58182" lon="6.27602">
        <ele>1539.4000244141</ele>
        <time>2021-06-10T07:58:38.000Z</time>
      </trkpt>
      <trkpt lat="44.58187" lon="6.2759">
        <ele>1540.5999755859</ele>
        <time>2021-06-10T07:58:43.000Z</time>
      </trkpt>
      <trkpt lat="44.58189" lon="6.27588">
        <ele>1540.8000488281</ele>
        <time>2021-06-10T07:58:44.000Z</time>
      </trkpt>
      <trkpt lat="44.58196" lon="6.2758">
        <ele>1541.5999755859</ele>
        <time>2021-06-10T07:58:49.000Z</time>
      </trkpt>
      <trkpt lat="44.58197" lon="6.27578">
        <ele>1542</ele>
        <time>2021-06-10T07:58:51.000Z</time>
      </trkpt>
      <trkpt lat="44.58199" lon="6.27576">
        <ele>1542.8000488281</ele>
        <time>2021-06-10T07:58:54.000Z</time>
      </trkpt>
      <trkpt lat="44.582" lon="6.27576">
        <ele>1543.1999511719</ele>
        <time>2021-06-10T07:58:58.000Z</time>
      </trkpt>
      <trkpt lat="44.582" lon="6.27577">
        <ele>1543.4000244141</ele>
        <time>2021-06-10T07:59:12.000Z</time>
      </trkpt>
      <trkpt lat="44.58199" lon="6.27577">
        <ele>1543.4000244141</ele>
        <time>2021-06-10T07:59:27.000Z</time>
      </trkpt>
      <trkpt lat="44.58199" lon="6.27577">
        <ele>1543.5999755859</ele>
        <time>2021-06-10T07:59:43.000Z</time>
      </trkpt>
      <trkpt lat="44.58199" lon="6.27577">
        <ele>1543.5999755859</ele>
        <time>2021-06-10T07:59:53.000Z</time>
      </trkpt>
      <trkpt lat="44.58204" lon="6.27574">
        <ele>1543.4000244141</ele>
        <time>2021-06-10T08:00:12.000Z</time>
      </trkpt>
      <trkpt lat="44.5822" lon="6.27566">
        <ele>1543.8000488281</ele>
        <time>2021-06-10T08:00:21.000Z</time>
      </trkpt>
      <trkpt lat="44.58226" lon="6.27563">
        <ele>1544.4000244141</ele>
        <time>2021-06-10T08:00:25.000Z</time>
      </trkpt>
      <trkpt lat="44.58235" lon="6.27558">
        <ele>1545.1999511719</ele>
        <time>2021-06-10T08:00:30.000Z</time>
      </trkpt>
      <trkpt lat="44.58239" lon="6.27556">
        <ele>1545.5999755859</ele>
        <time>2021-06-10T08:00:32.000Z</time>
      </trkpt>
      <trkpt lat="44.5825" lon="6.27555">
        <ele>1546.1999511719</ele>
        <time>2021-06-10T08:00:38.000Z</time>
      </trkpt>
      <trkpt lat="44.58252" lon="6.27557">
        <ele>1546.4000244141</ele>
        <time>2021-06-10T08:00:39.000Z</time>
      </trkpt>
      <trkpt lat="44.58259" lon="6.27566">
        <ele>1547.4000244141</ele>
        <time>2021-06-10T08:00:44.000Z</time>
      </trkpt>
      <trkpt lat="44.5826" lon="6.27568">
        <ele>1547.5999755859</ele>
        <time>2021-06-10T08:00:45.000Z</time>
      </trkpt>
      <trkpt lat="44.58264" lon="6.27579">
        <ele>1548.4000244141</ele>
        <time>2021-06-10T08:00:49.000Z</time>
      </trkpt>
      <trkpt lat="44.58264" lon="6.27585">
        <ele>1548.8000488281</ele>
        <time>2021-06-10T08:00:51.000Z</time>
      </trkpt>
      <trkpt lat="44.58264" lon="6.27595">
        <ele>1549.5999755859</ele>
        <time>2021-06-10T08:00:55.000Z</time>
      </trkpt>
      <trkpt lat="44.58264" lon="6.276">
        <ele>1550.1999511719</ele>
        <time>2021-06-10T08:00:57.000Z</time>
      </trkpt>
      <trkpt lat="44.58264" lon="6.27603">
        <ele>1550.4000244141</ele>
        <time>2021-06-10T08:00:58.000Z</time>
      </trkpt>
      <trkpt lat="44.58265" lon="6.27608">
        <ele>1550.8000488281</ele>
        <time>2021-06-10T08:01:00.000Z</time>
      </trkpt>
      <trkpt lat="44.58266" lon="6.2762">
        <ele>1551.8000488281</ele>
        <time>2021-06-10T08:01:04.000Z</time>
      </trkpt>
      <trkpt lat="44.58267" lon="6.27626">
        <ele>1552.4000244141</ele>
        <time>2021-06-10T08:01:06.000Z</time>
      </trkpt>
      <trkpt lat="44.58267" lon="6.27635">
        <ele>1553</ele>
        <time>2021-06-10T08:01:09.000Z</time>
      </trkpt>
      <trkpt lat="44.58268" lon="6.2765">
        <ele>1554</ele>
        <time>2021-06-10T08:01:14.000Z</time>
      </trkpt>
      <trkpt lat="44.58268" lon="6.27655">
        <ele>1554.1999511719</ele>
        <time>2021-06-10T08:01:16.000Z</time>
      </trkpt>
      <trkpt lat="44.58267" lon="6.2767">
        <ele>1554.8000488281</ele>
        <time>2021-06-10T08:01:21.000Z</time>
      </trkpt>
      <trkpt lat="44.58265" lon="6.27681">
        <ele>1555.5999755859</ele>
        <time>2021-06-10T08:01:25.000Z</time>
      </trkpt>
      <trkpt lat="44.58262" lon="6.27686">
        <ele>1556</ele>
        <time>2021-06-10T08:01:27.000Z</time>
      </trkpt>
      <trkpt lat="44.58256" lon="6.27698">
        <ele>1557.1999511719</ele>
        <time>2021-06-10T08:01:32.000Z</time>
      </trkpt>
      <trkpt lat="44.58254" lon="6.277">
        <ele>1557.4000244141</ele>
        <time>2021-06-10T08:01:33.000Z</time>
      </trkpt>
      <trkpt lat="44.58246" lon="6.27708">
        <ele>1558.4000244141</ele>
        <time>2021-06-10T08:01:38.000Z</time>
      </trkpt>
      <trkpt lat="44.58241" lon="6.27713">
        <ele>1559</ele>
        <time>2021-06-10T08:01:41.000Z</time>
      </trkpt>
      <trkpt lat="44.58237" lon="6.27715">
        <ele>1559.4000244141</ele>
        <time>2021-06-10T08:01:43.000Z</time>
      </trkpt>
      <trkpt lat="44.58228" lon="6.2772">
        <ele>1560.1999511719</ele>
        <time>2021-06-10T08:01:48.000Z</time>
      </trkpt>
      <trkpt lat="44.58221" lon="6.27726">
        <ele>1561.1999511719</ele>
        <time>2021-06-10T08:01:52.000Z</time>
      </trkpt>
      <trkpt lat="44.58215" lon="6.27733">
        <ele>1562.1999511719</ele>
        <time>2021-06-10T08:01:56.000Z</time>
      </trkpt>
      <trkpt lat="44.58214" lon="6.27736">
        <ele>1562.5999755859</ele>
        <time>2021-06-10T08:01:57.000Z</time>
      </trkpt>
      <trkpt lat="44.58211" lon="6.27747">
        <ele>1563.4000244141</ele>
        <time>2021-06-10T08:02:01.000Z</time>
      </trkpt>
      <trkpt lat="44.58211" lon="6.2775">
        <ele>1563.5999755859</ele>
        <time>2021-06-10T08:02:02.000Z</time>
      </trkpt>
      <trkpt lat="44.58211" lon="6.27767">
        <ele>1564.4000244141</ele>
        <time>2021-06-10T08:02:08.000Z</time>
      </trkpt>
      <trkpt lat="44.58212" lon="6.27772">
        <ele>1564.8000488281</ele>
        <time>2021-06-10T08:02:10.000Z</time>
      </trkpt>
      <trkpt lat="44.58218" lon="6.27786">
        <ele>1565.8000488281</ele>
        <time>2021-06-10T08:02:15.000Z</time>
      </trkpt>
      <trkpt lat="44.58224" lon="6.27797">
        <ele>1567</ele>
        <time>2021-06-10T08:02:20.000Z</time>
      </trkpt>
      <trkpt lat="44.58228" lon="6.27804">
        <ele>1567.8000488281</ele>
        <time>2021-06-10T08:02:23.000Z</time>
      </trkpt>
      <trkpt lat="44.5823" lon="6.27809">
        <ele>1568</ele>
        <time>2021-06-10T08:02:25.000Z</time>
      </trkpt>
      <trkpt lat="44.58233" lon="6.27816">
        <ele>1568.8000488281</ele>
        <time>2021-06-10T08:02:28.000Z</time>
      </trkpt>
      <trkpt lat="44.58234" lon="6.27819">
        <ele>1569</ele>
        <time>2021-06-10T08:02:29.000Z</time>
      </trkpt>
      <trkpt lat="44.58235" lon="6.27821">
        <ele>1569.1999511719</ele>
        <time>2021-06-10T08:02:30.000Z</time>
      </trkpt>
      <trkpt lat="44.58238" lon="6.27831">
        <ele>1570.1999511719</ele>
        <time>2021-06-10T08:02:34.000Z</time>
      </trkpt>
      <trkpt lat="44.58242" lon="6.27842">
        <ele>1571</ele>
        <time>2021-06-10T08:02:38.000Z</time>
      </trkpt>
      <trkpt lat="44.58243" lon="6.27844">
        <ele>1571</ele>
        <time>2021-06-10T08:02:39.000Z</time>
      </trkpt>
      <trkpt lat="44.58246" lon="6.27856">
        <ele>1572.1999511719</ele>
        <time>2021-06-10T08:02:44.000Z</time>
      </trkpt>
      <trkpt lat="44.58247" lon="6.27859">
        <ele>1572.1999511719</ele>
        <time>2021-06-10T08:02:45.000Z</time>
      </trkpt>
      <trkpt lat="44.5825" lon="6.27871">
        <ele>1573.4000244141</ele>
        <time>2021-06-10T08:02:50.000Z</time>
      </trkpt>
      <trkpt lat="44.58252" lon="6.27881">
        <ele>1574.1999511719</ele>
        <time>2021-06-10T08:02:54.000Z</time>
      </trkpt>
      <trkpt lat="44.58253" lon="6.27883">
        <ele>1574.4000244141</ele>
        <time>2021-06-10T08:02:55.000Z</time>
      </trkpt>
      <trkpt lat="44.58254" lon="6.27898">
        <ele>1575.4000244141</ele>
        <time>2021-06-10T08:03:01.000Z</time>
      </trkpt>
      <trkpt lat="44.58253" lon="6.27901">
        <ele>1575.5999755859</ele>
        <time>2021-06-10T08:03:02.000Z</time>
      </trkpt>
      <trkpt lat="44.58252" lon="6.27917">
        <ele>1576.5999755859</ele>
        <time>2021-06-10T08:03:08.000Z</time>
      </trkpt>
      <trkpt lat="44.58249" lon="6.27928">
        <ele>1577.4000244141</ele>
        <time>2021-06-10T08:03:13.000Z</time>
      </trkpt>
      <trkpt lat="44.58249" lon="6.2793">
        <ele>1577.8000488281</ele>
        <time>2021-06-10T08:03:14.000Z</time>
      </trkpt>
      <trkpt lat="44.58247" lon="6.27945">
        <ele>1578.8000488281</ele>
        <time>2021-06-10T08:03:20.000Z</time>
      </trkpt>
      <trkpt lat="44.58245" lon="6.2795">
        <ele>1579.1999511719</ele>
        <time>2021-06-10T08:03:22.000Z</time>
      </trkpt>
      <trkpt lat="44.58244" lon="6.2796">
        <ele>1579.8000488281</ele>
        <time>2021-06-10T08:03:26.000Z</time>
      </trkpt>
      <trkpt lat="44.58244" lon="6.2797">
        <ele>1580.4000244141</ele>
        <time>2021-06-10T08:03:30.000Z</time>
      </trkpt>
      <trkpt lat="44.58244" lon="6.27978">
        <ele>1581</ele>
        <time>2021-06-10T08:03:33.000Z</time>
      </trkpt>
      <trkpt lat="44.58245" lon="6.27994">
        <ele>1582</ele>
        <time>2021-06-10T08:03:39.000Z</time>
      </trkpt>
      <trkpt lat="44.58246" lon="6.28008">
        <ele>1583</ele>
        <time>2021-06-10T08:03:44.000Z</time>
      </trkpt>
      <trkpt lat="44.58249" lon="6.2802">
        <ele>1584</ele>
        <time>2021-06-10T08:03:49.000Z</time>
      </trkpt>
      <trkpt lat="44.58251" lon="6.28024">
        <ele>1584.1999511719</ele>
        <time>2021-06-10T08:03:51.000Z</time>
      </trkpt>
      <trkpt lat="44.58258" lon="6.28032">
        <ele>1585.1999511719</ele>
        <time>2021-06-10T08:03:56.000Z</time>
      </trkpt>
      <trkpt lat="44.58262" lon="6.28035">
        <ele>1585.8000488281</ele>
        <time>2021-06-10T08:03:58.000Z</time>
      </trkpt>
      <trkpt lat="44.58267" lon="6.28037">
        <ele>1586.1999511719</ele>
        <time>2021-06-10T08:04:01.000Z</time>
      </trkpt>
      <trkpt lat="44.58276" lon="6.28041">
        <ele>1587.4000244141</ele>
        <time>2021-06-10T08:04:06.000Z</time>
      </trkpt>
      <trkpt lat="44.58279" lon="6.28041">
        <ele>1587.8000488281</ele>
        <time>2021-06-10T08:04:08.000Z</time>
      </trkpt>
      <trkpt lat="44.58284" lon="6.28043">
        <ele>1588.5999755859</ele>
        <time>2021-06-10T08:04:11.000Z</time>
      </trkpt>
      <trkpt lat="44.58294" lon="6.28046">
        <ele>1589.4000244141</ele>
        <time>2021-06-10T08:04:16.000Z</time>
      </trkpt>
      <trkpt lat="44.58296" lon="6.28047">
        <ele>1589.5999755859</ele>
        <time>2021-06-10T08:04:17.000Z</time>
      </trkpt>
      <trkpt lat="44.58306" lon="6.28051">
        <ele>1590.5999755859</ele>
        <time>2021-06-10T08:04:23.000Z</time>
      </trkpt>
      <trkpt lat="44.58313" lon="6.28053">
        <ele>1591.5999755859</ele>
        <time>2021-06-10T08:04:27.000Z</time>
      </trkpt>
      <trkpt lat="44.58317" lon="6.28058">
        <ele>1592</ele>
        <time>2021-06-10T08:04:30.000Z</time>
      </trkpt>
      <trkpt lat="44.5832" lon="6.28067">
        <ele>1592.5999755859</ele>
        <time>2021-06-10T08:04:33.000Z</time>
      </trkpt>
      <trkpt lat="44.58326" lon="6.28084">
        <ele>1593.8000488281</ele>
        <time>2021-06-10T08:04:39.000Z</time>
      </trkpt>
      <trkpt lat="44.58339" lon="6.28099">
        <ele>1594.8000488281</ele>
        <time>2021-06-10T08:04:47.000Z</time>
      </trkpt>
      <trkpt lat="44.58341" lon="6.281">
        <ele>1595</ele>
        <time>2021-06-10T08:04:48.000Z</time>
      </trkpt>
      <trkpt lat="44.58356" lon="6.28108">
        <ele>1595.8000488281</ele>
        <time>2021-06-10T08:04:55.000Z</time>
      </trkpt>
      <trkpt lat="44.58358" lon="6.28109">
        <ele>1595.8000488281</ele>
        <time>2021-06-10T08:04:56.000Z</time>
      </trkpt>
      <trkpt lat="44.58367" lon="6.28117">
        <ele>1596.1999511719</ele>
        <time>2021-06-10T08:05:01.000Z</time>
      </trkpt>
      <trkpt lat="44.58374" lon="6.28129">
        <ele>1596.8000488281</ele>
        <time>2021-06-10T08:05:06.000Z</time>
      </trkpt>
      <trkpt lat="44.58377" lon="6.28134">
        <ele>1597</ele>
        <time>2021-06-10T08:05:08.000Z</time>
      </trkpt>
      <trkpt lat="44.58383" lon="6.28148">
        <ele>1597.8000488281</ele>
        <time>2021-06-10T08:05:13.000Z</time>
      </trkpt>
      <trkpt lat="44.58387" lon="6.28156">
        <ele>1598</ele>
        <time>2021-06-10T08:05:16.000Z</time>
      </trkpt>
      <trkpt lat="44.58397" lon="6.28171">
        <ele>1598.5999755859</ele>
        <time>2021-06-10T08:05:22.000Z</time>
      </trkpt>
      <trkpt lat="44.58399" lon="6.28174">
        <ele>1598.8000488281</ele>
        <time>2021-06-10T08:05:23.000Z</time>
      </trkpt>
      <trkpt lat="44.58413" lon="6.28193">
        <ele>1599.1999511719</ele>
        <time>2021-06-10T08:05:31.000Z</time>
      </trkpt>
      <trkpt lat="44.5842" lon="6.28202">
        <ele>1599.5999755859</ele>
        <time>2021-06-10T08:05:35.000Z</time>
      </trkpt>
      <trkpt lat="44.58428" lon="6.28214">
        <ele>1600</ele>
        <time>2021-06-10T08:05:40.000Z</time>
      </trkpt>
      <trkpt lat="44.58434" lon="6.28229">
        <ele>1600.5999755859</ele>
        <time>2021-06-10T08:05:46.000Z</time>
      </trkpt>
      <trkpt lat="44.58435" lon="6.28234">
        <ele>1601</ele>
        <time>2021-06-10T08:05:48.000Z</time>
      </trkpt>
      <trkpt lat="44.58439" lon="6.28245">
        <ele>1601.5999755859</ele>
        <time>2021-06-10T08:05:52.000Z</time>
      </trkpt>
      <trkpt lat="44.58443" lon="6.28255">
        <ele>1602.5999755859</ele>
        <time>2021-06-10T08:05:56.000Z</time>
      </trkpt>
      <trkpt lat="44.58444" lon="6.28257">
        <ele>1602.8000488281</ele>
        <time>2021-06-10T08:05:57.000Z</time>
      </trkpt>
      <trkpt lat="44.58451" lon="6.28268">
        <ele>1603.8000488281</ele>
        <time>2021-06-10T08:06:02.000Z</time>
      </trkpt>
      <trkpt lat="44.58456" lon="6.28273">
        <ele>1604.5999755859</ele>
        <time>2021-06-10T08:06:05.000Z</time>
      </trkpt>
      <trkpt lat="44.58458" lon="6.28277">
        <ele>1604.8000488281</ele>
        <time>2021-06-10T08:06:07.000Z</time>
      </trkpt>
      <trkpt lat="44.58465" lon="6.28287">
        <ele>1606</ele>
        <time>2021-06-10T08:06:12.000Z</time>
      </trkpt>
      <trkpt lat="44.58467" lon="6.28291">
        <ele>1606.5999755859</ele>
        <time>2021-06-10T08:06:14.000Z</time>
      </trkpt>
      <trkpt lat="44.5847" lon="6.28295">
        <ele>1607</ele>
        <time>2021-06-10T08:06:16.000Z</time>
      </trkpt>
      <trkpt lat="44.58476" lon="6.28304">
        <ele>1608.1999511719</ele>
        <time>2021-06-10T08:06:21.000Z</time>
      </trkpt>
      <trkpt lat="44.58479" lon="6.28311">
        <ele>1608.5999755859</ele>
        <time>2021-06-10T08:06:24.000Z</time>
      </trkpt>
      <trkpt lat="44.58482" lon="6.28315">
        <ele>1609</ele>
        <time>2021-06-10T08:06:26.000Z</time>
      </trkpt>
      <trkpt lat="44.58488" lon="6.28327">
        <ele>1610.1999511719</ele>
        <time>2021-06-10T08:06:32.000Z</time>
      </trkpt>
      <trkpt lat="44.58491" lon="6.28335">
        <ele>1610.8000488281</ele>
        <time>2021-06-10T08:06:35.000Z</time>
      </trkpt>
      <trkpt lat="44.58492" lon="6.2834">
        <ele>1611</ele>
        <time>2021-06-10T08:06:37.000Z</time>
      </trkpt>
      <trkpt lat="44.58494" lon="6.28353">
        <ele>1612</ele>
        <time>2021-06-10T08:06:42.000Z</time>
      </trkpt>
      <trkpt lat="44.58493" lon="6.28369">
        <ele>1613.1999511719</ele>
        <time>2021-06-10T08:06:48.000Z</time>
      </trkpt>
      <trkpt lat="44.58493" lon="6.28372">
        <ele>1613.4000244141</ele>
        <time>2021-06-10T08:06:49.000Z</time>
      </trkpt>
      <trkpt lat="44.5849" lon="6.28383">
        <ele>1614.1999511719</ele>
        <time>2021-06-10T08:06:53.000Z</time>
      </trkpt>
      <trkpt lat="44.58487" lon="6.2839">
        <ele>1614.5999755859</ele>
        <time>2021-06-10T08:06:56.000Z</time>
      </trkpt>
      <trkpt lat="44.58481" lon="6.28399">
        <ele>1615</ele>
        <time>2021-06-10T08:07:00.000Z</time>
      </trkpt>
      <trkpt lat="44.58477" lon="6.28405">
        <ele>1615.5999755859</ele>
        <time>2021-06-10T08:07:03.000Z</time>
      </trkpt>
      <trkpt lat="44.58472" lon="6.2841">
        <ele>1616.1999511719</ele>
        <time>2021-06-10T08:07:06.000Z</time>
      </trkpt>
      <trkpt lat="44.58464" lon="6.28417">
        <ele>1617.1999511719</ele>
        <time>2021-06-10T08:07:11.000Z</time>
      </trkpt>
      <trkpt lat="44.58452" lon="6.28422">
        <ele>1618.1999511719</ele>
        <time>2021-06-10T08:07:18.000Z</time>
      </trkpt>
      <trkpt lat="44.58451" lon="6.28423">
        <ele>1618.4000244141</ele>
        <time>2021-06-10T08:07:19.000Z</time>
      </trkpt>
      <trkpt lat="44.58442" lon="6.28427">
        <ele>1619.4000244141</ele>
        <time>2021-06-10T08:07:24.000Z</time>
      </trkpt>
      <trkpt lat="44.58437" lon="6.28431">
        <ele>1619.8000488281</ele>
        <time>2021-06-10T08:07:27.000Z</time>
      </trkpt>
      <trkpt lat="44.58432" lon="6.28436">
        <ele>1620.1999511719</ele>
        <time>2021-06-10T08:07:30.000Z</time>
      </trkpt>
      <trkpt lat="44.58421" lon="6.28445">
        <ele>1621.1999511719</ele>
        <time>2021-06-10T08:07:36.000Z</time>
      </trkpt>
      <trkpt lat="44.58409" lon="6.28455">
        <ele>1622.4000244141</ele>
        <time>2021-06-10T08:07:42.000Z</time>
      </trkpt>
      <trkpt lat="44.58408" lon="6.28457">
        <ele>1622.4000244141</ele>
        <time>2021-06-10T08:07:43.000Z</time>
      </trkpt>
      <trkpt lat="44.584" lon="6.28469">
        <ele>1623.4000244141</ele>
        <time>2021-06-10T08:07:48.000Z</time>
      </trkpt>
      <trkpt lat="44.58399" lon="6.28475">
        <ele>1623.5999755859</ele>
        <time>2021-06-10T08:07:50.000Z</time>
      </trkpt>
      <trkpt lat="44.58398" lon="6.28486">
        <ele>1624.4000244141</ele>
        <time>2021-06-10T08:07:54.000Z</time>
      </trkpt>
      <trkpt lat="44.58397" lon="6.28494">
        <ele>1624.8000488281</ele>
        <time>2021-06-10T08:07:57.000Z</time>
      </trkpt>
      <trkpt lat="44.58398" lon="6.28505">
        <ele>1625.5999755859</ele>
        <time>2021-06-10T08:08:01.000Z</time>
      </trkpt>
      <trkpt lat="44.584" lon="6.28513">
        <ele>1625.8000488281</ele>
        <time>2021-06-10T08:08:04.000Z</time>
      </trkpt>
      <trkpt lat="44.58402" lon="6.28523">
        <ele>1626.4000244141</ele>
        <time>2021-06-10T08:08:08.000Z</time>
      </trkpt>
      <trkpt lat="44.58405" lon="6.28538">
        <ele>1627.4000244141</ele>
        <time>2021-06-10T08:08:14.000Z</time>
      </trkpt>
      <trkpt lat="44.58408" lon="6.2855">
        <ele>1628.5999755859</ele>
        <time>2021-06-10T08:08:19.000Z</time>
      </trkpt>
      <trkpt lat="44.58412" lon="6.28558">
        <ele>1629.8000488281</ele>
        <time>2021-06-10T08:08:23.000Z</time>
      </trkpt>
      <trkpt lat="44.58417" lon="6.28568">
        <ele>1631</ele>
        <time>2021-06-10T08:08:28.000Z</time>
      </trkpt>
      <trkpt lat="44.58422" lon="6.28575">
        <ele>1631.8000488281</ele>
        <time>2021-06-10T08:08:32.000Z</time>
      </trkpt>
      <trkpt lat="44.58423" lon="6.28577">
        <ele>1632</ele>
        <time>2021-06-10T08:08:33.000Z</time>
      </trkpt>
      <trkpt lat="44.58427" lon="6.28587">
        <ele>1633</ele>
        <time>2021-06-10T08:08:38.000Z</time>
      </trkpt>
      <trkpt lat="44.5843" lon="6.28597">
        <ele>1634</ele>
        <time>2021-06-10T08:08:42.000Z</time>
      </trkpt>
      <trkpt lat="44.58431" lon="6.28599">
        <ele>1634.1999511719</ele>
        <time>2021-06-10T08:08:43.000Z</time>
      </trkpt>
      <trkpt lat="44.58433" lon="6.28612">
        <ele>1635.1999511719</ele>
        <time>2021-06-10T08:08:48.000Z</time>
      </trkpt>
      <trkpt lat="44.58434" lon="6.28615">
        <ele>1635.4000244141</ele>
        <time>2021-06-10T08:08:49.000Z</time>
      </trkpt>
      <trkpt lat="44.58437" lon="6.2863">
        <ele>1636.4000244141</ele>
        <time>2021-06-10T08:08:55.000Z</time>
      </trkpt>
      <trkpt lat="44.58437" lon="6.28647">
        <ele>1637.5999755859</ele>
        <time>2021-06-10T08:09:01.000Z</time>
      </trkpt>
      <trkpt lat="44.58435" lon="6.28657">
        <ele>1637.8000488281</ele>
        <time>2021-06-10T08:09:05.000Z</time>
      </trkpt>
      <trkpt lat="44.58433" lon="6.28666">
        <ele>1638.4000244141</ele>
        <time>2021-06-10T08:09:08.000Z</time>
      </trkpt>
      <trkpt lat="44.5843" lon="6.28684">
        <ele>1639.4000244141</ele>
        <time>2021-06-10T08:09:15.000Z</time>
      </trkpt>
      <trkpt lat="44.58428" lon="6.28693">
        <ele>1640.4000244141</ele>
        <time>2021-06-10T08:09:19.000Z</time>
      </trkpt>
      <trkpt lat="44.58425" lon="6.28706">
        <ele>1641.4000244141</ele>
        <time>2021-06-10T08:09:24.000Z</time>
      </trkpt>
      <trkpt lat="44.58422" lon="6.2872">
        <ele>1642.5999755859</ele>
        <time>2021-06-10T08:09:29.000Z</time>
      </trkpt>
      <trkpt lat="44.5842" lon="6.28733">
        <ele>1643.8000488281</ele>
        <time>2021-06-10T08:09:34.000Z</time>
      </trkpt>
      <trkpt lat="44.58419" lon="6.28736">
        <ele>1644</ele>
        <time>2021-06-10T08:09:35.000Z</time>
      </trkpt>
      <trkpt lat="44.58418" lon="6.28752">
        <ele>1645</ele>
        <time>2021-06-10T08:09:41.000Z</time>
      </trkpt>
      <trkpt lat="44.58418" lon="6.28766">
        <ele>1645.8000488281</ele>
        <time>2021-06-10T08:09:46.000Z</time>
      </trkpt>
      <trkpt lat="44.58418" lon="6.28769">
        <ele>1646</ele>
        <time>2021-06-10T08:09:47.000Z</time>
      </trkpt>
      <trkpt lat="44.58419" lon="6.28783">
        <ele>1647</ele>
        <time>2021-06-10T08:09:52.000Z</time>
      </trkpt>
      <trkpt lat="44.58418" lon="6.28792">
        <ele>1647.4000244141</ele>
        <time>2021-06-10T08:09:55.000Z</time>
      </trkpt>
      <trkpt lat="44.58417" lon="6.28801">
        <ele>1648</ele>
        <time>2021-06-10T08:09:58.000Z</time>
      </trkpt>
      <trkpt lat="44.58417" lon="6.28812">
        <ele>1648.8000488281</ele>
        <time>2021-06-10T08:10:02.000Z</time>
      </trkpt>
      <trkpt lat="44.58418" lon="6.28815">
        <ele>1649</ele>
        <time>2021-06-10T08:10:03.000Z</time>
      </trkpt>
      <trkpt lat="44.58422" lon="6.28831">
        <ele>1650</ele>
        <time>2021-06-10T08:10:09.000Z</time>
      </trkpt>
      <trkpt lat="44.58423" lon="6.28834">
        <ele>1650.1999511719</ele>
        <time>2021-06-10T08:10:10.000Z</time>
      </trkpt>
      <trkpt lat="44.58432" lon="6.28846">
        <ele>1651</ele>
        <time>2021-06-10T08:10:16.000Z</time>
      </trkpt>
      <trkpt lat="44.58433" lon="6.28848">
        <ele>1651.4000244141</ele>
        <time>2021-06-10T08:10:17.000Z</time>
      </trkpt>
      <trkpt lat="44.58442" lon="6.28854">
        <ele>1652</ele>
        <time>2021-06-10T08:10:22.000Z</time>
      </trkpt>
      <trkpt lat="44.58444" lon="6.28856">
        <ele>1652.1999511719</ele>
        <time>2021-06-10T08:10:23.000Z</time>
      </trkpt>
      <trkpt lat="44.58454" lon="6.28865">
        <ele>1653.4000244141</ele>
        <time>2021-06-10T08:10:29.000Z</time>
      </trkpt>
      <trkpt lat="44.58457" lon="6.28869">
        <ele>1653.8000488281</ele>
        <time>2021-06-10T08:10:31.000Z</time>
      </trkpt>
      <trkpt lat="44.5846" lon="6.28877">
        <ele>1654.4000244141</ele>
        <time>2021-06-10T08:10:34.000Z</time>
      </trkpt>
      <trkpt lat="44.58463" lon="6.28888">
        <ele>1655.1999511719</ele>
        <time>2021-06-10T08:10:38.000Z</time>
      </trkpt>
      <trkpt lat="44.58464" lon="6.28894">
        <ele>1655.5999755859</ele>
        <time>2021-06-10T08:10:40.000Z</time>
      </trkpt>
      <trkpt lat="44.58466" lon="6.28908">
        <ele>1656.4000244141</ele>
        <time>2021-06-10T08:10:45.000Z</time>
      </trkpt>
      <trkpt lat="44.58466" lon="6.28911">
        <ele>1656.5999755859</ele>
        <time>2021-06-10T08:10:46.000Z</time>
      </trkpt>
      <trkpt lat="44.58462" lon="6.28923">
        <ele>1657.8000488281</ele>
        <time>2021-06-10T08:10:51.000Z</time>
      </trkpt>
      <trkpt lat="44.58461" lon="6.28925">
        <ele>1657.8000488281</ele>
        <time>2021-06-10T08:10:52.000Z</time>
      </trkpt>
      <trkpt lat="44.58455" lon="6.28933">
        <ele>1658.5999755859</ele>
        <time>2021-06-10T08:10:56.000Z</time>
      </trkpt>
      <trkpt lat="44.58447" lon="6.2894">
        <ele>1659.5999755859</ele>
        <time>2021-06-10T08:11:00.000Z</time>
      </trkpt>
      <trkpt lat="44.58446" lon="6.28942">
        <ele>1659.8000488281</ele>
        <time>2021-06-10T08:11:01.000Z</time>
      </trkpt>
      <trkpt lat="44.58437" lon="6.28952">
        <ele>1660.8000488281</ele>
        <time>2021-06-10T08:11:06.000Z</time>
      </trkpt>
      <trkpt lat="44.58432" lon="6.28959">
        <ele>1661.4000244141</ele>
        <time>2021-06-10T08:11:09.000Z</time>
      </trkpt>
      <trkpt lat="44.58426" lon="6.28968">
        <ele>1662</ele>
        <time>2021-06-10T08:11:13.000Z</time>
      </trkpt>
      <trkpt lat="44.58418" lon="6.28977">
        <ele>1662.8000488281</ele>
        <time>2021-06-10T08:11:18.000Z</time>
      </trkpt>
      <trkpt lat="44.58409" lon="6.2899">
        <ele>1663.8000488281</ele>
        <time>2021-06-10T08:11:24.000Z</time>
      </trkpt>
      <trkpt lat="44.58406" lon="6.28994">
        <ele>1664.1999511719</ele>
        <time>2021-06-10T08:11:26.000Z</time>
      </trkpt>
      <trkpt lat="44.58402" lon="6.29002">
        <ele>1664.8000488281</ele>
        <time>2021-06-10T08:11:29.000Z</time>
      </trkpt>
      <trkpt lat="44.58398" lon="6.29016">
        <ele>1665.8000488281</ele>
        <time>2021-06-10T08:11:34.000Z</time>
      </trkpt>
      <trkpt lat="44.58398" lon="6.29019">
        <ele>1665.8000488281</ele>
        <time>2021-06-10T08:11:35.000Z</time>
      </trkpt>
      <trkpt lat="44.584" lon="6.29035">
        <ele>1666.5999755859</ele>
        <time>2021-06-10T08:11:40.000Z</time>
      </trkpt>
      <trkpt lat="44.584" lon="6.2904">
        <ele>1667</ele>
        <time>2021-06-10T08:11:42.000Z</time>
      </trkpt>
      <trkpt lat="44.58404" lon="6.29056">
        <ele>1667.5999755859</ele>
        <time>2021-06-10T08:11:48.000Z</time>
      </trkpt>
      <trkpt lat="44.58409" lon="6.29067">
        <ele>1668</ele>
        <time>2021-06-10T08:11:53.000Z</time>
      </trkpt>
      <trkpt lat="44.58409" lon="6.29067">
        <ele>1668</ele>
        <time>2021-06-10T08:11:54.000Z</time>
      </trkpt>
      <trkpt lat="44.58411" lon="6.29065">
        <ele>1668.1999511719</ele>
        <time>2021-06-10T08:11:59.000Z</time>
      </trkpt>
      <trkpt lat="44.58412" lon="6.29065">
        <ele>1668.4000244141</ele>
        <time>2021-06-10T08:12:12.000Z</time>
      </trkpt>
      <trkpt lat="44.58412" lon="6.29065">
        <ele>1668.4000244141</ele>
        <time>2021-06-10T08:12:35.000Z</time>
      </trkpt>
      <trkpt lat="44.58414" lon="6.29067">
        <ele>1668.4000244141</ele>
        <time>2021-06-10T08:12:42.000Z</time>
      </trkpt>
      <trkpt lat="44.58414" lon="6.29067">
        <ele>1668.4000244141</ele>
        <time>2021-06-10T08:12:53.000Z</time>
      </trkpt>
      <trkpt lat="44.58414" lon="6.29067">
        <ele>1668.1999511719</ele>
        <time>2021-06-10T08:13:17.000Z</time>
      </trkpt>
      <trkpt lat="44.58414" lon="6.29067">
        <ele>1668</ele>
        <time>2021-06-10T08:13:44.000Z</time>
      </trkpt>
      <trkpt lat="44.58414" lon="6.29067">
        <ele>1668</ele>
        <time>2021-06-10T08:14:16.000Z</time>
      </trkpt>
      <trkpt lat="44.58414" lon="6.29067">
        <ele>1667.8000488281</ele>
        <time>2021-06-10T08:14:30.000Z</time>
      </trkpt>
      <trkpt lat="44.58414" lon="6.29067">
        <ele>1668</ele>
        <time>2021-06-10T08:14:36.000Z</time>
      </trkpt>
      <trkpt lat="44.58414" lon="6.29067">
        <ele>1668.1999511719</ele>
        <time>2021-06-10T08:14:50.000Z</time>
      </trkpt>
      <trkpt lat="44.58412" lon="6.29065">
        <ele>1668.1999511719</ele>
        <time>2021-06-10T08:14:58.000Z</time>
      </trkpt>
      <trkpt lat="44.58412" lon="6.29065">
        <ele>1668</ele>
        <time>2021-06-10T08:15:10.000Z</time>
      </trkpt>
      <trkpt lat="44.58412" lon="6.29065">
        <ele>1668</ele>
        <time>2021-06-10T08:15:20.000Z</time>
      </trkpt>
      <trkpt lat="44.58412" lon="6.29066">
        <ele>1668.1999511719</ele>
        <time>2021-06-10T08:15:33.000Z</time>
      </trkpt>
      <trkpt lat="44.58412" lon="6.29067">
        <ele>1667.8000488281</ele>
        <time>2021-06-10T08:15:38.000Z</time>
      </trkpt>
      <trkpt lat="44.58413" lon="6.29072">
        <ele>1667.8000488281</ele>
        <time>2021-06-10T08:15:40.000Z</time>
      </trkpt>
      <trkpt lat="44.58418" lon="6.29096">
        <ele>1668</ele>
        <time>2021-06-10T08:15:48.000Z</time>
      </trkpt>
      <trkpt lat="44.5842" lon="6.29102">
        <ele>1668</ele>
        <time>2021-06-10T08:15:50.000Z</time>
      </trkpt>
      <trkpt lat="44.58425" lon="6.29124">
        <ele>1668.5999755859</ele>
        <time>2021-06-10T08:15:57.000Z</time>
      </trkpt>
      <trkpt lat="44.58427" lon="6.29139">
        <ele>1669.5999755859</ele>
        <time>2021-06-10T08:16:02.000Z</time>
      </trkpt>
      <trkpt lat="44.58427" lon="6.29146">
        <ele>1670.1999511719</ele>
        <time>2021-06-10T08:16:04.000Z</time>
      </trkpt>
      <trkpt lat="44.58427" lon="6.29152">
        <ele>1670.8000488281</ele>
        <time>2021-06-10T08:16:06.000Z</time>
      </trkpt>
      <trkpt lat="44.58427" lon="6.29178">
        <ele>1671.8000488281</ele>
        <time>2021-06-10T08:16:14.000Z</time>
      </trkpt>
      <trkpt lat="44.58427" lon="6.29195">
        <ele>1673</ele>
        <time>2021-06-10T08:16:19.000Z</time>
      </trkpt>
      <trkpt lat="44.58428" lon="6.29207">
        <ele>1673.8000488281</ele>
        <time>2021-06-10T08:16:23.000Z</time>
      </trkpt>
      <trkpt lat="44.58432" lon="6.29219">
        <ele>1674.8000488281</ele>
        <time>2021-06-10T08:16:27.000Z</time>
      </trkpt>
      <trkpt lat="44.58437" lon="6.29225">
        <ele>1675.1999511719</ele>
        <time>2021-06-10T08:16:30.000Z</time>
      </trkpt>
      <trkpt lat="44.5844" lon="6.2923">
        <ele>1675.8000488281</ele>
        <time>2021-06-10T08:16:32.000Z</time>
      </trkpt>
      <trkpt lat="44.58448" lon="6.29236">
        <ele>1676.5999755859</ele>
        <time>2021-06-10T08:16:36.000Z</time>
      </trkpt>
      <trkpt lat="44.58453" lon="6.29238">
        <ele>1676.8000488281</ele>
        <time>2021-06-10T08:16:38.000Z</time>
      </trkpt>
      <trkpt lat="44.58461" lon="6.2924">
        <ele>1678</ele>
        <time>2021-06-10T08:16:42.000Z</time>
      </trkpt>
      <trkpt lat="44.58466" lon="6.2924">
        <ele>1678.4000244141</ele>
        <time>2021-06-10T08:16:44.000Z</time>
      </trkpt>
      <trkpt lat="44.58472" lon="6.29237">
        <ele>1678.8000488281</ele>
        <time>2021-06-10T08:16:47.000Z</time>
      </trkpt>
      <trkpt lat="44.58479" lon="6.29232">
        <ele>1679.8000488281</ele>
        <time>2021-06-10T08:16:51.000Z</time>
      </trkpt>
      <trkpt lat="44.58481" lon="6.2923">
        <ele>1680</ele>
        <time>2021-06-10T08:16:52.000Z</time>
      </trkpt>
      <trkpt lat="44.58489" lon="6.2922">
        <ele>1681.1999511719</ele>
        <time>2021-06-10T08:16:57.000Z</time>
      </trkpt>
      <trkpt lat="44.58494" lon="6.29213">
        <ele>1682.1999511719</ele>
        <time>2021-06-10T08:17:00.000Z</time>
      </trkpt>
      <trkpt lat="44.58501" lon="6.29205">
        <ele>1683</ele>
        <time>2021-06-10T08:17:04.000Z</time>
      </trkpt>
      <trkpt lat="44.58504" lon="6.29201">
        <ele>1683.4000244141</ele>
        <time>2021-06-10T08:17:06.000Z</time>
      </trkpt>
      <trkpt lat="44.58514" lon="6.29194">
        <ele>1684.5999755859</ele>
        <time>2021-06-10T08:17:11.000Z</time>
      </trkpt>
      <trkpt lat="44.58516" lon="6.29193">
        <ele>1684.5999755859</ele>
        <time>2021-06-10T08:17:12.000Z</time>
      </trkpt>
      <trkpt lat="44.58525" lon="6.29194">
        <ele>1685.5999755859</ele>
        <time>2021-06-10T08:17:17.000Z</time>
      </trkpt>
      <trkpt lat="44.58533" lon="6.29208">
        <ele>1686.4000244141</ele>
        <time>2021-06-10T08:17:23.000Z</time>
      </trkpt>
      <trkpt lat="44.58535" lon="6.29212">
        <ele>1686.8000488281</ele>
        <time>2021-06-10T08:17:25.000Z</time>
      </trkpt>
      <trkpt lat="44.58539" lon="6.29219">
        <ele>1687.5999755859</ele>
        <time>2021-06-10T08:17:28.000Z</time>
      </trkpt>
      <trkpt lat="44.58545" lon="6.29226">
        <ele>1688.5999755859</ele>
        <time>2021-06-10T08:17:32.000Z</time>
      </trkpt>
      <trkpt lat="44.58546" lon="6.29228">
        <ele>1688.5999755859</ele>
        <time>2021-06-10T08:17:33.000Z</time>
      </trkpt>
      <trkpt lat="44.58553" lon="6.29234">
        <ele>1689.8000488281</ele>
        <time>2021-06-10T08:17:37.000Z</time>
      </trkpt>
      <trkpt lat="44.58557" lon="6.29237">
        <ele>1690.1999511719</ele>
        <time>2021-06-10T08:17:39.000Z</time>
      </trkpt>
      <trkpt lat="44.58562" lon="6.29241">
        <ele>1691</ele>
        <time>2021-06-10T08:17:42.000Z</time>
      </trkpt>
      <trkpt lat="44.5857" lon="6.29249">
        <ele>1692.1999511719</ele>
        <time>2021-06-10T08:17:47.000Z</time>
      </trkpt>
      <trkpt lat="44.58572" lon="6.29253">
        <ele>1692.8000488281</ele>
        <time>2021-06-10T08:17:49.000Z</time>
      </trkpt>
      <trkpt lat="44.58574" lon="6.29258">
        <ele>1693.1999511719</ele>
        <time>2021-06-10T08:17:51.000Z</time>
      </trkpt>
      <trkpt lat="44.58577" lon="6.29268">
        <ele>1694.4000244141</ele>
        <time>2021-06-10T08:17:55.000Z</time>
      </trkpt>
      <trkpt lat="44.58579" lon="6.29275">
        <ele>1695.5999755859</ele>
        <time>2021-06-10T08:17:58.000Z</time>
      </trkpt>
      <trkpt lat="44.58582" lon="6.29282">
        <ele>1696.5999755859</ele>
        <time>2021-06-10T08:18:01.000Z</time>
      </trkpt>
      <trkpt lat="44.58583" lon="6.29285">
        <ele>1697</ele>
        <time>2021-06-10T08:18:02.000Z</time>
      </trkpt>
      <trkpt lat="44.58587" lon="6.29293">
        <ele>1697.8000488281</ele>
        <time>2021-06-10T08:18:06.000Z</time>
      </trkpt>
      <trkpt lat="44.58591" lon="6.29297">
        <ele>1698</ele>
        <time>2021-06-10T08:18:08.000Z</time>
      </trkpt>
      <trkpt lat="44.58596" lon="6.29297">
        <ele>1698.8000488281</ele>
        <time>2021-06-10T08:18:11.000Z</time>
      </trkpt>
      <trkpt lat="44.58599" lon="6.29296">
        <ele>1699.1999511719</ele>
        <time>2021-06-10T08:18:13.000Z</time>
      </trkpt>
      <trkpt lat="44.58601" lon="6.29296">
        <ele>1699.4000244141</ele>
        <time>2021-06-10T08:18:14.000Z</time>
      </trkpt>
      <trkpt lat="44.58604" lon="6.29295">
        <ele>1699.8000488281</ele>
        <time>2021-06-10T08:18:16.000Z</time>
      </trkpt>
      <trkpt lat="44.5861" lon="6.29294">
        <ele>1701</ele>
        <time>2021-06-10T08:18:20.000Z</time>
      </trkpt>
      <trkpt lat="44.58617" lon="6.29293">
        <ele>1702.4000244141</ele>
        <time>2021-06-10T08:18:24.000Z</time>
      </trkpt>
      <trkpt lat="44.58618" lon="6.29292">
        <ele>1702.5999755859</ele>
        <time>2021-06-10T08:18:25.000Z</time>
      </trkpt>
      <trkpt lat="44.58623" lon="6.29292">
        <ele>1703.5999755859</ele>
        <time>2021-06-10T08:18:28.000Z</time>
      </trkpt>
      <trkpt lat="44.5863" lon="6.29292">
        <ele>1704.8000488281</ele>
        <time>2021-06-10T08:18:32.000Z</time>
      </trkpt>
      <trkpt lat="44.58632" lon="6.29292">
        <ele>1705</ele>
        <time>2021-06-10T08:18:33.000Z</time>
      </trkpt>
      <trkpt lat="44.58638" lon="6.29294">
        <ele>1705.5999755859</ele>
        <time>2021-06-10T08:18:37.000Z</time>
      </trkpt>
      <trkpt lat="44.58642" lon="6.29294">
        <ele>1706.1999511719</ele>
        <time>2021-06-10T08:18:40.000Z</time>
      </trkpt>
      <trkpt lat="44.58645" lon="6.29294">
        <ele>1706.8000488281</ele>
        <time>2021-06-10T08:18:42.000Z</time>
      </trkpt>
      <trkpt lat="44.5865" lon="6.29294">
        <ele>1707.8000488281</ele>
        <time>2021-06-10T08:18:45.000Z</time>
      </trkpt>
      <trkpt lat="44.58653" lon="6.29294">
        <ele>1708.4000244141</ele>
        <time>2021-06-10T08:18:47.000Z</time>
      </trkpt>
      <trkpt lat="44.58657" lon="6.29293">
        <ele>1709</ele>
        <time>2021-06-10T08:18:49.000Z</time>
      </trkpt>
      <trkpt lat="44.5866" lon="6.29292">
        <ele>1710</ele>
        <time>2021-06-10T08:18:51.000Z</time>
      </trkpt>
      <trkpt lat="44.58665" lon="6.29291">
        <ele>1711</ele>
        <time>2021-06-10T08:18:54.000Z</time>
      </trkpt>
      <trkpt lat="44.58667" lon="6.29291">
        <ele>1711.1999511719</ele>
        <time>2021-06-10T08:18:55.000Z</time>
      </trkpt>
      <trkpt lat="44.58673" lon="6.2929">
        <ele>1712.5999755859</ele>
        <time>2021-06-10T08:18:59.000Z</time>
      </trkpt>
      <trkpt lat="44.58677" lon="6.29288">
        <ele>1713.5999755859</ele>
        <time>2021-06-10T08:19:02.000Z</time>
      </trkpt>
      <trkpt lat="44.58679" lon="6.29288">
        <ele>1714</ele>
        <time>2021-06-10T08:19:03.000Z</time>
      </trkpt>
      <trkpt lat="44.58682" lon="6.29287">
        <ele>1714.5999755859</ele>
        <time>2021-06-10T08:19:05.000Z</time>
      </trkpt>
      <trkpt lat="44.58687" lon="6.29286">
        <ele>1715.8000488281</ele>
        <time>2021-06-10T08:19:08.000Z</time>
      </trkpt>
      <trkpt lat="44.58691" lon="6.29286">
        <ele>1717</ele>
        <time>2021-06-10T08:19:11.000Z</time>
      </trkpt>
      <trkpt lat="44.58692" lon="6.29286">
        <ele>1717.1999511719</ele>
        <time>2021-06-10T08:19:12.000Z</time>
      </trkpt>
      <trkpt lat="44.58696" lon="6.29287">
        <ele>1718.1999511719</ele>
        <time>2021-06-10T08:19:15.000Z</time>
      </trkpt>
      <trkpt lat="44.58702" lon="6.29289">
        <ele>1719.5999755859</ele>
        <time>2021-06-10T08:19:19.000Z</time>
      </trkpt>
      <trkpt lat="44.58705" lon="6.2929">
        <ele>1720.1999511719</ele>
        <time>2021-06-10T08:19:21.000Z</time>
      </trkpt>
      <trkpt lat="44.58708" lon="6.29292">
        <ele>1720.8000488281</ele>
        <time>2021-06-10T08:19:23.000Z</time>
      </trkpt>
      <trkpt lat="44.58714" lon="6.29295">
        <ele>1722</ele>
        <time>2021-06-10T08:19:27.000Z</time>
      </trkpt>
      <trkpt lat="44.58717" lon="6.29296">
        <ele>1722.8000488281</ele>
        <time>2021-06-10T08:19:29.000Z</time>
      </trkpt>
      <trkpt lat="44.58718" lon="6.29296">
        <ele>1723.1999511719</ele>
        <time>2021-06-10T08:19:30.000Z</time>
      </trkpt>
      <trkpt lat="44.58723" lon="6.29297">
        <ele>1724.1999511719</ele>
        <time>2021-06-10T08:19:33.000Z</time>
      </trkpt>
      <trkpt lat="44.58728" lon="6.293">
        <ele>1725.1999511719</ele>
        <time>2021-06-10T08:19:36.000Z</time>
      </trkpt>
      <trkpt lat="44.5873" lon="6.293">
        <ele>1725.5999755859</ele>
        <time>2021-06-10T08:19:37.000Z</time>
      </trkpt>
      <trkpt lat="44.58733" lon="6.29301">
        <ele>1726.4000244141</ele>
        <time>2021-06-10T08:19:39.000Z</time>
      </trkpt>
      <trkpt lat="44.58737" lon="6.29302">
        <ele>1727.4000244141</ele>
        <time>2021-06-10T08:19:42.000Z</time>
      </trkpt>
      <trkpt lat="44.58742" lon="6.29303">
        <ele>1728.1999511719</ele>
        <time>2021-06-10T08:19:45.000Z</time>
      </trkpt>
      <trkpt lat="44.58746" lon="6.29308">
        <ele>1729.5999755859</ele>
        <time>2021-06-10T08:19:48.000Z</time>
      </trkpt>
      <trkpt lat="44.58748" lon="6.29314">
        <ele>1730.1999511719</ele>
        <time>2021-06-10T08:19:50.000Z</time>
      </trkpt>
      <trkpt lat="44.58748" lon="6.29317">
        <ele>1730.5999755859</ele>
        <time>2021-06-10T08:19:51.000Z</time>
      </trkpt>
      <trkpt lat="44.5875" lon="6.29324">
        <ele>1731.8000488281</ele>
        <time>2021-06-10T08:19:54.000Z</time>
      </trkpt>
      <trkpt lat="44.5875" lon="6.29328">
        <ele>1732.5999755859</ele>
        <time>2021-06-10T08:19:56.000Z</time>
      </trkpt>
      <trkpt lat="44.5875" lon="6.29332">
        <ele>1733</ele>
        <time>2021-06-10T08:19:58.000Z</time>
      </trkpt>
      <trkpt lat="44.58749" lon="6.29345">
        <ele>1734</ele>
        <time>2021-06-10T08:20:04.000Z</time>
      </trkpt>
      <trkpt lat="44.58749" lon="6.2935">
        <ele>1734.5999755859</ele>
        <time>2021-06-10T08:20:06.000Z</time>
      </trkpt>
      <trkpt lat="44.58747" lon="6.29355">
        <ele>1735.4000244141</ele>
        <time>2021-06-10T08:20:08.000Z</time>
      </trkpt>
      <trkpt lat="44.58746" lon="6.29362">
        <ele>1736.4000244141</ele>
        <time>2021-06-10T08:20:11.000Z</time>
      </trkpt>
      <trkpt lat="44.58746" lon="6.29367">
        <ele>1737.1999511719</ele>
        <time>2021-06-10T08:20:13.000Z</time>
      </trkpt>
      <trkpt lat="44.58745" lon="6.2937">
        <ele>1737.8000488281</ele>
        <time>2021-06-10T08:20:14.000Z</time>
      </trkpt>
      <trkpt lat="44.58744" lon="6.29378">
        <ele>1739</ele>
        <time>2021-06-10T08:20:17.000Z</time>
      </trkpt>
      <trkpt lat="44.58744" lon="6.29384">
        <ele>1739.5999755859</ele>
        <time>2021-06-10T08:20:19.000Z</time>
      </trkpt>
      <trkpt lat="44.58744" lon="6.2939">
        <ele>1740.1999511719</ele>
        <time>2021-06-10T08:20:21.000Z</time>
      </trkpt>
      <trkpt lat="44.58741" lon="6.294">
        <ele>1740.1999511719</ele>
        <time>2021-06-10T08:20:25.000Z</time>
      </trkpt>
      <trkpt lat="44.58734" lon="6.2942">
        <ele>1740</ele>
        <time>2021-06-10T08:20:31.000Z</time>
      </trkpt>
      <trkpt lat="44.58728" lon="6.29437">
        <ele>1738.5999755859</ele>
        <time>2021-06-10T08:20:36.000Z</time>
      </trkpt>
      <trkpt lat="44.58727" lon="6.29442">
        <ele>1737.5999755859</ele>
        <time>2021-06-10T08:20:38.000Z</time>
      </trkpt>
      <trkpt lat="44.58724" lon="6.29447">
        <ele>1736.1999511719</ele>
        <time>2021-06-10T08:20:40.000Z</time>
      </trkpt>
      <trkpt lat="44.58724" lon="6.29449">
        <ele>1734.8000488281</ele>
        <time>2021-06-10T08:20:41.000Z</time>
      </trkpt>
      <trkpt lat="44.58722" lon="6.29453">
        <ele>1733.8000488281</ele>
        <time>2021-06-10T08:20:43.000Z</time>
      </trkpt>
      <trkpt lat="44.58721" lon="6.29454">
        <ele>1733.5999755859</ele>
        <time>2021-06-10T08:20:44.000Z</time>
      </trkpt>
      <trkpt lat="44.5872" lon="6.29458">
        <ele>1732.8000488281</ele>
        <time>2021-06-10T08:20:49.000Z</time>
      </trkpt>
      <trkpt lat="44.58716" lon="6.2946">
        <ele>1732.1999511719</ele>
        <time>2021-06-10T08:20:52.000Z</time>
      </trkpt>
      <trkpt lat="44.58711" lon="6.29461">
        <ele>1732</ele>
        <time>2021-06-10T08:20:55.000Z</time>
      </trkpt>
      <trkpt lat="44.58706" lon="6.29463">
        <ele>1732</ele>
        <time>2021-06-10T08:20:58.000Z</time>
      </trkpt>
      <trkpt lat="44.58686" lon="6.29472">
        <ele>1732.4000244141</ele>
        <time>2021-06-10T08:21:08.000Z</time>
      </trkpt>
      <trkpt lat="44.58679" lon="6.29476">
        <ele>1733.1999511719</ele>
        <time>2021-06-10T08:21:11.000Z</time>
      </trkpt>
      <trkpt lat="44.58672" lon="6.29479">
        <ele>1734.1999511719</ele>
        <time>2021-06-10T08:21:14.000Z</time>
      </trkpt>
      <trkpt lat="44.58669" lon="6.2948">
        <ele>1734.4000244141</ele>
        <time>2021-06-10T08:21:15.000Z</time>
      </trkpt>
      <trkpt lat="44.58661" lon="6.2948">
        <ele>1735.4000244141</ele>
        <time>2021-06-10T08:21:19.000Z</time>
      </trkpt>
      <trkpt lat="44.58659" lon="6.29479">
        <ele>1735.8000488281</ele>
        <time>2021-06-10T08:21:20.000Z</time>
      </trkpt>
      <trkpt lat="44.58649" lon="6.2948">
        <ele>1736.4000244141</ele>
        <time>2021-06-10T08:21:25.000Z</time>
      </trkpt>
      <trkpt lat="44.58645" lon="6.29481">
        <ele>1736.4000244141</ele>
        <time>2021-06-10T08:21:27.000Z</time>
      </trkpt>
      <trkpt lat="44.5863" lon="6.29486">
        <ele>1737.4000244141</ele>
        <time>2021-06-10T08:21:33.000Z</time>
      </trkpt>
      <trkpt lat="44.58629" lon="6.29487">
        <ele>1737.5999755859</ele>
        <time>2021-06-10T08:21:34.000Z</time>
      </trkpt>
      <trkpt lat="44.58624" lon="6.29488">
        <ele>1738.5999755859</ele>
        <time>2021-06-10T08:21:37.000Z</time>
      </trkpt>
      <trkpt lat="44.58619" lon="6.29493">
        <ele>1739.4000244141</ele>
        <time>2021-06-10T08:21:40.000Z</time>
      </trkpt>
      <trkpt lat="44.58615" lon="6.29499">
        <ele>1739.8000488281</ele>
        <time>2021-06-10T08:21:43.000Z</time>
      </trkpt>
      <trkpt lat="44.58613" lon="6.29503">
        <ele>1739.8000488281</ele>
        <time>2021-06-10T08:21:45.000Z</time>
      </trkpt>
      <trkpt lat="44.58612" lon="6.29508">
        <ele>1740</ele>
        <time>2021-06-10T08:21:47.000Z</time>
      </trkpt>
      <trkpt lat="44.58611" lon="6.29511">
        <ele>1740</ele>
        <time>2021-06-10T08:21:48.000Z</time>
      </trkpt>
      <trkpt lat="44.58609" lon="6.29526">
        <ele>1740.5999755859</ele>
        <time>2021-06-10T08:21:54.000Z</time>
      </trkpt>
      <trkpt lat="44.58608" lon="6.29527">
        <ele>1740.8000488281</ele>
        <time>2021-06-10T08:21:55.000Z</time>
      </trkpt>
      <trkpt lat="44.58607" lon="6.29532">
        <ele>1741.5999755859</ele>
        <time>2021-06-10T08:21:59.000Z</time>
      </trkpt>
      <trkpt lat="44.58606" lon="6.29537">
        <ele>1742.4000244141</ele>
        <time>2021-06-10T08:22:02.000Z</time>
      </trkpt>
      <trkpt lat="44.58606" lon="6.29539">
        <ele>1742.8000488281</ele>
        <time>2021-06-10T08:22:03.000Z</time>
      </trkpt>
      <trkpt lat="44.58601" lon="6.29551">
        <ele>1743.8000488281</ele>
        <time>2021-06-10T08:22:09.000Z</time>
      </trkpt>
      <trkpt lat="44.58596" lon="6.2956">
        <ele>1745</ele>
        <time>2021-06-10T08:22:15.000Z</time>
      </trkpt>
      <trkpt lat="44.58594" lon="6.2956">
        <ele>1745</ele>
        <time>2021-06-10T08:22:16.000Z</time>
      </trkpt>
      <trkpt lat="44.58589" lon="6.29562">
        <ele>1746</ele>
        <time>2021-06-10T08:22:20.000Z</time>
      </trkpt>
      <trkpt lat="44.58584" lon="6.29564">
        <ele>1746.8000488281</ele>
        <time>2021-06-10T08:22:23.000Z</time>
      </trkpt>
      <trkpt lat="44.58583" lon="6.29565">
        <ele>1747.1999511719</ele>
        <time>2021-06-10T08:22:24.000Z</time>
      </trkpt>
      <trkpt lat="44.58576" lon="6.2957">
        <ele>1748.1999511719</ele>
        <time>2021-06-10T08:22:28.000Z</time>
      </trkpt>
      <trkpt lat="44.58572" lon="6.29574">
        <ele>1749.4000244141</ele>
        <time>2021-06-10T08:22:31.000Z</time>
      </trkpt>
      <trkpt lat="44.58564" lon="6.29584">
        <ele>1750.4000244141</ele>
        <time>2021-06-10T08:22:37.000Z</time>
      </trkpt>
      <trkpt lat="44.58563" lon="6.29586">
        <ele>1750.5999755859</ele>
        <time>2021-06-10T08:22:38.000Z</time>
      </trkpt>
      <trkpt lat="44.58561" lon="6.29594">
        <ele>1751.5999755859</ele>
        <time>2021-06-10T08:22:42.000Z</time>
      </trkpt>
      <trkpt lat="44.5856" lon="6.29595">
        <ele>1751.8000488281</ele>
        <time>2021-06-10T08:22:43.000Z</time>
      </trkpt>
      <trkpt lat="44.58557" lon="6.29601">
        <ele>1752.8000488281</ele>
        <time>2021-06-10T08:22:46.000Z</time>
      </trkpt>
      <trkpt lat="44.58557" lon="6.2961">
        <ele>1754</ele>
        <time>2021-06-10T08:22:50.000Z</time>
      </trkpt>
      <trkpt lat="44.58559" lon="6.29619">
        <ele>1755.1999511719</ele>
        <time>2021-06-10T08:22:54.000Z</time>
      </trkpt>
      <trkpt lat="44.58561" lon="6.29623">
        <ele>1756</ele>
        <time>2021-06-10T08:22:56.000Z</time>
      </trkpt>
      <trkpt lat="44.58561" lon="6.29625">
        <ele>1756.4000244141</ele>
        <time>2021-06-10T08:22:57.000Z</time>
      </trkpt>
      <trkpt lat="44.58563" lon="6.29629">
        <ele>1757.8000488281</ele>
        <time>2021-06-10T08:22:59.000Z</time>
      </trkpt>
      <trkpt lat="44.58567" lon="6.29634">
        <ele>1759.1999511719</ele>
        <time>2021-06-10T08:23:02.000Z</time>
      </trkpt>
      <trkpt lat="44.58568" lon="6.29635">
        <ele>1759.4000244141</ele>
        <time>2021-06-10T08:23:03.000Z</time>
      </trkpt>
      <trkpt lat="44.5857" lon="6.29637">
        <ele>1760.1999511719</ele>
        <time>2021-06-10T08:23:05.000Z</time>
      </trkpt>
      <trkpt lat="44.58573" lon="6.2964">
        <ele>1761.5999755859</ele>
        <time>2021-06-10T08:23:08.000Z</time>
      </trkpt>
      <trkpt lat="44.58575" lon="6.29642">
        <ele>1762.4000244141</ele>
        <time>2021-06-10T08:23:10.000Z</time>
      </trkpt>
      <trkpt lat="44.58576" lon="6.29643">
        <ele>1762.8000488281</ele>
        <time>2021-06-10T08:23:11.000Z</time>
      </trkpt>
      <trkpt lat="44.58578" lon="6.29644">
        <ele>1763.5999755859</ele>
        <time>2021-06-10T08:23:13.000Z</time>
      </trkpt>
      <trkpt lat="44.58579" lon="6.29645">
        <ele>1764</ele>
        <time>2021-06-10T08:23:14.000Z</time>
      </trkpt>
      <trkpt lat="44.58582" lon="6.29647">
        <ele>1765.1999511719</ele>
        <time>2021-06-10T08:23:17.000Z</time>
      </trkpt>
      <trkpt lat="44.58583" lon="6.2965">
        <ele>1765.5999755859</ele>
        <time>2021-06-10T08:23:18.000Z</time>
      </trkpt>
      <trkpt lat="44.58584" lon="6.29651">
        <ele>1765.8000488281</ele>
        <time>2021-06-10T08:23:19.000Z</time>
      </trkpt>
      <trkpt lat="44.58585" lon="6.29653">
        <ele>1766.1999511719</ele>
        <time>2021-06-10T08:23:20.000Z</time>
      </trkpt>
      <trkpt lat="44.58586" lon="6.29663">
        <ele>1767.4000244141</ele>
        <time>2021-06-10T08:23:24.000Z</time>
      </trkpt>
      <trkpt lat="44.58586" lon="6.29668">
        <ele>1768</ele>
        <time>2021-06-10T08:23:26.000Z</time>
      </trkpt>
      <trkpt lat="44.58587" lon="6.2967">
        <ele>1768.5999755859</ele>
        <time>2021-06-10T08:23:27.000Z</time>
      </trkpt>
      <trkpt lat="44.58585" lon="6.29679">
        <ele>1769.5999755859</ele>
        <time>2021-06-10T08:23:31.000Z</time>
      </trkpt>
      <trkpt lat="44.58585" lon="6.29685">
        <ele>1770.1999511719</ele>
        <time>2021-06-10T08:23:34.000Z</time>
      </trkpt>
      <trkpt lat="44.58586" lon="6.2969">
        <ele>1770.8000488281</ele>
        <time>2021-06-10T08:23:37.000Z</time>
      </trkpt>
      <trkpt lat="44.58586" lon="6.29698">
        <ele>1772</ele>
        <time>2021-06-10T08:23:41.000Z</time>
      </trkpt>
      <trkpt lat="44.58586" lon="6.29706">
        <ele>1773.1999511719</ele>
        <time>2021-06-10T08:23:45.000Z</time>
      </trkpt>
      <trkpt lat="44.58587" lon="6.29713">
        <ele>1774</ele>
        <time>2021-06-10T08:23:48.000Z</time>
      </trkpt>
      <trkpt lat="44.58587" lon="6.29715">
        <ele>1774.1999511719</ele>
        <time>2021-06-10T08:23:49.000Z</time>
      </trkpt>
      <trkpt lat="44.5859" lon="6.2972">
        <ele>1775.4000244141</ele>
        <time>2021-06-10T08:23:52.000Z</time>
      </trkpt>
      <trkpt lat="44.58592" lon="6.29723">
        <ele>1776</ele>
        <time>2021-06-10T08:23:54.000Z</time>
      </trkpt>
      <trkpt lat="44.58592" lon="6.29725">
        <ele>1776.5999755859</ele>
        <time>2021-06-10T08:23:55.000Z</time>
      </trkpt>
      <trkpt lat="44.58596" lon="6.29734">
        <ele>1777.8000488281</ele>
        <time>2021-06-10T08:23:59.000Z</time>
      </trkpt>
      <trkpt lat="44.58597" lon="6.29738">
        <ele>1778.5999755859</ele>
        <time>2021-06-10T08:24:01.000Z</time>
      </trkpt>
      <trkpt lat="44.58597" lon="6.2974">
        <ele>1779</ele>
        <time>2021-06-10T08:24:02.000Z</time>
      </trkpt>
      <trkpt lat="44.58598" lon="6.29745">
        <ele>1780</ele>
        <time>2021-06-10T08:24:05.000Z</time>
      </trkpt>
      <trkpt lat="44.58597" lon="6.29751">
        <ele>1780.8000488281</ele>
        <time>2021-06-10T08:24:08.000Z</time>
      </trkpt>
      <trkpt lat="44.58597" lon="6.29754">
        <ele>1781</ele>
        <time>2021-06-10T08:24:09.000Z</time>
      </trkpt>
      <trkpt lat="44.58595" lon="6.29761">
        <ele>1782</ele>
        <time>2021-06-10T08:24:13.000Z</time>
      </trkpt>
      <trkpt lat="44.58593" lon="6.29766">
        <ele>1782.8000488281</ele>
        <time>2021-06-10T08:24:16.000Z</time>
      </trkpt>
      <trkpt lat="44.58591" lon="6.2977">
        <ele>1783.1999511719</ele>
        <time>2021-06-10T08:24:18.000Z</time>
      </trkpt>
      <trkpt lat="44.58589" lon="6.29777">
        <ele>1784.4000244141</ele>
        <time>2021-06-10T08:24:22.000Z</time>
      </trkpt>
      <trkpt lat="44.58588" lon="6.29779">
        <ele>1784.8000488281</ele>
        <time>2021-06-10T08:24:23.000Z</time>
      </trkpt>
      <trkpt lat="44.58587" lon="6.29782">
        <ele>1785</ele>
        <time>2021-06-10T08:24:24.000Z</time>
      </trkpt>
      <trkpt lat="44.58587" lon="6.29786">
        <ele>1785.5999755859</ele>
        <time>2021-06-10T08:24:26.000Z</time>
      </trkpt>
      <trkpt lat="44.58583" lon="6.29797">
        <ele>1786.8000488281</ele>
        <time>2021-06-10T08:24:31.000Z</time>
      </trkpt>
      <trkpt lat="44.58581" lon="6.29799">
        <ele>1786.8000488281</ele>
        <time>2021-06-10T08:24:32.000Z</time>
      </trkpt>
      <trkpt lat="44.58571" lon="6.29811">
        <ele>1787.8000488281</ele>
        <time>2021-06-10T08:24:39.000Z</time>
      </trkpt>
      <trkpt lat="44.5857" lon="6.29813">
        <ele>1787.8000488281</ele>
        <time>2021-06-10T08:24:40.000Z</time>
      </trkpt>
      <trkpt lat="44.58564" lon="6.29819">
        <ele>1788.8000488281</ele>
        <time>2021-06-10T08:24:45.000Z</time>
      </trkpt>
      <trkpt lat="44.5856" lon="6.29823">
        <ele>1789.4000244141</ele>
        <time>2021-06-10T08:24:48.000Z</time>
      </trkpt>
      <trkpt lat="44.58557" lon="6.29826">
        <ele>1790</ele>
        <time>2021-06-10T08:24:50.000Z</time>
      </trkpt>
      <trkpt lat="44.58553" lon="6.2983">
        <ele>1791.1999511719</ele>
        <time>2021-06-10T08:24:53.000Z</time>
      </trkpt>
      <trkpt lat="44.58549" lon="6.29836">
        <ele>1792.4000244141</ele>
        <time>2021-06-10T08:24:56.000Z</time>
      </trkpt>
      <trkpt lat="44.58547" lon="6.29841">
        <ele>1793.4000244141</ele>
        <time>2021-06-10T08:24:59.000Z</time>
      </trkpt>
      <trkpt lat="44.58544" lon="6.29843">
        <ele>1794.1999511719</ele>
        <time>2021-06-10T08:25:02.000Z</time>
      </trkpt>
      <trkpt lat="44.58543" lon="6.29845">
        <ele>1794.5999755859</ele>
        <time>2021-06-10T08:25:03.000Z</time>
      </trkpt>
      <trkpt lat="44.58537" lon="6.29851">
        <ele>1795.5999755859</ele>
        <time>2021-06-10T08:25:08.000Z</time>
      </trkpt>
      <trkpt lat="44.58536" lon="6.29854">
        <ele>1795.8000488281</ele>
        <time>2021-06-10T08:25:10.000Z</time>
      </trkpt>
      <trkpt lat="44.58536" lon="6.29861">
        <ele>1796</ele>
        <time>2021-06-10T08:25:13.000Z</time>
      </trkpt>
      <trkpt lat="44.58536" lon="6.29862">
        <ele>1796.1999511719</ele>
        <time>2021-06-10T08:25:14.000Z</time>
      </trkpt>
      <trkpt lat="44.58537" lon="6.29868">
        <ele>1796.8000488281</ele>
        <time>2021-06-10T08:25:17.000Z</time>
      </trkpt>
      <trkpt lat="44.58539" lon="6.29872">
        <ele>1798</ele>
        <time>2021-06-10T08:25:20.000Z</time>
      </trkpt>
      <trkpt lat="44.58543" lon="6.29877">
        <ele>1799</ele>
        <time>2021-06-10T08:25:24.000Z</time>
      </trkpt>
      <trkpt lat="44.58546" lon="6.29881">
        <ele>1800</ele>
        <time>2021-06-10T08:25:27.000Z</time>
      </trkpt>
      <trkpt lat="44.58547" lon="6.29883">
        <ele>1800.1999511719</ele>
        <time>2021-06-10T08:25:28.000Z</time>
      </trkpt>
      <trkpt lat="44.5855" lon="6.29886">
        <ele>1801</ele>
        <time>2021-06-10T08:25:31.000Z</time>
      </trkpt>
      <trkpt lat="44.58551" lon="6.29887">
        <ele>1801</ele>
        <time>2021-06-10T08:25:32.000Z</time>
      </trkpt>
      <trkpt lat="44.58556" lon="6.29888">
        <ele>1802.1999511719</ele>
        <time>2021-06-10T08:25:36.000Z</time>
      </trkpt>
      <trkpt lat="44.58558" lon="6.29888">
        <ele>1802.5999755859</ele>
        <time>2021-06-10T08:25:38.000Z</time>
      </trkpt>
      <trkpt lat="44.5856" lon="6.29887">
        <ele>1803.1999511719</ele>
        <time>2021-06-10T08:25:40.000Z</time>
      </trkpt>
      <trkpt lat="44.58564" lon="6.29884">
        <ele>1804.4000244141</ele>
        <time>2021-06-10T08:25:43.000Z</time>
      </trkpt>
      <trkpt lat="44.58565" lon="6.29882">
        <ele>1804.8000488281</ele>
        <time>2021-06-10T08:25:44.000Z</time>
      </trkpt>
      <trkpt lat="44.58568" lon="6.2988">
        <ele>1806.1999511719</ele>
        <time>2021-06-10T08:25:46.000Z</time>
      </trkpt>
      <trkpt lat="44.58573" lon="6.29881">
        <ele>1807.5999755859</ele>
        <time>2021-06-10T08:25:49.000Z</time>
      </trkpt>
      <trkpt lat="44.58576" lon="6.29881">
        <ele>1808.5999755859</ele>
        <time>2021-06-10T08:25:51.000Z</time>
      </trkpt>
      <trkpt lat="44.58577" lon="6.29881">
        <ele>1809</ele>
        <time>2021-06-10T08:25:52.000Z</time>
      </trkpt>
      <trkpt lat="44.58582" lon="6.29882">
        <ele>1810.1999511719</ele>
        <time>2021-06-10T08:25:55.000Z</time>
      </trkpt>
      <trkpt lat="44.58584" lon="6.29882">
        <ele>1810.5999755859</ele>
        <time>2021-06-10T08:25:56.000Z</time>
      </trkpt>
      <trkpt lat="44.58589" lon="6.29882">
        <ele>1811.4000244141</ele>
        <time>2021-06-10T08:25:59.000Z</time>
      </trkpt>
      <trkpt lat="44.58593" lon="6.29882">
        <ele>1812.4000244141</ele>
        <time>2021-06-10T08:26:02.000Z</time>
      </trkpt>
      <trkpt lat="44.58598" lon="6.29882">
        <ele>1813.8000488281</ele>
        <time>2021-06-10T08:26:05.000Z</time>
      </trkpt>
      <trkpt lat="44.58603" lon="6.29883">
        <ele>1815</ele>
        <time>2021-06-10T08:26:08.000Z</time>
      </trkpt>
      <trkpt lat="44.58608" lon="6.29884">
        <ele>1816</ele>
        <time>2021-06-10T08:26:11.000Z</time>
      </trkpt>
      <trkpt lat="44.58612" lon="6.29887">
        <ele>1817</ele>
        <time>2021-06-10T08:26:14.000Z</time>
      </trkpt>
      <trkpt lat="44.58619" lon="6.29891">
        <ele>1818.1999511719</ele>
        <time>2021-06-10T08:26:18.000Z</time>
      </trkpt>
      <trkpt lat="44.58625" lon="6.29893">
        <ele>1819.4000244141</ele>
        <time>2021-06-10T08:26:22.000Z</time>
      </trkpt>
      <trkpt lat="44.58632" lon="6.29894">
        <ele>1820.5999755859</ele>
        <time>2021-06-10T08:26:26.000Z</time>
      </trkpt>
      <trkpt lat="44.58638" lon="6.29897">
        <ele>1821.8000488281</ele>
        <time>2021-06-10T08:26:30.000Z</time>
      </trkpt>
      <trkpt lat="44.58639" lon="6.29898">
        <ele>1822</ele>
        <time>2021-06-10T08:26:31.000Z</time>
      </trkpt>
      <trkpt lat="44.58645" lon="6.29899">
        <ele>1823</ele>
        <time>2021-06-10T08:26:35.000Z</time>
      </trkpt>
      <trkpt lat="44.5865" lon="6.29899">
        <ele>1824.4000244141</ele>
        <time>2021-06-10T08:26:39.000Z</time>
      </trkpt>
      <trkpt lat="44.58653" lon="6.29899">
        <ele>1825.4000244141</ele>
        <time>2021-06-10T08:26:41.000Z</time>
      </trkpt>
      <trkpt lat="44.58657" lon="6.29898">
        <ele>1826.1999511719</ele>
        <time>2021-06-10T08:26:44.000Z</time>
      </trkpt>
      <trkpt lat="44.58663" lon="6.29899">
        <ele>1827.4000244141</ele>
        <time>2021-06-10T08:26:48.000Z</time>
      </trkpt>
      <trkpt lat="44.5867" lon="6.299">
        <ele>1828.5999755859</ele>
        <time>2021-06-10T08:26:53.000Z</time>
      </trkpt>
      <trkpt lat="44.58676" lon="6.29904">
        <ele>1829.5999755859</ele>
        <time>2021-06-10T08:26:57.000Z</time>
      </trkpt>
      <trkpt lat="44.58677" lon="6.29904">
        <ele>1830</ele>
        <time>2021-06-10T08:26:58.000Z</time>
      </trkpt>
      <trkpt lat="44.58682" lon="6.29905">
        <ele>1830.8000488281</ele>
        <time>2021-06-10T08:27:01.000Z</time>
      </trkpt>
      <trkpt lat="44.58687" lon="6.29905">
        <ele>1832.1999511719</ele>
        <time>2021-06-10T08:27:05.000Z</time>
      </trkpt>
      <trkpt lat="44.58689" lon="6.29904">
        <ele>1832.8000488281</ele>
        <time>2021-06-10T08:27:07.000Z</time>
      </trkpt>
      <trkpt lat="44.58691" lon="6.29903">
        <ele>1833.1999511719</ele>
        <time>2021-06-10T08:27:08.000Z</time>
      </trkpt>
      <trkpt lat="44.58693" lon="6.29901">
        <ele>1834.4000244141</ele>
        <time>2021-06-10T08:27:10.000Z</time>
      </trkpt>
      <trkpt lat="44.58697" lon="6.29899">
        <ele>1835.5999755859</ele>
        <time>2021-06-10T08:27:13.000Z</time>
      </trkpt>
      <trkpt lat="44.58699" lon="6.29898">
        <ele>1835.8000488281</ele>
        <time>2021-06-10T08:27:14.000Z</time>
      </trkpt>
      <trkpt lat="44.58702" lon="6.29896">
        <ele>1836.5999755859</ele>
        <time>2021-06-10T08:27:16.000Z</time>
      </trkpt>
      <trkpt lat="44.58708" lon="6.29894">
        <ele>1837.8000488281</ele>
        <time>2021-06-10T08:27:20.000Z</time>
      </trkpt>
      <trkpt lat="44.58713" lon="6.29891">
        <ele>1839</ele>
        <time>2021-06-10T08:27:24.000Z</time>
      </trkpt>
      <trkpt lat="44.5872" lon="6.29887">
        <ele>1840.4000244141</ele>
        <time>2021-06-10T08:27:29.000Z</time>
      </trkpt>
      <trkpt lat="44.58726" lon="6.29884">
        <ele>1841.4000244141</ele>
        <time>2021-06-10T08:27:33.000Z</time>
      </trkpt>
      <trkpt lat="44.5873" lon="6.29883">
        <ele>1842.5999755859</ele>
        <time>2021-06-10T08:27:36.000Z</time>
      </trkpt>
      <trkpt lat="44.58737" lon="6.29882">
        <ele>1844</ele>
        <time>2021-06-10T08:27:40.000Z</time>
      </trkpt>
      <trkpt lat="44.5874" lon="6.29882">
        <ele>1844.5999755859</ele>
        <time>2021-06-10T08:27:42.000Z</time>
      </trkpt>
      <trkpt lat="44.58742" lon="6.29882">
        <ele>1845.1999511719</ele>
        <time>2021-06-10T08:27:44.000Z</time>
      </trkpt>
      <trkpt lat="44.58746" lon="6.29885">
        <ele>1846.1999511719</ele>
        <time>2021-06-10T08:27:47.000Z</time>
      </trkpt>
      <trkpt lat="44.58751" lon="6.29887">
        <ele>1847.1999511719</ele>
        <time>2021-06-10T08:27:50.000Z</time>
      </trkpt>
      <trkpt lat="44.58755" lon="6.2989">
        <ele>1848.4000244141</ele>
        <time>2021-06-10T08:27:53.000Z</time>
      </trkpt>
      <trkpt lat="44.58758" lon="6.29893">
        <ele>1849.5999755859</ele>
        <time>2021-06-10T08:27:56.000Z</time>
      </trkpt>
      <trkpt lat="44.58761" lon="6.29893">
        <ele>1850.1999511719</ele>
        <time>2021-06-10T08:27:58.000Z</time>
      </trkpt>
      <trkpt lat="44.58762" lon="6.29893">
        <ele>1850.8000488281</ele>
        <time>2021-06-10T08:27:59.000Z</time>
      </trkpt>
      <trkpt lat="44.58767" lon="6.29896">
        <ele>1852</ele>
        <time>2021-06-10T08:28:02.000Z</time>
      </trkpt>
      <trkpt lat="44.58768" lon="6.29897">
        <ele>1852.5999755859</ele>
        <time>2021-06-10T08:28:03.000Z</time>
      </trkpt>
      <trkpt lat="44.58769" lon="6.29899">
        <ele>1853.8000488281</ele>
        <time>2021-06-10T08:28:04.000Z</time>
      </trkpt>
      <trkpt lat="44.58771" lon="6.29902">
        <ele>1855</ele>
        <time>2021-06-10T08:28:07.000Z</time>
      </trkpt>
      <trkpt lat="44.58773" lon="6.29902">
        <ele>1856</ele>
        <time>2021-06-10T08:28:09.000Z</time>
      </trkpt>
      <trkpt lat="44.58773" lon="6.29902">
        <ele>1856.4000244141</ele>
        <time>2021-06-10T08:28:10.000Z</time>
      </trkpt>
      <trkpt lat="44.58775" lon="6.29902">
        <ele>1857.4000244141</ele>
        <time>2021-06-10T08:28:12.000Z</time>
      </trkpt>
      <trkpt lat="44.58776" lon="6.29902">
        <ele>1857.5999755859</ele>
        <time>2021-06-10T08:28:13.000Z</time>
      </trkpt>
      <trkpt lat="44.58779" lon="6.29901">
        <ele>1858.4000244141</ele>
        <time>2021-06-10T08:28:16.000Z</time>
      </trkpt>
      <trkpt lat="44.58782" lon="6.299">
        <ele>1859.1999511719</ele>
        <time>2021-06-10T08:28:19.000Z</time>
      </trkpt>
      <trkpt lat="44.58785" lon="6.299">
        <ele>1859.5999755859</ele>
        <time>2021-06-10T08:28:23.000Z</time>
      </trkpt>
      <trkpt lat="44.58787" lon="6.299">
        <ele>1859.8000488281</ele>
        <time>2021-06-10T08:28:25.000Z</time>
      </trkpt>
      <trkpt lat="44.58793" lon="6.299">
        <ele>1860.8000488281</ele>
        <time>2021-06-10T08:28:31.000Z</time>
      </trkpt>
      <trkpt lat="44.58798" lon="6.299">
        <ele>1861.5999755859</ele>
        <time>2021-06-10T08:28:36.000Z</time>
      </trkpt>
      <trkpt lat="44.58808" lon="6.299">
        <ele>1862.5999755859</ele>
        <time>2021-06-10T08:28:45.000Z</time>
      </trkpt>
      <trkpt lat="44.58819" lon="6.29896">
        <ele>1863.8000488281</ele>
        <time>2021-06-10T08:28:53.000Z</time>
      </trkpt>
      <trkpt lat="44.58826" lon="6.29893">
        <ele>1864.5999755859</ele>
        <time>2021-06-10T08:28:58.000Z</time>
      </trkpt>
      <trkpt lat="44.58827" lon="6.29892">
        <ele>1865.1999511719</ele>
        <time>2021-06-10T08:28:59.000Z</time>
      </trkpt>
      <trkpt lat="44.58829" lon="6.29891">
        <ele>1865.4000244141</ele>
        <time>2021-06-10T08:29:00.000Z</time>
      </trkpt>
      <trkpt lat="44.58832" lon="6.29888">
        <ele>1866.1999511719</ele>
        <time>2021-06-10T08:29:03.000Z</time>
      </trkpt>
      <trkpt lat="44.58838" lon="6.29884">
        <ele>1867.4000244141</ele>
        <time>2021-06-10T08:29:08.000Z</time>
      </trkpt>
      <trkpt lat="44.5884" lon="6.29883">
        <ele>1867.5999755859</ele>
        <time>2021-06-10T08:29:09.000Z</time>
      </trkpt>
      <trkpt lat="44.58843" lon="6.29881">
        <ele>1868.5999755859</ele>
        <time>2021-06-10T08:29:12.000Z</time>
      </trkpt>
      <trkpt lat="44.58848" lon="6.29877">
        <ele>1869.4000244141</ele>
        <time>2021-06-10T08:29:16.000Z</time>
      </trkpt>
      <trkpt lat="44.5885" lon="6.29875">
        <ele>1870.1999511719</ele>
        <time>2021-06-10T08:29:18.000Z</time>
      </trkpt>
      <trkpt lat="44.58852" lon="6.29874">
        <ele>1870.4000244141</ele>
        <time>2021-06-10T08:29:19.000Z</time>
      </trkpt>
      <trkpt lat="44.58856" lon="6.29871">
        <ele>1871.5999755859</ele>
        <time>2021-06-10T08:29:23.000Z</time>
      </trkpt>
      <trkpt lat="44.5886" lon="6.29868">
        <ele>1872.5999755859</ele>
        <time>2021-06-10T08:29:26.000Z</time>
      </trkpt>
      <trkpt lat="44.58861" lon="6.29867">
        <ele>1872.8000488281</ele>
        <time>2021-06-10T08:29:27.000Z</time>
      </trkpt>
      <trkpt lat="44.58866" lon="6.29867">
        <ele>1873.8000488281</ele>
        <time>2021-06-10T08:29:30.000Z</time>
      </trkpt>
      <trkpt lat="44.58871" lon="6.29868">
        <ele>1875</ele>
        <time>2021-06-10T08:29:34.000Z</time>
      </trkpt>
      <trkpt lat="44.58877" lon="6.2987">
        <ele>1876.1999511719</ele>
        <time>2021-06-10T08:29:38.000Z</time>
      </trkpt>
      <trkpt lat="44.58882" lon="6.29873">
        <ele>1877.1999511719</ele>
        <time>2021-06-10T08:29:42.000Z</time>
      </trkpt>
      <trkpt lat="44.58883" lon="6.29874">
        <ele>1877.5999755859</ele>
        <time>2021-06-10T08:29:43.000Z</time>
      </trkpt>
      <trkpt lat="44.58886" lon="6.29878">
        <ele>1879</ele>
        <time>2021-06-10T08:29:46.000Z</time>
      </trkpt>
      <trkpt lat="44.58889" lon="6.29883">
        <ele>1880.1999511719</ele>
        <time>2021-06-10T08:29:49.000Z</time>
      </trkpt>
      <trkpt lat="44.58892" lon="6.29888">
        <ele>1881.4000244141</ele>
        <time>2021-06-10T08:29:52.000Z</time>
      </trkpt>
      <trkpt lat="44.58893" lon="6.29894">
        <ele>1882.5999755859</ele>
        <time>2021-06-10T08:29:55.000Z</time>
      </trkpt>
      <trkpt lat="44.58893" lon="6.29899">
        <ele>1883.1999511719</ele>
        <time>2021-06-10T08:29:57.000Z</time>
      </trkpt>
      <trkpt lat="44.58895" lon="6.29903">
        <ele>1883.8000488281</ele>
        <time>2021-06-10T08:29:59.000Z</time>
      </trkpt>
      <trkpt lat="44.58896" lon="6.29907">
        <ele>1884.4000244141</ele>
        <time>2021-06-10T08:30:01.000Z</time>
      </trkpt>
      <trkpt lat="44.58896" lon="6.29912">
        <ele>1884.8000488281</ele>
        <time>2021-06-10T08:30:03.000Z</time>
      </trkpt>
      <trkpt lat="44.58898" lon="6.29921">
        <ele>1885.8000488281</ele>
        <time>2021-06-10T08:30:07.000Z</time>
      </trkpt>
      <trkpt lat="44.589" lon="6.29927">
        <ele>1886.8000488281</ele>
        <time>2021-06-10T08:30:10.000Z</time>
      </trkpt>
      <trkpt lat="44.589" lon="6.29929">
        <ele>1887.1999511719</ele>
        <time>2021-06-10T08:30:11.000Z</time>
      </trkpt>
      <trkpt lat="44.58901" lon="6.29935">
        <ele>1888.5999755859</ele>
        <time>2021-06-10T08:30:14.000Z</time>
      </trkpt>
      <trkpt lat="44.58901" lon="6.29941">
        <ele>1889.5999755859</ele>
        <time>2021-06-10T08:30:17.000Z</time>
      </trkpt>
      <trkpt lat="44.58902" lon="6.29943">
        <ele>1890</ele>
        <time>2021-06-10T08:30:18.000Z</time>
      </trkpt>
      <trkpt lat="44.58902" lon="6.29948">
        <ele>1890.8000488281</ele>
        <time>2021-06-10T08:30:20.000Z</time>
      </trkpt>
      <trkpt lat="44.58902" lon="6.29952">
        <ele>1892.1999511719</ele>
        <time>2021-06-10T08:30:22.000Z</time>
      </trkpt>
      <trkpt lat="44.58903" lon="6.29961">
        <ele>1893</ele>
        <time>2021-06-10T08:30:26.000Z</time>
      </trkpt>
      <trkpt lat="44.58904" lon="6.29963">
        <ele>1893.1999511719</ele>
        <time>2021-06-10T08:30:27.000Z</time>
      </trkpt>
      <trkpt lat="44.58904" lon="6.29971">
        <ele>1894</ele>
        <time>2021-06-10T08:30:31.000Z</time>
      </trkpt>
      <trkpt lat="44.58905" lon="6.29977">
        <ele>1895</ele>
        <time>2021-06-10T08:30:34.000Z</time>
      </trkpt>
      <trkpt lat="44.58905" lon="6.29979">
        <ele>1895.1999511719</ele>
        <time>2021-06-10T08:30:35.000Z</time>
      </trkpt>
      <trkpt lat="44.58906" lon="6.29984">
        <ele>1896.4000244141</ele>
        <time>2021-06-10T08:30:38.000Z</time>
      </trkpt>
      <trkpt lat="44.58907" lon="6.2999">
        <ele>1897.8000488281</ele>
        <time>2021-06-10T08:30:41.000Z</time>
      </trkpt>
      <trkpt lat="44.58908" lon="6.29994">
        <ele>1898.5999755859</ele>
        <time>2021-06-10T08:30:43.000Z</time>
      </trkpt>
      <trkpt lat="44.58909" lon="6.29996">
        <ele>1899</ele>
        <time>2021-06-10T08:30:44.000Z</time>
      </trkpt>
      <trkpt lat="44.58908" lon="6.30002">
        <ele>1900.4000244141</ele>
        <time>2021-06-10T08:30:47.000Z</time>
      </trkpt>
      <trkpt lat="44.58907" lon="6.30009">
        <ele>1901.5999755859</ele>
        <time>2021-06-10T08:30:50.000Z</time>
      </trkpt>
      <trkpt lat="44.58905" lon="6.30017">
        <ele>1902.8000488281</ele>
        <time>2021-06-10T08:30:54.000Z</time>
      </trkpt>
      <trkpt lat="44.58902" lon="6.30025">
        <ele>1903.5999755859</ele>
        <time>2021-06-10T08:30:59.000Z</time>
      </trkpt>
      <trkpt lat="44.58901" lon="6.30027">
        <ele>1903.8000488281</ele>
        <time>2021-06-10T08:31:00.000Z</time>
      </trkpt>
      <trkpt lat="44.58897" lon="6.30039">
        <ele>1904.8000488281</ele>
        <time>2021-06-10T08:31:06.000Z</time>
      </trkpt>
      <trkpt lat="44.58896" lon="6.30043">
        <ele>1904.8000488281</ele>
        <time>2021-06-10T08:31:08.000Z</time>
      </trkpt>
      <trkpt lat="44.58889" lon="6.30055">
        <ele>1905.8000488281</ele>
        <time>2021-06-10T08:31:15.000Z</time>
      </trkpt>
      <trkpt lat="44.58888" lon="6.30057">
        <ele>1905.8000488281</ele>
        <time>2021-06-10T08:31:16.000Z</time>
      </trkpt>
      <trkpt lat="44.58879" lon="6.30068">
        <ele>1906.5999755859</ele>
        <time>2021-06-10T08:31:23.000Z</time>
      </trkpt>
      <trkpt lat="44.58877" lon="6.30069">
        <ele>1906.5999755859</ele>
        <time>2021-06-10T08:31:24.000Z</time>
      </trkpt>
      <trkpt lat="44.5887" lon="6.30083">
        <ele>1907.5999755859</ele>
        <time>2021-06-10T08:31:32.000Z</time>
      </trkpt>
      <trkpt lat="44.58863" lon="6.30092">
        <ele>1908.8000488281</ele>
        <time>2021-06-10T08:31:38.000Z</time>
      </trkpt>
      <trkpt lat="44.58861" lon="6.30095">
        <ele>1909.1999511719</ele>
        <time>2021-06-10T08:31:40.000Z</time>
      </trkpt>
      <trkpt lat="44.58856" lon="6.301">
        <ele>1910</ele>
        <time>2021-06-10T08:31:44.000Z</time>
      </trkpt>
      <trkpt lat="44.58852" lon="6.30106">
        <ele>1910.8000488281</ele>
        <time>2021-06-10T08:31:48.000Z</time>
      </trkpt>
      <trkpt lat="44.5885" lon="6.30109">
        <ele>1911.1999511719</ele>
        <time>2021-06-10T08:31:50.000Z</time>
      </trkpt>
      <trkpt lat="44.58846" lon="6.30121">
        <ele>1912</ele>
        <time>2021-06-10T08:31:56.000Z</time>
      </trkpt>
      <trkpt lat="44.58844" lon="6.30129">
        <ele>1913</ele>
        <time>2021-06-10T08:32:00.000Z</time>
      </trkpt>
      <trkpt lat="44.58842" lon="6.30138">
        <ele>1914.4000244141</ele>
        <time>2021-06-10T08:32:04.000Z</time>
      </trkpt>
      <trkpt lat="44.58842" lon="6.30153">
        <ele>1915.5999755859</ele>
        <time>2021-06-10T08:32:10.000Z</time>
      </trkpt>
      <trkpt lat="44.58842" lon="6.30155">
        <ele>1915.8000488281</ele>
        <time>2021-06-10T08:32:11.000Z</time>
      </trkpt>
      <trkpt lat="44.5884" lon="6.30159">
        <ele>1916.5999755859</ele>
        <time>2021-06-10T08:32:13.000Z</time>
      </trkpt>
      <trkpt lat="44.58838" lon="6.30167">
        <ele>1918.1999511719</ele>
        <time>2021-06-10T08:32:17.000Z</time>
      </trkpt>
      <trkpt lat="44.58836" lon="6.30173">
        <ele>1919.8000488281</ele>
        <time>2021-06-10T08:32:20.000Z</time>
      </trkpt>
      <trkpt lat="44.58835" lon="6.30179">
        <ele>1921</ele>
        <time>2021-06-10T08:32:23.000Z</time>
      </trkpt>
      <trkpt lat="44.58834" lon="6.30187">
        <ele>1922.1999511719</ele>
        <time>2021-06-10T08:32:27.000Z</time>
      </trkpt>
      <trkpt lat="44.58833" lon="6.30189">
        <ele>1922.5999755859</ele>
        <time>2021-06-10T08:32:28.000Z</time>
      </trkpt>
      <trkpt lat="44.58832" lon="6.30191">
        <ele>1922.8000488281</ele>
        <time>2021-06-10T08:32:29.000Z</time>
      </trkpt>
      <trkpt lat="44.58831" lon="6.30195">
        <ele>1923.1999511719</ele>
        <time>2021-06-10T08:32:31.000Z</time>
      </trkpt>
      <trkpt lat="44.58831" lon="6.30201">
        <ele>1924</ele>
        <time>2021-06-10T08:32:34.000Z</time>
      </trkpt>
      <trkpt lat="44.5883" lon="6.30203">
        <ele>1924.4000244141</ele>
        <time>2021-06-10T08:32:35.000Z</time>
      </trkpt>
      <trkpt lat="44.5883" lon="6.30208">
        <ele>1924.8000488281</ele>
        <time>2021-06-10T08:32:37.000Z</time>
      </trkpt>
      <trkpt lat="44.58829" lon="6.30212">
        <ele>1925.4000244141</ele>
        <time>2021-06-10T08:32:39.000Z</time>
      </trkpt>
      <trkpt lat="44.58827" lon="6.30219">
        <ele>1926.4000244141</ele>
        <time>2021-06-10T08:32:43.000Z</time>
      </trkpt>
      <trkpt lat="44.58825" lon="6.30224">
        <ele>1927.8000488281</ele>
        <time>2021-06-10T08:32:46.000Z</time>
      </trkpt>
      <trkpt lat="44.58824" lon="6.30228">
        <ele>1928.4000244141</ele>
        <time>2021-06-10T08:32:48.000Z</time>
      </trkpt>
      <trkpt lat="44.58824" lon="6.3023">
        <ele>1928.5999755859</ele>
        <time>2021-06-10T08:32:49.000Z</time>
      </trkpt>
      <trkpt lat="44.58823" lon="6.30231">
        <ele>1928.8000488281</ele>
        <time>2021-06-10T08:32:50.000Z</time>
      </trkpt>
      <trkpt lat="44.58822" lon="6.30235">
        <ele>1929.4000244141</ele>
        <time>2021-06-10T08:32:52.000Z</time>
      </trkpt>
      <trkpt lat="44.58821" lon="6.30239">
        <ele>1930.1999511719</ele>
        <time>2021-06-10T08:32:54.000Z</time>
      </trkpt>
      <trkpt lat="44.58821" lon="6.30246">
        <ele>1931.4000244141</ele>
        <time>2021-06-10T08:32:58.000Z</time>
      </trkpt>
      <trkpt lat="44.5882" lon="6.30248">
        <ele>1931.5999755859</ele>
        <time>2021-06-10T08:32:59.000Z</time>
      </trkpt>
      <trkpt lat="44.5882" lon="6.3025">
        <ele>1932</ele>
        <time>2021-06-10T08:33:00.000Z</time>
      </trkpt>
      <trkpt lat="44.5882" lon="6.30254">
        <ele>1932.5999755859</ele>
        <time>2021-06-10T08:33:02.000Z</time>
      </trkpt>
      <trkpt lat="44.58821" lon="6.30259">
        <ele>1933.5999755859</ele>
        <time>2021-06-10T08:33:05.000Z</time>
      </trkpt>
      <trkpt lat="44.58823" lon="6.3026">
        <ele>1934</ele>
        <time>2021-06-10T08:33:06.000Z</time>
      </trkpt>
      <trkpt lat="44.58827" lon="6.30262">
        <ele>1934.8000488281</ele>
        <time>2021-06-10T08:33:09.000Z</time>
      </trkpt>
      <trkpt lat="44.58829" lon="6.30266">
        <ele>1935.4000244141</ele>
        <time>2021-06-10T08:33:11.000Z</time>
      </trkpt>
      <trkpt lat="44.58832" lon="6.30268">
        <ele>1936</ele>
        <time>2021-06-10T08:33:13.000Z</time>
      </trkpt>
      <trkpt lat="44.58836" lon="6.30268">
        <ele>1937.1999511719</ele>
        <time>2021-06-10T08:33:16.000Z</time>
      </trkpt>
      <trkpt lat="44.58837" lon="6.30267">
        <ele>1937.4000244141</ele>
        <time>2021-06-10T08:33:17.000Z</time>
      </trkpt>
      <trkpt lat="44.58838" lon="6.30266">
        <ele>1937.8000488281</ele>
        <time>2021-06-10T08:33:18.000Z</time>
      </trkpt>
      <trkpt lat="44.58839" lon="6.30266">
        <ele>1938.1999511719</ele>
        <time>2021-06-10T08:33:19.000Z</time>
      </trkpt>
      <trkpt lat="44.58843" lon="6.30264">
        <ele>1939.1999511719</ele>
        <time>2021-06-10T08:33:22.000Z</time>
      </trkpt>
      <trkpt lat="44.58847" lon="6.30263">
        <ele>1940.1999511719</ele>
        <time>2021-06-10T08:33:25.000Z</time>
      </trkpt>
      <trkpt lat="44.58852" lon="6.3026">
        <ele>1941.4000244141</ele>
        <time>2021-06-10T08:33:28.000Z</time>
      </trkpt>
      <trkpt lat="44.58856" lon="6.30259">
        <ele>1942.4000244141</ele>
        <time>2021-06-10T08:33:31.000Z</time>
      </trkpt>
      <trkpt lat="44.58863" lon="6.30258">
        <ele>1943.8000488281</ele>
        <time>2021-06-10T08:33:35.000Z</time>
      </trkpt>
      <trkpt lat="44.58866" lon="6.30259">
        <ele>1944.4000244141</ele>
        <time>2021-06-10T08:33:37.000Z</time>
      </trkpt>
      <trkpt lat="44.58867" lon="6.30259">
        <ele>1944.8000488281</ele>
        <time>2021-06-10T08:33:38.000Z</time>
      </trkpt>
      <trkpt lat="44.58872" lon="6.30261">
        <ele>1946</ele>
        <time>2021-06-10T08:33:41.000Z</time>
      </trkpt>
      <trkpt lat="44.58875" lon="6.30262">
        <ele>1946.5999755859</ele>
        <time>2021-06-10T08:33:43.000Z</time>
      </trkpt>
      <trkpt lat="44.58877" lon="6.30263">
        <ele>1947.1999511719</ele>
        <time>2021-06-10T08:33:44.000Z</time>
      </trkpt>
      <trkpt lat="44.58882" lon="6.30264">
        <ele>1948.1999511719</ele>
        <time>2021-06-10T08:33:47.000Z</time>
      </trkpt>
      <trkpt lat="44.58886" lon="6.30263">
        <ele>1949.1999511719</ele>
        <time>2021-06-10T08:33:50.000Z</time>
      </trkpt>
      <trkpt lat="44.58888" lon="6.30262">
        <ele>1949.5999755859</ele>
        <time>2021-06-10T08:33:51.000Z</time>
      </trkpt>
      <trkpt lat="44.58892" lon="6.30258">
        <ele>1950.5999755859</ele>
        <time>2021-06-10T08:33:54.000Z</time>
      </trkpt>
      <trkpt lat="44.58896" lon="6.30255">
        <ele>1951.5999755859</ele>
        <time>2021-06-10T08:33:57.000Z</time>
      </trkpt>
      <trkpt lat="44.58903" lon="6.3025">
        <ele>1952.8000488281</ele>
        <time>2021-06-10T08:34:02.000Z</time>
      </trkpt>
      <trkpt lat="44.58906" lon="6.30249">
        <ele>1953</ele>
        <time>2021-06-10T08:34:04.000Z</time>
      </trkpt>
      <trkpt lat="44.58912" lon="6.30243">
        <ele>1954</ele>
        <time>2021-06-10T08:34:09.000Z</time>
      </trkpt>
      <trkpt lat="44.58913" lon="6.30241">
        <ele>1954.1999511719</ele>
        <time>2021-06-10T08:34:10.000Z</time>
      </trkpt>
      <trkpt lat="44.58914" lon="6.30239">
        <ele>1954.4000244141</ele>
        <time>2021-06-10T08:34:11.000Z</time>
      </trkpt>
      <trkpt lat="44.58918" lon="6.30235">
        <ele>1955</ele>
        <time>2021-06-10T08:34:14.000Z</time>
      </trkpt>
      <trkpt lat="44.5892" lon="6.30234">
        <ele>1955.1999511719</ele>
        <time>2021-06-10T08:34:15.000Z</time>
      </trkpt>
      <trkpt lat="44.5893" lon="6.30227">
        <ele>1956</ele>
        <time>2021-06-10T08:34:22.000Z</time>
      </trkpt>
      <trkpt lat="44.58938" lon="6.30232">
        <ele>1956.8000488281</ele>
        <time>2021-06-10T08:34:27.000Z</time>
      </trkpt>
      <trkpt lat="44.5894" lon="6.30243">
        <ele>1957</ele>
        <time>2021-06-10T08:34:32.000Z</time>
      </trkpt>
      <trkpt lat="44.5894" lon="6.30245">
        <ele>1957.1999511719</ele>
        <time>2021-06-10T08:34:33.000Z</time>
      </trkpt>
      <trkpt lat="44.58937" lon="6.30263">
        <ele>1957.8000488281</ele>
        <time>2021-06-10T08:34:41.000Z</time>
      </trkpt>
      <trkpt lat="44.58936" lon="6.30267">
        <ele>1958</ele>
        <time>2021-06-10T08:34:43.000Z</time>
      </trkpt>
      <trkpt lat="44.58935" lon="6.30278">
        <ele>1958.8000488281</ele>
        <time>2021-06-10T08:34:48.000Z</time>
      </trkpt>
      <trkpt lat="44.58935" lon="6.30284">
        <ele>1959.1999511719</ele>
        <time>2021-06-10T08:34:51.000Z</time>
      </trkpt>
      <trkpt lat="44.58935" lon="6.30293">
        <ele>1960.1999511719</ele>
        <time>2021-06-10T08:34:55.000Z</time>
      </trkpt>
      <trkpt lat="44.58935" lon="6.30296">
        <ele>1960.5999755859</ele>
        <time>2021-06-10T08:34:56.000Z</time>
      </trkpt>
      <trkpt lat="44.58935" lon="6.30303">
        <ele>1961.5999755859</ele>
        <time>2021-06-10T08:34:59.000Z</time>
      </trkpt>
      <trkpt lat="44.58934" lon="6.3031">
        <ele>1962.8000488281</ele>
        <time>2021-06-10T08:35:02.000Z</time>
      </trkpt>
      <trkpt lat="44.58933" lon="6.30313">
        <ele>1963.1999511719</ele>
        <time>2021-06-10T08:35:03.000Z</time>
      </trkpt>
      <trkpt lat="44.58932" lon="6.30321">
        <ele>1964</ele>
        <time>2021-06-10T08:35:05.000Z</time>
      </trkpt>
      <trkpt lat="44.58931" lon="6.30329">
        <ele>1965</ele>
        <time>2021-06-10T08:35:08.000Z</time>
      </trkpt>
      <trkpt lat="44.58931" lon="6.30332">
        <ele>1965.5999755859</ele>
        <time>2021-06-10T08:35:09.000Z</time>
      </trkpt>
      <trkpt lat="44.58931" lon="6.30335">
        <ele>1966.5999755859</ele>
        <time>2021-06-10T08:35:10.000Z</time>
      </trkpt>
      <trkpt lat="44.58927" lon="6.30348">
        <ele>1967.5999755859</ele>
        <time>2021-06-10T08:35:16.000Z</time>
      </trkpt>
      <trkpt lat="44.58917" lon="6.30353">
        <ele>1969</ele>
        <time>2021-06-10T08:35:21.000Z</time>
      </trkpt>
      <trkpt lat="44.58915" lon="6.30353">
        <ele>1969.1999511719</ele>
        <time>2021-06-10T08:35:22.000Z</time>
      </trkpt>
      <trkpt lat="44.58901" lon="6.30362">
        <ele>1970</ele>
        <time>2021-06-10T08:35:29.000Z</time>
      </trkpt>
      <trkpt lat="44.58888" lon="6.30366">
        <ele>1970.5999755859</ele>
        <time>2021-06-10T08:35:36.000Z</time>
      </trkpt>
      <trkpt lat="44.58879" lon="6.30375">
        <ele>1971</ele>
        <time>2021-06-10T08:35:42.000Z</time>
      </trkpt>
      <trkpt lat="44.58877" lon="6.30377">
        <ele>1971.1999511719</ele>
        <time>2021-06-10T08:35:43.000Z</time>
      </trkpt>
      <trkpt lat="44.58869" lon="6.30384">
        <ele>1972</ele>
        <time>2021-06-10T08:35:48.000Z</time>
      </trkpt>
      <trkpt lat="44.58862" lon="6.30388">
        <ele>1973.1999511719</ele>
        <time>2021-06-10T08:35:52.000Z</time>
      </trkpt>
      <trkpt lat="44.58859" lon="6.3039">
        <ele>1973.5999755859</ele>
        <time>2021-06-10T08:35:54.000Z</time>
      </trkpt>
      <trkpt lat="44.58853" lon="6.30393">
        <ele>1974.1999511719</ele>
        <time>2021-06-10T08:35:58.000Z</time>
      </trkpt>
      <trkpt lat="44.58853" lon="6.30393">
        <ele>1974.1999511719</ele>
        <time>2021-06-10T08:36:00.000Z</time>
      </trkpt>
      <trkpt lat="44.58853" lon="6.30392">
        <ele>1974.8000488281</ele>
        <time>2021-06-10T08:36:18.000Z</time>
      </trkpt>
      <trkpt lat="44.58853" lon="6.30392">
        <ele>1974.8000488281</ele>
        <time>2021-06-10T08:36:33.000Z</time>
      </trkpt>
      <trkpt lat="44.58853" lon="6.30392">
        <ele>1974.8000488281</ele>
        <time>2021-06-10T08:36:54.000Z</time>
      </trkpt>
      <trkpt lat="44.58853" lon="6.30392">
        <ele>1974.8000488281</ele>
        <time>2021-06-10T08:37:15.000Z</time>
      </trkpt>
      <trkpt lat="44.58853" lon="6.30391">
        <ele>1974.8000488281</ele>
        <time>2021-06-10T08:37:24.000Z</time>
      </trkpt>
      <trkpt lat="44.58853" lon="6.30391">
        <ele>1974.8000488281</ele>
        <time>2021-06-10T08:37:47.000Z</time>
      </trkpt>
      <trkpt lat="44.58853" lon="6.30391">
        <ele>1974.8000488281</ele>
        <time>2021-06-10T08:38:15.000Z</time>
      </trkpt>
      <trkpt lat="44.58852" lon="6.30391">
        <ele>1975</ele>
        <time>2021-06-10T08:38:37.000Z</time>
      </trkpt>
      <trkpt lat="44.5885" lon="6.30392">
        <ele>1974.8000488281</ele>
        <time>2021-06-10T08:38:41.000Z</time>
      </trkpt>
      <trkpt lat="44.5885" lon="6.30392">
        <ele>1974.8000488281</ele>
        <time>2021-06-10T08:38:58.000Z</time>
      </trkpt>
      <trkpt lat="44.58847" lon="6.30395">
        <ele>1975</ele>
        <time>2021-06-10T08:39:14.000Z</time>
      </trkpt>
      <trkpt lat="44.58839" lon="6.30408">
        <ele>1975</ele>
        <time>2021-06-10T08:39:20.000Z</time>
      </trkpt>
      <trkpt lat="44.58838" lon="6.30426">
        <ele>1974.8000488281</ele>
        <time>2021-06-10T08:39:26.000Z</time>
      </trkpt>
      <trkpt lat="44.58837" lon="6.30437">
        <ele>1975.4000244141</ele>
        <time>2021-06-10T08:39:30.000Z</time>
      </trkpt>
      <trkpt lat="44.58836" lon="6.30445">
        <ele>1976.1999511719</ele>
        <time>2021-06-10T08:39:33.000Z</time>
      </trkpt>
      <trkpt lat="44.58836" lon="6.30448">
        <ele>1976.4000244141</ele>
        <time>2021-06-10T08:39:34.000Z</time>
      </trkpt>
      <trkpt lat="44.58833" lon="6.30465">
        <ele>1977.5999755859</ele>
        <time>2021-06-10T08:39:40.000Z</time>
      </trkpt>
      <trkpt lat="44.58828" lon="6.30478">
        <ele>1978.8000488281</ele>
        <time>2021-06-10T08:39:45.000Z</time>
      </trkpt>
      <trkpt lat="44.58826" lon="6.3048">
        <ele>1979</ele>
        <time>2021-06-10T08:39:46.000Z</time>
      </trkpt>
      <trkpt lat="44.58817" lon="6.3049">
        <ele>1979.4000244141</ele>
        <time>2021-06-10T08:39:52.000Z</time>
      </trkpt>
      <trkpt lat="44.5881" lon="6.30497">
        <ele>1979.8000488281</ele>
        <time>2021-06-10T08:39:56.000Z</time>
      </trkpt>
      <trkpt lat="44.58804" lon="6.30502">
        <ele>1980.8000488281</ele>
        <time>2021-06-10T08:40:00.000Z</time>
      </trkpt>
      <trkpt lat="44.58798" lon="6.30505">
        <ele>1981.5999755859</ele>
        <time>2021-06-10T08:40:03.000Z</time>
      </trkpt>
      <trkpt lat="44.58789" lon="6.30506">
        <ele>1982.4000244141</ele>
        <time>2021-06-10T08:40:08.000Z</time>
      </trkpt>
      <trkpt lat="44.58785" lon="6.30505">
        <ele>1982.8000488281</ele>
        <time>2021-06-10T08:40:10.000Z</time>
      </trkpt>
      <trkpt lat="44.58778" lon="6.30505">
        <ele>1984</ele>
        <time>2021-06-10T08:40:14.000Z</time>
      </trkpt>
      <trkpt lat="44.58776" lon="6.30505">
        <ele>1984.4000244141</ele>
        <time>2021-06-10T08:40:15.000Z</time>
      </trkpt>
      <trkpt lat="44.58772" lon="6.30505">
        <ele>1985.1999511719</ele>
        <time>2021-06-10T08:40:17.000Z</time>
      </trkpt>
      <trkpt lat="44.58767" lon="6.30505">
        <ele>1986.1999511719</ele>
        <time>2021-06-10T08:40:20.000Z</time>
      </trkpt>
      <trkpt lat="44.58763" lon="6.30506">
        <ele>1987</ele>
        <time>2021-06-10T08:40:22.000Z</time>
      </trkpt>
      <trkpt lat="44.58761" lon="6.30507">
        <ele>1987.1999511719</ele>
        <time>2021-06-10T08:40:23.000Z</time>
      </trkpt>
      <trkpt lat="44.58754" lon="6.30509">
        <ele>1988.4000244141</ele>
        <time>2021-06-10T08:40:27.000Z</time>
      </trkpt>
      <trkpt lat="44.58749" lon="6.30512">
        <ele>1989.8000488281</ele>
        <time>2021-06-10T08:40:30.000Z</time>
      </trkpt>
      <trkpt lat="44.58744" lon="6.30514">
        <ele>1990.8000488281</ele>
        <time>2021-06-10T08:40:33.000Z</time>
      </trkpt>
      <trkpt lat="44.5874" lon="6.30517">
        <ele>1991.5999755859</ele>
        <time>2021-06-10T08:40:36.000Z</time>
      </trkpt>
      <trkpt lat="44.58737" lon="6.3052">
        <ele>1992</ele>
        <time>2021-06-10T08:40:38.000Z</time>
      </trkpt>
      <trkpt lat="44.58731" lon="6.30529">
        <ele>1993</ele>
        <time>2021-06-10T08:40:43.000Z</time>
      </trkpt>
      <trkpt lat="44.5873" lon="6.30531">
        <ele>1993.1999511719</ele>
        <time>2021-06-10T08:40:44.000Z</time>
      </trkpt>
      <trkpt lat="44.58725" lon="6.3054">
        <ele>1994.1999511719</ele>
        <time>2021-06-10T08:40:49.000Z</time>
      </trkpt>
      <trkpt lat="44.58725" lon="6.30545">
        <ele>1994.5999755859</ele>
        <time>2021-06-10T08:40:51.000Z</time>
      </trkpt>
      <trkpt lat="44.58723" lon="6.30551">
        <ele>1995.1999511719</ele>
        <time>2021-06-10T08:40:54.000Z</time>
      </trkpt>
      <trkpt lat="44.58722" lon="6.3056">
        <ele>1996.5999755859</ele>
        <time>2021-06-10T08:40:58.000Z</time>
      </trkpt>
      <trkpt lat="44.58722" lon="6.30562">
        <ele>1997</ele>
        <time>2021-06-10T08:40:59.000Z</time>
      </trkpt>
      <trkpt lat="44.58722" lon="6.30564">
        <ele>1998</ele>
        <time>2021-06-10T08:41:00.000Z</time>
      </trkpt>
      <trkpt lat="44.58722" lon="6.30569">
        <ele>1999.1999511719</ele>
        <time>2021-06-10T08:41:03.000Z</time>
      </trkpt>
      <trkpt lat="44.5872" lon="6.30575">
        <ele>2000</ele>
        <time>2021-06-10T08:41:06.000Z</time>
      </trkpt>
      <trkpt lat="44.58719" lon="6.30576">
        <ele>2000.4000244141</ele>
        <time>2021-06-10T08:41:07.000Z</time>
      </trkpt>
      <trkpt lat="44.58715" lon="6.30578">
        <ele>2001.4000244141</ele>
        <time>2021-06-10T08:41:10.000Z</time>
      </trkpt>
      <trkpt lat="44.58714" lon="6.30578">
        <ele>2001.8000488281</ele>
        <time>2021-06-10T08:41:11.000Z</time>
      </trkpt>
      <trkpt lat="44.58711" lon="6.30579">
        <ele>2002.8000488281</ele>
        <time>2021-06-10T08:41:13.000Z</time>
      </trkpt>
      <trkpt lat="44.58707" lon="6.3058">
        <ele>2004.1999511719</ele>
        <time>2021-06-10T08:41:16.000Z</time>
      </trkpt>
      <trkpt lat="44.58702" lon="6.30583">
        <ele>2005</ele>
        <time>2021-06-10T08:41:19.000Z</time>
      </trkpt>
      <trkpt lat="44.587" lon="6.30584">
        <ele>2005.1999511719</ele>
        <time>2021-06-10T08:41:20.000Z</time>
      </trkpt>
      <trkpt lat="44.58694" lon="6.30594">
        <ele>2006</ele>
        <time>2021-06-10T08:41:25.000Z</time>
      </trkpt>
      <trkpt lat="44.58691" lon="6.306">
        <ele>2006.1999511719</ele>
        <time>2021-06-10T08:41:28.000Z</time>
      </trkpt>
      <trkpt lat="44.58686" lon="6.30607">
        <ele>2007</ele>
        <time>2021-06-10T08:41:32.000Z</time>
      </trkpt>
      <trkpt lat="44.58677" lon="6.30613">
        <ele>2007.1999511719</ele>
        <time>2021-06-10T08:41:38.000Z</time>
      </trkpt>
      <trkpt lat="44.58676" lon="6.30613">
        <ele>2007.4000244141</ele>
        <time>2021-06-10T08:41:39.000Z</time>
      </trkpt>
      <trkpt lat="44.58667" lon="6.30611">
        <ele>2007.8000488281</ele>
        <time>2021-06-10T08:41:44.000Z</time>
      </trkpt>
      <trkpt lat="44.58664" lon="6.30609">
        <ele>2008.1999511719</ele>
        <time>2021-06-10T08:41:46.000Z</time>
      </trkpt>
      <trkpt lat="44.58659" lon="6.30605">
        <ele>2008.8000488281</ele>
        <time>2021-06-10T08:41:50.000Z</time>
      </trkpt>
      <trkpt lat="44.58656" lon="6.30602">
        <ele>2009.1999511719</ele>
        <time>2021-06-10T08:41:52.000Z</time>
      </trkpt>
      <trkpt lat="44.58652" lon="6.30598">
        <ele>2010.1999511719</ele>
        <time>2021-06-10T08:41:57.000Z</time>
      </trkpt>
      <trkpt lat="44.58651" lon="6.30597">
        <ele>2010.8000488281</ele>
        <time>2021-06-10T08:41:58.000Z</time>
      </trkpt>
      <trkpt lat="44.58648" lon="6.30596">
        <ele>2011.4000244141</ele>
        <time>2021-06-10T08:42:00.000Z</time>
      </trkpt>
      <trkpt lat="44.58645" lon="6.30591">
        <ele>2012.5999755859</ele>
        <time>2021-06-10T08:42:04.000Z</time>
      </trkpt>
      <trkpt lat="44.58644" lon="6.3059">
        <ele>2012.8000488281</ele>
        <time>2021-06-10T08:42:05.000Z</time>
      </trkpt>
      <trkpt lat="44.58642" lon="6.30589">
        <ele>2013.1999511719</ele>
        <time>2021-06-10T08:42:06.000Z</time>
      </trkpt>
      <trkpt lat="44.58642" lon="6.30588">
        <ele>2013.5999755859</ele>
        <time>2021-06-10T08:42:07.000Z</time>
      </trkpt>
      <trkpt lat="44.58637" lon="6.30585">
        <ele>2014.5999755859</ele>
        <time>2021-06-10T08:42:10.000Z</time>
      </trkpt>
      <trkpt lat="44.58632" lon="6.30583">
        <ele>2015.4000244141</ele>
        <time>2021-06-10T08:42:13.000Z</time>
      </trkpt>
      <trkpt lat="44.5863" lon="6.30582">
        <ele>2015.8000488281</ele>
        <time>2021-06-10T08:42:14.000Z</time>
      </trkpt>
      <trkpt lat="44.58624" lon="6.30579">
        <ele>2016.5999755859</ele>
        <time>2021-06-10T08:42:18.000Z</time>
      </trkpt>
      <trkpt lat="44.58619" lon="6.3058">
        <ele>2017.4000244141</ele>
        <time>2021-06-10T08:42:21.000Z</time>
      </trkpt>
      <trkpt lat="44.58618" lon="6.30581">
        <ele>2017.5999755859</ele>
        <time>2021-06-10T08:42:22.000Z</time>
      </trkpt>
      <trkpt lat="44.58613" lon="6.30582">
        <ele>2018.5999755859</ele>
        <time>2021-06-10T08:42:25.000Z</time>
      </trkpt>
      <trkpt lat="44.58609" lon="6.30583">
        <ele>2019.8000488281</ele>
        <time>2021-06-10T08:42:28.000Z</time>
      </trkpt>
      <trkpt lat="44.58606" lon="6.30584">
        <ele>2020.1999511719</ele>
        <time>2021-06-10T08:42:30.000Z</time>
      </trkpt>
      <trkpt lat="44.58604" lon="6.30587">
        <ele>2020.8000488281</ele>
        <time>2021-06-10T08:42:32.000Z</time>
      </trkpt>
      <trkpt lat="44.58601" lon="6.3059">
        <ele>2021.4000244141</ele>
        <time>2021-06-10T08:42:35.000Z</time>
      </trkpt>
      <trkpt lat="44.586" lon="6.30591">
        <ele>2021.8000488281</ele>
        <time>2021-06-10T08:42:36.000Z</time>
      </trkpt>
      <trkpt lat="44.58595" lon="6.30594">
        <ele>2022.8000488281</ele>
        <time>2021-06-10T08:42:40.000Z</time>
      </trkpt>
      <trkpt lat="44.58592" lon="6.30596">
        <ele>2023.5999755859</ele>
        <time>2021-06-10T08:42:42.000Z</time>
      </trkpt>
      <trkpt lat="44.58591" lon="6.30597">
        <ele>2024.1999511719</ele>
        <time>2021-06-10T08:42:43.000Z</time>
      </trkpt>
      <trkpt lat="44.58589" lon="6.30604">
        <ele>2025.5999755859</ele>
        <time>2021-06-10T08:42:46.000Z</time>
      </trkpt>
      <trkpt lat="44.58587" lon="6.30614">
        <ele>2026.5999755859</ele>
        <time>2021-06-10T08:42:51.000Z</time>
      </trkpt>
      <trkpt lat="44.58586" lon="6.30626">
        <ele>2027.8000488281</ele>
        <time>2021-06-10T08:42:56.000Z</time>
      </trkpt>
      <trkpt lat="44.58586" lon="6.30631">
        <ele>2028.4000244141</ele>
        <time>2021-06-10T08:42:58.000Z</time>
      </trkpt>
      <trkpt lat="44.58585" lon="6.30636">
        <ele>2029</ele>
        <time>2021-06-10T08:43:00.000Z</time>
      </trkpt>
      <trkpt lat="44.58586" lon="6.30645">
        <ele>2030</ele>
        <time>2021-06-10T08:43:04.000Z</time>
      </trkpt>
      <trkpt lat="44.58587" lon="6.30649">
        <ele>2030.4000244141</ele>
        <time>2021-06-10T08:43:06.000Z</time>
      </trkpt>
      <trkpt lat="44.58589" lon="6.30655">
        <ele>2031.1999511719</ele>
        <time>2021-06-10T08:43:09.000Z</time>
      </trkpt>
      <trkpt lat="44.58592" lon="6.30662">
        <ele>2032.1999511719</ele>
        <time>2021-06-10T08:43:13.000Z</time>
      </trkpt>
      <trkpt lat="44.58593" lon="6.30663">
        <ele>2032.5999755859</ele>
        <time>2021-06-10T08:43:14.000Z</time>
      </trkpt>
      <trkpt lat="44.58596" lon="6.30668">
        <ele>2033.4000244141</ele>
        <time>2021-06-10T08:43:17.000Z</time>
      </trkpt>
      <trkpt lat="44.58599" lon="6.30674">
        <ele>2034.5999755859</ele>
        <time>2021-06-10T08:43:21.000Z</time>
      </trkpt>
      <trkpt lat="44.58602" lon="6.3068">
        <ele>2035.8000488281</ele>
        <time>2021-06-10T08:43:25.000Z</time>
      </trkpt>
      <trkpt lat="44.58606" lon="6.30689">
        <ele>2037</ele>
        <time>2021-06-10T08:43:30.000Z</time>
      </trkpt>
      <trkpt lat="44.58607" lon="6.30691">
        <ele>2037.1999511719</ele>
        <time>2021-06-10T08:43:31.000Z</time>
      </trkpt>
      <trkpt lat="44.5861" lon="6.30698">
        <ele>2037.8000488281</ele>
        <time>2021-06-10T08:43:35.000Z</time>
      </trkpt>
      <trkpt lat="44.58613" lon="6.30707">
        <ele>2038.8000488281</ele>
        <time>2021-06-10T08:43:40.000Z</time>
      </trkpt>
      <trkpt lat="44.58614" lon="6.30708">
        <ele>2039</ele>
        <time>2021-06-10T08:43:41.000Z</time>
      </trkpt>
      <trkpt lat="44.58616" lon="6.30717">
        <ele>2040.1999511719</ele>
        <time>2021-06-10T08:43:46.000Z</time>
      </trkpt>
      <trkpt lat="44.58616" lon="6.30718">
        <ele>2040.4000244141</ele>
        <time>2021-06-10T08:43:47.000Z</time>
      </trkpt>
      <trkpt lat="44.58617" lon="6.30723">
        <ele>2041.1999511719</ele>
        <time>2021-06-10T08:43:52.000Z</time>
      </trkpt>
      <trkpt lat="44.58617" lon="6.30723">
        <ele>2041.4000244141</ele>
        <time>2021-06-10T08:43:54.000Z</time>
      </trkpt>
      <trkpt lat="44.58617" lon="6.30723">
        <ele>2041.8000488281</ele>
        <time>2021-06-10T08:44:10.000Z</time>
      </trkpt>
      <trkpt lat="44.58617" lon="6.30722">
        <ele>2042</ele>
        <time>2021-06-10T08:44:26.000Z</time>
      </trkpt>
      <trkpt lat="44.58617" lon="6.30722">
        <ele>2041.8000488281</ele>
        <time>2021-06-10T08:44:38.000Z</time>
      </trkpt>
      <trkpt lat="44.58617" lon="6.30722">
        <ele>2042</ele>
        <time>2021-06-10T08:45:01.000Z</time>
      </trkpt>
      <trkpt lat="44.58617" lon="6.30722">
        <ele>2042</ele>
        <time>2021-06-10T08:45:26.000Z</time>
      </trkpt>
      <trkpt lat="44.58618" lon="6.30724">
        <ele>2041.8000488281</ele>
        <time>2021-06-10T08:45:38.000Z</time>
      </trkpt>
      <trkpt lat="44.58619" lon="6.30725">
        <ele>2041.8000488281</ele>
        <time>2021-06-10T08:45:39.000Z</time>
      </trkpt>
      <trkpt lat="44.58628" lon="6.30738">
        <ele>2041.8000488281</ele>
        <time>2021-06-10T08:45:46.000Z</time>
      </trkpt>
      <trkpt lat="44.58635" lon="6.30745">
        <ele>2042</ele>
        <time>2021-06-10T08:45:51.000Z</time>
      </trkpt>
      <trkpt lat="44.58638" lon="6.30747">
        <ele>2042.1999511719</ele>
        <time>2021-06-10T08:45:53.000Z</time>
      </trkpt>
      <trkpt lat="44.58644" lon="6.30749">
        <ele>2043.4000244141</ele>
        <time>2021-06-10T08:45:57.000Z</time>
      </trkpt>
      <trkpt lat="44.58648" lon="6.30748">
        <ele>2044.4000244141</ele>
        <time>2021-06-10T08:45:59.000Z</time>
      </trkpt>
      <trkpt lat="44.5865" lon="6.30747">
        <ele>2044.5999755859</ele>
        <time>2021-06-10T08:46:00.000Z</time>
      </trkpt>
      <trkpt lat="44.58657" lon="6.30744">
        <ele>2045.8000488281</ele>
        <time>2021-06-10T08:46:03.000Z</time>
      </trkpt>
      <trkpt lat="44.58664" lon="6.30742">
        <ele>2046.5999755859</ele>
        <time>2021-06-10T08:46:06.000Z</time>
      </trkpt>
      <trkpt lat="44.58668" lon="6.3074">
        <ele>2046.8000488281</ele>
        <time>2021-06-10T08:46:08.000Z</time>
      </trkpt>
      <trkpt lat="44.58679" lon="6.30738">
        <ele>2047.4000244141</ele>
        <time>2021-06-10T08:46:14.000Z</time>
      </trkpt>
      <trkpt lat="44.58684" lon="6.30737">
        <ele>2048</ele>
        <time>2021-06-10T08:46:17.000Z</time>
      </trkpt>
      <trkpt lat="44.58689" lon="6.30737">
        <ele>2049.1999511719</ele>
        <time>2021-06-10T08:46:20.000Z</time>
      </trkpt>
      <trkpt lat="44.58694" lon="6.30739">
        <ele>2050.3999023438</ele>
        <time>2021-06-10T08:46:23.000Z</time>
      </trkpt>
      <trkpt lat="44.587" lon="6.30744">
        <ele>2051.3999023438</ele>
        <time>2021-06-10T08:46:26.000Z</time>
      </trkpt>
      <trkpt lat="44.58702" lon="6.30751">
        <ele>2052.3999023438</ele>
        <time>2021-06-10T08:46:29.000Z</time>
      </trkpt>
      <trkpt lat="44.58702" lon="6.30753">
        <ele>2052.8000488281</ele>
        <time>2021-06-10T08:46:30.000Z</time>
      </trkpt>
      <trkpt lat="44.58702" lon="6.30758">
        <ele>2053.8000488281</ele>
        <time>2021-06-10T08:46:32.000Z</time>
      </trkpt>
      <trkpt lat="44.58703" lon="6.30762">
        <ele>2055</ele>
        <time>2021-06-10T08:46:34.000Z</time>
      </trkpt>
      <trkpt lat="44.58704" lon="6.30765">
        <ele>2055.3999023438</ele>
        <time>2021-06-10T08:46:35.000Z</time>
      </trkpt>
      <trkpt lat="44.58704" lon="6.3077">
        <ele>2056.1999511719</ele>
        <time>2021-06-10T08:46:37.000Z</time>
      </trkpt>
      <trkpt lat="44.58707" lon="6.30775">
        <ele>2057.3999023438</ele>
        <time>2021-06-10T08:46:40.000Z</time>
      </trkpt>
      <trkpt lat="44.58708" lon="6.30777">
        <ele>2057.6000976562</ele>
        <time>2021-06-10T08:46:41.000Z</time>
      </trkpt>
      <trkpt lat="44.5871" lon="6.3078">
        <ele>2058.3999023438</ele>
        <time>2021-06-10T08:46:43.000Z</time>
      </trkpt>
      <trkpt lat="44.58713" lon="6.30784">
        <ele>2059.8000488281</ele>
        <time>2021-06-10T08:46:46.000Z</time>
      </trkpt>
      <trkpt lat="44.58715" lon="6.30787">
        <ele>2061</ele>
        <time>2021-06-10T08:46:48.000Z</time>
      </trkpt>
      <trkpt lat="44.58717" lon="6.30792">
        <ele>2062.3999023438</ele>
        <time>2021-06-10T08:46:51.000Z</time>
      </trkpt>
      <trkpt lat="44.58719" lon="6.30795">
        <ele>2063.6000976562</ele>
        <time>2021-06-10T08:46:53.000Z</time>
      </trkpt>
      <trkpt lat="44.58722" lon="6.30797">
        <ele>2064.6000976562</ele>
        <time>2021-06-10T08:46:55.000Z</time>
      </trkpt>
      <trkpt lat="44.58723" lon="6.30799">
        <ele>2065</ele>
        <time>2021-06-10T08:46:56.000Z</time>
      </trkpt>
      <trkpt lat="44.58727" lon="6.30801">
        <ele>2066.1999511719</ele>
        <time>2021-06-10T08:46:59.000Z</time>
      </trkpt>
      <trkpt lat="44.58733" lon="6.30804">
        <ele>2067.3999023438</ele>
        <time>2021-06-10T08:47:03.000Z</time>
      </trkpt>
      <trkpt lat="44.58738" lon="6.30808">
        <ele>2068.8000488281</ele>
        <time>2021-06-10T08:47:07.000Z</time>
      </trkpt>
      <trkpt lat="44.58742" lon="6.3081">
        <ele>2069.8000488281</ele>
        <time>2021-06-10T08:47:10.000Z</time>
      </trkpt>
      <trkpt lat="44.58743" lon="6.30811">
        <ele>2070.3999023438</ele>
        <time>2021-06-10T08:47:11.000Z</time>
      </trkpt>
      <trkpt lat="44.58746" lon="6.30812">
        <ele>2071.1999511719</ele>
        <time>2021-06-10T08:47:13.000Z</time>
      </trkpt>
      <trkpt lat="44.5875" lon="6.30814">
        <ele>2072.3999023438</ele>
        <time>2021-06-10T08:47:16.000Z</time>
      </trkpt>
      <trkpt lat="44.58753" lon="6.30815">
        <ele>2073.6000976562</ele>
        <time>2021-06-10T08:47:18.000Z</time>
      </trkpt>
      <trkpt lat="44.58756" lon="6.30815">
        <ele>2074.1999511719</ele>
        <time>2021-06-10T08:47:20.000Z</time>
      </trkpt>
      <trkpt lat="44.58758" lon="6.30815">
        <ele>2074.8000488281</ele>
        <time>2021-06-10T08:47:21.000Z</time>
      </trkpt>
      <trkpt lat="44.58762" lon="6.30816">
        <ele>2076</ele>
        <time>2021-06-10T08:47:24.000Z</time>
      </trkpt>
      <trkpt lat="44.58767" lon="6.30817">
        <ele>2077.3999023438</ele>
        <time>2021-06-10T08:47:27.000Z</time>
      </trkpt>
      <trkpt lat="44.5877" lon="6.30817">
        <ele>2078.1999511719</ele>
        <time>2021-06-10T08:47:29.000Z</time>
      </trkpt>
      <trkpt lat="44.58772" lon="6.30818">
        <ele>2078.6000976562</ele>
        <time>2021-06-10T08:47:30.000Z</time>
      </trkpt>
      <trkpt lat="44.58776" lon="6.30818">
        <ele>2080</ele>
        <time>2021-06-10T08:47:33.000Z</time>
      </trkpt>
      <trkpt lat="44.58779" lon="6.30818">
        <ele>2081.1999511719</ele>
        <time>2021-06-10T08:47:35.000Z</time>
      </trkpt>
      <trkpt lat="44.58783" lon="6.30819">
        <ele>2082.1999511719</ele>
        <time>2021-06-10T08:47:37.000Z</time>
      </trkpt>
      <trkpt lat="44.58785" lon="6.3082">
        <ele>2082.8000488281</ele>
        <time>2021-06-10T08:47:38.000Z</time>
      </trkpt>
      <trkpt lat="44.58791" lon="6.30823">
        <ele>2083.6000976562</ele>
        <time>2021-06-10T08:47:40.000Z</time>
      </trkpt>
      <trkpt lat="44.58794" lon="6.30826">
        <ele>2084.1999511719</ele>
        <time>2021-06-10T08:47:42.000Z</time>
      </trkpt>
      <trkpt lat="44.58796" lon="6.30829">
        <ele>2084.6000976562</ele>
        <time>2021-06-10T08:47:43.000Z</time>
      </trkpt>
      <trkpt lat="44.58799" lon="6.30837">
        <ele>2086</ele>
        <time>2021-06-10T08:47:46.000Z</time>
      </trkpt>
      <trkpt lat="44.588" lon="6.30839">
        <ele>2086.1999511719</ele>
        <time>2021-06-10T08:47:47.000Z</time>
      </trkpt>
      <trkpt lat="44.58803" lon="6.30843">
        <ele>2087</ele>
        <time>2021-06-10T08:47:50.000Z</time>
      </trkpt>
      <trkpt lat="44.58804" lon="6.30844">
        <ele>2087.1999511719</ele>
        <time>2021-06-10T08:47:53.000Z</time>
      </trkpt>
      <trkpt lat="44.58805" lon="6.30844">
        <ele>2087.1999511719</ele>
        <time>2021-06-10T08:48:04.000Z</time>
      </trkpt>
      <trkpt lat="44.58805" lon="6.30845">
        <ele>2087.3999023438</ele>
        <time>2021-06-10T08:48:16.000Z</time>
      </trkpt>
      <trkpt lat="44.58805" lon="6.30845">
        <ele>2087.3999023438</ele>
        <time>2021-06-10T08:48:32.000Z</time>
      </trkpt>
      <trkpt lat="44.58805" lon="6.30845">
        <ele>2087.3999023438</ele>
        <time>2021-06-10T08:48:50.000Z</time>
      </trkpt>
      <trkpt lat="44.58807" lon="6.30843">
        <ele>2087.3999023438</ele>
        <time>2021-06-10T08:49:03.000Z</time>
      </trkpt>
      <trkpt lat="44.58811" lon="6.30834">
        <ele>2087.6000976562</ele>
        <time>2021-06-10T08:49:08.000Z</time>
      </trkpt>
      <trkpt lat="44.58814" lon="6.30833">
        <ele>2087.6000976562</ele>
        <time>2021-06-10T08:49:10.000Z</time>
      </trkpt>
      <trkpt lat="44.58819" lon="6.30828">
        <ele>2087.8000488281</ele>
        <time>2021-06-10T08:49:14.000Z</time>
      </trkpt>
      <trkpt lat="44.58821" lon="6.30826">
        <ele>2088.1999511719</ele>
        <time>2021-06-10T08:49:16.000Z</time>
      </trkpt>
      <trkpt lat="44.58825" lon="6.3082">
        <ele>2089.1999511719</ele>
        <time>2021-06-10T08:49:20.000Z</time>
      </trkpt>
      <trkpt lat="44.5883" lon="6.30814">
        <ele>2090.6000976562</ele>
        <time>2021-06-10T08:49:24.000Z</time>
      </trkpt>
      <trkpt lat="44.58834" lon="6.30811">
        <ele>2091.3999023438</ele>
        <time>2021-06-10T08:49:28.000Z</time>
      </trkpt>
      <trkpt lat="44.58835" lon="6.30811">
        <ele>2091.6000976562</ele>
        <time>2021-06-10T08:49:29.000Z</time>
      </trkpt>
      <trkpt lat="44.58835" lon="6.30812">
        <ele>2092.6000976562</ele>
        <time>2021-06-10T08:49:33.000Z</time>
      </trkpt>
      <trkpt lat="44.58835" lon="6.30812">
        <ele>2093</ele>
        <time>2021-06-10T08:49:38.000Z</time>
      </trkpt>
      <trkpt lat="44.58835" lon="6.30812">
        <ele>2092.8000488281</ele>
        <time>2021-06-10T08:49:51.000Z</time>
      </trkpt>
      <trkpt lat="44.58835" lon="6.30812">
        <ele>2092.8000488281</ele>
        <time>2021-06-10T08:49:53.000Z</time>
      </trkpt>
      <trkpt lat="44.58835" lon="6.30813">
        <ele>2092.6000976562</ele>
        <time>2021-06-10T08:49:55.000Z</time>
      </trkpt>
      <trkpt lat="44.58835" lon="6.30814">
        <ele>2092.6000976562</ele>
        <time>2021-06-10T08:49:57.000Z</time>
      </trkpt>
      <trkpt lat="44.58835" lon="6.30814">
        <ele>2092.8000488281</ele>
        <time>2021-06-10T08:50:37.000Z</time>
      </trkpt>
      <trkpt lat="44.58836" lon="6.30814">
        <ele>2092.8000488281</ele>
        <time>2021-06-10T08:51:54.000Z</time>
      </trkpt>
      <trkpt lat="44.58836" lon="6.30813">
        <ele>2092.8000488281</ele>
        <time>2021-06-10T08:51:55.000Z</time>
      </trkpt>
      <trkpt lat="44.58836" lon="6.30814">
        <ele>2092.8000488281</ele>
        <time>2021-06-10T08:52:00.000Z</time>
      </trkpt>
      <trkpt lat="44.58836" lon="6.30814">
        <ele>2092.8000488281</ele>
        <time>2021-06-10T08:53:35.000Z</time>
      </trkpt>
      <trkpt lat="44.58834" lon="6.30814">
        <ele>2093</ele>
        <time>2021-06-10T08:54:45.000Z</time>
      </trkpt>
      <trkpt lat="44.58834" lon="6.30816">
        <ele>2093</ele>
        <time>2021-06-10T08:54:49.000Z</time>
      </trkpt>
      <trkpt lat="44.58834" lon="6.30816">
        <ele>2093.6000976562</ele>
        <time>2021-06-10T08:54:55.000Z</time>
      </trkpt>
      <trkpt lat="44.58833" lon="6.30821">
        <ele>2093.6000976562</ele>
        <time>2021-06-10T08:55:00.000Z</time>
      </trkpt>
      <trkpt lat="44.58837" lon="6.30836">
        <ele>2093.3999023438</ele>
        <time>2021-06-10T08:55:06.000Z</time>
      </trkpt>
      <trkpt lat="44.58842" lon="6.3085">
        <ele>2092.8000488281</ele>
        <time>2021-06-10T08:55:10.000Z</time>
      </trkpt>
      <trkpt lat="44.58844" lon="6.30854">
        <ele>2092.6000976562</ele>
        <time>2021-06-10T08:55:11.000Z</time>
      </trkpt>
      <trkpt lat="44.58853" lon="6.30863">
        <ele>2091.6000976562</ele>
        <time>2021-06-10T08:55:15.000Z</time>
      </trkpt>
      <trkpt lat="44.58855" lon="6.30866">
        <ele>2090.6000976562</ele>
        <time>2021-06-10T08:55:17.000Z</time>
      </trkpt>
      <trkpt lat="44.58857" lon="6.30872">
        <ele>2089</ele>
        <time>2021-06-10T08:55:19.000Z</time>
      </trkpt>
      <trkpt lat="44.58858" lon="6.30875">
        <ele>2088</ele>
        <time>2021-06-10T08:55:20.000Z</time>
      </trkpt>
      <trkpt lat="44.58859" lon="6.30879">
        <ele>2087.1999511719</ele>
        <time>2021-06-10T08:55:21.000Z</time>
      </trkpt>
      <trkpt lat="44.58861" lon="6.30888">
        <ele>2086</ele>
        <time>2021-06-10T08:55:23.000Z</time>
      </trkpt>
      <trkpt lat="44.58864" lon="6.30895">
        <ele>2085.3999023438</ele>
        <time>2021-06-10T08:55:25.000Z</time>
      </trkpt>
      <trkpt lat="44.58867" lon="6.30906">
        <ele>2084.6000976562</ele>
        <time>2021-06-10T08:55:28.000Z</time>
      </trkpt>
      <trkpt lat="44.58868" lon="6.30914">
        <ele>2082</ele>
        <time>2021-06-10T08:55:30.000Z</time>
      </trkpt>
      <trkpt lat="44.58868" lon="6.30917">
        <ele>2081</ele>
        <time>2021-06-10T08:55:31.000Z</time>
      </trkpt>
      <trkpt lat="44.58869" lon="6.3092">
        <ele>2079.8000488281</ele>
        <time>2021-06-10T08:55:32.000Z</time>
      </trkpt>
      <trkpt lat="44.58871" lon="6.30927">
        <ele>2077.8000488281</ele>
        <time>2021-06-10T08:55:34.000Z</time>
      </trkpt>
      <trkpt lat="44.58873" lon="6.30934">
        <ele>2076</ele>
        <time>2021-06-10T08:55:36.000Z</time>
      </trkpt>
      <trkpt lat="44.58874" lon="6.30942">
        <ele>2074</ele>
        <time>2021-06-10T08:55:38.000Z</time>
      </trkpt>
      <trkpt lat="44.58875" lon="6.3095">
        <ele>2072.1999511719</ele>
        <time>2021-06-10T08:55:40.000Z</time>
      </trkpt>
      <trkpt lat="44.58879" lon="6.30957">
        <ele>2070.1999511719</ele>
        <time>2021-06-10T08:55:42.000Z</time>
      </trkpt>
      <trkpt lat="44.58881" lon="6.30961">
        <ele>2069.1999511719</ele>
        <time>2021-06-10T08:55:43.000Z</time>
      </trkpt>
      <trkpt lat="44.58883" lon="6.30965">
        <ele>2068</ele>
        <time>2021-06-10T08:55:44.000Z</time>
      </trkpt>
      <trkpt lat="44.58885" lon="6.3097">
        <ele>2067</ele>
        <time>2021-06-10T08:55:45.000Z</time>
      </trkpt>
      <trkpt lat="44.58887" lon="6.3098">
        <ele>2065.1999511719</ele>
        <time>2021-06-10T08:55:47.000Z</time>
      </trkpt>
      <trkpt lat="44.58888" lon="6.30984">
        <ele>2064.1999511719</ele>
        <time>2021-06-10T08:55:48.000Z</time>
      </trkpt>
      <trkpt lat="44.58888" lon="6.30989">
        <ele>2063.1999511719</ele>
        <time>2021-06-10T08:55:49.000Z</time>
      </trkpt>
      <trkpt lat="44.58889" lon="6.30997">
        <ele>2061</ele>
        <time>2021-06-10T08:55:51.000Z</time>
      </trkpt>
      <trkpt lat="44.5889" lon="6.31">
        <ele>2059.8000488281</ele>
        <time>2021-06-10T08:55:52.000Z</time>
      </trkpt>
      <trkpt lat="44.58891" lon="6.31002">
        <ele>2058.8000488281</ele>
        <time>2021-06-10T08:55:53.000Z</time>
      </trkpt>
      <trkpt lat="44.58894" lon="6.31007">
        <ele>2056.8000488281</ele>
        <time>2021-06-10T08:55:55.000Z</time>
      </trkpt>
      <trkpt lat="44.58896" lon="6.3101">
        <ele>2056.1999511719</ele>
        <time>2021-06-10T08:55:56.000Z</time>
      </trkpt>
      <trkpt lat="44.58898" lon="6.31013">
        <ele>2055.6000976562</ele>
        <time>2021-06-10T08:55:57.000Z</time>
      </trkpt>
      <trkpt lat="44.58901" lon="6.31018">
        <ele>2053.8000488281</ele>
        <time>2021-06-10T08:55:59.000Z</time>
      </trkpt>
      <trkpt lat="44.58903" lon="6.31025">
        <ele>2053</ele>
        <time>2021-06-10T08:56:01.000Z</time>
      </trkpt>
      <trkpt lat="44.58904" lon="6.31028">
        <ele>2052.3999023438</ele>
        <time>2021-06-10T08:56:02.000Z</time>
      </trkpt>
      <trkpt lat="44.58906" lon="6.31041">
        <ele>2051.1999511719</ele>
        <time>2021-06-10T08:56:05.000Z</time>
      </trkpt>
      <trkpt lat="44.58905" lon="6.31046">
        <ele>2050.3999023438</ele>
        <time>2021-06-10T08:56:06.000Z</time>
      </trkpt>
      <trkpt lat="44.58904" lon="6.31051">
        <ele>2050</ele>
        <time>2021-06-10T08:56:07.000Z</time>
      </trkpt>
      <trkpt lat="44.58902" lon="6.31061">
        <ele>2048.3999023438</ele>
        <time>2021-06-10T08:56:09.000Z</time>
      </trkpt>
      <trkpt lat="44.58899" lon="6.31068">
        <ele>2046.8000488281</ele>
        <time>2021-06-10T08:56:11.000Z</time>
      </trkpt>
      <trkpt lat="44.58897" lon="6.31076">
        <ele>2045</ele>
        <time>2021-06-10T08:56:13.000Z</time>
      </trkpt>
      <trkpt lat="44.58895" lon="6.31084">
        <ele>2043.4000244141</ele>
        <time>2021-06-10T08:56:15.000Z</time>
      </trkpt>
      <trkpt lat="44.58893" lon="6.31087">
        <ele>2042.5999755859</ele>
        <time>2021-06-10T08:56:16.000Z</time>
      </trkpt>
      <trkpt lat="44.58891" lon="6.3109">
        <ele>2042</ele>
        <time>2021-06-10T08:56:17.000Z</time>
      </trkpt>
      <trkpt lat="44.58886" lon="6.31094">
        <ele>2040.8000488281</ele>
        <time>2021-06-10T08:56:19.000Z</time>
      </trkpt>
      <trkpt lat="44.58882" lon="6.31102">
        <ele>2039.5999755859</ele>
        <time>2021-06-10T08:56:21.000Z</time>
      </trkpt>
      <trkpt lat="44.58881" lon="6.31107">
        <ele>2038.8000488281</ele>
        <time>2021-06-10T08:56:22.000Z</time>
      </trkpt>
      <trkpt lat="44.58882" lon="6.31113">
        <ele>2038</ele>
        <time>2021-06-10T08:56:23.000Z</time>
      </trkpt>
      <trkpt lat="44.58885" lon="6.31118">
        <ele>2037.1999511719</ele>
        <time>2021-06-10T08:56:24.000Z</time>
      </trkpt>
      <trkpt lat="44.58888" lon="6.31124">
        <ele>2036.5999755859</ele>
        <time>2021-06-10T08:56:25.000Z</time>
      </trkpt>
      <trkpt lat="44.58891" lon="6.31129">
        <ele>2036</ele>
        <time>2021-06-10T08:56:26.000Z</time>
      </trkpt>
      <trkpt lat="44.58892" lon="6.31133">
        <ele>2035.4000244141</ele>
        <time>2021-06-10T08:56:27.000Z</time>
      </trkpt>
      <trkpt lat="44.58892" lon="6.31136">
        <ele>2034</ele>
        <time>2021-06-10T08:56:28.000Z</time>
      </trkpt>
      <trkpt lat="44.58889" lon="6.31143">
        <ele>2032.4000244141</ele>
        <time>2021-06-10T08:56:30.000Z</time>
      </trkpt>
      <trkpt lat="44.58885" lon="6.31149">
        <ele>2030.8000488281</ele>
        <time>2021-06-10T08:56:32.000Z</time>
      </trkpt>
      <trkpt lat="44.58881" lon="6.31155">
        <ele>2029.4000244141</ele>
        <time>2021-06-10T08:56:34.000Z</time>
      </trkpt>
      <trkpt lat="44.58871" lon="6.31161">
        <ele>2027.8000488281</ele>
        <time>2021-06-10T08:56:37.000Z</time>
      </trkpt>
      <trkpt lat="44.58864" lon="6.31164">
        <ele>2026.5999755859</ele>
        <time>2021-06-10T08:56:39.000Z</time>
      </trkpt>
      <trkpt lat="44.58861" lon="6.31168">
        <ele>2025.8000488281</ele>
        <time>2021-06-10T08:56:40.000Z</time>
      </trkpt>
      <trkpt lat="44.58859" lon="6.31172">
        <ele>2025.1999511719</ele>
        <time>2021-06-10T08:56:41.000Z</time>
      </trkpt>
      <trkpt lat="44.58857" lon="6.31178">
        <ele>2024.1999511719</ele>
        <time>2021-06-10T08:56:43.000Z</time>
      </trkpt>
      <trkpt lat="44.58856" lon="6.31183">
        <ele>2022.8000488281</ele>
        <time>2021-06-10T08:56:45.000Z</time>
      </trkpt>
      <trkpt lat="44.58854" lon="6.31189">
        <ele>2021.4000244141</ele>
        <time>2021-06-10T08:56:47.000Z</time>
      </trkpt>
      <trkpt lat="44.58853" lon="6.31197">
        <ele>2020.1999511719</ele>
        <time>2021-06-10T08:56:50.000Z</time>
      </trkpt>
      <trkpt lat="44.58852" lon="6.31201">
        <ele>2020.1999511719</ele>
        <time>2021-06-10T08:56:52.000Z</time>
      </trkpt>
      <trkpt lat="44.58849" lon="6.31216">
        <ele>2019.8000488281</ele>
        <time>2021-06-10T08:56:57.000Z</time>
      </trkpt>
      <trkpt lat="44.58848" lon="6.31222">
        <ele>2019.8000488281</ele>
        <time>2021-06-10T08:56:58.000Z</time>
      </trkpt>
      <trkpt lat="44.58843" lon="6.31242">
        <ele>2019.8000488281</ele>
        <time>2021-06-10T08:57:01.000Z</time>
      </trkpt>
      <trkpt lat="44.58841" lon="6.31251">
        <ele>2019.8000488281</ele>
        <time>2021-06-10T08:57:02.000Z</time>
      </trkpt>
      <trkpt lat="44.58841" lon="6.31271">
        <ele>2019.4000244141</ele>
        <time>2021-06-10T08:57:04.000Z</time>
      </trkpt>
      <trkpt lat="44.58842" lon="6.31279">
        <ele>2018.8000488281</ele>
        <time>2021-06-10T08:57:05.000Z</time>
      </trkpt>
      <trkpt lat="44.58846" lon="6.31294">
        <ele>2017.4000244141</ele>
        <time>2021-06-10T08:57:07.000Z</time>
      </trkpt>
      <trkpt lat="44.58848" lon="6.313">
        <ele>2016.5999755859</ele>
        <time>2021-06-10T08:57:08.000Z</time>
      </trkpt>
      <trkpt lat="44.5885" lon="6.31306">
        <ele>2015.5999755859</ele>
        <time>2021-06-10T08:57:09.000Z</time>
      </trkpt>
      <trkpt lat="44.58852" lon="6.31311">
        <ele>2014.4000244141</ele>
        <time>2021-06-10T08:57:10.000Z</time>
      </trkpt>
      <trkpt lat="44.58853" lon="6.31315">
        <ele>2013.1999511719</ele>
        <time>2021-06-10T08:57:11.000Z</time>
      </trkpt>
      <trkpt lat="44.58856" lon="6.31324">
        <ele>2011.8000488281</ele>
        <time>2021-06-10T08:57:13.000Z</time>
      </trkpt>
      <trkpt lat="44.58862" lon="6.3135">
        <ele>2011.4000244141</ele>
        <time>2021-06-10T08:57:19.000Z</time>
      </trkpt>
      <trkpt lat="44.58867" lon="6.31383">
        <ele>2011.1999511719</ele>
        <time>2021-06-10T08:57:26.000Z</time>
      </trkpt>
      <trkpt lat="44.5888" lon="6.31407">
        <ele>2010.8000488281</ele>
        <time>2021-06-10T08:57:32.000Z</time>
      </trkpt>
      <trkpt lat="44.58881" lon="6.31411">
        <ele>2010.8000488281</ele>
        <time>2021-06-10T08:57:33.000Z</time>
      </trkpt>
      <trkpt lat="44.58882" lon="6.31427">
        <ele>2010.5999755859</ele>
        <time>2021-06-10T08:57:37.000Z</time>
      </trkpt>
      <trkpt lat="44.58882" lon="6.31446">
        <ele>2011</ele>
        <time>2021-06-10T08:57:44.000Z</time>
      </trkpt>
      <trkpt lat="44.58883" lon="6.31446">
        <ele>2011.8000488281</ele>
        <time>2021-06-10T08:57:50.000Z</time>
      </trkpt>
      <trkpt lat="44.58883" lon="6.31446">
        <ele>2011.8000488281</ele>
        <time>2021-06-10T08:57:51.000Z</time>
      </trkpt>
      <trkpt lat="44.58883" lon="6.31453">
        <ele>2012</ele>
        <time>2021-06-10T08:57:57.000Z</time>
      </trkpt>
      <trkpt lat="44.58888" lon="6.31472">
        <ele>2012</ele>
        <time>2021-06-10T08:58:01.000Z</time>
      </trkpt>
      <trkpt lat="44.58899" lon="6.31491">
        <ele>2011.4000244141</ele>
        <time>2021-06-10T08:58:06.000Z</time>
      </trkpt>
      <trkpt lat="44.58901" lon="6.31495">
        <ele>2010.8000488281</ele>
        <time>2021-06-10T08:58:07.000Z</time>
      </trkpt>
      <trkpt lat="44.58905" lon="6.31505">
        <ele>2009.5999755859</ele>
        <time>2021-06-10T08:58:10.000Z</time>
      </trkpt>
      <trkpt lat="44.58906" lon="6.31509">
        <ele>2009.4000244141</ele>
        <time>2021-06-10T08:58:11.000Z</time>
      </trkpt>
      <trkpt lat="44.58904" lon="6.31528">
        <ele>2009.1999511719</ele>
        <time>2021-06-10T08:58:15.000Z</time>
      </trkpt>
      <trkpt lat="44.58908" lon="6.31545">
        <ele>2008.8000488281</ele>
        <time>2021-06-10T08:58:19.000Z</time>
      </trkpt>
      <trkpt lat="44.58909" lon="6.31551">
        <ele>2008.5999755859</ele>
        <time>2021-06-10T08:58:21.000Z</time>
      </trkpt>
      <trkpt lat="44.58909" lon="6.3156">
        <ele>2008</ele>
        <time>2021-06-10T08:58:23.000Z</time>
      </trkpt>
      <trkpt lat="44.5891" lon="6.31579">
        <ele>2007.5999755859</ele>
        <time>2021-06-10T08:58:27.000Z</time>
      </trkpt>
      <trkpt lat="44.58913" lon="6.31587">
        <ele>2007.4000244141</ele>
        <time>2021-06-10T08:58:29.000Z</time>
      </trkpt>
      <trkpt lat="44.58921" lon="6.31612">
        <ele>2006.1999511719</ele>
        <time>2021-06-10T08:58:35.000Z</time>
      </trkpt>
      <trkpt lat="44.58924" lon="6.31616">
        <ele>2005.8000488281</ele>
        <time>2021-06-10T08:58:36.000Z</time>
      </trkpt>
      <trkpt lat="44.58929" lon="6.31625">
        <ele>2004.5999755859</ele>
        <time>2021-06-10T08:58:38.000Z</time>
      </trkpt>
      <trkpt lat="44.58935" lon="6.31632">
        <ele>2003.1999511719</ele>
        <time>2021-06-10T08:58:40.000Z</time>
      </trkpt>
      <trkpt lat="44.58937" lon="6.31636">
        <ele>2002.4000244141</ele>
        <time>2021-06-10T08:58:41.000Z</time>
      </trkpt>
      <trkpt lat="44.58939" lon="6.31639">
        <ele>2001.8000488281</ele>
        <time>2021-06-10T08:58:42.000Z</time>
      </trkpt>
      <trkpt lat="44.58944" lon="6.31645">
        <ele>2000</ele>
        <time>2021-06-10T08:58:44.000Z</time>
      </trkpt>
      <trkpt lat="44.58948" lon="6.31649">
        <ele>1998.4000244141</ele>
        <time>2021-06-10T08:58:46.000Z</time>
      </trkpt>
      <trkpt lat="44.5895" lon="6.31651">
        <ele>1997.4000244141</ele>
        <time>2021-06-10T08:58:47.000Z</time>
      </trkpt>
      <trkpt lat="44.58953" lon="6.31653">
        <ele>1996.5999755859</ele>
        <time>2021-06-10T08:58:48.000Z</time>
      </trkpt>
      <trkpt lat="44.58957" lon="6.31658">
        <ele>1995.1999511719</ele>
        <time>2021-06-10T08:58:50.000Z</time>
      </trkpt>
      <trkpt lat="44.58961" lon="6.31665">
        <ele>1993.5999755859</ele>
        <time>2021-06-10T08:58:52.000Z</time>
      </trkpt>
      <trkpt lat="44.58963" lon="6.31669">
        <ele>1993</ele>
        <time>2021-06-10T08:58:53.000Z</time>
      </trkpt>
      <trkpt lat="44.58965" lon="6.31672">
        <ele>1992.1999511719</ele>
        <time>2021-06-10T08:58:54.000Z</time>
      </trkpt>
      <trkpt lat="44.58967" lon="6.31676">
        <ele>1991</ele>
        <time>2021-06-10T08:58:55.000Z</time>
      </trkpt>
      <trkpt lat="44.58974" lon="6.3168">
        <ele>1989.4000244141</ele>
        <time>2021-06-10T08:58:57.000Z</time>
      </trkpt>
      <trkpt lat="44.58977" lon="6.31682">
        <ele>1988.5999755859</ele>
        <time>2021-06-10T08:58:58.000Z</time>
      </trkpt>
      <trkpt lat="44.5898" lon="6.31685">
        <ele>1987.8000488281</ele>
        <time>2021-06-10T08:58:59.000Z</time>
      </trkpt>
      <trkpt lat="44.58987" lon="6.3169">
        <ele>1986</ele>
        <time>2021-06-10T08:59:01.000Z</time>
      </trkpt>
      <trkpt lat="44.58993" lon="6.31695">
        <ele>1984.4000244141</ele>
        <time>2021-06-10T08:59:03.000Z</time>
      </trkpt>
      <trkpt lat="44.58999" lon="6.31701">
        <ele>1982.4000244141</ele>
        <time>2021-06-10T08:59:05.000Z</time>
      </trkpt>
      <trkpt lat="44.59002" lon="6.31704">
        <ele>1981.4000244141</ele>
        <time>2021-06-10T08:59:06.000Z</time>
      </trkpt>
      <trkpt lat="44.59004" lon="6.31707">
        <ele>1980.1999511719</ele>
        <time>2021-06-10T08:59:07.000Z</time>
      </trkpt>
      <trkpt lat="44.59009" lon="6.31714">
        <ele>1978.4000244141</ele>
        <time>2021-06-10T08:59:09.000Z</time>
      </trkpt>
      <trkpt lat="44.59013" lon="6.31724">
        <ele>1976.5999755859</ele>
        <time>2021-06-10T08:59:11.000Z</time>
      </trkpt>
      <trkpt lat="44.59014" lon="6.31735">
        <ele>1975</ele>
        <time>2021-06-10T08:59:13.000Z</time>
      </trkpt>
      <trkpt lat="44.59014" lon="6.31747">
        <ele>1973.5999755859</ele>
        <time>2021-06-10T08:59:15.000Z</time>
      </trkpt>
      <trkpt lat="44.59013" lon="6.31758">
        <ele>1972</ele>
        <time>2021-06-10T08:59:17.000Z</time>
      </trkpt>
      <trkpt lat="44.59011" lon="6.3177">
        <ele>1970.1999511719</ele>
        <time>2021-06-10T08:59:19.000Z</time>
      </trkpt>
      <trkpt lat="44.59011" lon="6.31784">
        <ele>1968.4000244141</ele>
        <time>2021-06-10T08:59:21.000Z</time>
      </trkpt>
      <trkpt lat="44.59014" lon="6.31797">
        <ele>1967</ele>
        <time>2021-06-10T08:59:23.000Z</time>
      </trkpt>
      <trkpt lat="44.59015" lon="6.31802">
        <ele>1966</ele>
        <time>2021-06-10T08:59:24.000Z</time>
      </trkpt>
      <trkpt lat="44.59016" lon="6.31808">
        <ele>1965.4000244141</ele>
        <time>2021-06-10T08:59:25.000Z</time>
      </trkpt>
      <trkpt lat="44.59018" lon="6.31818">
        <ele>1964.5999755859</ele>
        <time>2021-06-10T08:59:27.000Z</time>
      </trkpt>
      <trkpt lat="44.59019" lon="6.31825">
        <ele>1963.5999755859</ele>
        <time>2021-06-10T08:59:29.000Z</time>
      </trkpt>
      <trkpt lat="44.5902" lon="6.31829">
        <ele>1963</ele>
        <time>2021-06-10T08:59:30.000Z</time>
      </trkpt>
      <trkpt lat="44.59025" lon="6.31844">
        <ele>1961.8000488281</ele>
        <time>2021-06-10T08:59:34.000Z</time>
      </trkpt>
      <trkpt lat="44.59037" lon="6.31856">
        <ele>1960.8000488281</ele>
        <time>2021-06-10T08:59:38.000Z</time>
      </trkpt>
      <trkpt lat="44.5904" lon="6.31859">
        <ele>1960.8000488281</ele>
        <time>2021-06-10T08:59:39.000Z</time>
      </trkpt>
      <trkpt lat="44.59052" lon="6.31866">
        <ele>1959.5999755859</ele>
        <time>2021-06-10T08:59:43.000Z</time>
      </trkpt>
      <trkpt lat="44.59061" lon="6.31868">
        <ele>1958.8000488281</ele>
        <time>2021-06-10T08:59:46.000Z</time>
      </trkpt>
      <trkpt lat="44.59064" lon="6.31868">
        <ele>1958.5999755859</ele>
        <time>2021-06-10T08:59:47.000Z</time>
      </trkpt>
      <trkpt lat="44.59075" lon="6.31869">
        <ele>1957.4000244141</ele>
        <time>2021-06-10T08:59:51.000Z</time>
      </trkpt>
      <trkpt lat="44.5908" lon="6.31871">
        <ele>1956</ele>
        <time>2021-06-10T08:59:53.000Z</time>
      </trkpt>
      <trkpt lat="44.59085" lon="6.31875">
        <ele>1954.8000488281</ele>
        <time>2021-06-10T08:59:55.000Z</time>
      </trkpt>
      <trkpt lat="44.5909" lon="6.31881">
        <ele>1953.5999755859</ele>
        <time>2021-06-10T08:59:57.000Z</time>
      </trkpt>
      <trkpt lat="44.59092" lon="6.31883">
        <ele>1953</ele>
        <time>2021-06-10T08:59:58.000Z</time>
      </trkpt>
      <trkpt lat="44.59095" lon="6.31885">
        <ele>1952.1999511719</ele>
        <time>2021-06-10T08:59:59.000Z</time>
      </trkpt>
      <trkpt lat="44.591" lon="6.3189">
        <ele>1951</ele>
        <time>2021-06-10T09:00:01.000Z</time>
      </trkpt>
      <trkpt lat="44.59104" lon="6.31895">
        <ele>1949.5999755859</ele>
        <time>2021-06-10T09:00:03.000Z</time>
      </trkpt>
      <trkpt lat="44.59105" lon="6.31898">
        <ele>1949</ele>
        <time>2021-06-10T09:00:04.000Z</time>
      </trkpt>
      <trkpt lat="44.59106" lon="6.31901">
        <ele>1948.1999511719</ele>
        <time>2021-06-10T09:00:05.000Z</time>
      </trkpt>
      <trkpt lat="44.5911" lon="6.31909">
        <ele>1946</ele>
        <time>2021-06-10T09:00:07.000Z</time>
      </trkpt>
      <trkpt lat="44.59112" lon="6.31915">
        <ele>1945</ele>
        <time>2021-06-10T09:00:08.000Z</time>
      </trkpt>
      <trkpt lat="44.59115" lon="6.31927">
        <ele>1943</ele>
        <time>2021-06-10T09:00:10.000Z</time>
      </trkpt>
      <trkpt lat="44.5912" lon="6.31937">
        <ele>1941.1999511719</ele>
        <time>2021-06-10T09:00:12.000Z</time>
      </trkpt>
      <trkpt lat="44.59129" lon="6.31939">
        <ele>1939.5999755859</ele>
        <time>2021-06-10T09:00:14.000Z</time>
      </trkpt>
      <trkpt lat="44.59133" lon="6.3194">
        <ele>1938.5999755859</ele>
        <time>2021-06-10T09:00:15.000Z</time>
      </trkpt>
      <trkpt lat="44.59138" lon="6.31941">
        <ele>1937.4000244141</ele>
        <time>2021-06-10T09:00:16.000Z</time>
      </trkpt>
      <trkpt lat="44.59142" lon="6.31942">
        <ele>1936.1999511719</ele>
        <time>2021-06-10T09:00:17.000Z</time>
      </trkpt>
      <trkpt lat="44.59145" lon="6.31943">
        <ele>1935.1999511719</ele>
        <time>2021-06-10T09:00:18.000Z</time>
      </trkpt>
      <trkpt lat="44.59148" lon="6.31945">
        <ele>1934</ele>
        <time>2021-06-10T09:00:19.000Z</time>
      </trkpt>
      <trkpt lat="44.59151" lon="6.3195">
        <ele>1931.4000244141</ele>
        <time>2021-06-10T09:00:21.000Z</time>
      </trkpt>
      <trkpt lat="44.59154" lon="6.31956">
        <ele>1929.4000244141</ele>
        <time>2021-06-10T09:00:23.000Z</time>
      </trkpt>
      <trkpt lat="44.59156" lon="6.31959">
        <ele>1928.4000244141</ele>
        <time>2021-06-10T09:00:24.000Z</time>
      </trkpt>
      <trkpt lat="44.59158" lon="6.31961">
        <ele>1927.1999511719</ele>
        <time>2021-06-10T09:00:25.000Z</time>
      </trkpt>
      <trkpt lat="44.59161" lon="6.31964">
        <ele>1925.5999755859</ele>
        <time>2021-06-10T09:00:27.000Z</time>
      </trkpt>
      <trkpt lat="44.59166" lon="6.31967">
        <ele>1924</ele>
        <time>2021-06-10T09:00:29.000Z</time>
      </trkpt>
      <trkpt lat="44.59171" lon="6.31969">
        <ele>1922.8000488281</ele>
        <time>2021-06-10T09:00:31.000Z</time>
      </trkpt>
      <trkpt lat="44.59175" lon="6.3197">
        <ele>1921.4000244141</ele>
        <time>2021-06-10T09:00:33.000Z</time>
      </trkpt>
      <trkpt lat="44.59179" lon="6.31972">
        <ele>1920.1999511719</ele>
        <time>2021-06-10T09:00:35.000Z</time>
      </trkpt>
      <trkpt lat="44.59183" lon="6.31972">
        <ele>1918.8000488281</ele>
        <time>2021-06-10T09:00:37.000Z</time>
      </trkpt>
      <trkpt lat="44.59188" lon="6.31968">
        <ele>1917.5999755859</ele>
        <time>2021-06-10T09:00:39.000Z</time>
      </trkpt>
      <trkpt lat="44.59193" lon="6.31966">
        <ele>1916.1999511719</ele>
        <time>2021-06-10T09:00:41.000Z</time>
      </trkpt>
      <trkpt lat="44.592" lon="6.31964">
        <ele>1914.8000488281</ele>
        <time>2021-06-10T09:00:43.000Z</time>
      </trkpt>
      <trkpt lat="44.59208" lon="6.31959">
        <ele>1913.4000244141</ele>
        <time>2021-06-10T09:00:45.000Z</time>
      </trkpt>
      <trkpt lat="44.59217" lon="6.31951">
        <ele>1912</ele>
        <time>2021-06-10T09:00:47.000Z</time>
      </trkpt>
      <trkpt lat="44.59221" lon="6.31948">
        <ele>1911.4000244141</ele>
        <time>2021-06-10T09:00:48.000Z</time>
      </trkpt>
      <trkpt lat="44.59225" lon="6.31945">
        <ele>1910.5999755859</ele>
        <time>2021-06-10T09:00:49.000Z</time>
      </trkpt>
      <trkpt lat="44.59229" lon="6.31943">
        <ele>1909</ele>
        <time>2021-06-10T09:00:50.000Z</time>
      </trkpt>
      <trkpt lat="44.59238" lon="6.31945">
        <ele>1907.1999511719</ele>
        <time>2021-06-10T09:00:52.000Z</time>
      </trkpt>
      <trkpt lat="44.59246" lon="6.31952">
        <ele>1905.1999511719</ele>
        <time>2021-06-10T09:00:54.000Z</time>
      </trkpt>
      <trkpt lat="44.59251" lon="6.31956">
        <ele>1904.4000244141</ele>
        <time>2021-06-10T09:00:55.000Z</time>
      </trkpt>
      <trkpt lat="44.59257" lon="6.31959">
        <ele>1903.5999755859</ele>
        <time>2021-06-10T09:00:56.000Z</time>
      </trkpt>
      <trkpt lat="44.59268" lon="6.31965">
        <ele>1902.4000244141</ele>
        <time>2021-06-10T09:00:58.000Z</time>
      </trkpt>
      <trkpt lat="44.59277" lon="6.3197">
        <ele>1901</ele>
        <time>2021-06-10T09:01:00.000Z</time>
      </trkpt>
      <trkpt lat="44.59287" lon="6.31977">
        <ele>1899.4000244141</ele>
        <time>2021-06-10T09:01:02.000Z</time>
      </trkpt>
      <trkpt lat="44.59297" lon="6.31984">
        <ele>1897.8000488281</ele>
        <time>2021-06-10T09:01:04.000Z</time>
      </trkpt>
      <trkpt lat="44.59301" lon="6.31988">
        <ele>1897.1999511719</ele>
        <time>2021-06-10T09:01:05.000Z</time>
      </trkpt>
      <trkpt lat="44.59304" lon="6.31992">
        <ele>1896.5999755859</ele>
        <time>2021-06-10T09:01:06.000Z</time>
      </trkpt>
      <trkpt lat="44.59308" lon="6.32001">
        <ele>1895.5999755859</ele>
        <time>2021-06-10T09:01:08.000Z</time>
      </trkpt>
      <trkpt lat="44.5931" lon="6.32004">
        <ele>1894.8000488281</ele>
        <time>2021-06-10T09:01:09.000Z</time>
      </trkpt>
      <trkpt lat="44.59311" lon="6.32008">
        <ele>1894.1999511719</ele>
        <time>2021-06-10T09:01:10.000Z</time>
      </trkpt>
      <trkpt lat="44.59313" lon="6.32017">
        <ele>1893</ele>
        <time>2021-06-10T09:01:12.000Z</time>
      </trkpt>
      <trkpt lat="44.59315" lon="6.3203">
        <ele>1892.1999511719</ele>
        <time>2021-06-10T09:01:15.000Z</time>
      </trkpt>
      <trkpt lat="44.59316" lon="6.32033">
        <ele>1892</ele>
        <time>2021-06-10T09:01:16.000Z</time>
      </trkpt>
      <trkpt lat="44.59319" lon="6.32051">
        <ele>1890.8000488281</ele>
        <time>2021-06-10T09:01:21.000Z</time>
      </trkpt>
      <trkpt lat="44.59321" lon="6.32055">
        <ele>1890.5999755859</ele>
        <time>2021-06-10T09:01:22.000Z</time>
      </trkpt>
      <trkpt lat="44.5933" lon="6.32069">
        <ele>1889.8000488281</ele>
        <time>2021-06-10T09:01:26.000Z</time>
      </trkpt>
      <trkpt lat="44.59336" lon="6.32074">
        <ele>1888.8000488281</ele>
        <time>2021-06-10T09:01:28.000Z</time>
      </trkpt>
      <trkpt lat="44.5934" lon="6.32079">
        <ele>1887.5999755859</ele>
        <time>2021-06-10T09:01:30.000Z</time>
      </trkpt>
      <trkpt lat="44.59344" lon="6.32083">
        <ele>1886.4000244141</ele>
        <time>2021-06-10T09:01:32.000Z</time>
      </trkpt>
      <trkpt lat="44.59351" lon="6.32083">
        <ele>1885</ele>
        <time>2021-06-10T09:01:34.000Z</time>
      </trkpt>
      <trkpt lat="44.59359" lon="6.32081">
        <ele>1883.8000488281</ele>
        <time>2021-06-10T09:01:36.000Z</time>
      </trkpt>
      <trkpt lat="44.5937" lon="6.3208">
        <ele>1882.5999755859</ele>
        <time>2021-06-10T09:01:39.000Z</time>
      </trkpt>
      <trkpt lat="44.59373" lon="6.32081">
        <ele>1882.1999511719</ele>
        <time>2021-06-10T09:01:40.000Z</time>
      </trkpt>
      <trkpt lat="44.59376" lon="6.32087">
        <ele>1881.1999511719</ele>
        <time>2021-06-10T09:01:42.000Z</time>
      </trkpt>
      <trkpt lat="44.59377" lon="6.32095">
        <ele>1880</ele>
        <time>2021-06-10T09:01:44.000Z</time>
      </trkpt>
      <trkpt lat="44.59377" lon="6.32103">
        <ele>1878.5999755859</ele>
        <time>2021-06-10T09:01:46.000Z</time>
      </trkpt>
      <trkpt lat="44.59381" lon="6.32109">
        <ele>1876.1999511719</ele>
        <time>2021-06-10T09:01:48.000Z</time>
      </trkpt>
      <trkpt lat="44.59389" lon="6.3211">
        <ele>1875</ele>
        <time>2021-06-10T09:01:50.000Z</time>
      </trkpt>
      <trkpt lat="44.59396" lon="6.32109">
        <ele>1873.8000488281</ele>
        <time>2021-06-10T09:01:52.000Z</time>
      </trkpt>
      <trkpt lat="44.59401" lon="6.32109">
        <ele>1872.5999755859</ele>
        <time>2021-06-10T09:01:54.000Z</time>
      </trkpt>
      <trkpt lat="44.59405" lon="6.32112">
        <ele>1871.4000244141</ele>
        <time>2021-06-10T09:01:56.000Z</time>
      </trkpt>
      <trkpt lat="44.59409" lon="6.32117">
        <ele>1870</ele>
        <time>2021-06-10T09:01:58.000Z</time>
      </trkpt>
      <trkpt lat="44.59413" lon="6.32123">
        <ele>1868.4000244141</ele>
        <time>2021-06-10T09:02:00.000Z</time>
      </trkpt>
      <trkpt lat="44.59416" lon="6.32125">
        <ele>1867.8000488281</ele>
        <time>2021-06-10T09:02:01.000Z</time>
      </trkpt>
      <trkpt lat="44.5942" lon="6.32125">
        <ele>1867.1999511719</ele>
        <time>2021-06-10T09:02:02.000Z</time>
      </trkpt>
      <trkpt lat="44.59429" lon="6.32123">
        <ele>1866</ele>
        <time>2021-06-10T09:02:04.000Z</time>
      </trkpt>
      <trkpt lat="44.59433" lon="6.32121">
        <ele>1865.5999755859</ele>
        <time>2021-06-10T09:02:05.000Z</time>
      </trkpt>
      <trkpt lat="44.59439" lon="6.32119">
        <ele>1864.5999755859</ele>
        <time>2021-06-10T09:02:07.000Z</time>
      </trkpt>
      <trkpt lat="44.59442" lon="6.32118">
        <ele>1864.1999511719</ele>
        <time>2021-06-10T09:02:08.000Z</time>
      </trkpt>
      <trkpt lat="44.5945" lon="6.32113">
        <ele>1863</ele>
        <time>2021-06-10T09:02:10.000Z</time>
      </trkpt>
      <trkpt lat="44.59454" lon="6.32109">
        <ele>1862.4000244141</ele>
        <time>2021-06-10T09:02:11.000Z</time>
      </trkpt>
      <trkpt lat="44.59459" lon="6.32104">
        <ele>1861.8000488281</ele>
        <time>2021-06-10T09:02:12.000Z</time>
      </trkpt>
      <trkpt lat="44.59469" lon="6.32091">
        <ele>1861.1999511719</ele>
        <time>2021-06-10T09:02:15.000Z</time>
      </trkpt>
      <trkpt lat="44.59477" lon="6.32085">
        <ele>1860.5999755859</ele>
        <time>2021-06-10T09:02:18.000Z</time>
      </trkpt>
      <trkpt lat="44.59481" lon="6.32083">
        <ele>1860.4000244141</ele>
        <time>2021-06-10T09:02:20.000Z</time>
      </trkpt>
      <trkpt lat="44.59495" lon="6.3209">
        <ele>1860.1999511719</ele>
        <time>2021-06-10T09:02:25.000Z</time>
      </trkpt>
      <trkpt lat="44.59507" lon="6.32103">
        <ele>1859.4000244141</ele>
        <time>2021-06-10T09:02:28.000Z</time>
      </trkpt>
      <trkpt lat="44.59513" lon="6.32107">
        <ele>1859.4000244141</ele>
        <time>2021-06-10T09:02:29.000Z</time>
      </trkpt>
      <trkpt lat="44.59531" lon="6.32106">
        <ele>1859.1999511719</ele>
        <time>2021-06-10T09:02:32.000Z</time>
      </trkpt>
      <trkpt lat="44.59544" lon="6.32093">
        <ele>1858.5999755859</ele>
        <time>2021-06-10T09:02:35.000Z</time>
      </trkpt>
      <trkpt lat="44.59547" lon="6.32089">
        <ele>1858</ele>
        <time>2021-06-10T09:02:36.000Z</time>
      </trkpt>
      <trkpt lat="44.59551" lon="6.32085">
        <ele>1857</ele>
        <time>2021-06-10T09:02:37.000Z</time>
      </trkpt>
      <trkpt lat="44.59555" lon="6.3208">
        <ele>1855.8000488281</ele>
        <time>2021-06-10T09:02:39.000Z</time>
      </trkpt>
      <trkpt lat="44.59554" lon="6.3208">
        <ele>1854.5999755859</ele>
        <time>2021-06-10T09:02:44.000Z</time>
      </trkpt>
      <trkpt lat="44.59554" lon="6.3208">
        <ele>1854.1999511719</ele>
        <time>2021-06-10T09:02:47.000Z</time>
      </trkpt>
      <trkpt lat="44.59554" lon="6.32081">
        <ele>1854</ele>
        <time>2021-06-10T09:02:59.000Z</time>
      </trkpt>
      <trkpt lat="44.5956" lon="6.32076">
        <ele>1853.8000488281</ele>
        <time>2021-06-10T09:03:05.000Z</time>
      </trkpt>
      <trkpt lat="44.59572" lon="6.32076">
        <ele>1853.5999755859</ele>
        <time>2021-06-10T09:03:11.000Z</time>
      </trkpt>
      <trkpt lat="44.59579" lon="6.32085">
        <ele>1853.4000244141</ele>
        <time>2021-06-10T09:03:15.000Z</time>
      </trkpt>
      <trkpt lat="44.59582" lon="6.32098">
        <ele>1852.8000488281</ele>
        <time>2021-06-10T09:03:18.000Z</time>
      </trkpt>
      <trkpt lat="44.59585" lon="6.32108">
        <ele>1852.1999511719</ele>
        <time>2021-06-10T09:03:20.000Z</time>
      </trkpt>
      <trkpt lat="44.5959" lon="6.32123">
        <ele>1851.5999755859</ele>
        <time>2021-06-10T09:03:23.000Z</time>
      </trkpt>
      <trkpt lat="44.59594" lon="6.32137">
        <ele>1850.5999755859</ele>
        <time>2021-06-10T09:03:26.000Z</time>
      </trkpt>
      <trkpt lat="44.59596" lon="6.32146">
        <ele>1849.5999755859</ele>
        <time>2021-06-10T09:03:28.000Z</time>
      </trkpt>
      <trkpt lat="44.59595" lon="6.32157">
        <ele>1848.5999755859</ele>
        <time>2021-06-10T09:03:30.000Z</time>
      </trkpt>
      <trkpt lat="44.59594" lon="6.32162">
        <ele>1848.1999511719</ele>
        <time>2021-06-10T09:03:31.000Z</time>
      </trkpt>
      <trkpt lat="44.59591" lon="6.3218">
        <ele>1847.4000244141</ele>
        <time>2021-06-10T09:03:34.000Z</time>
      </trkpt>
      <trkpt lat="44.59591" lon="6.32187">
        <ele>1847</ele>
        <time>2021-06-10T09:03:35.000Z</time>
      </trkpt>
      <trkpt lat="44.59591" lon="6.32193">
        <ele>1846.8000488281</ele>
        <time>2021-06-10T09:03:36.000Z</time>
      </trkpt>
      <trkpt lat="44.59592" lon="6.32199">
        <ele>1846.4000244141</ele>
        <time>2021-06-10T09:03:37.000Z</time>
      </trkpt>
      <trkpt lat="44.59594" lon="6.3221">
        <ele>1845.5999755859</ele>
        <time>2021-06-10T09:03:39.000Z</time>
      </trkpt>
      <trkpt lat="44.59595" lon="6.32216">
        <ele>1845</ele>
        <time>2021-06-10T09:03:40.000Z</time>
      </trkpt>
      <trkpt lat="44.59597" lon="6.32226">
        <ele>1843.5999755859</ele>
        <time>2021-06-10T09:03:42.000Z</time>
      </trkpt>
      <trkpt lat="44.59595" lon="6.32234">
        <ele>1842.1999511719</ele>
        <time>2021-06-10T09:03:44.000Z</time>
      </trkpt>
      <trkpt lat="44.59593" lon="6.32238">
        <ele>1841.1999511719</ele>
        <time>2021-06-10T09:03:45.000Z</time>
      </trkpt>
      <trkpt lat="44.59584" lon="6.32249">
        <ele>1839.8000488281</ele>
        <time>2021-06-10T09:03:48.000Z</time>
      </trkpt>
      <trkpt lat="44.59577" lon="6.32259">
        <ele>1839.1999511719</ele>
        <time>2021-06-10T09:03:50.000Z</time>
      </trkpt>
      <trkpt lat="44.59574" lon="6.32264">
        <ele>1838.8000488281</ele>
        <time>2021-06-10T09:03:51.000Z</time>
      </trkpt>
      <trkpt lat="44.5957" lon="6.32274">
        <ele>1837.8000488281</ele>
        <time>2021-06-10T09:03:53.000Z</time>
      </trkpt>
      <trkpt lat="44.59567" lon="6.32284">
        <ele>1836.5999755859</ele>
        <time>2021-06-10T09:03:55.000Z</time>
      </trkpt>
      <trkpt lat="44.59567" lon="6.3229">
        <ele>1836</ele>
        <time>2021-06-10T09:03:56.000Z</time>
      </trkpt>
      <trkpt lat="44.59567" lon="6.32295">
        <ele>1835.1999511719</ele>
        <time>2021-06-10T09:03:57.000Z</time>
      </trkpt>
      <trkpt lat="44.59569" lon="6.32306">
        <ele>1834.1999511719</ele>
        <time>2021-06-10T09:03:59.000Z</time>
      </trkpt>
      <trkpt lat="44.59569" lon="6.32316">
        <ele>1833.1999511719</ele>
        <time>2021-06-10T09:04:01.000Z</time>
      </trkpt>
      <trkpt lat="44.59569" lon="6.32322">
        <ele>1832.8000488281</ele>
        <time>2021-06-10T09:04:02.000Z</time>
      </trkpt>
      <trkpt lat="44.59568" lon="6.32333">
        <ele>1831.5999755859</ele>
        <time>2021-06-10T09:04:04.000Z</time>
      </trkpt>
      <trkpt lat="44.59567" lon="6.32346">
        <ele>1830.5999755859</ele>
        <time>2021-06-10T09:04:06.000Z</time>
      </trkpt>
      <trkpt lat="44.59564" lon="6.32371">
        <ele>1829.1999511719</ele>
        <time>2021-06-10T09:04:10.000Z</time>
      </trkpt>
      <trkpt lat="44.59564" lon="6.32383">
        <ele>1828.4000244141</ele>
        <time>2021-06-10T09:04:12.000Z</time>
      </trkpt>
      <trkpt lat="44.59564" lon="6.32388">
        <ele>1827.8000488281</ele>
        <time>2021-06-10T09:04:13.000Z</time>
      </trkpt>
      <trkpt lat="44.59564" lon="6.32394">
        <ele>1826.8000488281</ele>
        <time>2021-06-10T09:04:14.000Z</time>
      </trkpt>
      <trkpt lat="44.59563" lon="6.32411">
        <ele>1825.4000244141</ele>
        <time>2021-06-10T09:04:17.000Z</time>
      </trkpt>
      <trkpt lat="44.59562" lon="6.32423">
        <ele>1824.4000244141</ele>
        <time>2021-06-10T09:04:19.000Z</time>
      </trkpt>
      <trkpt lat="44.59561" lon="6.32429">
        <ele>1824</ele>
        <time>2021-06-10T09:04:20.000Z</time>
      </trkpt>
      <trkpt lat="44.59563" lon="6.32441">
        <ele>1823.1999511719</ele>
        <time>2021-06-10T09:04:22.000Z</time>
      </trkpt>
      <trkpt lat="44.59565" lon="6.32447">
        <ele>1822.8000488281</ele>
        <time>2021-06-10T09:04:23.000Z</time>
      </trkpt>
      <trkpt lat="44.59569" lon="6.32458">
        <ele>1821.5999755859</ele>
        <time>2021-06-10T09:04:25.000Z</time>
      </trkpt>
      <trkpt lat="44.59572" lon="6.32469">
        <ele>1820.1999511719</ele>
        <time>2021-06-10T09:04:27.000Z</time>
      </trkpt>
      <trkpt lat="44.59575" lon="6.3248">
        <ele>1818.4000244141</ele>
        <time>2021-06-10T09:04:29.000Z</time>
      </trkpt>
      <trkpt lat="44.59577" lon="6.32491">
        <ele>1817.1999511719</ele>
        <time>2021-06-10T09:04:31.000Z</time>
      </trkpt>
      <trkpt lat="44.5958" lon="6.32503">
        <ele>1816</ele>
        <time>2021-06-10T09:04:33.000Z</time>
      </trkpt>
      <trkpt lat="44.59583" lon="6.32516">
        <ele>1814.8000488281</ele>
        <time>2021-06-10T09:04:35.000Z</time>
      </trkpt>
      <trkpt lat="44.59584" lon="6.32522">
        <ele>1814.4000244141</ele>
        <time>2021-06-10T09:04:36.000Z</time>
      </trkpt>
      <trkpt lat="44.59586" lon="6.32528">
        <ele>1813.8000488281</ele>
        <time>2021-06-10T09:04:37.000Z</time>
      </trkpt>
      <trkpt lat="44.5959" lon="6.32539">
        <ele>1812.5999755859</ele>
        <time>2021-06-10T09:04:39.000Z</time>
      </trkpt>
      <trkpt lat="44.59593" lon="6.3255">
        <ele>1810.5999755859</ele>
        <time>2021-06-10T09:04:41.000Z</time>
      </trkpt>
      <trkpt lat="44.59595" lon="6.32557">
        <ele>1810.1999511719</ele>
        <time>2021-06-10T09:04:42.000Z</time>
      </trkpt>
      <trkpt lat="44.59597" lon="6.32563">
        <ele>1809</ele>
        <time>2021-06-10T09:04:43.000Z</time>
      </trkpt>
      <trkpt lat="44.596" lon="6.32576">
        <ele>1807.8000488281</ele>
        <time>2021-06-10T09:04:45.000Z</time>
      </trkpt>
      <trkpt lat="44.59605" lon="6.3259">
        <ele>1806.5999755859</ele>
        <time>2021-06-10T09:04:47.000Z</time>
      </trkpt>
      <trkpt lat="44.59608" lon="6.32603">
        <ele>1805.5999755859</ele>
        <time>2021-06-10T09:04:49.000Z</time>
      </trkpt>
      <trkpt lat="44.5961" lon="6.3261">
        <ele>1805</ele>
        <time>2021-06-10T09:04:50.000Z</time>
      </trkpt>
      <trkpt lat="44.59611" lon="6.32617">
        <ele>1804.4000244141</ele>
        <time>2021-06-10T09:04:51.000Z</time>
      </trkpt>
      <trkpt lat="44.59613" lon="6.3263">
        <ele>1803.4000244141</ele>
        <time>2021-06-10T09:04:53.000Z</time>
      </trkpt>
      <trkpt lat="44.59615" lon="6.32644">
        <ele>1802.1999511719</ele>
        <time>2021-06-10T09:04:55.000Z</time>
      </trkpt>
      <trkpt lat="44.59617" lon="6.32657">
        <ele>1801</ele>
        <time>2021-06-10T09:04:57.000Z</time>
      </trkpt>
      <trkpt lat="44.59618" lon="6.32663">
        <ele>1800.4000244141</ele>
        <time>2021-06-10T09:04:58.000Z</time>
      </trkpt>
      <trkpt lat="44.59621" lon="6.32668">
        <ele>1800</ele>
        <time>2021-06-10T09:04:59.000Z</time>
      </trkpt>
      <trkpt lat="44.59626" lon="6.32678">
        <ele>1799</ele>
        <time>2021-06-10T09:05:01.000Z</time>
      </trkpt>
      <trkpt lat="44.59629" lon="6.32684">
        <ele>1798.4000244141</ele>
        <time>2021-06-10T09:05:02.000Z</time>
      </trkpt>
      <trkpt lat="44.59632" lon="6.32695">
        <ele>1797</ele>
        <time>2021-06-10T09:05:04.000Z</time>
      </trkpt>
      <trkpt lat="44.59638" lon="6.32706">
        <ele>1795.4000244141</ele>
        <time>2021-06-10T09:05:06.000Z</time>
      </trkpt>
      <trkpt lat="44.59642" lon="6.3271">
        <ele>1794.5999755859</ele>
        <time>2021-06-10T09:05:07.000Z</time>
      </trkpt>
      <trkpt lat="44.59646" lon="6.32714">
        <ele>1794</ele>
        <time>2021-06-10T09:05:08.000Z</time>
      </trkpt>
      <trkpt lat="44.59655" lon="6.32719">
        <ele>1792.8000488281</ele>
        <time>2021-06-10T09:05:10.000Z</time>
      </trkpt>
      <trkpt lat="44.59663" lon="6.32725">
        <ele>1791.8000488281</ele>
        <time>2021-06-10T09:05:12.000Z</time>
      </trkpt>
      <trkpt lat="44.59672" lon="6.3273">
        <ele>1790.1999511719</ele>
        <time>2021-06-10T09:05:14.000Z</time>
      </trkpt>
      <trkpt lat="44.59676" lon="6.32734">
        <ele>1789.5999755859</ele>
        <time>2021-06-10T09:05:15.000Z</time>
      </trkpt>
      <trkpt lat="44.59679" lon="6.32739">
        <ele>1789.1999511719</ele>
        <time>2021-06-10T09:05:16.000Z</time>
      </trkpt>
      <trkpt lat="44.59683" lon="6.32745">
        <ele>1788.8000488281</ele>
        <time>2021-06-10T09:05:17.000Z</time>
      </trkpt>
      <trkpt lat="44.59689" lon="6.32757">
        <ele>1788</ele>
        <time>2021-06-10T09:05:19.000Z</time>
      </trkpt>
      <trkpt lat="44.59695" lon="6.32769">
        <ele>1787.1999511719</ele>
        <time>2021-06-10T09:05:21.000Z</time>
      </trkpt>
      <trkpt lat="44.59698" lon="6.32775">
        <ele>1786.5999755859</ele>
        <time>2021-06-10T09:05:22.000Z</time>
      </trkpt>
      <trkpt lat="44.59702" lon="6.3278">
        <ele>1786.1999511719</ele>
        <time>2021-06-10T09:05:23.000Z</time>
      </trkpt>
      <trkpt lat="44.59706" lon="6.32786">
        <ele>1785.5999755859</ele>
        <time>2021-06-10T09:05:24.000Z</time>
      </trkpt>
      <trkpt lat="44.59713" lon="6.32797">
        <ele>1784.5999755859</ele>
        <time>2021-06-10T09:05:26.000Z</time>
      </trkpt>
      <trkpt lat="44.59715" lon="6.32803">
        <ele>1784</ele>
        <time>2021-06-10T09:05:27.000Z</time>
      </trkpt>
      <trkpt lat="44.59716" lon="6.3281">
        <ele>1783.4000244141</ele>
        <time>2021-06-10T09:05:28.000Z</time>
      </trkpt>
      <trkpt lat="44.59719" lon="6.32828">
        <ele>1782</ele>
        <time>2021-06-10T09:05:30.000Z</time>
      </trkpt>
      <trkpt lat="44.59721" lon="6.32838">
        <ele>1781.1999511719</ele>
        <time>2021-06-10T09:05:31.000Z</time>
      </trkpt>
      <trkpt lat="44.59723" lon="6.32847">
        <ele>1780.1999511719</ele>
        <time>2021-06-10T09:05:32.000Z</time>
      </trkpt>
      <trkpt lat="44.59726" lon="6.32864">
        <ele>1779.1999511719</ele>
        <time>2021-06-10T09:05:34.000Z</time>
      </trkpt>
      <trkpt lat="44.59728" lon="6.32872">
        <ele>1778.8000488281</ele>
        <time>2021-06-10T09:05:35.000Z</time>
      </trkpt>
      <trkpt lat="44.59727" lon="6.32882">
        <ele>1778.4000244141</ele>
        <time>2021-06-10T09:05:36.000Z</time>
      </trkpt>
      <trkpt lat="44.59727" lon="6.32892">
        <ele>1777.8000488281</ele>
        <time>2021-06-10T09:05:37.000Z</time>
      </trkpt>
      <trkpt lat="44.59725" lon="6.32911">
        <ele>1776.4000244141</ele>
        <time>2021-06-10T09:05:39.000Z</time>
      </trkpt>
      <trkpt lat="44.59724" lon="6.32921">
        <ele>1775.5999755859</ele>
        <time>2021-06-10T09:05:40.000Z</time>
      </trkpt>
      <trkpt lat="44.59724" lon="6.3293">
        <ele>1774.8000488281</ele>
        <time>2021-06-10T09:05:41.000Z</time>
      </trkpt>
      <trkpt lat="44.59725" lon="6.32939">
        <ele>1773.4000244141</ele>
        <time>2021-06-10T09:05:42.000Z</time>
      </trkpt>
      <trkpt lat="44.59726" lon="6.32956">
        <ele>1772</ele>
        <time>2021-06-10T09:05:44.000Z</time>
      </trkpt>
      <trkpt lat="44.59727" lon="6.32977">
        <ele>1770.1999511719</ele>
        <time>2021-06-10T09:05:46.000Z</time>
      </trkpt>
      <trkpt lat="44.59727" lon="6.32998">
        <ele>1768.5999755859</ele>
        <time>2021-06-10T09:05:48.000Z</time>
      </trkpt>
      <trkpt lat="44.59727" lon="6.33008">
        <ele>1768</ele>
        <time>2021-06-10T09:05:49.000Z</time>
      </trkpt>
      <trkpt lat="44.59728" lon="6.33016">
        <ele>1767.4000244141</ele>
        <time>2021-06-10T09:05:50.000Z</time>
      </trkpt>
      <trkpt lat="44.59728" lon="6.33023">
        <ele>1767</ele>
        <time>2021-06-10T09:05:51.000Z</time>
      </trkpt>
      <trkpt lat="44.59728" lon="6.33029">
        <ele>1766.4000244141</ele>
        <time>2021-06-10T09:05:52.000Z</time>
      </trkpt>
      <trkpt lat="44.59724" lon="6.3304">
        <ele>1765</ele>
        <time>2021-06-10T09:05:54.000Z</time>
      </trkpt>
      <trkpt lat="44.59718" lon="6.33049">
        <ele>1763.4000244141</ele>
        <time>2021-06-10T09:05:56.000Z</time>
      </trkpt>
      <trkpt lat="44.59711" lon="6.33057">
        <ele>1761.8000488281</ele>
        <time>2021-06-10T09:05:58.000Z</time>
      </trkpt>
      <trkpt lat="44.59711" lon="6.33067">
        <ele>1760.4000244141</ele>
        <time>2021-06-10T09:06:00.000Z</time>
      </trkpt>
      <trkpt lat="44.59713" lon="6.33069">
        <ele>1759.5999755859</ele>
        <time>2021-06-10T09:06:01.000Z</time>
      </trkpt>
      <trkpt lat="44.59715" lon="6.3307">
        <ele>1759.1999511719</ele>
        <time>2021-06-10T09:06:02.000Z</time>
      </trkpt>
      <trkpt lat="44.5972" lon="6.33066">
        <ele>1758.1999511719</ele>
        <time>2021-06-10T09:06:04.000Z</time>
      </trkpt>
      <trkpt lat="44.59722" lon="6.33064">
        <ele>1757.8000488281</ele>
        <time>2021-06-10T09:06:05.000Z</time>
      </trkpt>
      <trkpt lat="44.59729" lon="6.33052">
        <ele>1756.8000488281</ele>
        <time>2021-06-10T09:06:10.000Z</time>
      </trkpt>
      <trkpt lat="44.5973" lon="6.33051">
        <ele>1756.5999755859</ele>
        <time>2021-06-10T09:06:11.000Z</time>
      </trkpt>
      <trkpt lat="44.59732" lon="6.33058">
        <ele>1756.1999511719</ele>
        <time>2021-06-10T09:06:15.000Z</time>
      </trkpt>
      <trkpt lat="44.59732" lon="6.33072">
        <ele>1755.5999755859</ele>
        <time>2021-06-10T09:06:19.000Z</time>
      </trkpt>
      <trkpt lat="44.59733" lon="6.33075">
        <ele>1755.5999755859</ele>
        <time>2021-06-10T09:06:20.000Z</time>
      </trkpt>
      <trkpt lat="44.59733" lon="6.3308">
        <ele>1754.4000244141</ele>
        <time>2021-06-10T09:06:24.000Z</time>
      </trkpt>
      <trkpt lat="44.59734" lon="6.33081">
        <ele>1754</ele>
        <time>2021-06-10T09:06:25.000Z</time>
      </trkpt>
      <trkpt lat="44.59734" lon="6.33083">
        <ele>1753</ele>
        <time>2021-06-10T09:06:27.000Z</time>
      </trkpt>
      <trkpt lat="44.59734" lon="6.33085">
        <ele>1751.8000488281</ele>
        <time>2021-06-10T09:06:29.000Z</time>
      </trkpt>
      <trkpt lat="44.59735" lon="6.33092">
        <ele>1750.8000488281</ele>
        <time>2021-06-10T09:06:32.000Z</time>
      </trkpt>
      <trkpt lat="44.59735" lon="6.33094">
        <ele>1750.5999755859</ele>
        <time>2021-06-10T09:06:33.000Z</time>
      </trkpt>
      <trkpt lat="44.59739" lon="6.33105">
        <ele>1750</ele>
        <time>2021-06-10T09:06:36.000Z</time>
      </trkpt>
      <trkpt lat="44.59739" lon="6.33109">
        <ele>1749.5999755859</ele>
        <time>2021-06-10T09:06:37.000Z</time>
      </trkpt>
      <trkpt lat="44.59737" lon="6.33116">
        <ele>1748.8000488281</ele>
        <time>2021-06-10T09:06:39.000Z</time>
      </trkpt>
      <trkpt lat="44.59736" lon="6.3312">
        <ele>1747.5999755859</ele>
        <time>2021-06-10T09:06:40.000Z</time>
      </trkpt>
      <trkpt lat="44.59735" lon="6.33127">
        <ele>1745.8000488281</ele>
        <time>2021-06-10T09:06:42.000Z</time>
      </trkpt>
      <trkpt lat="44.59734" lon="6.33131">
        <ele>1744.8000488281</ele>
        <time>2021-06-10T09:06:43.000Z</time>
      </trkpt>
      <trkpt lat="44.59734" lon="6.33135">
        <ele>1743.5999755859</ele>
        <time>2021-06-10T09:06:44.000Z</time>
      </trkpt>
      <trkpt lat="44.59734" lon="6.3314">
        <ele>1742.5999755859</ele>
        <time>2021-06-10T09:06:45.000Z</time>
      </trkpt>
      <trkpt lat="44.59734" lon="6.33145">
        <ele>1741.5999755859</ele>
        <time>2021-06-10T09:06:46.000Z</time>
      </trkpt>
      <trkpt lat="44.59733" lon="6.33155">
        <ele>1739.8000488281</ele>
        <time>2021-06-10T09:06:48.000Z</time>
      </trkpt>
      <trkpt lat="44.59733" lon="6.33164">
        <ele>1737.8000488281</ele>
        <time>2021-06-10T09:06:50.000Z</time>
      </trkpt>
      <trkpt lat="44.59732" lon="6.33168">
        <ele>1737</ele>
        <time>2021-06-10T09:06:51.000Z</time>
      </trkpt>
      <trkpt lat="44.59732" lon="6.33174">
        <ele>1736.1999511719</ele>
        <time>2021-06-10T09:06:52.000Z</time>
      </trkpt>
      <trkpt lat="44.59732" lon="6.33188">
        <ele>1734.1999511719</ele>
        <time>2021-06-10T09:06:54.000Z</time>
      </trkpt>
      <trkpt lat="44.59732" lon="6.33194">
        <ele>1733.4000244141</ele>
        <time>2021-06-10T09:06:55.000Z</time>
      </trkpt>
      <trkpt lat="44.59732" lon="6.33201">
        <ele>1732.4000244141</ele>
        <time>2021-06-10T09:06:56.000Z</time>
      </trkpt>
      <trkpt lat="44.59732" lon="6.33208">
        <ele>1731.4000244141</ele>
        <time>2021-06-10T09:06:57.000Z</time>
      </trkpt>
      <trkpt lat="44.59731" lon="6.33217">
        <ele>1729.5999755859</ele>
        <time>2021-06-10T09:06:59.000Z</time>
      </trkpt>
      <trkpt lat="44.59731" lon="6.33221">
        <ele>1728.5999755859</ele>
        <time>2021-06-10T09:07:00.000Z</time>
      </trkpt>
      <trkpt lat="44.5973" lon="6.33226">
        <ele>1727.5999755859</ele>
        <time>2021-06-10T09:07:01.000Z</time>
      </trkpt>
      <trkpt lat="44.59731" lon="6.3323">
        <ele>1726.8000488281</ele>
        <time>2021-06-10T09:07:02.000Z</time>
      </trkpt>
      <trkpt lat="44.59731" lon="6.33236">
        <ele>1726</ele>
        <time>2021-06-10T09:07:03.000Z</time>
      </trkpt>
      <trkpt lat="44.59732" lon="6.33241">
        <ele>1725.1999511719</ele>
        <time>2021-06-10T09:07:04.000Z</time>
      </trkpt>
      <trkpt lat="44.59731" lon="6.33246">
        <ele>1724.4000244141</ele>
        <time>2021-06-10T09:07:05.000Z</time>
      </trkpt>
      <trkpt lat="44.59726" lon="6.33257">
        <ele>1722.8000488281</ele>
        <time>2021-06-10T09:07:07.000Z</time>
      </trkpt>
      <trkpt lat="44.59723" lon="6.33263">
        <ele>1721.1999511719</ele>
        <time>2021-06-10T09:07:08.000Z</time>
      </trkpt>
      <trkpt lat="44.59719" lon="6.33268">
        <ele>1720.4000244141</ele>
        <time>2021-06-10T09:07:09.000Z</time>
      </trkpt>
      <trkpt lat="44.59716" lon="6.33274">
        <ele>1719.5999755859</ele>
        <time>2021-06-10T09:07:10.000Z</time>
      </trkpt>
      <trkpt lat="44.59713" lon="6.33283">
        <ele>1717.8000488281</ele>
        <time>2021-06-10T09:07:12.000Z</time>
      </trkpt>
      <trkpt lat="44.59709" lon="6.33289">
        <ele>1716.5999755859</ele>
        <time>2021-06-10T09:07:14.000Z</time>
      </trkpt>
      <trkpt lat="44.59703" lon="6.33297">
        <ele>1715.5999755859</ele>
        <time>2021-06-10T09:07:17.000Z</time>
      </trkpt>
      <trkpt lat="44.59701" lon="6.33299">
        <ele>1715.1999511719</ele>
        <time>2021-06-10T09:07:18.000Z</time>
      </trkpt>
      <trkpt lat="44.59698" lon="6.33301">
        <ele>1714.5999755859</ele>
        <time>2021-06-10T09:07:19.000Z</time>
      </trkpt>
      <trkpt lat="44.59694" lon="6.33304">
        <ele>1713.5999755859</ele>
        <time>2021-06-10T09:07:21.000Z</time>
      </trkpt>
      <trkpt lat="44.5969" lon="6.33309">
        <ele>1712.4000244141</ele>
        <time>2021-06-10T09:07:23.000Z</time>
      </trkpt>
      <trkpt lat="44.59687" lon="6.33312">
        <ele>1712</ele>
        <time>2021-06-10T09:07:24.000Z</time>
      </trkpt>
      <trkpt lat="44.59679" lon="6.3332">
        <ele>1710.5999755859</ele>
        <time>2021-06-10T09:07:27.000Z</time>
      </trkpt>
      <trkpt lat="44.59676" lon="6.33323">
        <ele>1710</ele>
        <time>2021-06-10T09:07:28.000Z</time>
      </trkpt>
      <trkpt lat="44.59673" lon="6.33325">
        <ele>1709.4000244141</ele>
        <time>2021-06-10T09:07:29.000Z</time>
      </trkpt>
      <trkpt lat="44.59665" lon="6.33331">
        <ele>1708.1999511719</ele>
        <time>2021-06-10T09:07:31.000Z</time>
      </trkpt>
      <trkpt lat="44.59661" lon="6.33334">
        <ele>1707.5999755859</ele>
        <time>2021-06-10T09:07:32.000Z</time>
      </trkpt>
      <trkpt lat="44.59658" lon="6.33338">
        <ele>1706.8000488281</ele>
        <time>2021-06-10T09:07:33.000Z</time>
      </trkpt>
      <trkpt lat="44.59651" lon="6.33345">
        <ele>1705.1999511719</ele>
        <time>2021-06-10T09:07:35.000Z</time>
      </trkpt>
      <trkpt lat="44.59644" lon="6.33353">
        <ele>1703.4000244141</ele>
        <time>2021-06-10T09:07:37.000Z</time>
      </trkpt>
      <trkpt lat="44.5964" lon="6.33359">
        <ele>1701.5999755859</ele>
        <time>2021-06-10T09:07:38.000Z</time>
      </trkpt>
      <trkpt lat="44.59637" lon="6.33366">
        <ele>1700.4000244141</ele>
        <time>2021-06-10T09:07:39.000Z</time>
      </trkpt>
      <trkpt lat="44.59635" lon="6.3337">
        <ele>1699.1999511719</ele>
        <time>2021-06-10T09:07:40.000Z</time>
      </trkpt>
      <trkpt lat="44.59634" lon="6.33374">
        <ele>1698</ele>
        <time>2021-06-10T09:07:41.000Z</time>
      </trkpt>
      <trkpt lat="44.59634" lon="6.33376">
        <ele>1697</ele>
        <time>2021-06-10T09:07:42.000Z</time>
      </trkpt>
      <trkpt lat="44.59634" lon="6.33379">
        <ele>1695.8000488281</ele>
        <time>2021-06-10T09:07:43.000Z</time>
      </trkpt>
      <trkpt lat="44.59633" lon="6.33382">
        <ele>1694.5999755859</ele>
        <time>2021-06-10T09:07:44.000Z</time>
      </trkpt>
      <trkpt lat="44.59633" lon="6.33384">
        <ele>1693.4000244141</ele>
        <time>2021-06-10T09:07:45.000Z</time>
      </trkpt>
      <trkpt lat="44.59632" lon="6.33388">
        <ele>1691.5999755859</ele>
        <time>2021-06-10T09:07:47.000Z</time>
      </trkpt>
      <trkpt lat="44.59632" lon="6.33392">
        <ele>1690.1999511719</ele>
        <time>2021-06-10T09:07:49.000Z</time>
      </trkpt>
      <trkpt lat="44.59633" lon="6.33396">
        <ele>1689</ele>
        <time>2021-06-10T09:07:52.000Z</time>
      </trkpt>
      <trkpt lat="44.59633" lon="6.33398">
        <ele>1688.8000488281</ele>
        <time>2021-06-10T09:07:54.000Z</time>
      </trkpt>
      <trkpt lat="44.59631" lon="6.33402">
        <ele>1688.4000244141</ele>
        <time>2021-06-10T09:08:01.000Z</time>
      </trkpt>
      <trkpt lat="44.59629" lon="6.33403">
        <ele>1688.4000244141</ele>
        <time>2021-06-10T09:08:04.000Z</time>
      </trkpt>
      <trkpt lat="44.59624" lon="6.33407">
        <ele>1688.1999511719</ele>
        <time>2021-06-10T09:08:07.000Z</time>
      </trkpt>
      <trkpt lat="44.59618" lon="6.33411">
        <ele>1688</ele>
        <time>2021-06-10T09:08:11.000Z</time>
      </trkpt>
      <trkpt lat="44.59615" lon="6.33412">
        <ele>1687.8000488281</ele>
        <time>2021-06-10T09:08:13.000Z</time>
      </trkpt>
      <trkpt lat="44.59614" lon="6.33412">
        <ele>1687.8000488281</ele>
        <time>2021-06-10T09:08:14.000Z</time>
      </trkpt>
      <trkpt lat="44.59607" lon="6.33418">
        <ele>1687.4000244141</ele>
        <time>2021-06-10T09:08:18.000Z</time>
      </trkpt>
      <trkpt lat="44.59595" lon="6.33427">
        <ele>1687.1999511719</ele>
        <time>2021-06-10T09:08:22.000Z</time>
      </trkpt>
      <trkpt lat="44.5959" lon="6.33436">
        <ele>1686.5999755859</ele>
        <time>2021-06-10T09:08:26.000Z</time>
      </trkpt>
      <trkpt lat="44.59582" lon="6.33446">
        <ele>1685</ele>
        <time>2021-06-10T09:08:29.000Z</time>
      </trkpt>
      <trkpt lat="44.59579" lon="6.3345">
        <ele>1684.1999511719</ele>
        <time>2021-06-10T09:08:30.000Z</time>
      </trkpt>
      <trkpt lat="44.59577" lon="6.33452">
        <ele>1683.8000488281</ele>
        <time>2021-06-10T09:08:31.000Z</time>
      </trkpt>
      <trkpt lat="44.59574" lon="6.33458">
        <ele>1682.5999755859</ele>
        <time>2021-06-10T09:08:33.000Z</time>
      </trkpt>
      <trkpt lat="44.59573" lon="6.3346">
        <ele>1682.1999511719</ele>
        <time>2021-06-10T09:08:34.000Z</time>
      </trkpt>
      <trkpt lat="44.59571" lon="6.33462">
        <ele>1681</ele>
        <time>2021-06-10T09:08:35.000Z</time>
      </trkpt>
      <trkpt lat="44.59569" lon="6.33466">
        <ele>1679.8000488281</ele>
        <time>2021-06-10T09:08:37.000Z</time>
      </trkpt>
      <trkpt lat="44.59568" lon="6.33469">
        <ele>1678.4000244141</ele>
        <time>2021-06-10T09:08:39.000Z</time>
      </trkpt>
      <trkpt lat="44.59562" lon="6.33478">
        <ele>1677.1999511719</ele>
        <time>2021-06-10T09:08:42.000Z</time>
      </trkpt>
      <trkpt lat="44.59557" lon="6.33487">
        <ele>1676.4000244141</ele>
        <time>2021-06-10T09:08:45.000Z</time>
      </trkpt>
      <trkpt lat="44.59555" lon="6.3349">
        <ele>1676.1999511719</ele>
        <time>2021-06-10T09:08:46.000Z</time>
      </trkpt>
      <trkpt lat="44.59544" lon="6.33502">
        <ele>1675.5999755859</ele>
        <time>2021-06-10T09:08:52.000Z</time>
      </trkpt>
      <trkpt lat="44.59534" lon="6.33515">
        <ele>1675.4000244141</ele>
        <time>2021-06-10T09:08:58.000Z</time>
      </trkpt>
      <trkpt lat="44.59528" lon="6.33528">
        <ele>1675.1999511719</ele>
        <time>2021-06-10T09:09:02.000Z</time>
      </trkpt>
      <trkpt lat="44.59524" lon="6.33534">
        <ele>1675</ele>
        <time>2021-06-10T09:09:04.000Z</time>
      </trkpt>
      <trkpt lat="44.5952" lon="6.33545">
        <ele>1674</ele>
        <time>2021-06-10T09:09:08.000Z</time>
      </trkpt>
      <trkpt lat="44.59518" lon="6.33548">
        <ele>1673.5999755859</ele>
        <time>2021-06-10T09:09:09.000Z</time>
      </trkpt>
      <trkpt lat="44.59517" lon="6.33552">
        <ele>1673</ele>
        <time>2021-06-10T09:09:10.000Z</time>
      </trkpt>
      <trkpt lat="44.59515" lon="6.33555">
        <ele>1672.4000244141</ele>
        <time>2021-06-10T09:09:11.000Z</time>
      </trkpt>
      <trkpt lat="44.59512" lon="6.33558">
        <ele>1671.8000488281</ele>
        <time>2021-06-10T09:09:12.000Z</time>
      </trkpt>
      <trkpt lat="44.59507" lon="6.33565">
        <ele>1670.5999755859</ele>
        <time>2021-06-10T09:09:14.000Z</time>
      </trkpt>
      <trkpt lat="44.59505" lon="6.33568">
        <ele>1670</ele>
        <time>2021-06-10T09:09:15.000Z</time>
      </trkpt>
      <trkpt lat="44.59503" lon="6.33572">
        <ele>1669.1999511719</ele>
        <time>2021-06-10T09:09:16.000Z</time>
      </trkpt>
      <trkpt lat="44.59499" lon="6.33578">
        <ele>1668</ele>
        <time>2021-06-10T09:09:18.000Z</time>
      </trkpt>
      <trkpt lat="44.59495" lon="6.33584">
        <ele>1666</ele>
        <time>2021-06-10T09:09:20.000Z</time>
      </trkpt>
      <trkpt lat="44.59493" lon="6.33586">
        <ele>1665.4000244141</ele>
        <time>2021-06-10T09:09:21.000Z</time>
      </trkpt>
      <trkpt lat="44.59491" lon="6.33588">
        <ele>1664.5999755859</ele>
        <time>2021-06-10T09:09:22.000Z</time>
      </trkpt>
      <trkpt lat="44.59486" lon="6.33593">
        <ele>1663</ele>
        <time>2021-06-10T09:09:24.000Z</time>
      </trkpt>
      <trkpt lat="44.59483" lon="6.33601">
        <ele>1661</ele>
        <time>2021-06-10T09:09:26.000Z</time>
      </trkpt>
      <trkpt lat="44.59481" lon="6.33607">
        <ele>1660.1999511719</ele>
        <time>2021-06-10T09:09:27.000Z</time>
      </trkpt>
      <trkpt lat="44.59478" lon="6.33612">
        <ele>1659.4000244141</ele>
        <time>2021-06-10T09:09:28.000Z</time>
      </trkpt>
      <trkpt lat="44.59474" lon="6.33622">
        <ele>1657.8000488281</ele>
        <time>2021-06-10T09:09:30.000Z</time>
      </trkpt>
      <trkpt lat="44.59473" lon="6.3363">
        <ele>1656</ele>
        <time>2021-06-10T09:09:32.000Z</time>
      </trkpt>
      <trkpt lat="44.59472" lon="6.33634">
        <ele>1654.8000488281</ele>
        <time>2021-06-10T09:09:33.000Z</time>
      </trkpt>
      <trkpt lat="44.5947" lon="6.33639">
        <ele>1653</ele>
        <time>2021-06-10T09:09:34.000Z</time>
      </trkpt>
      <trkpt lat="44.59468" lon="6.33646">
        <ele>1651.1999511719</ele>
        <time>2021-06-10T09:09:36.000Z</time>
      </trkpt>
      <trkpt lat="44.59466" lon="6.33652">
        <ele>1650.5999755859</ele>
        <time>2021-06-10T09:09:37.000Z</time>
      </trkpt>
      <trkpt lat="44.59464" lon="6.33658">
        <ele>1649.8000488281</ele>
        <time>2021-06-10T09:09:38.000Z</time>
      </trkpt>
      <trkpt lat="44.59463" lon="6.3367">
        <ele>1648.1999511719</ele>
        <time>2021-06-10T09:09:40.000Z</time>
      </trkpt>
      <trkpt lat="44.59462" lon="6.33676">
        <ele>1647.5999755859</ele>
        <time>2021-06-10T09:09:41.000Z</time>
      </trkpt>
      <trkpt lat="44.59463" lon="6.33681">
        <ele>1647</ele>
        <time>2021-06-10T09:09:42.000Z</time>
      </trkpt>
      <trkpt lat="44.59465" lon="6.33692">
        <ele>1645.5999755859</ele>
        <time>2021-06-10T09:09:44.000Z</time>
      </trkpt>
      <trkpt lat="44.59466" lon="6.337">
        <ele>1644.1999511719</ele>
        <time>2021-06-10T09:09:46.000Z</time>
      </trkpt>
      <trkpt lat="44.59465" lon="6.33705">
        <ele>1642.4000244141</ele>
        <time>2021-06-10T09:09:48.000Z</time>
      </trkpt>
      <trkpt lat="44.59465" lon="6.33707">
        <ele>1641.1999511719</ele>
        <time>2021-06-10T09:09:49.000Z</time>
      </trkpt>
      <trkpt lat="44.59466" lon="6.33707">
        <ele>1640.4000244141</ele>
        <time>2021-06-10T09:09:50.000Z</time>
      </trkpt>
      <trkpt lat="44.59466" lon="6.33708">
        <ele>1639.4000244141</ele>
        <time>2021-06-10T09:09:51.000Z</time>
      </trkpt>
      <trkpt lat="44.59466" lon="6.33709">
        <ele>1638</ele>
        <time>2021-06-10T09:09:53.000Z</time>
      </trkpt>
      <trkpt lat="44.59466" lon="6.33712">
        <ele>1637</ele>
        <time>2021-06-10T09:09:56.000Z</time>
      </trkpt>
      <trkpt lat="44.59465" lon="6.33714">
        <ele>1637</ele>
        <time>2021-06-10T09:09:58.000Z</time>
      </trkpt>
      <trkpt lat="44.59465" lon="6.33726">
        <ele>1636.8000488281</ele>
        <time>2021-06-10T09:10:02.000Z</time>
      </trkpt>
      <trkpt lat="44.59469" lon="6.33746">
        <ele>1636.1999511719</ele>
        <time>2021-06-10T09:10:07.000Z</time>
      </trkpt>
      <trkpt lat="44.59469" lon="6.33752">
        <ele>1635.8000488281</ele>
        <time>2021-06-10T09:10:09.000Z</time>
      </trkpt>
      <trkpt lat="44.59468" lon="6.33753">
        <ele>1635.4000244141</ele>
        <time>2021-06-10T09:10:10.000Z</time>
      </trkpt>
      <trkpt lat="44.59467" lon="6.33752">
        <ele>1634.5999755859</ele>
        <time>2021-06-10T09:10:12.000Z</time>
      </trkpt>
      <trkpt lat="44.59467" lon="6.33753">
        <ele>1633.1999511719</ele>
        <time>2021-06-10T09:10:15.000Z</time>
      </trkpt>
      <trkpt lat="44.59467" lon="6.33753">
        <ele>1632.4000244141</ele>
        <time>2021-06-10T09:10:16.000Z</time>
      </trkpt>
      <trkpt lat="44.59467" lon="6.33753">
        <ele>1632</ele>
        <time>2021-06-10T09:10:17.000Z</time>
      </trkpt>
      <trkpt lat="44.59467" lon="6.33753">
        <ele>1631</ele>
        <time>2021-06-10T09:10:30.000Z</time>
      </trkpt>
      <trkpt lat="44.59466" lon="6.33753">
        <ele>1630.8000488281</ele>
        <time>2021-06-10T09:10:38.000Z</time>
      </trkpt>
      <trkpt lat="44.59463" lon="6.33753">
        <ele>1630.8000488281</ele>
        <time>2021-06-10T09:10:40.000Z</time>
      </trkpt>
      <trkpt lat="44.59455" lon="6.33761">
        <ele>1630.8000488281</ele>
        <time>2021-06-10T09:10:44.000Z</time>
      </trkpt>
      <trkpt lat="44.59449" lon="6.3378">
        <ele>1630.5999755859</ele>
        <time>2021-06-10T09:10:49.000Z</time>
      </trkpt>
      <trkpt lat="44.59447" lon="6.33802">
        <ele>1630.1999511719</ele>
        <time>2021-06-10T09:10:54.000Z</time>
      </trkpt>
      <trkpt lat="44.59448" lon="6.33812">
        <ele>1629.8000488281</ele>
        <time>2021-06-10T09:10:56.000Z</time>
      </trkpt>
      <trkpt lat="44.59445" lon="6.33828">
        <ele>1629</ele>
        <time>2021-06-10T09:10:59.000Z</time>
      </trkpt>
      <trkpt lat="44.59443" lon="6.33833">
        <ele>1628.5999755859</ele>
        <time>2021-06-10T09:11:00.000Z</time>
      </trkpt>
      <trkpt lat="44.59438" lon="6.33851">
        <ele>1627.8000488281</ele>
        <time>2021-06-10T09:11:03.000Z</time>
      </trkpt>
      <trkpt lat="44.59438" lon="6.33864">
        <ele>1627.1999511719</ele>
        <time>2021-06-10T09:11:05.000Z</time>
      </trkpt>
      <trkpt lat="44.59439" lon="6.33878">
        <ele>1626.5999755859</ele>
        <time>2021-06-10T09:11:07.000Z</time>
      </trkpt>
      <trkpt lat="44.59439" lon="6.33885">
        <ele>1626.1999511719</ele>
        <time>2021-06-10T09:11:08.000Z</time>
      </trkpt>
      <trkpt lat="44.59436" lon="6.33897">
        <ele>1625.4000244141</ele>
        <time>2021-06-10T09:11:10.000Z</time>
      </trkpt>
      <trkpt lat="44.59434" lon="6.33901">
        <ele>1625.1999511719</ele>
        <time>2021-06-10T09:11:11.000Z</time>
      </trkpt>
      <trkpt lat="44.59428" lon="6.33904">
        <ele>1624.5999755859</ele>
        <time>2021-06-10T09:11:13.000Z</time>
      </trkpt>
      <trkpt lat="44.59421" lon="6.33903">
        <ele>1624</ele>
        <time>2021-06-10T09:11:15.000Z</time>
      </trkpt>
      <trkpt lat="44.59412" lon="6.33898">
        <ele>1623</ele>
        <time>2021-06-10T09:11:17.000Z</time>
      </trkpt>
      <trkpt lat="44.59408" lon="6.33894">
        <ele>1622.8000488281</ele>
        <time>2021-06-10T09:11:18.000Z</time>
      </trkpt>
      <trkpt lat="44.59401" lon="6.33885">
        <ele>1622.1999511719</ele>
        <time>2021-06-10T09:11:20.000Z</time>
      </trkpt>
      <trkpt lat="44.59397" lon="6.33881">
        <ele>1622</ele>
        <time>2021-06-10T09:11:21.000Z</time>
      </trkpt>
      <trkpt lat="44.59389" lon="6.33871">
        <ele>1621.8000488281</ele>
        <time>2021-06-10T09:11:23.000Z</time>
      </trkpt>
      <trkpt lat="44.59381" lon="6.33862">
        <ele>1621.1999511719</ele>
        <time>2021-06-10T09:11:25.000Z</time>
      </trkpt>
      <trkpt lat="44.59376" lon="6.33858">
        <ele>1620.8000488281</ele>
        <time>2021-06-10T09:11:26.000Z</time>
      </trkpt>
      <trkpt lat="44.59371" lon="6.33856">
        <ele>1620.5999755859</ele>
        <time>2021-06-10T09:11:27.000Z</time>
      </trkpt>
      <trkpt lat="44.59361" lon="6.33851">
        <ele>1619.1999511719</ele>
        <time>2021-06-10T09:11:29.000Z</time>
      </trkpt>
      <trkpt lat="44.59345" lon="6.33846">
        <ele>1618.5999755859</ele>
        <time>2021-06-10T09:11:32.000Z</time>
      </trkpt>
      <trkpt lat="44.59336" lon="6.33843">
        <ele>1618.1999511719</ele>
        <time>2021-06-10T09:11:34.000Z</time>
      </trkpt>
      <trkpt lat="44.59317" lon="6.33839">
        <ele>1617.1999511719</ele>
        <time>2021-06-10T09:11:38.000Z</time>
      </trkpt>
      <trkpt lat="44.59313" lon="6.33838">
        <ele>1616.8000488281</ele>
        <time>2021-06-10T09:11:39.000Z</time>
      </trkpt>
      <trkpt lat="44.59294" lon="6.33838">
        <ele>1616.1999511719</ele>
        <time>2021-06-10T09:11:43.000Z</time>
      </trkpt>
      <trkpt lat="44.59289" lon="6.33841">
        <ele>1616.1999511719</ele>
        <time>2021-06-10T09:11:44.000Z</time>
      </trkpt>
      <trkpt lat="44.59282" lon="6.33858">
        <ele>1616</ele>
        <time>2021-06-10T09:11:47.000Z</time>
      </trkpt>
      <trkpt lat="44.59286" lon="6.33884">
        <ele>1616</ele>
        <time>2021-06-10T09:11:51.000Z</time>
      </trkpt>
      <trkpt lat="44.59288" lon="6.33896">
        <ele>1615.5999755859</ele>
        <time>2021-06-10T09:11:53.000Z</time>
      </trkpt>
      <trkpt lat="44.59292" lon="6.33924">
        <ele>1615.1999511719</ele>
        <time>2021-06-10T09:11:57.000Z</time>
      </trkpt>
      <trkpt lat="44.59294" lon="6.3394">
        <ele>1614.5999755859</ele>
        <time>2021-06-10T09:11:59.000Z</time>
      </trkpt>
      <trkpt lat="44.59297" lon="6.33957">
        <ele>1614</ele>
        <time>2021-06-10T09:12:01.000Z</time>
      </trkpt>
      <trkpt lat="44.59299" lon="6.33966">
        <ele>1613.8000488281</ele>
        <time>2021-06-10T09:12:02.000Z</time>
      </trkpt>
      <trkpt lat="44.59299" lon="6.33974">
        <ele>1613.5999755859</ele>
        <time>2021-06-10T09:12:03.000Z</time>
      </trkpt>
      <trkpt lat="44.59299" lon="6.3399">
        <ele>1612.8000488281</ele>
        <time>2021-06-10T09:12:05.000Z</time>
      </trkpt>
      <trkpt lat="44.59299" lon="6.33998">
        <ele>1612.1999511719</ele>
        <time>2021-06-10T09:12:06.000Z</time>
      </trkpt>
      <trkpt lat="44.593" lon="6.34006">
        <ele>1611.5999755859</ele>
        <time>2021-06-10T09:12:07.000Z</time>
      </trkpt>
      <trkpt lat="44.59302" lon="6.34015">
        <ele>1611</ele>
        <time>2021-06-10T09:12:08.000Z</time>
      </trkpt>
      <trkpt lat="44.59302" lon="6.34023">
        <ele>1610.4000244141</ele>
        <time>2021-06-10T09:12:09.000Z</time>
      </trkpt>
      <trkpt lat="44.59303" lon="6.3404">
        <ele>1609.5999755859</ele>
        <time>2021-06-10T09:12:11.000Z</time>
      </trkpt>
      <trkpt lat="44.59303" lon="6.34048">
        <ele>1609.1999511719</ele>
        <time>2021-06-10T09:12:12.000Z</time>
      </trkpt>
      <trkpt lat="44.59304" lon="6.34056">
        <ele>1608.8000488281</ele>
        <time>2021-06-10T09:12:13.000Z</time>
      </trkpt>
      <trkpt lat="44.59309" lon="6.34071">
        <ele>1608</ele>
        <time>2021-06-10T09:12:15.000Z</time>
      </trkpt>
      <trkpt lat="44.59319" lon="6.3409">
        <ele>1606.8000488281</ele>
        <time>2021-06-10T09:12:18.000Z</time>
      </trkpt>
      <trkpt lat="44.59322" lon="6.34097">
        <ele>1606.4000244141</ele>
        <time>2021-06-10T09:12:19.000Z</time>
      </trkpt>
      <trkpt lat="44.59322" lon="6.34117">
        <ele>1605.5999755859</ele>
        <time>2021-06-10T09:12:22.000Z</time>
      </trkpt>
      <trkpt lat="44.59314" lon="6.34134">
        <ele>1604.5999755859</ele>
        <time>2021-06-10T09:12:25.000Z</time>
      </trkpt>
      <trkpt lat="44.59311" lon="6.3414">
        <ele>1604.4000244141</ele>
        <time>2021-06-10T09:12:26.000Z</time>
      </trkpt>
      <trkpt lat="44.59306" lon="6.34162">
        <ele>1603</ele>
        <time>2021-06-10T09:12:29.000Z</time>
      </trkpt>
      <trkpt lat="44.59313" lon="6.34187">
        <ele>1602</ele>
        <time>2021-06-10T09:12:33.000Z</time>
      </trkpt>
      <trkpt lat="44.59321" lon="6.34198">
        <ele>1601</ele>
        <time>2021-06-10T09:12:35.000Z</time>
      </trkpt>
      <trkpt lat="44.59325" lon="6.34204">
        <ele>1600.4000244141</ele>
        <time>2021-06-10T09:12:36.000Z</time>
      </trkpt>
      <trkpt lat="44.59331" lon="6.34217">
        <ele>1599.4000244141</ele>
        <time>2021-06-10T09:12:38.000Z</time>
      </trkpt>
      <trkpt lat="44.59333" lon="6.34224">
        <ele>1599</ele>
        <time>2021-06-10T09:12:39.000Z</time>
      </trkpt>
      <trkpt lat="44.59332" lon="6.34238">
        <ele>1598.4000244141</ele>
        <time>2021-06-10T09:12:41.000Z</time>
      </trkpt>
      <trkpt lat="44.59328" lon="6.34252">
        <ele>1597.5999755859</ele>
        <time>2021-06-10T09:12:43.000Z</time>
      </trkpt>
      <trkpt lat="44.59322" lon="6.34268">
        <ele>1596.8000488281</ele>
        <time>2021-06-10T09:12:45.000Z</time>
      </trkpt>
      <trkpt lat="44.59319" lon="6.34277">
        <ele>1596.1999511719</ele>
        <time>2021-06-10T09:12:46.000Z</time>
      </trkpt>
      <trkpt lat="44.59312" lon="6.34307">
        <ele>1595</ele>
        <time>2021-06-10T09:12:49.000Z</time>
      </trkpt>
      <trkpt lat="44.5931" lon="6.34318">
        <ele>1594.5999755859</ele>
        <time>2021-06-10T09:12:50.000Z</time>
      </trkpt>
      <trkpt lat="44.59307" lon="6.34338">
        <ele>1593.5999755859</ele>
        <time>2021-06-10T09:12:52.000Z</time>
      </trkpt>
      <trkpt lat="44.59302" lon="6.34359">
        <ele>1592.4000244141</ele>
        <time>2021-06-10T09:12:54.000Z</time>
      </trkpt>
      <trkpt lat="44.59299" lon="6.34369">
        <ele>1592</ele>
        <time>2021-06-10T09:12:55.000Z</time>
      </trkpt>
      <trkpt lat="44.59296" lon="6.34379">
        <ele>1590.8000488281</ele>
        <time>2021-06-10T09:12:56.000Z</time>
      </trkpt>
      <trkpt lat="44.59289" lon="6.34399">
        <ele>1589.8000488281</ele>
        <time>2021-06-10T09:12:58.000Z</time>
      </trkpt>
      <trkpt lat="44.59283" lon="6.34413">
        <ele>1589</ele>
        <time>2021-06-10T09:13:00.000Z</time>
      </trkpt>
      <trkpt lat="44.5928" lon="6.34417">
        <ele>1588.5999755859</ele>
        <time>2021-06-10T09:13:01.000Z</time>
      </trkpt>
      <trkpt lat="44.59273" lon="6.34422">
        <ele>1587</ele>
        <time>2021-06-10T09:13:03.000Z</time>
      </trkpt>
      <trkpt lat="44.59267" lon="6.3443">
        <ele>1585.8000488281</ele>
        <time>2021-06-10T09:13:05.000Z</time>
      </trkpt>
      <trkpt lat="44.59262" lon="6.3444">
        <ele>1585.1999511719</ele>
        <time>2021-06-10T09:13:07.000Z</time>
      </trkpt>
      <trkpt lat="44.59256" lon="6.34456">
        <ele>1584.8000488281</ele>
        <time>2021-06-10T09:13:10.000Z</time>
      </trkpt>
      <trkpt lat="44.59246" lon="6.3447">
        <ele>1584.5999755859</ele>
        <time>2021-06-10T09:13:13.000Z</time>
      </trkpt>
      <trkpt lat="44.59234" lon="6.34481">
        <ele>1584.5999755859</ele>
        <time>2021-06-10T09:13:16.000Z</time>
      </trkpt>
      <trkpt lat="44.5922" lon="6.3449">
        <ele>1584.4000244141</ele>
        <time>2021-06-10T09:13:19.000Z</time>
      </trkpt>
      <trkpt lat="44.59189" lon="6.34511">
        <ele>1583.8000488281</ele>
        <time>2021-06-10T09:13:25.000Z</time>
      </trkpt>
      <trkpt lat="44.59184" lon="6.34515">
        <ele>1583.5999755859</ele>
        <time>2021-06-10T09:13:26.000Z</time>
      </trkpt>
      <trkpt lat="44.59168" lon="6.34526">
        <ele>1582.5999755859</ele>
        <time>2021-06-10T09:13:29.000Z</time>
      </trkpt>
      <trkpt lat="44.59148" lon="6.34541">
        <ele>1582</ele>
        <time>2021-06-10T09:13:33.000Z</time>
      </trkpt>
      <trkpt lat="44.59144" lon="6.34546">
        <ele>1581.8000488281</ele>
        <time>2021-06-10T09:13:34.000Z</time>
      </trkpt>
      <trkpt lat="44.59134" lon="6.34562">
        <ele>1581.4000244141</ele>
        <time>2021-06-10T09:13:37.000Z</time>
      </trkpt>
      <trkpt lat="44.59126" lon="6.34593">
        <ele>1581.1999511719</ele>
        <time>2021-06-10T09:13:42.000Z</time>
      </trkpt>
      <trkpt lat="44.59125" lon="6.346">
        <ele>1581.1999511719</ele>
        <time>2021-06-10T09:13:43.000Z</time>
      </trkpt>
      <trkpt lat="44.59122" lon="6.34627">
        <ele>1581</ele>
        <time>2021-06-10T09:13:47.000Z</time>
      </trkpt>
      <trkpt lat="44.59113" lon="6.34678">
        <ele>1580.8000488281</ele>
        <time>2021-06-10T09:13:54.000Z</time>
      </trkpt>
      <trkpt lat="44.59112" lon="6.34684">
        <ele>1580.5999755859</ele>
        <time>2021-06-10T09:13:55.000Z</time>
      </trkpt>
      <trkpt lat="44.59109" lon="6.34698">
        <ele>1580.4000244141</ele>
        <time>2021-06-10T09:13:58.000Z</time>
      </trkpt>
      <trkpt lat="44.59104" lon="6.34712">
        <ele>1580.1999511719</ele>
        <time>2021-06-10T09:14:04.000Z</time>
      </trkpt>
      <trkpt lat="44.59104" lon="6.34712">
        <ele>1580.8000488281</ele>
        <time>2021-06-10T09:14:19.000Z</time>
      </trkpt>
      <trkpt lat="44.59104" lon="6.34713">
        <ele>1580.8000488281</ele>
        <time>2021-06-10T09:14:41.000Z</time>
      </trkpt>
      <trkpt lat="44.59101" lon="6.34719">
        <ele>1580.8000488281</ele>
        <time>2021-06-10T09:14:52.000Z</time>
      </trkpt>
      <trkpt lat="44.59098" lon="6.34735">
        <ele>1580.8000488281</ele>
        <time>2021-06-10T09:14:57.000Z</time>
      </trkpt>
      <trkpt lat="44.59097" lon="6.34741">
        <ele>1581</ele>
        <time>2021-06-10T09:15:00.000Z</time>
      </trkpt>
      <trkpt lat="44.59098" lon="6.34744">
        <ele>1581.1999511719</ele>
        <time>2021-06-10T09:15:02.000Z</time>
      </trkpt>
      <trkpt lat="44.59098" lon="6.34744">
        <ele>1581.8000488281</ele>
        <time>2021-06-10T09:15:06.000Z</time>
      </trkpt>
      <trkpt lat="44.59099" lon="6.34744">
        <ele>1582.5999755859</ele>
        <time>2021-06-10T09:15:15.000Z</time>
      </trkpt>
      <trkpt lat="44.59099" lon="6.34748">
        <ele>1582.8000488281</ele>
        <time>2021-06-10T09:15:28.000Z</time>
      </trkpt>
      <trkpt lat="44.59097" lon="6.34753">
        <ele>1582.8000488281</ele>
        <time>2021-06-10T09:15:31.000Z</time>
      </trkpt>
      <trkpt lat="44.59094" lon="6.3476">
        <ele>1583</ele>
        <time>2021-06-10T09:15:34.000Z</time>
      </trkpt>
      <trkpt lat="44.59091" lon="6.34773">
        <ele>1583.5999755859</ele>
        <time>2021-06-10T09:15:39.000Z</time>
      </trkpt>
      <trkpt lat="44.59087" lon="6.34779">
        <ele>1584.1999511719</ele>
        <time>2021-06-10T09:15:42.000Z</time>
      </trkpt>
      <trkpt lat="44.59087" lon="6.34781">
        <ele>1584.4000244141</ele>
        <time>2021-06-10T09:15:43.000Z</time>
      </trkpt>
      <trkpt lat="44.59086" lon="6.34784">
        <ele>1584.8000488281</ele>
        <time>2021-06-10T09:15:44.000Z</time>
      </trkpt>
      <trkpt lat="44.59084" lon="6.34789">
        <ele>1585.1999511719</ele>
        <time>2021-06-10T09:15:46.000Z</time>
      </trkpt>
      <trkpt lat="44.59081" lon="6.34795">
        <ele>1586.4000244141</ele>
        <time>2021-06-10T09:15:49.000Z</time>
      </trkpt>
      <trkpt lat="44.59079" lon="6.34799">
        <ele>1587.5999755859</ele>
        <time>2021-06-10T09:15:51.000Z</time>
      </trkpt>
      <trkpt lat="44.59077" lon="6.34803">
        <ele>1588.1999511719</ele>
        <time>2021-06-10T09:15:53.000Z</time>
      </trkpt>
      <trkpt lat="44.59076" lon="6.34805">
        <ele>1588.5999755859</ele>
        <time>2021-06-10T09:15:54.000Z</time>
      </trkpt>
      <trkpt lat="44.59073" lon="6.34812">
        <ele>1589.8000488281</ele>
        <time>2021-06-10T09:15:57.000Z</time>
      </trkpt>
      <trkpt lat="44.59071" lon="6.34818">
        <ele>1591.1999511719</ele>
        <time>2021-06-10T09:16:00.000Z</time>
      </trkpt>
      <trkpt lat="44.59069" lon="6.34826">
        <ele>1592.5999755859</ele>
        <time>2021-06-10T09:16:03.000Z</time>
      </trkpt>
      <trkpt lat="44.59068" lon="6.34828">
        <ele>1593</ele>
        <time>2021-06-10T09:16:04.000Z</time>
      </trkpt>
      <trkpt lat="44.59064" lon="6.34834">
        <ele>1593.8000488281</ele>
        <time>2021-06-10T09:16:07.000Z</time>
      </trkpt>
      <trkpt lat="44.59061" lon="6.34844">
        <ele>1595.1999511719</ele>
        <time>2021-06-10T09:16:11.000Z</time>
      </trkpt>
      <trkpt lat="44.5906" lon="6.34852">
        <ele>1596.1999511719</ele>
        <time>2021-06-10T09:16:15.000Z</time>
      </trkpt>
      <trkpt lat="44.59058" lon="6.34855">
        <ele>1596.8000488281</ele>
        <time>2021-06-10T09:16:17.000Z</time>
      </trkpt>
      <trkpt lat="44.59057" lon="6.34859">
        <ele>1597.1999511719</ele>
        <time>2021-06-10T09:16:19.000Z</time>
      </trkpt>
      <trkpt lat="44.59057" lon="6.34861">
        <ele>1597.5999755859</ele>
        <time>2021-06-10T09:16:20.000Z</time>
      </trkpt>
      <trkpt lat="44.59055" lon="6.34868">
        <ele>1598.4000244141</ele>
        <time>2021-06-10T09:16:23.000Z</time>
      </trkpt>
      <trkpt lat="44.59054" lon="6.3487">
        <ele>1598.5999755859</ele>
        <time>2021-06-10T09:16:24.000Z</time>
      </trkpt>
      <trkpt lat="44.59053" lon="6.34872">
        <ele>1599</ele>
        <time>2021-06-10T09:16:25.000Z</time>
      </trkpt>
      <trkpt lat="44.59049" lon="6.34882">
        <ele>1600</ele>
        <time>2021-06-10T09:16:29.000Z</time>
      </trkpt>
      <trkpt lat="44.59046" lon="6.34886">
        <ele>1600.4000244141</ele>
        <time>2021-06-10T09:16:31.000Z</time>
      </trkpt>
      <trkpt lat="44.59043" lon="6.3489">
        <ele>1601</ele>
        <time>2021-06-10T09:16:33.000Z</time>
      </trkpt>
      <trkpt lat="44.5904" lon="6.34895">
        <ele>1602</ele>
        <time>2021-06-10T09:16:36.000Z</time>
      </trkpt>
      <trkpt lat="44.59039" lon="6.34897">
        <ele>1602.4000244141</ele>
        <time>2021-06-10T09:16:37.000Z</time>
      </trkpt>
      <trkpt lat="44.59038" lon="6.34905">
        <ele>1603.1999511719</ele>
        <time>2021-06-10T09:16:40.000Z</time>
      </trkpt>
      <trkpt lat="44.59038" lon="6.34911">
        <ele>1603.8000488281</ele>
        <time>2021-06-10T09:16:42.000Z</time>
      </trkpt>
      <trkpt lat="44.59036" lon="6.34915">
        <ele>1604.4000244141</ele>
        <time>2021-06-10T09:16:44.000Z</time>
      </trkpt>
      <trkpt lat="44.59033" lon="6.34923">
        <ele>1605.5999755859</ele>
        <time>2021-06-10T09:16:48.000Z</time>
      </trkpt>
      <trkpt lat="44.59031" lon="6.34928">
        <ele>1606.4000244141</ele>
        <time>2021-06-10T09:16:50.000Z</time>
      </trkpt>
      <trkpt lat="44.5903" lon="6.3493">
        <ele>1606.5999755859</ele>
        <time>2021-06-10T09:16:51.000Z</time>
      </trkpt>
      <trkpt lat="44.59026" lon="6.3494">
        <ele>1607.8000488281</ele>
        <time>2021-06-10T09:16:55.000Z</time>
      </trkpt>
      <trkpt lat="44.59025" lon="6.3494">
        <ele>1608</ele>
        <time>2021-06-10T09:16:56.000Z</time>
      </trkpt>
      <trkpt lat="44.59024" lon="6.34942">
        <ele>1609</ele>
        <time>2021-06-10T09:16:59.000Z</time>
      </trkpt>
      <trkpt lat="44.59023" lon="6.34943">
        <ele>1610.1999511719</ele>
        <time>2021-06-10T09:17:01.000Z</time>
      </trkpt>
      <trkpt lat="44.59023" lon="6.34943">
        <ele>1611.4000244141</ele>
        <time>2021-06-10T09:17:04.000Z</time>
      </trkpt>
      <trkpt lat="44.59019" lon="6.34949">
        <ele>1612.4000244141</ele>
        <time>2021-06-10T09:17:13.000Z</time>
      </trkpt>
      <trkpt lat="44.59019" lon="6.34951">
        <ele>1612.4000244141</ele>
        <time>2021-06-10T09:17:14.000Z</time>
      </trkpt>
      <trkpt lat="44.59016" lon="6.34961">
        <ele>1612.8000488281</ele>
        <time>2021-06-10T09:17:19.000Z</time>
      </trkpt>
      <trkpt lat="44.59015" lon="6.34965">
        <ele>1613</ele>
        <time>2021-06-10T09:17:21.000Z</time>
      </trkpt>
      <trkpt lat="44.59012" lon="6.34972">
        <ele>1613.4000244141</ele>
        <time>2021-06-10T09:17:25.000Z</time>
      </trkpt>
      <trkpt lat="44.59009" lon="6.34979">
        <ele>1614.5999755859</ele>
        <time>2021-06-10T09:17:29.000Z</time>
      </trkpt>
      <trkpt lat="44.59008" lon="6.34981">
        <ele>1615.1999511719</ele>
        <time>2021-06-10T09:17:31.000Z</time>
      </trkpt>
      <trkpt lat="44.59006" lon="6.34984">
        <ele>1615.8000488281</ele>
        <time>2021-06-10T09:17:33.000Z</time>
      </trkpt>
      <trkpt lat="44.59002" lon="6.34992">
        <ele>1616.5999755859</ele>
        <time>2021-06-10T09:17:37.000Z</time>
      </trkpt>
      <trkpt lat="44.59001" lon="6.34994">
        <ele>1616.8000488281</ele>
        <time>2021-06-10T09:17:38.000Z</time>
      </trkpt>
      <trkpt lat="44.58996" lon="6.35004">
        <ele>1617.4000244141</ele>
        <time>2021-06-10T09:17:43.000Z</time>
      </trkpt>
      <trkpt lat="44.58992" lon="6.3502">
        <ele>1618</ele>
        <time>2021-06-10T09:17:49.000Z</time>
      </trkpt>
      <trkpt lat="44.58991" lon="6.35023">
        <ele>1618</ele>
        <time>2021-06-10T09:17:50.000Z</time>
      </trkpt>
      <trkpt lat="44.58986" lon="6.35042">
        <ele>1618</ele>
        <time>2021-06-10T09:17:56.000Z</time>
      </trkpt>
      <trkpt lat="44.58981" lon="6.35059">
        <ele>1618</ele>
        <time>2021-06-10T09:18:01.000Z</time>
      </trkpt>
      <trkpt lat="44.58978" lon="6.35065">
        <ele>1618</ele>
        <time>2021-06-10T09:18:02.000Z</time>
      </trkpt>
      <trkpt lat="44.5896" lon="6.35103">
        <ele>1617.8000488281</ele>
        <time>2021-06-10T09:18:08.000Z</time>
      </trkpt>
      <trkpt lat="44.58946" lon="6.35134">
        <ele>1616.8000488281</ele>
        <time>2021-06-10T09:18:12.000Z</time>
      </trkpt>
      <trkpt lat="44.58942" lon="6.35143">
        <ele>1616.4000244141</ele>
        <time>2021-06-10T09:18:13.000Z</time>
      </trkpt>
      <trkpt lat="44.58939" lon="6.35151">
        <ele>1616.1999511719</ele>
        <time>2021-06-10T09:18:14.000Z</time>
      </trkpt>
      <trkpt lat="44.58937" lon="6.35159">
        <ele>1615.8000488281</ele>
        <time>2021-06-10T09:18:15.000Z</time>
      </trkpt>
      <trkpt lat="44.58935" lon="6.35166">
        <ele>1615.4000244141</ele>
        <time>2021-06-10T09:18:16.000Z</time>
      </trkpt>
      <trkpt lat="44.58935" lon="6.35173">
        <ele>1615</ele>
        <time>2021-06-10T09:18:17.000Z</time>
      </trkpt>
      <trkpt lat="44.58934" lon="6.35178">
        <ele>1614.5999755859</ele>
        <time>2021-06-10T09:18:18.000Z</time>
      </trkpt>
      <trkpt lat="44.58932" lon="6.35196">
        <ele>1613.4000244141</ele>
        <time>2021-06-10T09:18:21.000Z</time>
      </trkpt>
      <trkpt lat="44.5893" lon="6.35207">
        <ele>1613.1999511719</ele>
        <time>2021-06-10T09:18:23.000Z</time>
      </trkpt>
      <trkpt lat="44.58921" lon="6.35224">
        <ele>1613</ele>
        <time>2021-06-10T09:18:27.000Z</time>
      </trkpt>
      <trkpt lat="44.58911" lon="6.35237">
        <ele>1612.8000488281</ele>
        <time>2021-06-10T09:18:30.000Z</time>
      </trkpt>
      <trkpt lat="44.58901" lon="6.35244">
        <ele>1612.8000488281</ele>
        <time>2021-06-10T09:18:32.000Z</time>
      </trkpt>
      <trkpt lat="44.58883" lon="6.35261">
        <ele>1612.8000488281</ele>
        <time>2021-06-10T09:18:36.000Z</time>
      </trkpt>
      <trkpt lat="44.58875" lon="6.35272">
        <ele>1612.4000244141</ele>
        <time>2021-06-10T09:18:38.000Z</time>
      </trkpt>
      <trkpt lat="44.58871" lon="6.35277">
        <ele>1612</ele>
        <time>2021-06-10T09:18:39.000Z</time>
      </trkpt>
      <trkpt lat="44.5886" lon="6.35292">
        <ele>1611</ele>
        <time>2021-06-10T09:18:42.000Z</time>
      </trkpt>
      <trkpt lat="44.58857" lon="6.35297">
        <ele>1610.5999755859</ele>
        <time>2021-06-10T09:18:43.000Z</time>
      </trkpt>
      <trkpt lat="44.58854" lon="6.35302">
        <ele>1610</ele>
        <time>2021-06-10T09:18:44.000Z</time>
      </trkpt>
      <trkpt lat="44.58852" lon="6.35307">
        <ele>1609.8000488281</ele>
        <time>2021-06-10T09:18:45.000Z</time>
      </trkpt>
      <trkpt lat="44.58846" lon="6.35335">
        <ele>1609.4000244141</ele>
        <time>2021-06-10T09:18:50.000Z</time>
      </trkpt>
      <trkpt lat="44.58846" lon="6.35341">
        <ele>1609.4000244141</ele>
        <time>2021-06-10T09:18:51.000Z</time>
      </trkpt>
      <trkpt lat="44.58846" lon="6.35362">
        <ele>1609.1999511719</ele>
        <time>2021-06-10T09:18:55.000Z</time>
      </trkpt>
      <trkpt lat="44.58841" lon="6.35372">
        <ele>1609</ele>
        <time>2021-06-10T09:18:57.000Z</time>
      </trkpt>
      <trkpt lat="44.58838" lon="6.35377">
        <ele>1609.1999511719</ele>
        <time>2021-06-10T09:18:58.000Z</time>
      </trkpt>
      <trkpt lat="44.58831" lon="6.35386">
        <ele>1608.8000488281</ele>
        <time>2021-06-10T09:19:00.000Z</time>
      </trkpt>
      <trkpt lat="44.58826" lon="6.35398">
        <ele>1608.4000244141</ele>
        <time>2021-06-10T09:19:02.000Z</time>
      </trkpt>
      <trkpt lat="44.58824" lon="6.35405">
        <ele>1608.1999511719</ele>
        <time>2021-06-10T09:19:03.000Z</time>
      </trkpt>
      <trkpt lat="44.58823" lon="6.35417">
        <ele>1607.4000244141</ele>
        <time>2021-06-10T09:19:05.000Z</time>
      </trkpt>
      <trkpt lat="44.5882" lon="6.35431">
        <ele>1606.5999755859</ele>
        <time>2021-06-10T09:19:08.000Z</time>
      </trkpt>
      <trkpt lat="44.58818" lon="6.35437">
        <ele>1606.1999511719</ele>
        <time>2021-06-10T09:19:09.000Z</time>
      </trkpt>
      <trkpt lat="44.58812" lon="6.35451">
        <ele>1605.8000488281</ele>
        <time>2021-06-10T09:19:11.000Z</time>
      </trkpt>
      <trkpt lat="44.58807" lon="6.35457">
        <ele>1604.8000488281</ele>
        <time>2021-06-10T09:19:12.000Z</time>
      </trkpt>
      <trkpt lat="44.58795" lon="6.35467">
        <ele>1603.8000488281</ele>
        <time>2021-06-10T09:19:14.000Z</time>
      </trkpt>
      <trkpt lat="44.58788" lon="6.3547">
        <ele>1603</ele>
        <time>2021-06-10T09:19:15.000Z</time>
      </trkpt>
      <trkpt lat="44.58782" lon="6.35474">
        <ele>1602</ele>
        <time>2021-06-10T09:19:16.000Z</time>
      </trkpt>
      <trkpt lat="44.58776" lon="6.35476">
        <ele>1601</ele>
        <time>2021-06-10T09:19:17.000Z</time>
      </trkpt>
      <trkpt lat="44.58771" lon="6.35478">
        <ele>1599.8000488281</ele>
        <time>2021-06-10T09:19:18.000Z</time>
      </trkpt>
      <trkpt lat="44.58766" lon="6.3548">
        <ele>1598.5999755859</ele>
        <time>2021-06-10T09:19:19.000Z</time>
      </trkpt>
      <trkpt lat="44.58762" lon="6.35481">
        <ele>1597.5999755859</ele>
        <time>2021-06-10T09:19:20.000Z</time>
      </trkpt>
      <trkpt lat="44.58758" lon="6.35483">
        <ele>1596.4000244141</ele>
        <time>2021-06-10T09:19:21.000Z</time>
      </trkpt>
      <trkpt lat="44.58755" lon="6.35485">
        <ele>1595.4000244141</ele>
        <time>2021-06-10T09:19:22.000Z</time>
      </trkpt>
      <trkpt lat="44.58753" lon="6.35486">
        <ele>1595</ele>
        <time>2021-06-10T09:19:23.000Z</time>
      </trkpt>
      <trkpt lat="44.58742" lon="6.35493">
        <ele>1594.5999755859</ele>
        <time>2021-06-10T09:19:27.000Z</time>
      </trkpt>
      <trkpt lat="44.58727" lon="6.35494">
        <ele>1594.4000244141</ele>
        <time>2021-06-10T09:19:31.000Z</time>
      </trkpt>
      <trkpt lat="44.58722" lon="6.35495">
        <ele>1594.4000244141</ele>
        <time>2021-06-10T09:19:32.000Z</time>
      </trkpt>
      <trkpt lat="44.58694" lon="6.35496">
        <ele>1594.4000244141</ele>
        <time>2021-06-10T09:19:37.000Z</time>
      </trkpt>
      <trkpt lat="44.58666" lon="6.35499">
        <ele>1593</ele>
        <time>2021-06-10T09:19:42.000Z</time>
      </trkpt>
      <trkpt lat="44.58655" lon="6.35499">
        <ele>1591.8000488281</ele>
        <time>2021-06-10T09:19:44.000Z</time>
      </trkpt>
      <trkpt lat="44.58647" lon="6.35498">
        <ele>1590.8000488281</ele>
        <time>2021-06-10T09:19:46.000Z</time>
      </trkpt>
      <trkpt lat="44.58644" lon="6.35497">
        <ele>1590.1999511719</ele>
        <time>2021-06-10T09:19:47.000Z</time>
      </trkpt>
      <trkpt lat="44.5864" lon="6.35496">
        <ele>1589.4000244141</ele>
        <time>2021-06-10T09:19:48.000Z</time>
      </trkpt>
      <trkpt lat="44.58635" lon="6.35494">
        <ele>1588.8000488281</ele>
        <time>2021-06-10T09:19:49.000Z</time>
      </trkpt>
      <trkpt lat="44.58625" lon="6.35492">
        <ele>1587.4000244141</ele>
        <time>2021-06-10T09:19:51.000Z</time>
      </trkpt>
      <trkpt lat="44.58616" lon="6.35489">
        <ele>1586.4000244141</ele>
        <time>2021-06-10T09:19:53.000Z</time>
      </trkpt>
      <trkpt lat="44.5861" lon="6.35488">
        <ele>1585.1999511719</ele>
        <time>2021-06-10T09:19:55.000Z</time>
      </trkpt>
      <trkpt lat="44.586" lon="6.35485">
        <ele>1584</ele>
        <time>2021-06-10T09:19:58.000Z</time>
      </trkpt>
      <trkpt lat="44.5859" lon="6.35483">
        <ele>1583.5999755859</ele>
        <time>2021-06-10T09:20:01.000Z</time>
      </trkpt>
      <trkpt lat="44.58569" lon="6.35479">
        <ele>1583.4000244141</ele>
        <time>2021-06-10T09:20:07.000Z</time>
      </trkpt>
      <trkpt lat="44.58561" lon="6.35486">
        <ele>1583.5999755859</ele>
        <time>2021-06-10T09:20:11.000Z</time>
      </trkpt>
      <trkpt lat="44.58555" lon="6.35501">
        <ele>1583.5999755859</ele>
        <time>2021-06-10T09:20:16.000Z</time>
      </trkpt>
      <trkpt lat="44.58543" lon="6.35516">
        <ele>1583.8000488281</ele>
        <time>2021-06-10T09:20:21.000Z</time>
      </trkpt>
      <trkpt lat="44.58528" lon="6.35522">
        <ele>1584.1999511719</ele>
        <time>2021-06-10T09:20:28.000Z</time>
      </trkpt>
      <trkpt lat="44.58519" lon="6.35526">
        <ele>1585.1999511719</ele>
        <time>2021-06-10T09:20:31.000Z</time>
      </trkpt>
      <trkpt lat="44.58512" lon="6.3553">
        <ele>1586</ele>
        <time>2021-06-10T09:20:33.000Z</time>
      </trkpt>
      <trkpt lat="44.58508" lon="6.35531">
        <ele>1586.4000244141</ele>
        <time>2021-06-10T09:20:34.000Z</time>
      </trkpt>
      <trkpt lat="44.58499" lon="6.35536">
        <ele>1587.4000244141</ele>
        <time>2021-06-10T09:20:38.000Z</time>
      </trkpt>
      <trkpt lat="44.58487" lon="6.35548">
        <ele>1587.8000488281</ele>
        <time>2021-06-10T09:20:45.000Z</time>
      </trkpt>
      <trkpt lat="44.58476" lon="6.3556">
        <ele>1588.1999511719</ele>
        <time>2021-06-10T09:20:52.000Z</time>
      </trkpt>
      <trkpt lat="44.58474" lon="6.35562">
        <ele>1588.4000244141</ele>
        <time>2021-06-10T09:20:53.000Z</time>
      </trkpt>
      <trkpt lat="44.58467" lon="6.35571">
        <ele>1589.1999511719</ele>
        <time>2021-06-10T09:20:57.000Z</time>
      </trkpt>
      <trkpt lat="44.58464" lon="6.35576">
        <ele>1589.5999755859</ele>
        <time>2021-06-10T09:20:59.000Z</time>
      </trkpt>
      <trkpt lat="44.5846" lon="6.35588">
        <ele>1590.4000244141</ele>
        <time>2021-06-10T09:21:03.000Z</time>
      </trkpt>
      <trkpt lat="44.5846" lon="6.3559">
        <ele>1590.8000488281</ele>
        <time>2021-06-10T09:21:04.000Z</time>
      </trkpt>
      <trkpt lat="44.58455" lon="6.35605">
        <ele>1592.1999511719</ele>
        <time>2021-06-10T09:21:08.000Z</time>
      </trkpt>
      <trkpt lat="44.58454" lon="6.35608">
        <ele>1592.4000244141</ele>
        <time>2021-06-10T09:21:09.000Z</time>
      </trkpt>
      <trkpt lat="44.58452" lon="6.35622">
        <ele>1593.1999511719</ele>
        <time>2021-06-10T09:21:13.000Z</time>
      </trkpt>
      <trkpt lat="44.5845" lon="6.35625">
        <ele>1593.4000244141</ele>
        <time>2021-06-10T09:21:14.000Z</time>
      </trkpt>
      <trkpt lat="44.5844" lon="6.35641">
        <ele>1594.4000244141</ele>
        <time>2021-06-10T09:21:19.000Z</time>
      </trkpt>
      <trkpt lat="44.58438" lon="6.35644">
        <ele>1594.5999755859</ele>
        <time>2021-06-10T09:21:20.000Z</time>
      </trkpt>
      <trkpt lat="44.58428" lon="6.35659">
        <ele>1595</ele>
        <time>2021-06-10T09:21:25.000Z</time>
      </trkpt>
      <trkpt lat="44.58415" lon="6.35669">
        <ele>1595.5999755859</ele>
        <time>2021-06-10T09:21:31.000Z</time>
      </trkpt>
      <trkpt lat="44.58397" lon="6.35676">
        <ele>1595.5999755859</ele>
        <time>2021-06-10T09:21:36.000Z</time>
      </trkpt>
      <trkpt lat="44.58378" lon="6.35683">
        <ele>1595.1999511719</ele>
        <time>2021-06-10T09:21:42.000Z</time>
      </trkpt>
      <trkpt lat="44.5836" lon="6.35692">
        <ele>1594.4000244141</ele>
        <time>2021-06-10T09:21:47.000Z</time>
      </trkpt>
      <trkpt lat="44.58349" lon="6.35696">
        <ele>1593.5999755859</ele>
        <time>2021-06-10T09:21:51.000Z</time>
      </trkpt>
      <trkpt lat="44.58348" lon="6.357">
        <ele>1593.5999755859</ele>
        <time>2021-06-10T09:21:52.000Z</time>
      </trkpt>
      <trkpt lat="44.58346" lon="6.35711">
        <ele>1592.8000488281</ele>
        <time>2021-06-10T09:21:55.000Z</time>
      </trkpt>
      <trkpt lat="44.58344" lon="6.35716">
        <ele>1592.1999511719</ele>
        <time>2021-06-10T09:21:56.000Z</time>
      </trkpt>
      <trkpt lat="44.58342" lon="6.3572">
        <ele>1591.5999755859</ele>
        <time>2021-06-10T09:21:57.000Z</time>
      </trkpt>
      <trkpt lat="44.5834" lon="6.35728">
        <ele>1591.1999511719</ele>
        <time>2021-06-10T09:21:59.000Z</time>
      </trkpt>
      <trkpt lat="44.58332" lon="6.35745">
        <ele>1590.5999755859</ele>
        <time>2021-06-10T09:22:03.000Z</time>
      </trkpt>
      <trkpt lat="44.58328" lon="6.35766">
        <ele>1590.5999755859</ele>
        <time>2021-06-10T09:22:07.000Z</time>
      </trkpt>
      <trkpt lat="44.58326" lon="6.35775">
        <ele>1590.5999755859</ele>
        <time>2021-06-10T09:22:09.000Z</time>
      </trkpt>
      <trkpt lat="44.58327" lon="6.35784">
        <ele>1590.4000244141</ele>
        <time>2021-06-10T09:22:11.000Z</time>
      </trkpt>
      <trkpt lat="44.58326" lon="6.35798">
        <ele>1590.4000244141</ele>
        <time>2021-06-10T09:22:14.000Z</time>
      </trkpt>
      <trkpt lat="44.58324" lon="6.35801">
        <ele>1590.4000244141</ele>
        <time>2021-06-10T09:22:15.000Z</time>
      </trkpt>
      <trkpt lat="44.58311" lon="6.35819">
        <ele>1590.4000244141</ele>
        <time>2021-06-10T09:22:20.000Z</time>
      </trkpt>
      <trkpt lat="44.58301" lon="6.3584">
        <ele>1590.4000244141</ele>
        <time>2021-06-10T09:22:24.000Z</time>
      </trkpt>
      <trkpt lat="44.58294" lon="6.3585">
        <ele>1590.1999511719</ele>
        <time>2021-06-10T09:22:27.000Z</time>
      </trkpt>
      <trkpt lat="44.5829" lon="6.35854">
        <ele>1590.1999511719</ele>
        <time>2021-06-10T09:22:28.000Z</time>
      </trkpt>
      <trkpt lat="44.58286" lon="6.35858">
        <ele>1590.1999511719</ele>
        <time>2021-06-10T09:22:29.000Z</time>
      </trkpt>
      <trkpt lat="44.58265" lon="6.35885">
        <ele>1589.8000488281</ele>
        <time>2021-06-10T09:22:35.000Z</time>
      </trkpt>
      <trkpt lat="44.58256" lon="6.35892">
        <ele>1589.5999755859</ele>
        <time>2021-06-10T09:22:39.000Z</time>
      </trkpt>
      <trkpt lat="44.58242" lon="6.35904">
        <ele>1589.8000488281</ele>
        <time>2021-06-10T09:22:44.000Z</time>
      </trkpt>
      <trkpt lat="44.58224" lon="6.35925">
        <ele>1590</ele>
        <time>2021-06-10T09:22:50.000Z</time>
      </trkpt>
      <trkpt lat="44.58215" lon="6.35929">
        <ele>1590.1999511719</ele>
        <time>2021-06-10T09:22:55.000Z</time>
      </trkpt>
      <trkpt lat="44.58206" lon="6.35935">
        <ele>1590</ele>
        <time>2021-06-10T09:23:00.000Z</time>
      </trkpt>
      <trkpt lat="44.58204" lon="6.35935">
        <ele>1590</ele>
        <time>2021-06-10T09:23:04.000Z</time>
      </trkpt>
      <trkpt lat="44.58204" lon="6.35936">
        <ele>1589.1999511719</ele>
        <time>2021-06-10T09:23:09.000Z</time>
      </trkpt>
      <trkpt lat="44.58204" lon="6.35935">
        <ele>1588.8000488281</ele>
        <time>2021-06-10T09:23:17.000Z</time>
      </trkpt>
      <trkpt lat="44.58204" lon="6.35935">
        <ele>1588.8000488281</ele>
        <time>2021-06-10T09:23:22.000Z</time>
      </trkpt>
      <trkpt lat="44.58203" lon="6.35936">
        <ele>1588.5999755859</ele>
        <time>2021-06-10T09:23:34.000Z</time>
      </trkpt>
      <trkpt lat="44.58199" lon="6.35937">
        <ele>1588.5999755859</ele>
        <time>2021-06-10T09:23:36.000Z</time>
      </trkpt>
      <trkpt lat="44.58187" lon="6.35945">
        <ele>1588.5999755859</ele>
        <time>2021-06-10T09:23:41.000Z</time>
      </trkpt>
      <trkpt lat="44.58179" lon="6.35951">
        <ele>1588.4000244141</ele>
        <time>2021-06-10T09:23:44.000Z</time>
      </trkpt>
      <trkpt lat="44.5817" lon="6.35952">
        <ele>1588</ele>
        <time>2021-06-10T09:23:47.000Z</time>
      </trkpt>
      <trkpt lat="44.58153" lon="6.35944">
        <ele>1587.5999755859</ele>
        <time>2021-06-10T09:23:52.000Z</time>
      </trkpt>
      <trkpt lat="44.58148" lon="6.35943">
        <ele>1587.4000244141</ele>
        <time>2021-06-10T09:23:53.000Z</time>
      </trkpt>
      <trkpt lat="44.58134" lon="6.35944">
        <ele>1586.8000488281</ele>
        <time>2021-06-10T09:23:56.000Z</time>
      </trkpt>
      <trkpt lat="44.5813" lon="6.35945">
        <ele>1586.5999755859</ele>
        <time>2021-06-10T09:23:57.000Z</time>
      </trkpt>
      <trkpt lat="44.58125" lon="6.35948">
        <ele>1586</ele>
        <time>2021-06-10T09:23:58.000Z</time>
      </trkpt>
      <trkpt lat="44.58119" lon="6.35956">
        <ele>1585</ele>
        <time>2021-06-10T09:24:00.000Z</time>
      </trkpt>
      <trkpt lat="44.58116" lon="6.35959">
        <ele>1584.8000488281</ele>
        <time>2021-06-10T09:24:01.000Z</time>
      </trkpt>
      <trkpt lat="44.58112" lon="6.35967">
        <ele>1583.4000244141</ele>
        <time>2021-06-10T09:24:03.000Z</time>
      </trkpt>
      <trkpt lat="44.58111" lon="6.35972">
        <ele>1583.1999511719</ele>
        <time>2021-06-10T09:24:04.000Z</time>
      </trkpt>
      <trkpt lat="44.5811" lon="6.35982">
        <ele>1582.1999511719</ele>
        <time>2021-06-10T09:24:06.000Z</time>
      </trkpt>
      <trkpt lat="44.58109" lon="6.35997">
        <ele>1581.1999511719</ele>
        <time>2021-06-10T09:24:09.000Z</time>
      </trkpt>
      <trkpt lat="44.58108" lon="6.36002">
        <ele>1580.1999511719</ele>
        <time>2021-06-10T09:24:12.000Z</time>
      </trkpt>
      <trkpt lat="44.58108" lon="6.36002">
        <ele>1579.8000488281</ele>
        <time>2021-06-10T09:24:13.000Z</time>
      </trkpt>
      <trkpt lat="44.58108" lon="6.36003">
        <ele>1578.8000488281</ele>
        <time>2021-06-10T09:24:16.000Z</time>
      </trkpt>
      <trkpt lat="44.58108" lon="6.36006">
        <ele>1578.1999511719</ele>
        <time>2021-06-10T09:24:18.000Z</time>
      </trkpt>
      <trkpt lat="44.58107" lon="6.36009">
        <ele>1578.1999511719</ele>
        <time>2021-06-10T09:24:19.000Z</time>
      </trkpt>
      <trkpt lat="44.58103" lon="6.36024">
        <ele>1578</ele>
        <time>2021-06-10T09:24:23.000Z</time>
      </trkpt>
      <trkpt lat="44.581" lon="6.36043">
        <ele>1577.5999755859</ele>
        <time>2021-06-10T09:24:28.000Z</time>
      </trkpt>
      <trkpt lat="44.58098" lon="6.36064">
        <ele>1576.1999511719</ele>
        <time>2021-06-10T09:24:32.000Z</time>
      </trkpt>
      <trkpt lat="44.58094" lon="6.36076">
        <ele>1575.1999511719</ele>
        <time>2021-06-10T09:24:35.000Z</time>
      </trkpt>
      <trkpt lat="44.5809" lon="6.36082">
        <ele>1574</ele>
        <time>2021-06-10T09:24:37.000Z</time>
      </trkpt>
      <trkpt lat="44.58089" lon="6.36087">
        <ele>1573.1999511719</ele>
        <time>2021-06-10T09:24:39.000Z</time>
      </trkpt>
      <trkpt lat="44.58087" lon="6.36088">
        <ele>1572.5999755859</ele>
        <time>2021-06-10T09:24:40.000Z</time>
      </trkpt>
      <trkpt lat="44.58082" lon="6.36091">
        <ele>1571.4000244141</ele>
        <time>2021-06-10T09:24:42.000Z</time>
      </trkpt>
      <trkpt lat="44.58078" lon="6.36092">
        <ele>1571</ele>
        <time>2021-06-10T09:24:43.000Z</time>
      </trkpt>
      <trkpt lat="44.58074" lon="6.36093">
        <ele>1570.1999511719</ele>
        <time>2021-06-10T09:24:44.000Z</time>
      </trkpt>
      <trkpt lat="44.58067" lon="6.36097">
        <ele>1569</ele>
        <time>2021-06-10T09:24:46.000Z</time>
      </trkpt>
      <trkpt lat="44.58058" lon="6.361">
        <ele>1568.1999511719</ele>
        <time>2021-06-10T09:24:48.000Z</time>
      </trkpt>
      <trkpt lat="44.58054" lon="6.36101">
        <ele>1567.8000488281</ele>
        <time>2021-06-10T09:24:49.000Z</time>
      </trkpt>
      <trkpt lat="44.58043" lon="6.36107">
        <ele>1566.1999511719</ele>
        <time>2021-06-10T09:24:52.000Z</time>
      </trkpt>
      <trkpt lat="44.58037" lon="6.36111">
        <ele>1565</ele>
        <time>2021-06-10T09:24:54.000Z</time>
      </trkpt>
      <trkpt lat="44.58035" lon="6.36113">
        <ele>1564.4000244141</ele>
        <time>2021-06-10T09:24:55.000Z</time>
      </trkpt>
      <trkpt lat="44.58034" lon="6.36116">
        <ele>1564</ele>
        <time>2021-06-10T09:24:56.000Z</time>
      </trkpt>
      <trkpt lat="44.58034" lon="6.36121">
        <ele>1563.5999755859</ele>
        <time>2021-06-10T09:24:58.000Z</time>
      </trkpt>
      <trkpt lat="44.58034" lon="6.36124">
        <ele>1563.4000244141</ele>
        <time>2021-06-10T09:24:59.000Z</time>
      </trkpt>
      <trkpt lat="44.58031" lon="6.36137">
        <ele>1563</ele>
        <time>2021-06-10T09:25:02.000Z</time>
      </trkpt>
      <trkpt lat="44.58016" lon="6.36146">
        <ele>1562.5999755859</ele>
        <time>2021-06-10T09:25:06.000Z</time>
      </trkpt>
      <trkpt lat="44.58012" lon="6.36146">
        <ele>1562.5999755859</ele>
        <time>2021-06-10T09:25:07.000Z</time>
      </trkpt>
      <trkpt lat="44.58004" lon="6.36146">
        <ele>1561.8000488281</ele>
        <time>2021-06-10T09:25:09.000Z</time>
      </trkpt>
      <trkpt lat="44.57989" lon="6.36148">
        <ele>1560.8000488281</ele>
        <time>2021-06-10T09:25:13.000Z</time>
      </trkpt>
      <trkpt lat="44.57959" lon="6.36152">
        <ele>1560</ele>
        <time>2021-06-10T09:25:20.000Z</time>
      </trkpt>
      <trkpt lat="44.57936" lon="6.36152">
        <ele>1559.8000488281</ele>
        <time>2021-06-10T09:25:26.000Z</time>
      </trkpt>
      <trkpt lat="44.57923" lon="6.36154">
        <ele>1559.8000488281</ele>
        <time>2021-06-10T09:25:30.000Z</time>
      </trkpt>
      <trkpt lat="44.57919" lon="6.36155">
        <ele>1559.5999755859</ele>
        <time>2021-06-10T09:25:31.000Z</time>
      </trkpt>
      <trkpt lat="44.57899" lon="6.36159">
        <ele>1559.5999755859</ele>
        <time>2021-06-10T09:25:35.000Z</time>
      </trkpt>
      <trkpt lat="44.57877" lon="6.36162">
        <ele>1559.1999511719</ele>
        <time>2021-06-10T09:25:40.000Z</time>
      </trkpt>
      <trkpt lat="44.57869" lon="6.36163">
        <ele>1558.1999511719</ele>
        <time>2021-06-10T09:25:42.000Z</time>
      </trkpt>
      <trkpt lat="44.57865" lon="6.36162">
        <ele>1557.8000488281</ele>
        <time>2021-06-10T09:25:43.000Z</time>
      </trkpt>
      <trkpt lat="44.57861" lon="6.3616">
        <ele>1557.1999511719</ele>
        <time>2021-06-10T09:25:44.000Z</time>
      </trkpt>
      <trkpt lat="44.57857" lon="6.36158">
        <ele>1556.5999755859</ele>
        <time>2021-06-10T09:25:45.000Z</time>
      </trkpt>
      <trkpt lat="44.5785" lon="6.36153">
        <ele>1556</ele>
        <time>2021-06-10T09:25:47.000Z</time>
      </trkpt>
      <trkpt lat="44.57839" lon="6.36147">
        <ele>1555</ele>
        <time>2021-06-10T09:25:50.000Z</time>
      </trkpt>
      <trkpt lat="44.57835" lon="6.36146">
        <ele>1554.5999755859</ele>
        <time>2021-06-10T09:25:51.000Z</time>
      </trkpt>
      <trkpt lat="44.5783" lon="6.36146">
        <ele>1554</ele>
        <time>2021-06-10T09:25:52.000Z</time>
      </trkpt>
      <trkpt lat="44.57827" lon="6.36146">
        <ele>1553.8000488281</ele>
        <time>2021-06-10T09:25:53.000Z</time>
      </trkpt>
      <trkpt lat="44.57818" lon="6.36147">
        <ele>1552.4000244141</ele>
        <time>2021-06-10T09:25:56.000Z</time>
      </trkpt>
      <trkpt lat="44.57811" lon="6.36141">
        <ele>1551.1999511719</ele>
        <time>2021-06-10T09:25:59.000Z</time>
      </trkpt>
      <trkpt lat="44.57809" lon="6.36137">
        <ele>1550.8000488281</ele>
        <time>2021-06-10T09:26:00.000Z</time>
      </trkpt>
      <trkpt lat="44.57805" lon="6.36132">
        <ele>1550.1999511719</ele>
        <time>2021-06-10T09:26:02.000Z</time>
      </trkpt>
      <trkpt lat="44.57802" lon="6.36131">
        <ele>1550</ele>
        <time>2021-06-10T09:26:03.000Z</time>
      </trkpt>
      <trkpt lat="44.57798" lon="6.36132">
        <ele>1550</ele>
        <time>2021-06-10T09:26:04.000Z</time>
      </trkpt>
      <trkpt lat="44.57787" lon="6.36139">
        <ele>1549.5999755859</ele>
        <time>2021-06-10T09:26:08.000Z</time>
      </trkpt>
      <trkpt lat="44.57777" lon="6.36147">
        <ele>1549.1999511719</ele>
        <time>2021-06-10T09:26:13.000Z</time>
      </trkpt>
      <trkpt lat="44.57775" lon="6.36148">
        <ele>1549</ele>
        <time>2021-06-10T09:26:14.000Z</time>
      </trkpt>
      <trkpt lat="44.57766" lon="6.36156">
        <ele>1547.8000488281</ele>
        <time>2021-06-10T09:26:17.000Z</time>
      </trkpt>
      <trkpt lat="44.57763" lon="6.36159">
        <ele>1547.5999755859</ele>
        <time>2021-06-10T09:26:18.000Z</time>
      </trkpt>
      <trkpt lat="44.57753" lon="6.36171">
        <ele>1546.5999755859</ele>
        <time>2021-06-10T09:26:21.000Z</time>
      </trkpt>
      <trkpt lat="44.57744" lon="6.36179">
        <ele>1546</ele>
        <time>2021-06-10T09:26:23.000Z</time>
      </trkpt>
      <trkpt lat="44.57739" lon="6.36182">
        <ele>1545.5999755859</ele>
        <time>2021-06-10T09:26:24.000Z</time>
      </trkpt>
      <trkpt lat="44.57728" lon="6.36183">
        <ele>1544.4000244141</ele>
        <time>2021-06-10T09:26:26.000Z</time>
      </trkpt>
      <trkpt lat="44.57723" lon="6.36181">
        <ele>1543</ele>
        <time>2021-06-10T09:26:27.000Z</time>
      </trkpt>
      <trkpt lat="44.57715" lon="6.36176">
        <ele>1541.5999755859</ele>
        <time>2021-06-10T09:26:29.000Z</time>
      </trkpt>
      <trkpt lat="44.57711" lon="6.36173">
        <ele>1540.8000488281</ele>
        <time>2021-06-10T09:26:30.000Z</time>
      </trkpt>
      <trkpt lat="44.57708" lon="6.36171">
        <ele>1540.1999511719</ele>
        <time>2021-06-10T09:26:31.000Z</time>
      </trkpt>
      <trkpt lat="44.577" lon="6.36167">
        <ele>1539.4000244141</ele>
        <time>2021-06-10T09:26:33.000Z</time>
      </trkpt>
      <trkpt lat="44.57697" lon="6.36166">
        <ele>1538.8000488281</ele>
        <time>2021-06-10T09:26:34.000Z</time>
      </trkpt>
      <trkpt lat="44.57689" lon="6.36165">
        <ele>1538</ele>
        <time>2021-06-10T09:26:36.000Z</time>
      </trkpt>
      <trkpt lat="44.57685" lon="6.36164">
        <ele>1537.8000488281</ele>
        <time>2021-06-10T09:26:37.000Z</time>
      </trkpt>
      <trkpt lat="44.57667" lon="6.36168">
        <ele>1537.4000244141</ele>
        <time>2021-06-10T09:26:42.000Z</time>
      </trkpt>
      <trkpt lat="44.57649" lon="6.36172">
        <ele>1536.5999755859</ele>
        <time>2021-06-10T09:26:46.000Z</time>
      </trkpt>
      <trkpt lat="44.57635" lon="6.36174">
        <ele>1535.8000488281</ele>
        <time>2021-06-10T09:26:49.000Z</time>
      </trkpt>
      <trkpt lat="44.57631" lon="6.36175">
        <ele>1535.4000244141</ele>
        <time>2021-06-10T09:26:50.000Z</time>
      </trkpt>
      <trkpt lat="44.57606" lon="6.36184">
        <ele>1534</ele>
        <time>2021-06-10T09:26:55.000Z</time>
      </trkpt>
      <trkpt lat="44.57596" lon="6.362">
        <ele>1532.8000488281</ele>
        <time>2021-06-10T09:26:58.000Z</time>
      </trkpt>
      <trkpt lat="44.57593" lon="6.36212">
        <ele>1532.1999511719</ele>
        <time>2021-06-10T09:27:00.000Z</time>
      </trkpt>
      <trkpt lat="44.57591" lon="6.36218">
        <ele>1531.8000488281</ele>
        <time>2021-06-10T09:27:01.000Z</time>
      </trkpt>
      <trkpt lat="44.57585" lon="6.36235">
        <ele>1530.5999755859</ele>
        <time>2021-06-10T09:27:04.000Z</time>
      </trkpt>
      <trkpt lat="44.57577" lon="6.36252">
        <ele>1529.5999755859</ele>
        <time>2021-06-10T09:27:07.000Z</time>
      </trkpt>
      <trkpt lat="44.57565" lon="6.36277">
        <ele>1529</ele>
        <time>2021-06-10T09:27:11.000Z</time>
      </trkpt>
      <trkpt lat="44.57558" lon="6.36289">
        <ele>1528.8000488281</ele>
        <time>2021-06-10T09:27:13.000Z</time>
      </trkpt>
      <trkpt lat="44.57543" lon="6.36313">
        <ele>1527.5999755859</ele>
        <time>2021-06-10T09:27:17.000Z</time>
      </trkpt>
      <trkpt lat="44.57539" lon="6.36319">
        <ele>1527.4000244141</ele>
        <time>2021-06-10T09:27:18.000Z</time>
      </trkpt>
      <trkpt lat="44.57522" lon="6.36341">
        <ele>1526.5999755859</ele>
        <time>2021-06-10T09:27:22.000Z</time>
      </trkpt>
      <trkpt lat="44.57513" lon="6.36352">
        <ele>1526.1999511719</ele>
        <time>2021-06-10T09:27:24.000Z</time>
      </trkpt>
      <trkpt lat="44.57509" lon="6.36358">
        <ele>1525.8000488281</ele>
        <time>2021-06-10T09:27:25.000Z</time>
      </trkpt>
      <trkpt lat="44.57499" lon="6.36369">
        <ele>1525.4000244141</ele>
        <time>2021-06-10T09:27:27.000Z</time>
      </trkpt>
      <trkpt lat="44.5748" lon="6.36391">
        <ele>1525</ele>
        <time>2021-06-10T09:27:31.000Z</time>
      </trkpt>
      <trkpt lat="44.5747" lon="6.36401">
        <ele>1524.1999511719</ele>
        <time>2021-06-10T09:27:33.000Z</time>
      </trkpt>
      <trkpt lat="44.5746" lon="6.36413">
        <ele>1523.4000244141</ele>
        <time>2021-06-10T09:27:35.000Z</time>
      </trkpt>
      <trkpt lat="44.57456" lon="6.36421">
        <ele>1523</ele>
        <time>2021-06-10T09:27:36.000Z</time>
      </trkpt>
      <trkpt lat="44.57448" lon="6.36457">
        <ele>1521.8000488281</ele>
        <time>2021-06-10T09:27:40.000Z</time>
      </trkpt>
      <trkpt lat="44.57448" lon="6.36476">
        <ele>1521.4000244141</ele>
        <time>2021-06-10T09:27:42.000Z</time>
      </trkpt>
      <trkpt lat="44.57448" lon="6.36495">
        <ele>1520.8000488281</ele>
        <time>2021-06-10T09:27:44.000Z</time>
      </trkpt>
      <trkpt lat="44.57447" lon="6.36513">
        <ele>1520.4000244141</ele>
        <time>2021-06-10T09:27:46.000Z</time>
      </trkpt>
      <trkpt lat="44.57446" lon="6.36522">
        <ele>1520</ele>
        <time>2021-06-10T09:27:47.000Z</time>
      </trkpt>
      <trkpt lat="44.5744" lon="6.36537">
        <ele>1519.8000488281</ele>
        <time>2021-06-10T09:27:49.000Z</time>
      </trkpt>
      <trkpt lat="44.5743" lon="6.36548">
        <ele>1519</ele>
        <time>2021-06-10T09:27:51.000Z</time>
      </trkpt>
      <trkpt lat="44.57425" lon="6.36554">
        <ele>1518.8000488281</ele>
        <time>2021-06-10T09:27:52.000Z</time>
      </trkpt>
      <trkpt lat="44.5742" lon="6.3656">
        <ele>1518.5999755859</ele>
        <time>2021-06-10T09:27:53.000Z</time>
      </trkpt>
      <trkpt lat="44.57404" lon="6.36581">
        <ele>1518</ele>
        <time>2021-06-10T09:27:56.000Z</time>
      </trkpt>
      <trkpt lat="44.57401" lon="6.36591">
        <ele>1518</ele>
        <time>2021-06-10T09:27:57.000Z</time>
      </trkpt>
      <trkpt lat="44.57402" lon="6.36613">
        <ele>1517.5999755859</ele>
        <time>2021-06-10T09:27:59.000Z</time>
      </trkpt>
      <trkpt lat="44.57405" lon="6.36621">
        <ele>1517.4000244141</ele>
        <time>2021-06-10T09:28:00.000Z</time>
      </trkpt>
      <trkpt lat="44.57411" lon="6.36632">
        <ele>1516.8000488281</ele>
        <time>2021-06-10T09:28:02.000Z</time>
      </trkpt>
      <trkpt lat="44.57413" lon="6.36635">
        <ele>1516.4000244141</ele>
        <time>2021-06-10T09:28:03.000Z</time>
      </trkpt>
      <trkpt lat="44.57416" lon="6.3664">
        <ele>1515.5999755859</ele>
        <time>2021-06-10T09:28:05.000Z</time>
      </trkpt>
      <trkpt lat="44.57418" lon="6.36641">
        <ele>1515.1999511719</ele>
        <time>2021-06-10T09:28:06.000Z</time>
      </trkpt>
      <trkpt lat="44.5742" lon="6.36641">
        <ele>1514</ele>
        <time>2021-06-10T09:28:08.000Z</time>
      </trkpt>
      <trkpt lat="44.5742" lon="6.36641">
        <ele>1513</ele>
        <time>2021-06-10T09:28:10.000Z</time>
      </trkpt>
      <trkpt lat="44.5742" lon="6.36642">
        <ele>1512.5999755859</ele>
        <time>2021-06-10T09:28:11.000Z</time>
      </trkpt>
      <trkpt lat="44.5742" lon="6.36641">
        <ele>1511.8000488281</ele>
        <time>2021-06-10T09:28:15.000Z</time>
      </trkpt>
      <trkpt lat="44.57423" lon="6.36641">
        <ele>1511.5999755859</ele>
        <time>2021-06-10T09:28:18.000Z</time>
      </trkpt>
      <trkpt lat="44.57425" lon="6.3664">
        <ele>1511.5999755859</ele>
        <time>2021-06-10T09:28:20.000Z</time>
      </trkpt>
      <trkpt lat="44.57431" lon="6.36643">
        <ele>1511.4000244141</ele>
        <time>2021-06-10T09:28:23.000Z</time>
      </trkpt>
      <trkpt lat="44.57434" lon="6.36645">
        <ele>1511.4000244141</ele>
        <time>2021-06-10T09:28:24.000Z</time>
      </trkpt>
      <trkpt lat="44.57442" lon="6.36643">
        <ele>1511.4000244141</ele>
        <time>2021-06-10T09:28:26.000Z</time>
      </trkpt>
      <trkpt lat="44.57445" lon="6.3664">
        <ele>1511.4000244141</ele>
        <time>2021-06-10T09:28:27.000Z</time>
      </trkpt>
      <trkpt lat="44.57453" lon="6.36632">
        <ele>1510.8000488281</ele>
        <time>2021-06-10T09:28:30.000Z</time>
      </trkpt>
      <trkpt lat="44.57455" lon="6.3663">
        <ele>1510</ele>
        <time>2021-06-10T09:28:31.000Z</time>
      </trkpt>
      <trkpt lat="44.57457" lon="6.36628">
        <ele>1509</ele>
        <time>2021-06-10T09:28:32.000Z</time>
      </trkpt>
      <trkpt lat="44.57462" lon="6.36623">
        <ele>1507.1999511719</ele>
        <time>2021-06-10T09:28:34.000Z</time>
      </trkpt>
      <trkpt lat="44.57467" lon="6.36618">
        <ele>1506.1999511719</ele>
        <time>2021-06-10T09:28:37.000Z</time>
      </trkpt>
      <trkpt lat="44.57469" lon="6.36616">
        <ele>1506</ele>
        <time>2021-06-10T09:28:38.000Z</time>
      </trkpt>
      <trkpt lat="44.57472" lon="6.36615">
        <ele>1505.5999755859</ele>
        <time>2021-06-10T09:28:40.000Z</time>
      </trkpt>
      <trkpt lat="44.57474" lon="6.36617">
        <ele>1505.5999755859</ele>
        <time>2021-06-10T09:28:42.000Z</time>
      </trkpt>
      <trkpt lat="44.57476" lon="6.36622">
        <ele>1505.1999511719</ele>
        <time>2021-06-10T09:28:45.000Z</time>
      </trkpt>
      <trkpt lat="44.57478" lon="6.36629">
        <ele>1505</ele>
        <time>2021-06-10T09:28:48.000Z</time>
      </trkpt>
      <trkpt lat="44.5748" lon="6.36631">
        <ele>1504.8000488281</ele>
        <time>2021-06-10T09:28:49.000Z</time>
      </trkpt>
      <trkpt lat="44.57482" lon="6.36639">
        <ele>1503.5999755859</ele>
        <time>2021-06-10T09:28:52.000Z</time>
      </trkpt>
      <trkpt lat="44.57485" lon="6.36644">
        <ele>1502.4000244141</ele>
        <time>2021-06-10T09:28:54.000Z</time>
      </trkpt>
      <trkpt lat="44.5749" lon="6.36647">
        <ele>1500.8000488281</ele>
        <time>2021-06-10T09:28:56.000Z</time>
      </trkpt>
      <trkpt lat="44.57497" lon="6.36649">
        <ele>1498.8000488281</ele>
        <time>2021-06-10T09:28:58.000Z</time>
      </trkpt>
      <trkpt lat="44.57503" lon="6.36651">
        <ele>1497</ele>
        <time>2021-06-10T09:29:00.000Z</time>
      </trkpt>
      <trkpt lat="44.57508" lon="6.36652">
        <ele>1495.1999511719</ele>
        <time>2021-06-10T09:29:02.000Z</time>
      </trkpt>
      <trkpt lat="44.5751" lon="6.36653">
        <ele>1494.1999511719</ele>
        <time>2021-06-10T09:29:03.000Z</time>
      </trkpt>
      <trkpt lat="44.57511" lon="6.36655">
        <ele>1493.5999755859</ele>
        <time>2021-06-10T09:29:04.000Z</time>
      </trkpt>
      <trkpt lat="44.57513" lon="6.36662">
        <ele>1492.4000244141</ele>
        <time>2021-06-10T09:29:06.000Z</time>
      </trkpt>
      <trkpt lat="44.57512" lon="6.36667">
        <ele>1491.8000488281</ele>
        <time>2021-06-10T09:29:07.000Z</time>
      </trkpt>
      <trkpt lat="44.57511" lon="6.36672">
        <ele>1491.1999511719</ele>
        <time>2021-06-10T09:29:08.000Z</time>
      </trkpt>
      <trkpt lat="44.57506" lon="6.36677">
        <ele>1490.4000244141</ele>
        <time>2021-06-10T09:29:10.000Z</time>
      </trkpt>
      <trkpt lat="44.57505" lon="6.36679">
        <ele>1490</ele>
        <time>2021-06-10T09:29:11.000Z</time>
      </trkpt>
      <trkpt lat="44.57504" lon="6.36682">
        <ele>1489.5999755859</ele>
        <time>2021-06-10T09:29:12.000Z</time>
      </trkpt>
      <trkpt lat="44.57503" lon="6.36687">
        <ele>1488.5999755859</ele>
        <time>2021-06-10T09:29:14.000Z</time>
      </trkpt>
      <trkpt lat="44.57503" lon="6.36692">
        <ele>1487.4000244141</ele>
        <time>2021-06-10T09:29:16.000Z</time>
      </trkpt>
      <trkpt lat="44.57502" lon="6.36698">
        <ele>1486.4000244141</ele>
        <time>2021-06-10T09:29:18.000Z</time>
      </trkpt>
      <trkpt lat="44.575" lon="6.36713">
        <ele>1484.8000488281</ele>
        <time>2021-06-10T09:29:21.000Z</time>
      </trkpt>
      <trkpt lat="44.57496" lon="6.36723">
        <ele>1483.5999755859</ele>
        <time>2021-06-10T09:29:23.000Z</time>
      </trkpt>
      <trkpt lat="44.57489" lon="6.36734">
        <ele>1482.1999511719</ele>
        <time>2021-06-10T09:29:25.000Z</time>
      </trkpt>
      <trkpt lat="44.57479" lon="6.36741">
        <ele>1480.4000244141</ele>
        <time>2021-06-10T09:29:27.000Z</time>
      </trkpt>
      <trkpt lat="44.57473" lon="6.36743">
        <ele>1479.1999511719</ele>
        <time>2021-06-10T09:29:28.000Z</time>
      </trkpt>
      <trkpt lat="44.57468" lon="6.36743">
        <ele>1477.8000488281</ele>
        <time>2021-06-10T09:29:29.000Z</time>
      </trkpt>
      <trkpt lat="44.57463" lon="6.36744">
        <ele>1476.4000244141</ele>
        <time>2021-06-10T09:29:30.000Z</time>
      </trkpt>
      <trkpt lat="44.5746" lon="6.36744">
        <ele>1475.1999511719</ele>
        <time>2021-06-10T09:29:31.000Z</time>
      </trkpt>
      <trkpt lat="44.57456" lon="6.36744">
        <ele>1473.8000488281</ele>
        <time>2021-06-10T09:29:32.000Z</time>
      </trkpt>
      <trkpt lat="44.57454" lon="6.36744">
        <ele>1472.8000488281</ele>
        <time>2021-06-10T09:29:33.000Z</time>
      </trkpt>
      <trkpt lat="44.57448" lon="6.36743">
        <ele>1471.1999511719</ele>
        <time>2021-06-10T09:29:35.000Z</time>
      </trkpt>
      <trkpt lat="44.57443" lon="6.36743">
        <ele>1470.1999511719</ele>
        <time>2021-06-10T09:29:37.000Z</time>
      </trkpt>
      <trkpt lat="44.5744" lon="6.36743">
        <ele>1470</ele>
        <time>2021-06-10T09:29:38.000Z</time>
      </trkpt>
      <trkpt lat="44.57426" lon="6.36754">
        <ele>1469.5999755859</ele>
        <time>2021-06-10T09:29:43.000Z</time>
      </trkpt>
      <trkpt lat="44.57412" lon="6.36763">
        <ele>1469.4000244141</ele>
        <time>2021-06-10T09:29:48.000Z</time>
      </trkpt>
      <trkpt lat="44.57402" lon="6.36769">
        <ele>1469.4000244141</ele>
        <time>2021-06-10T09:29:51.000Z</time>
      </trkpt>
      <trkpt lat="44.57395" lon="6.36773">
        <ele>1469.4000244141</ele>
        <time>2021-06-10T09:29:53.000Z</time>
      </trkpt>
      <trkpt lat="44.57378" lon="6.36776">
        <ele>1469.4000244141</ele>
        <time>2021-06-10T09:29:58.000Z</time>
      </trkpt>
      <trkpt lat="44.57372" lon="6.36776">
        <ele>1469.4000244141</ele>
        <time>2021-06-10T09:30:00.000Z</time>
      </trkpt>
      <trkpt lat="44.57351" lon="6.36781">
        <ele>1469.8000488281</ele>
        <time>2021-06-10T09:30:06.000Z</time>
      </trkpt>
      <trkpt lat="44.57335" lon="6.36796">
        <ele>1471</ele>
        <time>2021-06-10T09:30:12.000Z</time>
      </trkpt>
      <trkpt lat="44.57318" lon="6.36797">
        <ele>1471.4000244141</ele>
        <time>2021-06-10T09:30:17.000Z</time>
      </trkpt>
      <trkpt lat="44.5731" lon="6.36797">
        <ele>1471.4000244141</ele>
        <time>2021-06-10T09:30:20.000Z</time>
      </trkpt>
      <trkpt lat="44.57307" lon="6.36799">
        <ele>1471.4000244141</ele>
        <time>2021-06-10T09:30:21.000Z</time>
      </trkpt>
      <trkpt lat="44.57288" lon="6.36815">
        <ele>1471.1999511719</ele>
        <time>2021-06-10T09:30:25.000Z</time>
      </trkpt>
      <trkpt lat="44.57262" lon="6.36833">
        <ele>1470.4000244141</ele>
        <time>2021-06-10T09:30:29.000Z</time>
      </trkpt>
      <trkpt lat="44.57252" lon="6.36841">
        <ele>1469.1999511719</ele>
        <time>2021-06-10T09:30:31.000Z</time>
      </trkpt>
      <trkpt lat="44.5725" lon="6.36845">
        <ele>1468.4000244141</ele>
        <time>2021-06-10T09:30:32.000Z</time>
      </trkpt>
      <trkpt lat="44.57249" lon="6.36848">
        <ele>1467.4000244141</ele>
        <time>2021-06-10T09:30:33.000Z</time>
      </trkpt>
      <trkpt lat="44.57246" lon="6.36852">
        <ele>1466</ele>
        <time>2021-06-10T09:30:35.000Z</time>
      </trkpt>
      <trkpt lat="44.57243" lon="6.36854">
        <ele>1465.8000488281</ele>
        <time>2021-06-10T09:30:36.000Z</time>
      </trkpt>
      <trkpt lat="44.57228" lon="6.36858">
        <ele>1465.5999755859</ele>
        <time>2021-06-10T09:30:41.000Z</time>
      </trkpt>
      <trkpt lat="44.57225" lon="6.3686">
        <ele>1465.5999755859</ele>
        <time>2021-06-10T09:30:42.000Z</time>
      </trkpt>
      <trkpt lat="44.57212" lon="6.36864">
        <ele>1466</ele>
        <time>2021-06-10T09:30:46.000Z</time>
      </trkpt>
      <trkpt lat="44.57195" lon="6.36866">
        <ele>1466.4000244141</ele>
        <time>2021-06-10T09:30:52.000Z</time>
      </trkpt>
      <trkpt lat="44.57184" lon="6.36865">
        <ele>1466.4000244141</ele>
        <time>2021-06-10T09:30:56.000Z</time>
      </trkpt>
      <trkpt lat="44.57168" lon="6.36867">
        <ele>1466</ele>
        <time>2021-06-10T09:31:00.000Z</time>
      </trkpt>
      <trkpt lat="44.57158" lon="6.36869">
        <ele>1466</ele>
        <time>2021-06-10T09:31:02.000Z</time>
      </trkpt>
      <trkpt lat="44.57149" lon="6.3687">
        <ele>1465.5999755859</ele>
        <time>2021-06-10T09:31:04.000Z</time>
      </trkpt>
      <trkpt lat="44.57135" lon="6.36876">
        <ele>1465.4000244141</ele>
        <time>2021-06-10T09:31:07.000Z</time>
      </trkpt>
      <trkpt lat="44.5713" lon="6.36876">
        <ele>1465.1999511719</ele>
        <time>2021-06-10T09:31:08.000Z</time>
      </trkpt>
      <trkpt lat="44.57117" lon="6.36879">
        <ele>1464.4000244141</ele>
        <time>2021-06-10T09:31:11.000Z</time>
      </trkpt>
      <trkpt lat="44.57113" lon="6.3688">
        <ele>1464.1999511719</ele>
        <time>2021-06-10T09:31:12.000Z</time>
      </trkpt>
      <trkpt lat="44.57079" lon="6.36889">
        <ele>1464</ele>
        <time>2021-06-10T09:31:20.000Z</time>
      </trkpt>
      <trkpt lat="44.57058" lon="6.36901">
        <ele>1464.4000244141</ele>
        <time>2021-06-10T09:31:26.000Z</time>
      </trkpt>
      <trkpt lat="44.57036" lon="6.36918">
        <ele>1464.5999755859</ele>
        <time>2021-06-10T09:31:33.000Z</time>
      </trkpt>
      <trkpt lat="44.57028" lon="6.36923">
        <ele>1464.5999755859</ele>
        <time>2021-06-10T09:31:35.000Z</time>
      </trkpt>
      <trkpt lat="44.5702" lon="6.36932">
        <ele>1464.4000244141</ele>
        <time>2021-06-10T09:31:37.000Z</time>
      </trkpt>
      <trkpt lat="44.57015" lon="6.36935">
        <ele>1464.4000244141</ele>
        <time>2021-06-10T09:31:38.000Z</time>
      </trkpt>
      <trkpt lat="44.57001" lon="6.36939">
        <ele>1464.1999511719</ele>
        <time>2021-06-10T09:31:41.000Z</time>
      </trkpt>
      <trkpt lat="44.56989" lon="6.36933">
        <ele>1462.8000488281</ele>
        <time>2021-06-10T09:31:44.000Z</time>
      </trkpt>
      <trkpt lat="44.56985" lon="6.36931">
        <ele>1461.8000488281</ele>
        <time>2021-06-10T09:31:45.000Z</time>
      </trkpt>
      <trkpt lat="44.56978" lon="6.36928">
        <ele>1460.5999755859</ele>
        <time>2021-06-10T09:31:47.000Z</time>
      </trkpt>
      <trkpt lat="44.56973" lon="6.36924">
        <ele>1459.8000488281</ele>
        <time>2021-06-10T09:31:49.000Z</time>
      </trkpt>
      <trkpt lat="44.56963" lon="6.36916">
        <ele>1458.5999755859</ele>
        <time>2021-06-10T09:31:52.000Z</time>
      </trkpt>
      <trkpt lat="44.56955" lon="6.36913">
        <ele>1458.1999511719</ele>
        <time>2021-06-10T09:31:54.000Z</time>
      </trkpt>
      <trkpt lat="44.56947" lon="6.36912">
        <ele>1457.5999755859</ele>
        <time>2021-06-10T09:31:56.000Z</time>
      </trkpt>
      <trkpt lat="44.56938" lon="6.36912">
        <ele>1457</ele>
        <time>2021-06-10T09:31:58.000Z</time>
      </trkpt>
      <trkpt lat="44.56926" lon="6.36911">
        <ele>1456.5999755859</ele>
        <time>2021-06-10T09:32:00.000Z</time>
      </trkpt>
      <trkpt lat="44.56909" lon="6.36911">
        <ele>1455.4000244141</ele>
        <time>2021-06-10T09:32:03.000Z</time>
      </trkpt>
      <trkpt lat="44.56898" lon="6.36912">
        <ele>1454.1999511719</ele>
        <time>2021-06-10T09:32:05.000Z</time>
      </trkpt>
      <trkpt lat="44.56888" lon="6.36915">
        <ele>1453.1999511719</ele>
        <time>2021-06-10T09:32:07.000Z</time>
      </trkpt>
      <trkpt lat="44.56883" lon="6.36916">
        <ele>1453</ele>
        <time>2021-06-10T09:32:08.000Z</time>
      </trkpt>
      <trkpt lat="44.56873" lon="6.36919">
        <ele>1452</ele>
        <time>2021-06-10T09:32:10.000Z</time>
      </trkpt>
      <trkpt lat="44.56862" lon="6.36921">
        <ele>1451.1999511719</ele>
        <time>2021-06-10T09:32:13.000Z</time>
      </trkpt>
      <trkpt lat="44.56853" lon="6.36922">
        <ele>1450.8000488281</ele>
        <time>2021-06-10T09:32:16.000Z</time>
      </trkpt>
      <trkpt lat="44.56836" lon="6.36923">
        <ele>1449.5999755859</ele>
        <time>2021-06-10T09:32:21.000Z</time>
      </trkpt>
      <trkpt lat="44.56833" lon="6.36923">
        <ele>1449.5999755859</ele>
        <time>2021-06-10T09:32:22.000Z</time>
      </trkpt>
      <trkpt lat="44.56821" lon="6.36923">
        <ele>1448.5999755859</ele>
        <time>2021-06-10T09:32:25.000Z</time>
      </trkpt>
      <trkpt lat="44.56807" lon="6.36926">
        <ele>1447</ele>
        <time>2021-06-10T09:32:28.000Z</time>
      </trkpt>
      <trkpt lat="44.56803" lon="6.36926">
        <ele>1446.4000244141</ele>
        <time>2021-06-10T09:32:29.000Z</time>
      </trkpt>
      <trkpt lat="44.56799" lon="6.36926">
        <ele>1445.8000488281</ele>
        <time>2021-06-10T09:32:30.000Z</time>
      </trkpt>
      <trkpt lat="44.56793" lon="6.36928">
        <ele>1444.5999755859</ele>
        <time>2021-06-10T09:32:32.000Z</time>
      </trkpt>
      <trkpt lat="44.5679" lon="6.36929">
        <ele>1444</ele>
        <time>2021-06-10T09:32:33.000Z</time>
      </trkpt>
      <trkpt lat="44.56786" lon="6.3693">
        <ele>1443.1999511719</ele>
        <time>2021-06-10T09:32:34.000Z</time>
      </trkpt>
      <trkpt lat="44.56775" lon="6.36932">
        <ele>1442</ele>
        <time>2021-06-10T09:32:36.000Z</time>
      </trkpt>
      <trkpt lat="44.56763" lon="6.36933">
        <ele>1440.8000488281</ele>
        <time>2021-06-10T09:32:39.000Z</time>
      </trkpt>
      <trkpt lat="44.56761" lon="6.36933">
        <ele>1440.1999511719</ele>
        <time>2021-06-10T09:32:42.000Z</time>
      </trkpt>
      <trkpt lat="44.56761" lon="6.36933">
        <ele>1439.1999511719</ele>
        <time>2021-06-10T09:32:43.000Z</time>
      </trkpt>
      <trkpt lat="44.5676" lon="6.36933">
        <ele>1438.1999511719</ele>
        <time>2021-06-10T09:32:45.000Z</time>
      </trkpt>
      <trkpt lat="44.56756" lon="6.36934">
        <ele>1438.1999511719</ele>
        <time>2021-06-10T09:32:49.000Z</time>
      </trkpt>
      <trkpt lat="44.56753" lon="6.36934">
        <ele>1438.1999511719</ele>
        <time>2021-06-10T09:32:55.000Z</time>
      </trkpt>
      <trkpt lat="44.56748" lon="6.36935">
        <ele>1438.1999511719</ele>
        <time>2021-06-10T09:33:01.000Z</time>
      </trkpt>
      <trkpt lat="44.56736" lon="6.36935">
        <ele>1438.1999511719</ele>
        <time>2021-06-10T09:33:05.000Z</time>
      </trkpt>
      <trkpt lat="44.56714" lon="6.36931">
        <ele>1438.1999511719</ele>
        <time>2021-06-10T09:33:11.000Z</time>
      </trkpt>
      <trkpt lat="44.567" lon="6.36927">
        <ele>1438</ele>
        <time>2021-06-10T09:33:14.000Z</time>
      </trkpt>
      <trkpt lat="44.56692" lon="6.36922">
        <ele>1437.8000488281</ele>
        <time>2021-06-10T09:33:16.000Z</time>
      </trkpt>
      <trkpt lat="44.56686" lon="6.36916">
        <ele>1437.4000244141</ele>
        <time>2021-06-10T09:33:18.000Z</time>
      </trkpt>
      <trkpt lat="44.56679" lon="6.36906">
        <ele>1436.4000244141</ele>
        <time>2021-06-10T09:33:21.000Z</time>
      </trkpt>
      <trkpt lat="44.56676" lon="6.36903">
        <ele>1436</ele>
        <time>2021-06-10T09:33:22.000Z</time>
      </trkpt>
      <trkpt lat="44.56669" lon="6.36894">
        <ele>1435.4000244141</ele>
        <time>2021-06-10T09:33:24.000Z</time>
      </trkpt>
      <trkpt lat="44.56666" lon="6.36889">
        <ele>1435.4000244141</ele>
        <time>2021-06-10T09:33:25.000Z</time>
      </trkpt>
      <trkpt lat="44.5666" lon="6.3688">
        <ele>1434.8000488281</ele>
        <time>2021-06-10T09:33:27.000Z</time>
      </trkpt>
      <trkpt lat="44.56658" lon="6.36878">
        <ele>1434.5999755859</ele>
        <time>2021-06-10T09:33:28.000Z</time>
      </trkpt>
      <trkpt lat="44.56654" lon="6.36874">
        <ele>1433.8000488281</ele>
        <time>2021-06-10T09:33:30.000Z</time>
      </trkpt>
      <trkpt lat="44.56652" lon="6.36871">
        <ele>1433.4000244141</ele>
        <time>2021-06-10T09:33:31.000Z</time>
      </trkpt>
      <trkpt lat="44.56648" lon="6.36867">
        <ele>1432.8000488281</ele>
        <time>2021-06-10T09:33:32.000Z</time>
      </trkpt>
      <trkpt lat="44.5664" lon="6.36857">
        <ele>1431.8000488281</ele>
        <time>2021-06-10T09:33:34.000Z</time>
      </trkpt>
      <trkpt lat="44.56635" lon="6.36853">
        <ele>1431.5999755859</ele>
        <time>2021-06-10T09:33:35.000Z</time>
      </trkpt>
      <trkpt lat="44.56625" lon="6.36843">
        <ele>1431.1999511719</ele>
        <time>2021-06-10T09:33:37.000Z</time>
      </trkpt>
      <trkpt lat="44.5662" lon="6.36838">
        <ele>1431</ele>
        <time>2021-06-10T09:33:38.000Z</time>
      </trkpt>
      <trkpt lat="44.56615" lon="6.36833">
        <ele>1430.4000244141</ele>
        <time>2021-06-10T09:33:39.000Z</time>
      </trkpt>
      <trkpt lat="44.5661" lon="6.36828">
        <ele>1429.8000488281</ele>
        <time>2021-06-10T09:33:40.000Z</time>
      </trkpt>
      <trkpt lat="44.56605" lon="6.36824">
        <ele>1429.1999511719</ele>
        <time>2021-06-10T09:33:41.000Z</time>
      </trkpt>
      <trkpt lat="44.566" lon="6.36819">
        <ele>1428.1999511719</ele>
        <time>2021-06-10T09:33:42.000Z</time>
      </trkpt>
      <trkpt lat="44.56589" lon="6.3681">
        <ele>1426.5999755859</ele>
        <time>2021-06-10T09:33:44.000Z</time>
      </trkpt>
      <trkpt lat="44.56583" lon="6.36806">
        <ele>1426.1999511719</ele>
        <time>2021-06-10T09:33:45.000Z</time>
      </trkpt>
      <trkpt lat="44.56577" lon="6.36802">
        <ele>1425.5999755859</ele>
        <time>2021-06-10T09:33:46.000Z</time>
      </trkpt>
      <trkpt lat="44.56561" lon="6.36791">
        <ele>1424.4000244141</ele>
        <time>2021-06-10T09:33:49.000Z</time>
      </trkpt>
      <trkpt lat="44.56557" lon="6.36789">
        <ele>1424.1999511719</ele>
        <time>2021-06-10T09:33:50.000Z</time>
      </trkpt>
      <trkpt lat="44.56552" lon="6.36785">
        <ele>1424</ele>
        <time>2021-06-10T09:33:51.000Z</time>
      </trkpt>
      <trkpt lat="44.56541" lon="6.36778">
        <ele>1423</ele>
        <time>2021-06-10T09:33:54.000Z</time>
      </trkpt>
      <trkpt lat="44.56529" lon="6.36769">
        <ele>1422.1999511719</ele>
        <time>2021-06-10T09:33:59.000Z</time>
      </trkpt>
      <trkpt lat="44.56526" lon="6.36767">
        <ele>1422</ele>
        <time>2021-06-10T09:34:00.000Z</time>
      </trkpt>
      <trkpt lat="44.56513" lon="6.36756">
        <ele>1422</ele>
        <time>2021-06-10T09:34:04.000Z</time>
      </trkpt>
      <trkpt lat="44.56509" lon="6.36752">
        <ele>1422</ele>
        <time>2021-06-10T09:34:05.000Z</time>
      </trkpt>
      <trkpt lat="44.56484" lon="6.36731">
        <ele>1422.1999511719</ele>
        <time>2021-06-10T09:34:11.000Z</time>
      </trkpt>
      <trkpt lat="44.56469" lon="6.36713">
        <ele>1421.4000244141</ele>
        <time>2021-06-10T09:34:16.000Z</time>
      </trkpt>
      <trkpt lat="44.56466" lon="6.36709">
        <ele>1421</ele>
        <time>2021-06-10T09:34:17.000Z</time>
      </trkpt>
      <trkpt lat="44.56458" lon="6.36705">
        <ele>1420.8000488281</ele>
        <time>2021-06-10T09:34:19.000Z</time>
      </trkpt>
      <trkpt lat="44.56441" lon="6.36689">
        <ele>1420.4000244141</ele>
        <time>2021-06-10T09:34:23.000Z</time>
      </trkpt>
      <trkpt lat="44.56437" lon="6.36683">
        <ele>1420.4000244141</ele>
        <time>2021-06-10T09:34:24.000Z</time>
      </trkpt>
      <trkpt lat="44.56432" lon="6.36676">
        <ele>1420.1999511719</ele>
        <time>2021-06-10T09:34:25.000Z</time>
      </trkpt>
      <trkpt lat="44.56426" lon="6.36669">
        <ele>1419.8000488281</ele>
        <time>2021-06-10T09:34:26.000Z</time>
      </trkpt>
      <trkpt lat="44.5642" lon="6.36662">
        <ele>1419.5999755859</ele>
        <time>2021-06-10T09:34:27.000Z</time>
      </trkpt>
      <trkpt lat="44.56406" lon="6.36643">
        <ele>1418.5999755859</ele>
        <time>2021-06-10T09:34:30.000Z</time>
      </trkpt>
      <trkpt lat="44.56402" lon="6.36637">
        <ele>1418.1999511719</ele>
        <time>2021-06-10T09:34:31.000Z</time>
      </trkpt>
      <trkpt lat="44.56397" lon="6.36632">
        <ele>1417.8000488281</ele>
        <time>2021-06-10T09:34:32.000Z</time>
      </trkpt>
      <trkpt lat="44.56393" lon="6.36628">
        <ele>1417.1999511719</ele>
        <time>2021-06-10T09:34:33.000Z</time>
      </trkpt>
      <trkpt lat="44.56385" lon="6.3662">
        <ele>1416</ele>
        <time>2021-06-10T09:34:35.000Z</time>
      </trkpt>
      <trkpt lat="44.56372" lon="6.3661">
        <ele>1414.8000488281</ele>
        <time>2021-06-10T09:34:38.000Z</time>
      </trkpt>
      <trkpt lat="44.5636" lon="6.36603">
        <ele>1413.4000244141</ele>
        <time>2021-06-10T09:34:40.000Z</time>
      </trkpt>
      <trkpt lat="44.56349" lon="6.36599">
        <ele>1413</ele>
        <time>2021-06-10T09:34:42.000Z</time>
      </trkpt>
      <trkpt lat="44.56343" lon="6.36597">
        <ele>1412.5999755859</ele>
        <time>2021-06-10T09:34:43.000Z</time>
      </trkpt>
      <trkpt lat="44.56337" lon="6.36594">
        <ele>1412.1999511719</ele>
        <time>2021-06-10T09:34:44.000Z</time>
      </trkpt>
      <trkpt lat="44.56326" lon="6.36587">
        <ele>1411</ele>
        <time>2021-06-10T09:34:46.000Z</time>
      </trkpt>
      <trkpt lat="44.56317" lon="6.36582">
        <ele>1410.1999511719</ele>
        <time>2021-06-10T09:34:48.000Z</time>
      </trkpt>
      <trkpt lat="44.56301" lon="6.36573">
        <ele>1410</ele>
        <time>2021-06-10T09:34:51.000Z</time>
      </trkpt>
      <trkpt lat="44.56294" lon="6.3657">
        <ele>1409.8000488281</ele>
        <time>2021-06-10T09:34:52.000Z</time>
      </trkpt>
      <trkpt lat="44.56289" lon="6.36568">
        <ele>1409.8000488281</ele>
        <time>2021-06-10T09:34:53.000Z</time>
      </trkpt>
      <trkpt lat="44.56273" lon="6.36566">
        <ele>1409.1999511719</ele>
        <time>2021-06-10T09:34:56.000Z</time>
      </trkpt>
      <trkpt lat="44.56267" lon="6.36566">
        <ele>1408.8000488281</ele>
        <time>2021-06-10T09:34:57.000Z</time>
      </trkpt>
      <trkpt lat="44.56262" lon="6.36565">
        <ele>1408.1999511719</ele>
        <time>2021-06-10T09:34:58.000Z</time>
      </trkpt>
      <trkpt lat="44.56257" lon="6.36562">
        <ele>1407.5999755859</ele>
        <time>2021-06-10T09:34:59.000Z</time>
      </trkpt>
      <trkpt lat="44.56254" lon="6.3656">
        <ele>1406.8000488281</ele>
        <time>2021-06-10T09:35:00.000Z</time>
      </trkpt>
      <trkpt lat="44.56251" lon="6.36556">
        <ele>1406.1999511719</ele>
        <time>2021-06-10T09:35:01.000Z</time>
      </trkpt>
      <trkpt lat="44.56244" lon="6.36553">
        <ele>1405.1999511719</ele>
        <time>2021-06-10T09:35:03.000Z</time>
      </trkpt>
      <trkpt lat="44.56239" lon="6.36551">
        <ele>1404.8000488281</ele>
        <time>2021-06-10T09:35:04.000Z</time>
      </trkpt>
      <trkpt lat="44.56235" lon="6.36549">
        <ele>1404</ele>
        <time>2021-06-10T09:35:05.000Z</time>
      </trkpt>
      <trkpt lat="44.56225" lon="6.36543">
        <ele>1402.8000488281</ele>
        <time>2021-06-10T09:35:07.000Z</time>
      </trkpt>
      <trkpt lat="44.56221" lon="6.36541">
        <ele>1401.4000244141</ele>
        <time>2021-06-10T09:35:08.000Z</time>
      </trkpt>
      <trkpt lat="44.56214" lon="6.36535">
        <ele>1400.4000244141</ele>
        <time>2021-06-10T09:35:10.000Z</time>
      </trkpt>
      <trkpt lat="44.56207" lon="6.36526">
        <ele>1398.8000488281</ele>
        <time>2021-06-10T09:35:12.000Z</time>
      </trkpt>
      <trkpt lat="44.56203" lon="6.36521">
        <ele>1398</ele>
        <time>2021-06-10T09:35:13.000Z</time>
      </trkpt>
      <trkpt lat="44.562" lon="6.36516">
        <ele>1397.4000244141</ele>
        <time>2021-06-10T09:35:14.000Z</time>
      </trkpt>
      <trkpt lat="44.56191" lon="6.36508">
        <ele>1396</ele>
        <time>2021-06-10T09:35:16.000Z</time>
      </trkpt>
      <trkpt lat="44.56185" lon="6.36504">
        <ele>1395.4000244141</ele>
        <time>2021-06-10T09:35:17.000Z</time>
      </trkpt>
      <trkpt lat="44.56179" lon="6.365">
        <ele>1394.8000488281</ele>
        <time>2021-06-10T09:35:18.000Z</time>
      </trkpt>
      <trkpt lat="44.5617" lon="6.36489">
        <ele>1393.4000244141</ele>
        <time>2021-06-10T09:35:20.000Z</time>
      </trkpt>
      <trkpt lat="44.56165" lon="6.3648">
        <ele>1391.8000488281</ele>
        <time>2021-06-10T09:35:22.000Z</time>
      </trkpt>
      <trkpt lat="44.56164" lon="6.36478">
        <ele>1391.1999511719</ele>
        <time>2021-06-10T09:35:23.000Z</time>
      </trkpt>
      <trkpt lat="44.56163" lon="6.36476">
        <ele>1390.5999755859</ele>
        <time>2021-06-10T09:35:24.000Z</time>
      </trkpt>
      <trkpt lat="44.56161" lon="6.36459">
        <ele>1390</ele>
        <time>2021-06-10T09:35:31.000Z</time>
      </trkpt>
      <trkpt lat="44.56158" lon="6.36443">
        <ele>1391.8000488281</ele>
        <time>2021-06-10T09:35:39.000Z</time>
      </trkpt>
      <trkpt lat="44.56156" lon="6.36437">
        <ele>1393</ele>
        <time>2021-06-10T09:35:41.000Z</time>
      </trkpt>
      <trkpt lat="44.56154" lon="6.36432">
        <ele>1394.5999755859</ele>
        <time>2021-06-10T09:35:43.000Z</time>
      </trkpt>
      <trkpt lat="44.56152" lon="6.36426">
        <ele>1395.8000488281</ele>
        <time>2021-06-10T09:35:45.000Z</time>
      </trkpt>
      <trkpt lat="44.56151" lon="6.36421">
        <ele>1397</ele>
        <time>2021-06-10T09:35:47.000Z</time>
      </trkpt>
      <trkpt lat="44.56148" lon="6.36415">
        <ele>1398.4000244141</ele>
        <time>2021-06-10T09:35:50.000Z</time>
      </trkpt>
      <trkpt lat="44.56145" lon="6.36409">
        <ele>1399.4000244141</ele>
        <time>2021-06-10T09:35:53.000Z</time>
      </trkpt>
      <trkpt lat="44.56144" lon="6.36407">
        <ele>1399.5999755859</ele>
        <time>2021-06-10T09:35:54.000Z</time>
      </trkpt>
      <trkpt lat="44.56137" lon="6.36397">
        <ele>1400.8000488281</ele>
        <time>2021-06-10T09:35:58.000Z</time>
      </trkpt>
      <trkpt lat="44.56133" lon="6.36394">
        <ele>1401.1999511719</ele>
        <time>2021-06-10T09:36:00.000Z</time>
      </trkpt>
      <trkpt lat="44.56128" lon="6.3639">
        <ele>1401.8000488281</ele>
        <time>2021-06-10T09:36:02.000Z</time>
      </trkpt>
      <trkpt lat="44.56117" lon="6.36377">
        <ele>1402.5999755859</ele>
        <time>2021-06-10T09:36:08.000Z</time>
      </trkpt>
      <trkpt lat="44.56111" lon="6.36365">
        <ele>1402.8000488281</ele>
        <time>2021-06-10T09:36:12.000Z</time>
      </trkpt>
      <trkpt lat="44.5611" lon="6.36358">
        <ele>1402.8000488281</ele>
        <time>2021-06-10T09:36:14.000Z</time>
      </trkpt>
      <trkpt lat="44.56107" lon="6.36339">
        <ele>1403</ele>
        <time>2021-06-10T09:36:20.000Z</time>
      </trkpt>
      <trkpt lat="44.56106" lon="6.3632">
        <ele>1403.1999511719</ele>
        <time>2021-06-10T09:36:25.000Z</time>
      </trkpt>
      <trkpt lat="44.56109" lon="6.36308">
        <ele>1403.8000488281</ele>
        <time>2021-06-10T09:36:31.000Z</time>
      </trkpt>
      <trkpt lat="44.56109" lon="6.36305">
        <ele>1403.8000488281</ele>
        <time>2021-06-10T09:36:32.000Z</time>
      </trkpt>
      <trkpt lat="44.56111" lon="6.36297">
        <ele>1404.5999755859</ele>
        <time>2021-06-10T09:36:36.000Z</time>
      </trkpt>
      <trkpt lat="44.56111" lon="6.36295">
        <ele>1405.1999511719</ele>
        <time>2021-06-10T09:36:37.000Z</time>
      </trkpt>
      <trkpt lat="44.56111" lon="6.3629">
        <ele>1406.4000244141</ele>
        <time>2021-06-10T09:36:39.000Z</time>
      </trkpt>
      <trkpt lat="44.56111" lon="6.36283">
        <ele>1407.5999755859</ele>
        <time>2021-06-10T09:36:42.000Z</time>
      </trkpt>
      <trkpt lat="44.56112" lon="6.36275">
        <ele>1408.8000488281</ele>
        <time>2021-06-10T09:36:45.000Z</time>
      </trkpt>
      <trkpt lat="44.56113" lon="6.3627">
        <ele>1409.5999755859</ele>
        <time>2021-06-10T09:36:47.000Z</time>
      </trkpt>
      <trkpt lat="44.56114" lon="6.36266">
        <ele>1410</ele>
        <time>2021-06-10T09:36:48.000Z</time>
      </trkpt>
      <trkpt lat="44.56114" lon="6.36252">
        <ele>1411.1999511719</ele>
        <time>2021-06-10T09:36:52.000Z</time>
      </trkpt>
      <trkpt lat="44.56114" lon="6.36249">
        <ele>1411.4000244141</ele>
        <time>2021-06-10T09:36:53.000Z</time>
      </trkpt>
      <trkpt lat="44.56116" lon="6.36235">
        <ele>1412.1999511719</ele>
        <time>2021-06-10T09:36:57.000Z</time>
      </trkpt>
      <trkpt lat="44.56119" lon="6.36227">
        <ele>1412.5999755859</ele>
        <time>2021-06-10T09:36:59.000Z</time>
      </trkpt>
      <trkpt lat="44.56127" lon="6.36209">
        <ele>1413.1999511719</ele>
        <time>2021-06-10T09:37:05.000Z</time>
      </trkpt>
      <trkpt lat="44.56136" lon="6.3619">
        <ele>1414.4000244141</ele>
        <time>2021-06-10T09:37:13.000Z</time>
      </trkpt>
      <trkpt lat="44.56137" lon="6.36188">
        <ele>1414.8000488281</ele>
        <time>2021-06-10T09:37:14.000Z</time>
      </trkpt>
      <trkpt lat="44.5614" lon="6.36183">
        <ele>1415.8000488281</ele>
        <time>2021-06-10T09:37:16.000Z</time>
      </trkpt>
      <trkpt lat="44.56142" lon="6.36179">
        <ele>1417</ele>
        <time>2021-06-10T09:37:18.000Z</time>
      </trkpt>
      <trkpt lat="44.56144" lon="6.36174">
        <ele>1418.1999511719</ele>
        <time>2021-06-10T09:37:20.000Z</time>
      </trkpt>
      <trkpt lat="44.56145" lon="6.36171">
        <ele>1418.8000488281</ele>
        <time>2021-06-10T09:37:21.000Z</time>
      </trkpt>
      <trkpt lat="44.56147" lon="6.36166">
        <ele>1419.4000244141</ele>
        <time>2021-06-10T09:37:23.000Z</time>
      </trkpt>
      <trkpt lat="44.56148" lon="6.36157">
        <ele>1420.8000488281</ele>
        <time>2021-06-10T09:37:26.000Z</time>
      </trkpt>
      <trkpt lat="44.56148" lon="6.36154">
        <ele>1421.1999511719</ele>
        <time>2021-06-10T09:37:27.000Z</time>
      </trkpt>
      <trkpt lat="44.56147" lon="6.36148">
        <ele>1422</ele>
        <time>2021-06-10T09:37:29.000Z</time>
      </trkpt>
      <trkpt lat="44.56145" lon="6.36137">
        <ele>1422.5999755859</ele>
        <time>2021-06-10T09:37:32.000Z</time>
      </trkpt>
      <trkpt lat="44.56145" lon="6.36127">
        <ele>1423.1999511719</ele>
        <time>2021-06-10T09:37:35.000Z</time>
      </trkpt>
      <trkpt lat="44.56146" lon="6.3612">
        <ele>1423.8000488281</ele>
        <time>2021-06-10T09:37:38.000Z</time>
      </trkpt>
      <trkpt lat="44.56147" lon="6.36116">
        <ele>1424.1999511719</ele>
        <time>2021-06-10T09:37:40.000Z</time>
      </trkpt>
      <trkpt lat="44.56148" lon="6.36105">
        <ele>1424.8000488281</ele>
        <time>2021-06-10T09:37:43.000Z</time>
      </trkpt>
      <trkpt lat="44.56142" lon="6.36075">
        <ele>1425</ele>
        <time>2021-06-10T09:37:48.000Z</time>
      </trkpt>
      <trkpt lat="44.56142" lon="6.36068">
        <ele>1425</ele>
        <time>2021-06-10T09:37:49.000Z</time>
      </trkpt>
      <trkpt lat="44.56142" lon="6.3605">
        <ele>1425</ele>
        <time>2021-06-10T09:37:51.000Z</time>
      </trkpt>
      <trkpt lat="44.56142" lon="6.36039">
        <ele>1425</ele>
        <time>2021-06-10T09:37:52.000Z</time>
      </trkpt>
      <trkpt lat="44.56138" lon="6.3601">
        <ele>1424.1999511719</ele>
        <time>2021-06-10T09:37:54.000Z</time>
      </trkpt>
      <trkpt lat="44.56135" lon="6.35984">
        <ele>1422.4000244141</ele>
        <time>2021-06-10T09:37:56.000Z</time>
      </trkpt>
      <trkpt lat="44.56136" lon="6.35974">
        <ele>1421.1999511719</ele>
        <time>2021-06-10T09:37:57.000Z</time>
      </trkpt>
      <trkpt lat="44.56135" lon="6.35966">
        <ele>1419.5999755859</ele>
        <time>2021-06-10T09:37:58.000Z</time>
      </trkpt>
      <trkpt lat="44.56134" lon="6.3596">
        <ele>1417.8000488281</ele>
        <time>2021-06-10T09:37:59.000Z</time>
      </trkpt>
      <trkpt lat="44.56133" lon="6.35953">
        <ele>1416</ele>
        <time>2021-06-10T09:38:00.000Z</time>
      </trkpt>
      <trkpt lat="44.56131" lon="6.35948">
        <ele>1414.1999511719</ele>
        <time>2021-06-10T09:38:01.000Z</time>
      </trkpt>
      <trkpt lat="44.56128" lon="6.35943">
        <ele>1412.8000488281</ele>
        <time>2021-06-10T09:38:02.000Z</time>
      </trkpt>
      <trkpt lat="44.56124" lon="6.35938">
        <ele>1410.5999755859</ele>
        <time>2021-06-10T09:38:03.000Z</time>
      </trkpt>
      <trkpt lat="44.5612" lon="6.35935">
        <ele>1410</ele>
        <time>2021-06-10T09:38:04.000Z</time>
      </trkpt>
      <trkpt lat="44.56109" lon="6.3593">
        <ele>1409.1999511719</ele>
        <time>2021-06-10T09:38:06.000Z</time>
      </trkpt>
      <trkpt lat="44.56099" lon="6.35925">
        <ele>1408</ele>
        <time>2021-06-10T09:38:08.000Z</time>
      </trkpt>
      <trkpt lat="44.56094" lon="6.35922">
        <ele>1407.1999511719</ele>
        <time>2021-06-10T09:38:09.000Z</time>
      </trkpt>
      <trkpt lat="44.5609" lon="6.35918">
        <ele>1406.1999511719</ele>
        <time>2021-06-10T09:38:10.000Z</time>
      </trkpt>
      <trkpt lat="44.56085" lon="6.35914">
        <ele>1405.1999511719</ele>
        <time>2021-06-10T09:38:11.000Z</time>
      </trkpt>
      <trkpt lat="44.56081" lon="6.3591">
        <ele>1404.1999511719</ele>
        <time>2021-06-10T09:38:12.000Z</time>
      </trkpt>
      <trkpt lat="44.56074" lon="6.35899">
        <ele>1402.5999755859</ele>
        <time>2021-06-10T09:38:14.000Z</time>
      </trkpt>
      <trkpt lat="44.56069" lon="6.35888">
        <ele>1400.8000488281</ele>
        <time>2021-06-10T09:38:16.000Z</time>
      </trkpt>
      <trkpt lat="44.56066" lon="6.35878">
        <ele>1398.8000488281</ele>
        <time>2021-06-10T09:38:18.000Z</time>
      </trkpt>
      <trkpt lat="44.56065" lon="6.35873">
        <ele>1397.8000488281</ele>
        <time>2021-06-10T09:38:19.000Z</time>
      </trkpt>
      <trkpt lat="44.56065" lon="6.35869">
        <ele>1396.5999755859</ele>
        <time>2021-06-10T09:38:20.000Z</time>
      </trkpt>
      <trkpt lat="44.56065" lon="6.3586">
        <ele>1395.1999511719</ele>
        <time>2021-06-10T09:38:22.000Z</time>
      </trkpt>
      <trkpt lat="44.56066" lon="6.35857">
        <ele>1394.5999755859</ele>
        <time>2021-06-10T09:38:23.000Z</time>
      </trkpt>
      <trkpt lat="44.56066" lon="6.35853">
        <ele>1394.1999511719</ele>
        <time>2021-06-10T09:38:24.000Z</time>
      </trkpt>
      <trkpt lat="44.56066" lon="6.35849">
        <ele>1394</ele>
        <time>2021-06-10T09:38:25.000Z</time>
      </trkpt>
      <trkpt lat="44.56068" lon="6.35828">
        <ele>1393.8000488281</ele>
        <time>2021-06-10T09:38:30.000Z</time>
      </trkpt>
      <trkpt lat="44.56065" lon="6.35793">
        <ele>1394</ele>
        <time>2021-06-10T09:38:38.000Z</time>
      </trkpt>
      <trkpt lat="44.56061" lon="6.35767">
        <ele>1394.1999511719</ele>
        <time>2021-06-10T09:38:44.000Z</time>
      </trkpt>
      <trkpt lat="44.5605" lon="6.35751">
        <ele>1395</ele>
        <time>2021-06-10T09:38:50.000Z</time>
      </trkpt>
      <trkpt lat="44.56048" lon="6.35749">
        <ele>1395.1999511719</ele>
        <time>2021-06-10T09:38:51.000Z</time>
      </trkpt>
      <trkpt lat="44.56038" lon="6.35744">
        <ele>1395.8000488281</ele>
        <time>2021-06-10T09:38:55.000Z</time>
      </trkpt>
      <trkpt lat="44.56036" lon="6.35741">
        <ele>1396</ele>
        <time>2021-06-10T09:38:56.000Z</time>
      </trkpt>
      <trkpt lat="44.56035" lon="6.35738">
        <ele>1396.1999511719</ele>
        <time>2021-06-10T09:38:57.000Z</time>
      </trkpt>
      <trkpt lat="44.56033" lon="6.35729">
        <ele>1396.4000244141</ele>
        <time>2021-06-10T09:38:59.000Z</time>
      </trkpt>
      <trkpt lat="44.56033" lon="6.35719">
        <ele>1396.8000488281</ele>
        <time>2021-06-10T09:39:01.000Z</time>
      </trkpt>
      <trkpt lat="44.56034" lon="6.35705">
        <ele>1396.8000488281</ele>
        <time>2021-06-10T09:39:04.000Z</time>
      </trkpt>
      <trkpt lat="44.56037" lon="6.35681">
        <ele>1396.8000488281</ele>
        <time>2021-06-10T09:39:09.000Z</time>
      </trkpt>
      <trkpt lat="44.56047" lon="6.35651">
        <ele>1396.8000488281</ele>
        <time>2021-06-10T09:39:15.000Z</time>
      </trkpt>
      <trkpt lat="44.56046" lon="6.35617">
        <ele>1396.4000244141</ele>
        <time>2021-06-10T09:39:21.000Z</time>
      </trkpt>
      <trkpt lat="44.56047" lon="6.356">
        <ele>1395.8000488281</ele>
        <time>2021-06-10T09:39:25.000Z</time>
      </trkpt>
      <trkpt lat="44.56046" lon="6.35598">
        <ele>1395.1999511719</ele>
        <time>2021-06-10T09:39:31.000Z</time>
      </trkpt>
      <trkpt lat="44.56046" lon="6.35598">
        <ele>1395.1999511719</ele>
        <time>2021-06-10T09:39:46.000Z</time>
      </trkpt>
      <trkpt lat="44.56046" lon="6.35597">
        <ele>1395.1999511719</ele>
        <time>2021-06-10T09:40:01.000Z</time>
      </trkpt>
      <trkpt lat="44.56046" lon="6.35582">
        <ele>1395.4000244141</ele>
        <time>2021-06-10T09:40:06.000Z</time>
      </trkpt>
      <trkpt lat="44.56044" lon="6.35556">
        <ele>1395.5999755859</ele>
        <time>2021-06-10T09:40:13.000Z</time>
      </trkpt>
      <trkpt lat="44.56043" lon="6.35528">
        <ele>1396.1999511719</ele>
        <time>2021-06-10T09:40:20.000Z</time>
      </trkpt>
      <trkpt lat="44.56043" lon="6.35524">
        <ele>1396.4000244141</ele>
        <time>2021-06-10T09:40:21.000Z</time>
      </trkpt>
      <trkpt lat="44.56045" lon="6.35499">
        <ele>1397.4000244141</ele>
        <time>2021-06-10T09:40:27.000Z</time>
      </trkpt>
      <trkpt lat="44.56046" lon="6.35495">
        <ele>1397.5999755859</ele>
        <time>2021-06-10T09:40:28.000Z</time>
      </trkpt>
      <trkpt lat="44.56049" lon="6.35465">
        <ele>1397.8000488281</ele>
        <time>2021-06-10T09:40:34.000Z</time>
      </trkpt>
      <trkpt lat="44.56054" lon="6.35432">
        <ele>1398</ele>
        <time>2021-06-10T09:40:40.000Z</time>
      </trkpt>
      <trkpt lat="44.56057" lon="6.35408">
        <ele>1398.4000244141</ele>
        <time>2021-06-10T09:40:45.000Z</time>
      </trkpt>
      <trkpt lat="44.56057" lon="6.35403">
        <ele>1398.5999755859</ele>
        <time>2021-06-10T09:40:46.000Z</time>
      </trkpt>
      <trkpt lat="44.56057" lon="6.3538">
        <ele>1399.1999511719</ele>
        <time>2021-06-10T09:40:50.000Z</time>
      </trkpt>
      <trkpt lat="44.56058" lon="6.35365">
        <ele>1399.1999511719</ele>
        <time>2021-06-10T09:40:52.000Z</time>
      </trkpt>
      <trkpt lat="44.56057" lon="6.35349">
        <ele>1399.1999511719</ele>
        <time>2021-06-10T09:40:54.000Z</time>
      </trkpt>
      <trkpt lat="44.56049" lon="6.35326">
        <ele>1398.8000488281</ele>
        <time>2021-06-10T09:40:57.000Z</time>
      </trkpt>
      <trkpt lat="44.56046" lon="6.35318">
        <ele>1398.4000244141</ele>
        <time>2021-06-10T09:40:58.000Z</time>
      </trkpt>
      <trkpt lat="44.56041" lon="6.35314">
        <ele>1397</ele>
        <time>2021-06-10T09:41:00.000Z</time>
      </trkpt>
      <trkpt lat="44.56038" lon="6.35316">
        <ele>1396.1999511719</ele>
        <time>2021-06-10T09:41:01.000Z</time>
      </trkpt>
      <trkpt lat="44.56036" lon="6.3532">
        <ele>1395.4000244141</ele>
        <time>2021-06-10T09:41:02.000Z</time>
      </trkpt>
      <trkpt lat="44.56032" lon="6.3533">
        <ele>1394.1999511719</ele>
        <time>2021-06-10T09:41:04.000Z</time>
      </trkpt>
      <trkpt lat="44.56032" lon="6.35337">
        <ele>1394</ele>
        <time>2021-06-10T09:41:05.000Z</time>
      </trkpt>
      <trkpt lat="44.5603" lon="6.3535">
        <ele>1393.4000244141</ele>
        <time>2021-06-10T09:41:07.000Z</time>
      </trkpt>
      <trkpt lat="44.56029" lon="6.35356">
        <ele>1393.4000244141</ele>
        <time>2021-06-10T09:41:08.000Z</time>
      </trkpt>
      <trkpt lat="44.56026" lon="6.35359">
        <ele>1392.8000488281</ele>
        <time>2021-06-10T09:41:09.000Z</time>
      </trkpt>
      <trkpt lat="44.56018" lon="6.35358">
        <ele>1392</ele>
        <time>2021-06-10T09:41:11.000Z</time>
      </trkpt>
      <trkpt lat="44.56015" lon="6.35353">
        <ele>1391.4000244141</ele>
        <time>2021-06-10T09:41:12.000Z</time>
      </trkpt>
      <trkpt lat="44.56013" lon="6.35346">
        <ele>1390.5999755859</ele>
        <time>2021-06-10T09:41:13.000Z</time>
      </trkpt>
      <trkpt lat="44.56012" lon="6.35329">
        <ele>1388.8000488281</ele>
        <time>2021-06-10T09:41:15.000Z</time>
      </trkpt>
      <trkpt lat="44.56012" lon="6.3532">
        <ele>1388</ele>
        <time>2021-06-10T09:41:16.000Z</time>
      </trkpt>
      <trkpt lat="44.56011" lon="6.35309">
        <ele>1387.4000244141</ele>
        <time>2021-06-10T09:41:17.000Z</time>
      </trkpt>
      <trkpt lat="44.56009" lon="6.35289">
        <ele>1386.1999511719</ele>
        <time>2021-06-10T09:41:19.000Z</time>
      </trkpt>
      <trkpt lat="44.56006" lon="6.35281">
        <ele>1385</ele>
        <time>2021-06-10T09:41:21.000Z</time>
      </trkpt>
      <trkpt lat="44.56004" lon="6.35277">
        <ele>1383.5999755859</ele>
        <time>2021-06-10T09:41:23.000Z</time>
      </trkpt>
      <trkpt lat="44.56003" lon="6.35275">
        <ele>1381</ele>
        <time>2021-06-10T09:41:25.000Z</time>
      </trkpt>
      <trkpt lat="44.56003" lon="6.35275">
        <ele>1379.8000488281</ele>
        <time>2021-06-10T09:41:26.000Z</time>
      </trkpt>
      <trkpt lat="44.56002" lon="6.35273">
        <ele>1378.1999511719</ele>
        <time>2021-06-10T09:41:28.000Z</time>
      </trkpt>
      <trkpt lat="44.56001" lon="6.35271">
        <ele>1377</ele>
        <time>2021-06-10T09:41:31.000Z</time>
      </trkpt>
      <trkpt lat="44.56" lon="6.35271">
        <ele>1376.4000244141</ele>
        <time>2021-06-10T09:41:33.000Z</time>
      </trkpt>
      <trkpt lat="44.55998" lon="6.35265">
        <ele>1376</ele>
        <time>2021-06-10T09:41:36.000Z</time>
      </trkpt>
      <trkpt lat="44.55999" lon="6.35258">
        <ele>1376</ele>
        <time>2021-06-10T09:41:38.000Z</time>
      </trkpt>
      <trkpt lat="44.56001" lon="6.35244">
        <ele>1376</ele>
        <time>2021-06-10T09:41:42.000Z</time>
      </trkpt>
      <trkpt lat="44.56002" lon="6.35221">
        <ele>1376.1999511719</ele>
        <time>2021-06-10T09:41:49.000Z</time>
      </trkpt>
      <trkpt lat="44.56003" lon="6.35197">
        <ele>1378</ele>
        <time>2021-06-10T09:41:55.000Z</time>
      </trkpt>
      <trkpt lat="44.56004" lon="6.35189">
        <ele>1378.4000244141</ele>
        <time>2021-06-10T09:41:57.000Z</time>
      </trkpt>
      <trkpt lat="44.56006" lon="6.35182">
        <ele>1379</ele>
        <time>2021-06-10T09:41:59.000Z</time>
      </trkpt>
      <trkpt lat="44.56012" lon="6.35166">
        <ele>1380</ele>
        <time>2021-06-10T09:42:04.000Z</time>
      </trkpt>
      <trkpt lat="44.56014" lon="6.35164">
        <ele>1380.1999511719</ele>
        <time>2021-06-10T09:42:05.000Z</time>
      </trkpt>
      <trkpt lat="44.56026" lon="6.3515">
        <ele>1381</ele>
        <time>2021-06-10T09:42:11.000Z</time>
      </trkpt>
      <trkpt lat="44.56031" lon="6.35146">
        <ele>1381.1999511719</ele>
        <time>2021-06-10T09:42:14.000Z</time>
      </trkpt>
      <trkpt lat="44.56037" lon="6.35143">
        <ele>1381.5999755859</ele>
        <time>2021-06-10T09:42:17.000Z</time>
      </trkpt>
      <trkpt lat="44.56048" lon="6.35135">
        <ele>1382.4000244141</ele>
        <time>2021-06-10T09:42:22.000Z</time>
      </trkpt>
      <trkpt lat="44.56052" lon="6.35131">
        <ele>1382.5999755859</ele>
        <time>2021-06-10T09:42:24.000Z</time>
      </trkpt>
      <trkpt lat="44.5606" lon="6.3512">
        <ele>1383.4000244141</ele>
        <time>2021-06-10T09:42:29.000Z</time>
      </trkpt>
      <trkpt lat="44.56062" lon="6.35118">
        <ele>1383.4000244141</ele>
        <time>2021-06-10T09:42:30.000Z</time>
      </trkpt>
      <trkpt lat="44.56063" lon="6.35114">
        <ele>1383.4000244141</ele>
        <time>2021-06-10T09:42:31.000Z</time>
      </trkpt>
      <trkpt lat="44.56062" lon="6.35107">
        <ele>1383.4000244141</ele>
        <time>2021-06-10T09:42:33.000Z</time>
      </trkpt>
      <trkpt lat="44.56057" lon="6.35104">
        <ele>1383.4000244141</ele>
        <time>2021-06-10T09:42:37.000Z</time>
      </trkpt>
      <trkpt lat="44.56051" lon="6.35103">
        <ele>1382.1999511719</ele>
        <time>2021-06-10T09:42:41.000Z</time>
      </trkpt>
      <trkpt lat="44.56048" lon="6.35103">
        <ele>1381.8000488281</ele>
        <time>2021-06-10T09:42:42.000Z</time>
      </trkpt>
      <trkpt lat="44.56042" lon="6.35102">
        <ele>1380.8000488281</ele>
        <time>2021-06-10T09:42:44.000Z</time>
      </trkpt>
      <trkpt lat="44.56035" lon="6.351">
        <ele>1380.1999511719</ele>
        <time>2021-06-10T09:42:47.000Z</time>
      </trkpt>
      <trkpt lat="44.5602" lon="6.35092">
        <ele>1379.8000488281</ele>
        <time>2021-06-10T09:42:52.000Z</time>
      </trkpt>
      <trkpt lat="44.56014" lon="6.35087">
        <ele>1379.8000488281</ele>
        <time>2021-06-10T09:42:55.000Z</time>
      </trkpt>
      <trkpt lat="44.56013" lon="6.35088">
        <ele>1379.5999755859</ele>
        <time>2021-06-10T09:42:56.000Z</time>
      </trkpt>
      <trkpt lat="44.56011" lon="6.35093">
        <ele>1378.4000244141</ele>
        <time>2021-06-10T09:42:59.000Z</time>
      </trkpt>
      <trkpt lat="44.56011" lon="6.35095">
        <ele>1377.8000488281</ele>
        <time>2021-06-10T09:43:00.000Z</time>
      </trkpt>
      <trkpt lat="44.5601" lon="6.35096">
        <ele>1377.1999511719</ele>
        <time>2021-06-10T09:43:01.000Z</time>
      </trkpt>
      <trkpt lat="44.56009" lon="6.35097">
        <ele>1376.8000488281</ele>
        <time>2021-06-10T09:43:02.000Z</time>
      </trkpt>
      <trkpt lat="44.56007" lon="6.35099">
        <ele>1376.4000244141</ele>
        <time>2021-06-10T09:43:03.000Z</time>
      </trkpt>
      <trkpt lat="44.56006" lon="6.35101">
        <ele>1375.8000488281</ele>
        <time>2021-06-10T09:43:04.000Z</time>
      </trkpt>
      <trkpt lat="44.56004" lon="6.35104">
        <ele>1374.8000488281</ele>
        <time>2021-06-10T09:43:06.000Z</time>
      </trkpt>
      <trkpt lat="44.56002" lon="6.35106">
        <ele>1373.8000488281</ele>
        <time>2021-06-10T09:43:08.000Z</time>
      </trkpt>
      <trkpt lat="44.56001" lon="6.35107">
        <ele>1373.4000244141</ele>
        <time>2021-06-10T09:43:09.000Z</time>
      </trkpt>
      <trkpt lat="44.55997" lon="6.35107">
        <ele>1372</ele>
        <time>2021-06-10T09:43:12.000Z</time>
      </trkpt>
      <trkpt lat="44.55995" lon="6.35108">
        <ele>1371.5999755859</ele>
        <time>2021-06-10T09:43:14.000Z</time>
      </trkpt>
      <trkpt lat="44.55993" lon="6.35109">
        <ele>1371.4000244141</ele>
        <time>2021-06-10T09:43:15.000Z</time>
      </trkpt>
      <trkpt lat="44.5599" lon="6.35107">
        <ele>1371</ele>
        <time>2021-06-10T09:43:18.000Z</time>
      </trkpt>
      <trkpt lat="44.55988" lon="6.35108">
        <ele>1370.5999755859</ele>
        <time>2021-06-10T09:43:19.000Z</time>
      </trkpt>
      <trkpt lat="44.55981" lon="6.35108">
        <ele>1369.5999755859</ele>
        <time>2021-06-10T09:43:21.000Z</time>
      </trkpt>
      <trkpt lat="44.55978" lon="6.35108">
        <ele>1368.5999755859</ele>
        <time>2021-06-10T09:43:22.000Z</time>
      </trkpt>
      <trkpt lat="44.55975" lon="6.35106">
        <ele>1368</ele>
        <time>2021-06-10T09:43:23.000Z</time>
      </trkpt>
      <trkpt lat="44.55973" lon="6.35101">
        <ele>1366.8000488281</ele>
        <time>2021-06-10T09:43:25.000Z</time>
      </trkpt>
      <trkpt lat="44.55971" lon="6.351">
        <ele>1366</ele>
        <time>2021-06-10T09:43:26.000Z</time>
      </trkpt>
      <trkpt lat="44.55968" lon="6.35099">
        <ele>1365</ele>
        <time>2021-06-10T09:43:27.000Z</time>
      </trkpt>
      <trkpt lat="44.55964" lon="6.35101">
        <ele>1363.5999755859</ele>
        <time>2021-06-10T09:43:29.000Z</time>
      </trkpt>
      <trkpt lat="44.55962" lon="6.35102">
        <ele>1363.1999511719</ele>
        <time>2021-06-10T09:43:30.000Z</time>
      </trkpt>
      <trkpt lat="44.55958" lon="6.35105">
        <ele>1362.5999755859</ele>
        <time>2021-06-10T09:43:32.000Z</time>
      </trkpt>
      <trkpt lat="44.55956" lon="6.35106">
        <ele>1361.4000244141</ele>
        <time>2021-06-10T09:43:34.000Z</time>
      </trkpt>
      <trkpt lat="44.55953" lon="6.35104">
        <ele>1360.4000244141</ele>
        <time>2021-06-10T09:43:36.000Z</time>
      </trkpt>
      <trkpt lat="44.55949" lon="6.35103">
        <ele>1359.4000244141</ele>
        <time>2021-06-10T09:43:38.000Z</time>
      </trkpt>
      <trkpt lat="44.55945" lon="6.35103">
        <ele>1358</ele>
        <time>2021-06-10T09:43:41.000Z</time>
      </trkpt>
      <trkpt lat="44.55941" lon="6.35103">
        <ele>1356.5999755859</ele>
        <time>2021-06-10T09:43:43.000Z</time>
      </trkpt>
      <trkpt lat="44.55936" lon="6.35105">
        <ele>1355.4000244141</ele>
        <time>2021-06-10T09:43:45.000Z</time>
      </trkpt>
      <trkpt lat="44.55933" lon="6.35106">
        <ele>1355</ele>
        <time>2021-06-10T09:43:46.000Z</time>
      </trkpt>
      <trkpt lat="44.55928" lon="6.35108">
        <ele>1354.4000244141</ele>
        <time>2021-06-10T09:43:47.000Z</time>
      </trkpt>
      <trkpt lat="44.55923" lon="6.35109">
        <ele>1353.4000244141</ele>
        <time>2021-06-10T09:43:48.000Z</time>
      </trkpt>
      <trkpt lat="44.55917" lon="6.3511">
        <ele>1352.4000244141</ele>
        <time>2021-06-10T09:43:50.000Z</time>
      </trkpt>
      <trkpt lat="44.55911" lon="6.3511">
        <ele>1350.5999755859</ele>
        <time>2021-06-10T09:43:52.000Z</time>
      </trkpt>
      <trkpt lat="44.55907" lon="6.35114">
        <ele>1349.1999511719</ele>
        <time>2021-06-10T09:43:54.000Z</time>
      </trkpt>
      <trkpt lat="44.55902" lon="6.35119">
        <ele>1348</ele>
        <time>2021-06-10T09:43:56.000Z</time>
      </trkpt>
      <trkpt lat="44.55896" lon="6.35122">
        <ele>1346.5999755859</ele>
        <time>2021-06-10T09:43:58.000Z</time>
      </trkpt>
      <trkpt lat="44.5589" lon="6.35124">
        <ele>1345</ele>
        <time>2021-06-10T09:44:00.000Z</time>
      </trkpt>
      <trkpt lat="44.55884" lon="6.35126">
        <ele>1344</ele>
        <time>2021-06-10T09:44:02.000Z</time>
      </trkpt>
      <trkpt lat="44.55881" lon="6.35128">
        <ele>1343.4000244141</ele>
        <time>2021-06-10T09:44:03.000Z</time>
      </trkpt>
      <trkpt lat="44.55876" lon="6.3513">
        <ele>1342.8000488281</ele>
        <time>2021-06-10T09:44:05.000Z</time>
      </trkpt>
      <trkpt lat="44.55871" lon="6.35133">
        <ele>1341.8000488281</ele>
        <time>2021-06-10T09:44:07.000Z</time>
      </trkpt>
      <trkpt lat="44.55869" lon="6.35135">
        <ele>1341</ele>
        <time>2021-06-10T09:44:08.000Z</time>
      </trkpt>
      <trkpt lat="44.55867" lon="6.35138">
        <ele>1340.1999511719</ele>
        <time>2021-06-10T09:44:09.000Z</time>
      </trkpt>
      <trkpt lat="44.55864" lon="6.35141">
        <ele>1338.8000488281</ele>
        <time>2021-06-10T09:44:11.000Z</time>
      </trkpt>
      <trkpt lat="44.55859" lon="6.35145">
        <ele>1338</ele>
        <time>2021-06-10T09:44:13.000Z</time>
      </trkpt>
      <trkpt lat="44.55855" lon="6.35149">
        <ele>1337.1999511719</ele>
        <time>2021-06-10T09:44:14.000Z</time>
      </trkpt>
      <trkpt lat="44.55848" lon="6.35156">
        <ele>1334.8000488281</ele>
        <time>2021-06-10T09:44:16.000Z</time>
      </trkpt>
      <trkpt lat="44.55844" lon="6.35161">
        <ele>1334</ele>
        <time>2021-06-10T09:44:17.000Z</time>
      </trkpt>
      <trkpt lat="44.55841" lon="6.35167">
        <ele>1333.1999511719</ele>
        <time>2021-06-10T09:44:18.000Z</time>
      </trkpt>
      <trkpt lat="44.55835" lon="6.35177">
        <ele>1332.1999511719</ele>
        <time>2021-06-10T09:44:20.000Z</time>
      </trkpt>
      <trkpt lat="44.55831" lon="6.35183">
        <ele>1331.5999755859</ele>
        <time>2021-06-10T09:44:21.000Z</time>
      </trkpt>
      <trkpt lat="44.55828" lon="6.35187">
        <ele>1331</ele>
        <time>2021-06-10T09:44:22.000Z</time>
      </trkpt>
      <trkpt lat="44.55825" lon="6.35191">
        <ele>1330.4000244141</ele>
        <time>2021-06-10T09:44:23.000Z</time>
      </trkpt>
      <trkpt lat="44.55823" lon="6.35193">
        <ele>1329.8000488281</ele>
        <time>2021-06-10T09:44:24.000Z</time>
      </trkpt>
      <trkpt lat="44.5582" lon="6.35199">
        <ele>1328.1999511719</ele>
        <time>2021-06-10T09:44:26.000Z</time>
      </trkpt>
      <trkpt lat="44.5582" lon="6.352">
        <ele>1327.4000244141</ele>
        <time>2021-06-10T09:44:27.000Z</time>
      </trkpt>
      <trkpt lat="44.55819" lon="6.35201">
        <ele>1326.5999755859</ele>
        <time>2021-06-10T09:44:28.000Z</time>
      </trkpt>
      <trkpt lat="44.55817" lon="6.35206">
        <ele>1325.4000244141</ele>
        <time>2021-06-10T09:44:30.000Z</time>
      </trkpt>
      <trkpt lat="44.55816" lon="6.35209">
        <ele>1323.8000488281</ele>
        <time>2021-06-10T09:44:32.000Z</time>
      </trkpt>
      <trkpt lat="44.55813" lon="6.35215">
        <ele>1322.5999755859</ele>
        <time>2021-06-10T09:44:34.000Z</time>
      </trkpt>
      <trkpt lat="44.55811" lon="6.35219">
        <ele>1322</ele>
        <time>2021-06-10T09:44:35.000Z</time>
      </trkpt>
      <trkpt lat="44.55805" lon="6.35229">
        <ele>1321.5999755859</ele>
        <time>2021-06-10T09:44:37.000Z</time>
      </trkpt>
      <trkpt lat="44.55802" lon="6.35233">
        <ele>1321.4000244141</ele>
        <time>2021-06-10T09:44:38.000Z</time>
      </trkpt>
      <trkpt lat="44.55797" lon="6.35236">
        <ele>1321.4000244141</ele>
        <time>2021-06-10T09:44:39.000Z</time>
      </trkpt>
      <trkpt lat="44.55787" lon="6.35243">
        <ele>1321.1999511719</ele>
        <time>2021-06-10T09:44:41.000Z</time>
      </trkpt>
      <trkpt lat="44.55781" lon="6.35248">
        <ele>1321</ele>
        <time>2021-06-10T09:44:43.000Z</time>
      </trkpt>
      <trkpt lat="44.55779" lon="6.35249">
        <ele>1320.8000488281</ele>
        <time>2021-06-10T09:44:44.000Z</time>
      </trkpt>
      <trkpt lat="44.55776" lon="6.35251">
        <ele>1319.5999755859</ele>
        <time>2021-06-10T09:44:45.000Z</time>
      </trkpt>
      <trkpt lat="44.55769" lon="6.35259">
        <ele>1319</ele>
        <time>2021-06-10T09:44:47.000Z</time>
      </trkpt>
      <trkpt lat="44.55766" lon="6.35264">
        <ele>1318.5999755859</ele>
        <time>2021-06-10T09:44:48.000Z</time>
      </trkpt>
      <trkpt lat="44.55762" lon="6.35269">
        <ele>1318.4000244141</ele>
        <time>2021-06-10T09:44:49.000Z</time>
      </trkpt>
      <trkpt lat="44.55751" lon="6.35277">
        <ele>1317.5999755859</ele>
        <time>2021-06-10T09:44:51.000Z</time>
      </trkpt>
      <trkpt lat="44.55744" lon="6.3528">
        <ele>1317.4000244141</ele>
        <time>2021-06-10T09:44:52.000Z</time>
      </trkpt>
      <trkpt lat="44.5574" lon="6.35281">
        <ele>1317.1999511719</ele>
        <time>2021-06-10T09:44:53.000Z</time>
      </trkpt>
      <trkpt lat="44.55738" lon="6.35281">
        <ele>1316.8000488281</ele>
        <time>2021-06-10T09:44:54.000Z</time>
      </trkpt>
      <trkpt lat="44.55734" lon="6.3528">
        <ele>1316.1999511719</ele>
        <time>2021-06-10T09:44:55.000Z</time>
      </trkpt>
      <trkpt lat="44.55729" lon="6.3528">
        <ele>1315</ele>
        <time>2021-06-10T09:44:57.000Z</time>
      </trkpt>
      <trkpt lat="44.55729" lon="6.35279">
        <ele>1313.1999511719</ele>
        <time>2021-06-10T09:44:59.000Z</time>
      </trkpt>
      <trkpt lat="44.55729" lon="6.35279">
        <ele>1312.5999755859</ele>
        <time>2021-06-10T09:45:00.000Z</time>
      </trkpt>
      <trkpt lat="44.5573" lon="6.35279">
        <ele>1312</ele>
        <time>2021-06-10T09:45:01.000Z</time>
      </trkpt>
      <trkpt lat="44.5573" lon="6.35277">
        <ele>1310.4000244141</ele>
        <time>2021-06-10T09:45:03.000Z</time>
      </trkpt>
      <trkpt lat="44.55728" lon="6.35276">
        <ele>1309.8000488281</ele>
        <time>2021-06-10T09:45:04.000Z</time>
      </trkpt>
      <trkpt lat="44.55728" lon="6.35275">
        <ele>1309</ele>
        <time>2021-06-10T09:45:05.000Z</time>
      </trkpt>
      <trkpt lat="44.55727" lon="6.35274">
        <ele>1308.4000244141</ele>
        <time>2021-06-10T09:45:06.000Z</time>
      </trkpt>
      <trkpt lat="44.55727" lon="6.35272">
        <ele>1308</ele>
        <time>2021-06-10T09:45:07.000Z</time>
      </trkpt>
      <trkpt lat="44.55728" lon="6.35269">
        <ele>1307</ele>
        <time>2021-06-10T09:45:09.000Z</time>
      </trkpt>
      <trkpt lat="44.55727" lon="6.35267">
        <ele>1306.4000244141</ele>
        <time>2021-06-10T09:45:10.000Z</time>
      </trkpt>
      <trkpt lat="44.55724" lon="6.35265">
        <ele>1305.1999511719</ele>
        <time>2021-06-10T09:45:12.000Z</time>
      </trkpt>
      <trkpt lat="44.55721" lon="6.35265">
        <ele>1304.5999755859</ele>
        <time>2021-06-10T09:45:13.000Z</time>
      </trkpt>
      <trkpt lat="44.55719" lon="6.35265">
        <ele>1303.1999511719</ele>
        <time>2021-06-10T09:45:14.000Z</time>
      </trkpt>
      <trkpt lat="44.55716" lon="6.35265">
        <ele>1301.8000488281</ele>
        <time>2021-06-10T09:45:16.000Z</time>
      </trkpt>
      <trkpt lat="44.55715" lon="6.35265">
        <ele>1301.4000244141</ele>
        <time>2021-06-10T09:45:17.000Z</time>
      </trkpt>
      <trkpt lat="44.55714" lon="6.35265">
        <ele>1300.5999755859</ele>
        <time>2021-06-10T09:45:18.000Z</time>
      </trkpt>
      <trkpt lat="44.55714" lon="6.35263">
        <ele>1299.5999755859</ele>
        <time>2021-06-10T09:45:20.000Z</time>
      </trkpt>
      <trkpt lat="44.5571" lon="6.3526">
        <ele>1298</ele>
        <time>2021-06-10T09:45:22.000Z</time>
      </trkpt>
      <trkpt lat="44.55706" lon="6.35259">
        <ele>1296.8000488281</ele>
        <time>2021-06-10T09:45:24.000Z</time>
      </trkpt>
      <trkpt lat="44.55704" lon="6.35254">
        <ele>1296.1999511719</ele>
        <time>2021-06-10T09:45:26.000Z</time>
      </trkpt>
      <trkpt lat="44.55703" lon="6.35253">
        <ele>1295.8000488281</ele>
        <time>2021-06-10T09:45:27.000Z</time>
      </trkpt>
      <trkpt lat="44.55701" lon="6.35251">
        <ele>1294.5999755859</ele>
        <time>2021-06-10T09:45:29.000Z</time>
      </trkpt>
      <trkpt lat="44.557" lon="6.35249">
        <ele>1293.1999511719</ele>
        <time>2021-06-10T09:45:31.000Z</time>
      </trkpt>
      <trkpt lat="44.55696" lon="6.35245">
        <ele>1291.8000488281</ele>
        <time>2021-06-10T09:45:34.000Z</time>
      </trkpt>
      <trkpt lat="44.55691" lon="6.35245">
        <ele>1290.8000488281</ele>
        <time>2021-06-10T09:45:36.000Z</time>
      </trkpt>
      <trkpt lat="44.55689" lon="6.35246">
        <ele>1290.4000244141</ele>
        <time>2021-06-10T09:45:37.000Z</time>
      </trkpt>
      <trkpt lat="44.55684" lon="6.35247">
        <ele>1289.5999755859</ele>
        <time>2021-06-10T09:45:40.000Z</time>
      </trkpt>
      <trkpt lat="44.55681" lon="6.35246">
        <ele>1289.4000244141</ele>
        <time>2021-06-10T09:45:41.000Z</time>
      </trkpt>
      <trkpt lat="44.55677" lon="6.35243">
        <ele>1288</ele>
        <time>2021-06-10T09:45:43.000Z</time>
      </trkpt>
      <trkpt lat="44.55674" lon="6.3524">
        <ele>1286.4000244141</ele>
        <time>2021-06-10T09:45:45.000Z</time>
      </trkpt>
      <trkpt lat="44.55672" lon="6.35239">
        <ele>1285.5999755859</ele>
        <time>2021-06-10T09:45:46.000Z</time>
      </trkpt>
      <trkpt lat="44.5567" lon="6.35237">
        <ele>1284.8000488281</ele>
        <time>2021-06-10T09:45:47.000Z</time>
      </trkpt>
      <trkpt lat="44.55667" lon="6.35235">
        <ele>1283.4000244141</ele>
        <time>2021-06-10T09:45:49.000Z</time>
      </trkpt>
      <trkpt lat="44.55664" lon="6.35234">
        <ele>1283</ele>
        <time>2021-06-10T09:45:50.000Z</time>
      </trkpt>
      <trkpt lat="44.55662" lon="6.35232">
        <ele>1282.4000244141</ele>
        <time>2021-06-10T09:45:51.000Z</time>
      </trkpt>
      <trkpt lat="44.5566" lon="6.35232">
        <ele>1281.8000488281</ele>
        <time>2021-06-10T09:45:52.000Z</time>
      </trkpt>
      <trkpt lat="44.55658" lon="6.35231">
        <ele>1280.5999755859</ele>
        <time>2021-06-10T09:45:54.000Z</time>
      </trkpt>
      <trkpt lat="44.55657" lon="6.35229">
        <ele>1280</ele>
        <time>2021-06-10T09:45:55.000Z</time>
      </trkpt>
      <trkpt lat="44.55656" lon="6.35228">
        <ele>1279.5999755859</ele>
        <time>2021-06-10T09:45:56.000Z</time>
      </trkpt>
      <trkpt lat="44.55652" lon="6.35226">
        <ele>1278.4000244141</ele>
        <time>2021-06-10T09:45:58.000Z</time>
      </trkpt>
      <trkpt lat="44.5565" lon="6.35225">
        <ele>1277.8000488281</ele>
        <time>2021-06-10T09:45:59.000Z</time>
      </trkpt>
      <trkpt lat="44.55648" lon="6.35224">
        <ele>1277.4000244141</ele>
        <time>2021-06-10T09:46:00.000Z</time>
      </trkpt>
      <trkpt lat="44.55646" lon="6.35224">
        <ele>1276.4000244141</ele>
        <time>2021-06-10T09:46:02.000Z</time>
      </trkpt>
      <trkpt lat="44.55644" lon="6.35223">
        <ele>1275</ele>
        <time>2021-06-10T09:46:05.000Z</time>
      </trkpt>
      <trkpt lat="44.55643" lon="6.35223">
        <ele>1274</ele>
        <time>2021-06-10T09:46:07.000Z</time>
      </trkpt>
      <trkpt lat="44.55643" lon="6.35223">
        <ele>1272.5999755859</ele>
        <time>2021-06-10T09:46:10.000Z</time>
      </trkpt>
      <trkpt lat="44.55642" lon="6.35223">
        <ele>1272.1999511719</ele>
        <time>2021-06-10T09:46:15.000Z</time>
      </trkpt>
      <trkpt lat="44.55638" lon="6.3522">
        <ele>1272</ele>
        <time>2021-06-10T09:46:27.000Z</time>
      </trkpt>
      <trkpt lat="44.5563" lon="6.35216">
        <ele>1271.5999755859</ele>
        <time>2021-06-10T09:46:31.000Z</time>
      </trkpt>
      <trkpt lat="44.55626" lon="6.35209">
        <ele>1271.1999511719</ele>
        <time>2021-06-10T09:46:34.000Z</time>
      </trkpt>
      <trkpt lat="44.55627" lon="6.35206">
        <ele>1270.5999755859</ele>
        <time>2021-06-10T09:46:36.000Z</time>
      </trkpt>
      <trkpt lat="44.55627" lon="6.35206">
        <ele>1269.1999511719</ele>
        <time>2021-06-10T09:46:38.000Z</time>
      </trkpt>
      <trkpt lat="44.55626" lon="6.35205">
        <ele>1267.1999511719</ele>
        <time>2021-06-10T09:46:40.000Z</time>
      </trkpt>
      <trkpt lat="44.55625" lon="6.35205">
        <ele>1266</ele>
        <time>2021-06-10T09:46:41.000Z</time>
      </trkpt>
      <trkpt lat="44.55624" lon="6.35204">
        <ele>1264.8000488281</ele>
        <time>2021-06-10T09:46:44.000Z</time>
      </trkpt>
      <trkpt lat="44.55624" lon="6.35203">
        <ele>1264.5999755859</ele>
        <time>2021-06-10T09:46:49.000Z</time>
      </trkpt>
      <trkpt lat="44.55625" lon="6.352">
        <ele>1264.1999511719</ele>
        <time>2021-06-10T09:46:51.000Z</time>
      </trkpt>
      <trkpt lat="44.55627" lon="6.35191">
        <ele>1264.4000244141</ele>
        <time>2021-06-10T09:46:54.000Z</time>
      </trkpt>
      <trkpt lat="44.55626" lon="6.35187">
        <ele>1264.4000244141</ele>
        <time>2021-06-10T09:46:55.000Z</time>
      </trkpt>
      <trkpt lat="44.55622" lon="6.3518">
        <ele>1264.4000244141</ele>
        <time>2021-06-10T09:46:57.000Z</time>
      </trkpt>
      <trkpt lat="44.55606" lon="6.35168">
        <ele>1263.8000488281</ele>
        <time>2021-06-10T09:47:01.000Z</time>
      </trkpt>
      <trkpt lat="44.55601" lon="6.35161">
        <ele>1263.8000488281</ele>
        <time>2021-06-10T09:47:02.000Z</time>
      </trkpt>
      <trkpt lat="44.55587" lon="6.35135">
        <ele>1263.4000244141</ele>
        <time>2021-06-10T09:47:05.000Z</time>
      </trkpt>
      <trkpt lat="44.55582" lon="6.35125">
        <ele>1263.4000244141</ele>
        <time>2021-06-10T09:47:06.000Z</time>
      </trkpt>
      <trkpt lat="44.55564" lon="6.35099">
        <ele>1262.4000244141</ele>
        <time>2021-06-10T09:47:09.000Z</time>
      </trkpt>
      <trkpt lat="44.55557" lon="6.35091">
        <ele>1261.5999755859</ele>
        <time>2021-06-10T09:47:10.000Z</time>
      </trkpt>
      <trkpt lat="44.55552" lon="6.35083">
        <ele>1260.8000488281</ele>
        <time>2021-06-10T09:47:11.000Z</time>
      </trkpt>
      <trkpt lat="44.55546" lon="6.35075">
        <ele>1260.1999511719</ele>
        <time>2021-06-10T09:47:12.000Z</time>
      </trkpt>
      <trkpt lat="44.55537" lon="6.35062">
        <ele>1258.4000244141</ele>
        <time>2021-06-10T09:47:14.000Z</time>
      </trkpt>
      <trkpt lat="44.55534" lon="6.35057">
        <ele>1257.5999755859</ele>
        <time>2021-06-10T09:47:15.000Z</time>
      </trkpt>
      <trkpt lat="44.55532" lon="6.35053">
        <ele>1257.1999511719</ele>
        <time>2021-06-10T09:47:16.000Z</time>
      </trkpt>
      <trkpt lat="44.55524" lon="6.35037">
        <ele>1256.8000488281</ele>
        <time>2021-06-10T09:47:20.000Z</time>
      </trkpt>
      <trkpt lat="44.55502" lon="6.35004">
        <ele>1257</ele>
        <time>2021-06-10T09:47:28.000Z</time>
      </trkpt>
      <trkpt lat="44.55471" lon="6.34969">
        <ele>1256.8000488281</ele>
        <time>2021-06-10T09:47:36.000Z</time>
      </trkpt>
      <trkpt lat="44.5546" lon="6.34954">
        <ele>1256.5999755859</ele>
        <time>2021-06-10T09:47:39.000Z</time>
      </trkpt>
      <trkpt lat="44.55454" lon="6.34941">
        <ele>1256.1999511719</ele>
        <time>2021-06-10T09:47:41.000Z</time>
      </trkpt>
      <trkpt lat="44.55452" lon="6.34935">
        <ele>1256.1999511719</ele>
        <time>2021-06-10T09:47:42.000Z</time>
      </trkpt>
      <trkpt lat="44.55448" lon="6.34919">
        <ele>1255.4000244141</ele>
        <time>2021-06-10T09:47:45.000Z</time>
      </trkpt>
      <trkpt lat="44.55445" lon="6.34897">
        <ele>1255.4000244141</ele>
        <time>2021-06-10T09:47:50.000Z</time>
      </trkpt>
      <trkpt lat="44.55446" lon="6.34894">
        <ele>1255.4000244141</ele>
        <time>2021-06-10T09:47:51.000Z</time>
      </trkpt>
      <trkpt lat="44.55454" lon="6.34889">
        <ele>1255.5999755859</ele>
        <time>2021-06-10T09:47:55.000Z</time>
      </trkpt>
      <trkpt lat="44.5546" lon="6.34896">
        <ele>1256.5999755859</ele>
        <time>2021-06-10T09:47:58.000Z</time>
      </trkpt>
      <trkpt lat="44.55464" lon="6.34901">
        <ele>1257.4000244141</ele>
        <time>2021-06-10T09:48:00.000Z</time>
      </trkpt>
      <trkpt lat="44.55466" lon="6.34903">
        <ele>1257.8000488281</ele>
        <time>2021-06-10T09:48:01.000Z</time>
      </trkpt>
      <trkpt lat="44.55472" lon="6.34907">
        <ele>1258.5999755859</ele>
        <time>2021-06-10T09:48:04.000Z</time>
      </trkpt>
      <trkpt lat="44.55476" lon="6.34909">
        <ele>1259.5999755859</ele>
        <time>2021-06-10T09:48:06.000Z</time>
      </trkpt>
      <trkpt lat="44.55478" lon="6.34909">
        <ele>1260.1999511719</ele>
        <time>2021-06-10T09:48:07.000Z</time>
      </trkpt>
      <trkpt lat="44.55485" lon="6.34912">
        <ele>1261.4000244141</ele>
        <time>2021-06-10T09:48:10.000Z</time>
      </trkpt>
      <trkpt lat="44.55492" lon="6.34916">
        <ele>1262.5999755859</ele>
        <time>2021-06-10T09:48:13.000Z</time>
      </trkpt>
      <trkpt lat="44.55494" lon="6.34917">
        <ele>1262.8000488281</ele>
        <time>2021-06-10T09:48:14.000Z</time>
      </trkpt>
      <trkpt lat="44.555" lon="6.34923">
        <ele>1263.8000488281</ele>
        <time>2021-06-10T09:48:17.000Z</time>
      </trkpt>
      <trkpt lat="44.55505" lon="6.34927">
        <ele>1265.1999511719</ele>
        <time>2021-06-10T09:48:20.000Z</time>
      </trkpt>
      <trkpt lat="44.55509" lon="6.34929">
        <ele>1265.8000488281</ele>
        <time>2021-06-10T09:48:22.000Z</time>
      </trkpt>
      <trkpt lat="44.55511" lon="6.34931">
        <ele>1266.1999511719</ele>
        <time>2021-06-10T09:48:23.000Z</time>
      </trkpt>
      <trkpt lat="44.55517" lon="6.34934">
        <ele>1267.4000244141</ele>
        <time>2021-06-10T09:48:26.000Z</time>
      </trkpt>
      <trkpt lat="44.55523" lon="6.34936">
        <ele>1268.4000244141</ele>
        <time>2021-06-10T09:48:29.000Z</time>
      </trkpt>
      <trkpt lat="44.55526" lon="6.34936">
        <ele>1269</ele>
        <time>2021-06-10T09:48:31.000Z</time>
      </trkpt>
      <trkpt lat="44.55529" lon="6.34936">
        <ele>1269.4000244141</ele>
        <time>2021-06-10T09:48:33.000Z</time>
      </trkpt>
      <trkpt lat="44.55533" lon="6.34935">
        <ele>1271</ele>
        <time>2021-06-10T09:48:36.000Z</time>
      </trkpt>
      <trkpt lat="44.55537" lon="6.34934">
        <ele>1272.1999511719</ele>
        <time>2021-06-10T09:48:39.000Z</time>
      </trkpt>
      <trkpt lat="44.55542" lon="6.34934">
        <ele>1273.1999511719</ele>
        <time>2021-06-10T09:48:42.000Z</time>
      </trkpt>
      <trkpt lat="44.55545" lon="6.34935">
        <ele>1274.4000244141</ele>
        <time>2021-06-10T09:48:44.000Z</time>
      </trkpt>
      <trkpt lat="44.55548" lon="6.34937">
        <ele>1275.1999511719</ele>
        <time>2021-06-10T09:48:46.000Z</time>
      </trkpt>
      <trkpt lat="44.55551" lon="6.34937">
        <ele>1275.8000488281</ele>
        <time>2021-06-10T09:48:47.000Z</time>
      </trkpt>
      <trkpt lat="44.55555" lon="6.34937">
        <ele>1277</ele>
        <time>2021-06-10T09:48:50.000Z</time>
      </trkpt>
      <trkpt lat="44.55559" lon="6.34934">
        <ele>1277.5999755859</ele>
        <time>2021-06-10T09:48:52.000Z</time>
      </trkpt>
      <trkpt lat="44.5556" lon="6.34929">
        <ele>1278.1999511719</ele>
        <time>2021-06-10T09:48:54.000Z</time>
      </trkpt>
      <trkpt lat="44.55559" lon="6.34924">
        <ele>1278.5999755859</ele>
        <time>2021-06-10T09:48:56.000Z</time>
      </trkpt>
      <trkpt lat="44.55558" lon="6.34919">
        <ele>1279.1999511719</ele>
        <time>2021-06-10T09:48:58.000Z</time>
      </trkpt>
      <trkpt lat="44.55557" lon="6.34912">
        <ele>1280.4000244141</ele>
        <time>2021-06-10T09:49:01.000Z</time>
      </trkpt>
      <trkpt lat="44.55556" lon="6.34906">
        <ele>1281</ele>
        <time>2021-06-10T09:49:04.000Z</time>
      </trkpt>
      <trkpt lat="44.55556" lon="6.34903">
        <ele>1281.4000244141</ele>
        <time>2021-06-10T09:49:05.000Z</time>
      </trkpt>
      <trkpt lat="44.55555" lon="6.34895">
        <ele>1282.8000488281</ele>
        <time>2021-06-10T09:49:08.000Z</time>
      </trkpt>
      <trkpt lat="44.55554" lon="6.34889">
        <ele>1283.5999755859</ele>
        <time>2021-06-10T09:49:10.000Z</time>
      </trkpt>
      <trkpt lat="44.55553" lon="6.34886">
        <ele>1284</ele>
        <time>2021-06-10T09:49:11.000Z</time>
      </trkpt>
      <trkpt lat="44.55553" lon="6.34877">
        <ele>1285.1999511719</ele>
        <time>2021-06-10T09:49:15.000Z</time>
      </trkpt>
      <trkpt lat="44.55553" lon="6.34873">
        <ele>1285.5999755859</ele>
        <time>2021-06-10T09:49:17.000Z</time>
      </trkpt>
      <trkpt lat="44.55552" lon="6.34863">
        <ele>1286.1999511719</ele>
        <time>2021-06-10T09:49:21.000Z</time>
      </trkpt>
      <trkpt lat="44.55552" lon="6.34856">
        <ele>1286.5999755859</ele>
        <time>2021-06-10T09:49:23.000Z</time>
      </trkpt>
      <trkpt lat="44.5555" lon="6.34843">
        <ele>1287.4000244141</ele>
        <time>2021-06-10T09:49:26.000Z</time>
      </trkpt>
      <trkpt lat="44.55548" lon="6.34828">
        <ele>1288.5999755859</ele>
        <time>2021-06-10T09:49:29.000Z</time>
      </trkpt>
      <trkpt lat="44.55548" lon="6.34814">
        <ele>1290</ele>
        <time>2021-06-10T09:49:32.000Z</time>
      </trkpt>
      <trkpt lat="44.55549" lon="6.34802">
        <ele>1290.1999511719</ele>
        <time>2021-06-10T09:49:34.000Z</time>
      </trkpt>
      <trkpt lat="44.55552" lon="6.34766">
        <ele>1290.1999511719</ele>
        <time>2021-06-10T09:49:38.000Z</time>
      </trkpt>
      <trkpt lat="44.55557" lon="6.34735">
        <ele>1289.5999755859</ele>
        <time>2021-06-10T09:49:42.000Z</time>
      </trkpt>
      <trkpt lat="44.55559" lon="6.34724">
        <ele>1288.1999511719</ele>
        <time>2021-06-10T09:49:44.000Z</time>
      </trkpt>
      <trkpt lat="44.55561" lon="6.34716">
        <ele>1286.5999755859</ele>
        <time>2021-06-10T09:49:46.000Z</time>
      </trkpt>
      <trkpt lat="44.55563" lon="6.34708">
        <ele>1285.1999511719</ele>
        <time>2021-06-10T09:49:48.000Z</time>
      </trkpt>
      <trkpt lat="44.55567" lon="6.34701">
        <ele>1284.5999755859</ele>
        <time>2021-06-10T09:49:50.000Z</time>
      </trkpt>
      <trkpt lat="44.55568" lon="6.34698">
        <ele>1284.5999755859</ele>
        <time>2021-06-10T09:49:51.000Z</time>
      </trkpt>
      <trkpt lat="44.55579" lon="6.3468">
        <ele>1284.5999755859</ele>
        <time>2021-06-10T09:49:57.000Z</time>
      </trkpt>
      <trkpt lat="44.55587" lon="6.34667">
        <ele>1285.5999755859</ele>
        <time>2021-06-10T09:50:02.000Z</time>
      </trkpt>
      <trkpt lat="44.5559" lon="6.3466">
        <ele>1286.1999511719</ele>
        <time>2021-06-10T09:50:08.000Z</time>
      </trkpt>
      <trkpt lat="44.5559" lon="6.34659">
        <ele>1286.5999755859</ele>
        <time>2021-06-10T09:50:09.000Z</time>
      </trkpt>
      <trkpt lat="44.55592" lon="6.34658">
        <ele>1286.8000488281</ele>
        <time>2021-06-10T09:50:10.000Z</time>
      </trkpt>
      <trkpt lat="44.55596" lon="6.34654">
        <ele>1287.1999511719</ele>
        <time>2021-06-10T09:50:13.000Z</time>
      </trkpt>
      <trkpt lat="44.55595" lon="6.3464">
        <ele>1287.4000244141</ele>
        <time>2021-06-10T09:50:17.000Z</time>
      </trkpt>
      <trkpt lat="44.55586" lon="6.34613">
        <ele>1287.4000244141</ele>
        <time>2021-06-10T09:50:23.000Z</time>
      </trkpt>
      <trkpt lat="44.55585" lon="6.34599">
        <ele>1287.5999755859</ele>
        <time>2021-06-10T09:50:27.000Z</time>
      </trkpt>
      <trkpt lat="44.55584" lon="6.34591">
        <ele>1287.8000488281</ele>
        <time>2021-06-10T09:50:29.000Z</time>
      </trkpt>
      <trkpt lat="44.55583" lon="6.34587">
        <ele>1287.8000488281</ele>
        <time>2021-06-10T09:50:30.000Z</time>
      </trkpt>
      <trkpt lat="44.55581" lon="6.34569">
        <ele>1287.8000488281</ele>
        <time>2021-06-10T09:50:33.000Z</time>
      </trkpt>
      <trkpt lat="44.55585" lon="6.34548">
        <ele>1287.5999755859</ele>
        <time>2021-06-10T09:50:36.000Z</time>
      </trkpt>
      <trkpt lat="44.55594" lon="6.3453">
        <ele>1286.8000488281</ele>
        <time>2021-06-10T09:50:39.000Z</time>
      </trkpt>
      <trkpt lat="44.55597" lon="6.34525">
        <ele>1286.1999511719</ele>
        <time>2021-06-10T09:50:40.000Z</time>
      </trkpt>
      <trkpt lat="44.55602" lon="6.34514">
        <ele>1284.4000244141</ele>
        <time>2021-06-10T09:50:42.000Z</time>
      </trkpt>
      <trkpt lat="44.55605" lon="6.34503">
        <ele>1283</ele>
        <time>2021-06-10T09:50:44.000Z</time>
      </trkpt>
      <trkpt lat="44.55607" lon="6.34492">
        <ele>1282.4000244141</ele>
        <time>2021-06-10T09:50:46.000Z</time>
      </trkpt>
      <trkpt lat="44.55607" lon="6.34485">
        <ele>1282.1999511719</ele>
        <time>2021-06-10T09:50:47.000Z</time>
      </trkpt>
      <trkpt lat="44.55607" lon="6.34479">
        <ele>1282</ele>
        <time>2021-06-10T09:50:48.000Z</time>
      </trkpt>
      <trkpt lat="44.55608" lon="6.34458">
        <ele>1281.1999511719</ele>
        <time>2021-06-10T09:50:51.000Z</time>
      </trkpt>
      <trkpt lat="44.55609" lon="6.34447">
        <ele>1280.8000488281</ele>
        <time>2021-06-10T09:50:53.000Z</time>
      </trkpt>
      <trkpt lat="44.55609" lon="6.34436">
        <ele>1280.4000244141</ele>
        <time>2021-06-10T09:50:55.000Z</time>
      </trkpt>
      <trkpt lat="44.55609" lon="6.34429">
        <ele>1280</ele>
        <time>2021-06-10T09:50:56.000Z</time>
      </trkpt>
      <trkpt lat="44.55608" lon="6.34422">
        <ele>1279.1999511719</ele>
        <time>2021-06-10T09:50:57.000Z</time>
      </trkpt>
      <trkpt lat="44.55605" lon="6.34405">
        <ele>1277.1999511719</ele>
        <time>2021-06-10T09:50:59.000Z</time>
      </trkpt>
      <trkpt lat="44.55604" lon="6.34396">
        <ele>1275.1999511719</ele>
        <time>2021-06-10T09:51:00.000Z</time>
      </trkpt>
      <trkpt lat="44.556" lon="6.34377">
        <ele>1273.5999755859</ele>
        <time>2021-06-10T09:51:02.000Z</time>
      </trkpt>
      <trkpt lat="44.55597" lon="6.3436">
        <ele>1271.8000488281</ele>
        <time>2021-06-10T09:51:04.000Z</time>
      </trkpt>
      <trkpt lat="44.55593" lon="6.34345">
        <ele>1270.1999511719</ele>
        <time>2021-06-10T09:51:06.000Z</time>
      </trkpt>
      <trkpt lat="44.55591" lon="6.34336">
        <ele>1269</ele>
        <time>2021-06-10T09:51:08.000Z</time>
      </trkpt>
      <trkpt lat="44.5559" lon="6.34328">
        <ele>1267.8000488281</ele>
        <time>2021-06-10T09:51:10.000Z</time>
      </trkpt>
      <trkpt lat="44.55589" lon="6.34313">
        <ele>1266.4000244141</ele>
        <time>2021-06-10T09:51:13.000Z</time>
      </trkpt>
      <trkpt lat="44.5559" lon="6.34303">
        <ele>1265.1999511719</ele>
        <time>2021-06-10T09:51:15.000Z</time>
      </trkpt>
      <trkpt lat="44.55591" lon="6.34293">
        <ele>1264</ele>
        <time>2021-06-10T09:51:17.000Z</time>
      </trkpt>
      <trkpt lat="44.55592" lon="6.34279">
        <ele>1262.8000488281</ele>
        <time>2021-06-10T09:51:20.000Z</time>
      </trkpt>
      <trkpt lat="44.55594" lon="6.34269">
        <ele>1261.8000488281</ele>
        <time>2021-06-10T09:51:23.000Z</time>
      </trkpt>
      <trkpt lat="44.55594" lon="6.34266">
        <ele>1261.5999755859</ele>
        <time>2021-06-10T09:51:24.000Z</time>
      </trkpt>
      <trkpt lat="44.55593" lon="6.34246">
        <ele>1261</ele>
        <time>2021-06-10T09:51:29.000Z</time>
      </trkpt>
      <trkpt lat="44.5559" lon="6.34237">
        <ele>1260.8000488281</ele>
        <time>2021-06-10T09:51:31.000Z</time>
      </trkpt>
      <trkpt lat="44.55586" lon="6.34214">
        <ele>1260.5999755859</ele>
        <time>2021-06-10T09:51:36.000Z</time>
      </trkpt>
      <trkpt lat="44.55587" lon="6.34198">
        <ele>1260.4000244141</ele>
        <time>2021-06-10T09:51:40.000Z</time>
      </trkpt>
      <trkpt lat="44.55598" lon="6.34178">
        <ele>1260.5999755859</ele>
        <time>2021-06-10T09:51:47.000Z</time>
      </trkpt>
      <trkpt lat="44.55609" lon="6.34163">
        <ele>1262</ele>
        <time>2021-06-10T09:51:53.000Z</time>
      </trkpt>
      <trkpt lat="44.55611" lon="6.34157">
        <ele>1262.4000244141</ele>
        <time>2021-06-10T09:51:55.000Z</time>
      </trkpt>
      <trkpt lat="44.55614" lon="6.34152">
        <ele>1263</ele>
        <time>2021-06-10T09:51:57.000Z</time>
      </trkpt>
      <trkpt lat="44.55621" lon="6.34134">
        <ele>1263.8000488281</ele>
        <time>2021-06-10T09:52:03.000Z</time>
      </trkpt>
      <trkpt lat="44.55623" lon="6.3413">
        <ele>1264</ele>
        <time>2021-06-10T09:52:05.000Z</time>
      </trkpt>
      <trkpt lat="44.55623" lon="6.34126">
        <ele>1264</ele>
        <time>2021-06-10T09:52:07.000Z</time>
      </trkpt>
      <trkpt lat="44.55621" lon="6.34121">
        <ele>1264</ele>
        <time>2021-06-10T09:52:09.000Z</time>
      </trkpt>
      <trkpt lat="44.55616" lon="6.34118">
        <ele>1264</ele>
        <time>2021-06-10T09:52:11.000Z</time>
      </trkpt>
      <trkpt lat="44.55612" lon="6.34114">
        <ele>1264</ele>
        <time>2021-06-10T09:52:13.000Z</time>
      </trkpt>
      <trkpt lat="44.55609" lon="6.34104">
        <ele>1264</ele>
        <time>2021-06-10T09:52:16.000Z</time>
      </trkpt>
      <trkpt lat="44.5561" lon="6.34101">
        <ele>1263.8000488281</ele>
        <time>2021-06-10T09:52:17.000Z</time>
      </trkpt>
      <trkpt lat="44.55613" lon="6.34091">
        <ele>1263.4000244141</ele>
        <time>2021-06-10T09:52:22.000Z</time>
      </trkpt>
      <trkpt lat="44.55612" lon="6.34082">
        <ele>1263</ele>
        <time>2021-06-10T09:52:25.000Z</time>
      </trkpt>
      <trkpt lat="44.55612" lon="6.34078">
        <ele>1262.8000488281</ele>
        <time>2021-06-10T09:52:26.000Z</time>
      </trkpt>
      <trkpt lat="44.55612" lon="6.34072">
        <ele>1262.5999755859</ele>
        <time>2021-06-10T09:52:29.000Z</time>
      </trkpt>
      <trkpt lat="44.55613" lon="6.34069">
        <ele>1262.4000244141</ele>
        <time>2021-06-10T09:52:30.000Z</time>
      </trkpt>
      <trkpt lat="44.55614" lon="6.34055">
        <ele>1262.1999511719</ele>
        <time>2021-06-10T09:52:35.000Z</time>
      </trkpt>
      <trkpt lat="44.55616" lon="6.34038">
        <ele>1262.1999511719</ele>
        <time>2021-06-10T09:52:39.000Z</time>
      </trkpt>
      <trkpt lat="44.55618" lon="6.34025">
        <ele>1262.1999511719</ele>
        <time>2021-06-10T09:52:43.000Z</time>
      </trkpt>
      <trkpt lat="44.55616" lon="6.34005">
        <ele>1262.1999511719</ele>
        <time>2021-06-10T09:52:48.000Z</time>
      </trkpt>
      <trkpt lat="44.55615" lon="6.34001">
        <ele>1262.1999511719</ele>
        <time>2021-06-10T09:52:49.000Z</time>
      </trkpt>
      <trkpt lat="44.55612" lon="6.33988">
        <ele>1262.1999511719</ele>
        <time>2021-06-10T09:52:53.000Z</time>
      </trkpt>
      <trkpt lat="44.55612" lon="6.33972">
        <ele>1261.4000244141</ele>
        <time>2021-06-10T09:52:59.000Z</time>
      </trkpt>
      <trkpt lat="44.55614" lon="6.33961">
        <ele>1261.4000244141</ele>
        <time>2021-06-10T09:53:03.000Z</time>
      </trkpt>
      <trkpt lat="44.55615" lon="6.33942">
        <ele>1263</ele>
        <time>2021-06-10T09:53:09.000Z</time>
      </trkpt>
      <trkpt lat="44.55616" lon="6.33938">
        <ele>1263.4000244141</ele>
        <time>2021-06-10T09:53:10.000Z</time>
      </trkpt>
      <trkpt lat="44.55619" lon="6.33926">
        <ele>1264.4000244141</ele>
        <time>2021-06-10T09:53:14.000Z</time>
      </trkpt>
      <trkpt lat="44.5562" lon="6.33912">
        <ele>1265.5999755859</ele>
        <time>2021-06-10T09:53:18.000Z</time>
      </trkpt>
      <trkpt lat="44.55621" lon="6.33909">
        <ele>1266</ele>
        <time>2021-06-10T09:53:19.000Z</time>
      </trkpt>
      <trkpt lat="44.55621" lon="6.33906">
        <ele>1266.1999511719</ele>
        <time>2021-06-10T09:53:20.000Z</time>
      </trkpt>
      <trkpt lat="44.55622" lon="6.33903">
        <ele>1266.1999511719</ele>
        <time>2021-06-10T09:53:21.000Z</time>
      </trkpt>
      <trkpt lat="44.55622" lon="6.33895">
        <ele>1266.4000244141</ele>
        <time>2021-06-10T09:53:23.000Z</time>
      </trkpt>
      <trkpt lat="44.55625" lon="6.33879">
        <ele>1266.5999755859</ele>
        <time>2021-06-10T09:53:27.000Z</time>
      </trkpt>
      <trkpt lat="44.55626" lon="6.33875">
        <ele>1266.8000488281</ele>
        <time>2021-06-10T09:53:28.000Z</time>
      </trkpt>
      <trkpt lat="44.55629" lon="6.33861">
        <ele>1267</ele>
        <time>2021-06-10T09:53:31.000Z</time>
      </trkpt>
      <trkpt lat="44.55631" lon="6.33855">
        <ele>1267</ele>
        <time>2021-06-10T09:53:33.000Z</time>
      </trkpt>
      <trkpt lat="44.55637" lon="6.33835">
        <ele>1268.1999511719</ele>
        <time>2021-06-10T09:53:39.000Z</time>
      </trkpt>
      <trkpt lat="44.55641" lon="6.33822">
        <ele>1269.1999511719</ele>
        <time>2021-06-10T09:53:44.000Z</time>
      </trkpt>
      <trkpt lat="44.55643" lon="6.3382">
        <ele>1269.1999511719</ele>
        <time>2021-06-10T09:53:45.000Z</time>
      </trkpt>
      <trkpt lat="44.55644" lon="6.33802">
        <ele>1269.1999511719</ele>
        <time>2021-06-10T09:53:50.000Z</time>
      </trkpt>
      <trkpt lat="44.55645" lon="6.33778">
        <ele>1269.1999511719</ele>
        <time>2021-06-10T09:53:55.000Z</time>
      </trkpt>
      <trkpt lat="44.55649" lon="6.3377">
        <ele>1268.8000488281</ele>
        <time>2021-06-10T09:53:58.000Z</time>
      </trkpt>
      <trkpt lat="44.5565" lon="6.33767">
        <ele>1268</ele>
        <time>2021-06-10T09:54:00.000Z</time>
      </trkpt>
      <trkpt lat="44.55651" lon="6.33764">
        <ele>1267.4000244141</ele>
        <time>2021-06-10T09:54:01.000Z</time>
      </trkpt>
      <trkpt lat="44.55653" lon="6.33763">
        <ele>1266.8000488281</ele>
        <time>2021-06-10T09:54:02.000Z</time>
      </trkpt>
      <trkpt lat="44.55654" lon="6.33759">
        <ele>1265.5999755859</ele>
        <time>2021-06-10T09:54:04.000Z</time>
      </trkpt>
      <trkpt lat="44.55658" lon="6.33754">
        <ele>1265.1999511719</ele>
        <time>2021-06-10T09:54:07.000Z</time>
      </trkpt>
      <trkpt lat="44.5566" lon="6.3375">
        <ele>1265.1999511719</ele>
        <time>2021-06-10T09:54:09.000Z</time>
      </trkpt>
      <trkpt lat="44.55664" lon="6.33747">
        <ele>1265.1999511719</ele>
        <time>2021-06-10T09:54:12.000Z</time>
      </trkpt>
      <trkpt lat="44.55666" lon="6.33747">
        <ele>1265.1999511719</ele>
        <time>2021-06-10T09:54:13.000Z</time>
      </trkpt>
      <trkpt lat="44.55674" lon="6.3374">
        <ele>1266.1999511719</ele>
        <time>2021-06-10T09:54:17.000Z</time>
      </trkpt>
      <trkpt lat="44.55675" lon="6.33736">
        <ele>1266.5999755859</ele>
        <time>2021-06-10T09:54:19.000Z</time>
      </trkpt>
      <trkpt lat="44.55672" lon="6.33731">
        <ele>1266.8000488281</ele>
        <time>2021-06-10T09:54:22.000Z</time>
      </trkpt>
      <trkpt lat="44.55668" lon="6.33725">
        <ele>1266.8000488281</ele>
        <time>2021-06-10T09:54:26.000Z</time>
      </trkpt>
      <trkpt lat="44.55672" lon="6.3372">
        <ele>1266.4000244141</ele>
        <time>2021-06-10T09:54:29.000Z</time>
      </trkpt>
      <trkpt lat="44.55674" lon="6.33719">
        <ele>1266</ele>
        <time>2021-06-10T09:54:30.000Z</time>
      </trkpt>
      <trkpt lat="44.55676" lon="6.33719">
        <ele>1265.5999755859</ele>
        <time>2021-06-10T09:54:31.000Z</time>
      </trkpt>
      <trkpt lat="44.55683" lon="6.33719">
        <ele>1264.4000244141</ele>
        <time>2021-06-10T09:54:35.000Z</time>
      </trkpt>
      <trkpt lat="44.55685" lon="6.33719">
        <ele>1264.1999511719</ele>
        <time>2021-06-10T09:54:36.000Z</time>
      </trkpt>
      <trkpt lat="44.55696" lon="6.33721">
        <ele>1264</ele>
        <time>2021-06-10T09:54:43.000Z</time>
      </trkpt>
      <trkpt lat="44.55705" lon="6.33726">
        <ele>1264</ele>
        <time>2021-06-10T09:54:48.000Z</time>
      </trkpt>
      <trkpt lat="44.55713" lon="6.33733">
        <ele>1264.4000244141</ele>
        <time>2021-06-10T09:54:54.000Z</time>
      </trkpt>
      <trkpt lat="44.55723" lon="6.33734">
        <ele>1265.4000244141</ele>
        <time>2021-06-10T09:55:00.000Z</time>
      </trkpt>
      <trkpt lat="44.55726" lon="6.33728">
        <ele>1265.4000244141</ele>
        <time>2021-06-10T09:55:03.000Z</time>
      </trkpt>
      <trkpt lat="44.55727" lon="6.33726">
        <ele>1265.5999755859</ele>
        <time>2021-06-10T09:55:04.000Z</time>
      </trkpt>
      <trkpt lat="44.55726" lon="6.33718">
        <ele>1266</ele>
        <time>2021-06-10T09:55:08.000Z</time>
      </trkpt>
      <trkpt lat="44.55726" lon="6.33716">
        <ele>1266.4000244141</ele>
        <time>2021-06-10T09:55:09.000Z</time>
      </trkpt>
      <trkpt lat="44.55727" lon="6.33714">
        <ele>1266.8000488281</ele>
        <time>2021-06-10T09:55:10.000Z</time>
      </trkpt>
      <trkpt lat="44.55728" lon="6.33709">
        <ele>1268</ele>
        <time>2021-06-10T09:55:13.000Z</time>
      </trkpt>
      <trkpt lat="44.55727" lon="6.33706">
        <ele>1268.1999511719</ele>
        <time>2021-06-10T09:55:14.000Z</time>
      </trkpt>
      <trkpt lat="44.55726" lon="6.33701">
        <ele>1268.8000488281</ele>
        <time>2021-06-10T09:55:16.000Z</time>
      </trkpt>
      <trkpt lat="44.55726" lon="6.33699">
        <ele>1269</ele>
        <time>2021-06-10T09:55:17.000Z</time>
      </trkpt>
      <trkpt lat="44.55725" lon="6.33689">
        <ele>1270.8000488281</ele>
        <time>2021-06-10T09:55:21.000Z</time>
      </trkpt>
      <trkpt lat="44.55724" lon="6.33683">
        <ele>1271.4000244141</ele>
        <time>2021-06-10T09:55:23.000Z</time>
      </trkpt>
      <trkpt lat="44.55724" lon="6.33678">
        <ele>1272</ele>
        <time>2021-06-10T09:55:25.000Z</time>
      </trkpt>
      <trkpt lat="44.55722" lon="6.33669">
        <ele>1273</ele>
        <time>2021-06-10T09:55:28.000Z</time>
      </trkpt>
      <trkpt lat="44.55722" lon="6.33666">
        <ele>1273.4000244141</ele>
        <time>2021-06-10T09:55:29.000Z</time>
      </trkpt>
      <trkpt lat="44.5572" lon="6.33657">
        <ele>1274.4000244141</ele>
        <time>2021-06-10T09:55:32.000Z</time>
      </trkpt>
      <trkpt lat="44.5572" lon="6.33645">
        <ele>1275.5999755859</ele>
        <time>2021-06-10T09:55:36.000Z</time>
      </trkpt>
      <trkpt lat="44.5572" lon="6.33643">
        <ele>1275.8000488281</ele>
        <time>2021-06-10T09:55:37.000Z</time>
      </trkpt>
      <trkpt lat="44.55719" lon="6.33637">
        <ele>1276.8000488281</ele>
        <time>2021-06-10T09:55:39.000Z</time>
      </trkpt>
      <trkpt lat="44.55717" lon="6.33626">
        <ele>1277.4000244141</ele>
        <time>2021-06-10T09:55:42.000Z</time>
      </trkpt>
      <trkpt lat="44.55716" lon="6.3362">
        <ele>1277.8000488281</ele>
        <time>2021-06-10T09:55:44.000Z</time>
      </trkpt>
      <trkpt lat="44.55713" lon="6.336">
        <ele>1278.4000244141</ele>
        <time>2021-06-10T09:55:48.000Z</time>
      </trkpt>
      <trkpt lat="44.55712" lon="6.33574">
        <ele>1278.5999755859</ele>
        <time>2021-06-10T09:55:53.000Z</time>
      </trkpt>
      <trkpt lat="44.55714" lon="6.33561">
        <ele>1277.8000488281</ele>
        <time>2021-06-10T09:55:58.000Z</time>
      </trkpt>
      <trkpt lat="44.55714" lon="6.33559">
        <ele>1277.8000488281</ele>
        <time>2021-06-10T09:55:59.000Z</time>
      </trkpt>
      <trkpt lat="44.5571" lon="6.33554">
        <ele>1277.8000488281</ele>
        <time>2021-06-10T09:56:02.000Z</time>
      </trkpt>
      <trkpt lat="44.557" lon="6.33547">
        <ele>1277.4000244141</ele>
        <time>2021-06-10T09:56:06.000Z</time>
      </trkpt>
      <trkpt lat="44.55687" lon="6.3353">
        <ele>1277</ele>
        <time>2021-06-10T09:56:11.000Z</time>
      </trkpt>
      <trkpt lat="44.55682" lon="6.33523">
        <ele>1276.5999755859</ele>
        <time>2021-06-10T09:56:13.000Z</time>
      </trkpt>
      <trkpt lat="44.55681" lon="6.33519">
        <ele>1276.1999511719</ele>
        <time>2021-06-10T09:56:14.000Z</time>
      </trkpt>
      <trkpt lat="44.5568" lon="6.33511">
        <ele>1275.5999755859</ele>
        <time>2021-06-10T09:56:17.000Z</time>
      </trkpt>
      <trkpt lat="44.5568" lon="6.33509">
        <ele>1275.4000244141</ele>
        <time>2021-06-10T09:56:18.000Z</time>
      </trkpt>
      <trkpt lat="44.55679" lon="6.33507">
        <ele>1274.4000244141</ele>
        <time>2021-06-10T09:56:19.000Z</time>
      </trkpt>
      <trkpt lat="44.55675" lon="6.33489">
        <ele>1273.5999755859</ele>
        <time>2021-06-10T09:56:24.000Z</time>
      </trkpt>
      <trkpt lat="44.55674" lon="6.33485">
        <ele>1273.5999755859</ele>
        <time>2021-06-10T09:56:25.000Z</time>
      </trkpt>
      <trkpt lat="44.55668" lon="6.33465">
        <ele>1273.5999755859</ele>
        <time>2021-06-10T09:56:31.000Z</time>
      </trkpt>
      <trkpt lat="44.55663" lon="6.3344">
        <ele>1274.4000244141</ele>
        <time>2021-06-10T09:56:37.000Z</time>
      </trkpt>
      <trkpt lat="44.55662" lon="6.33431">
        <ele>1274.8000488281</ele>
        <time>2021-06-10T09:56:39.000Z</time>
      </trkpt>
      <trkpt lat="44.55661" lon="6.33409">
        <ele>1275</ele>
        <time>2021-06-10T09:56:44.000Z</time>
      </trkpt>
      <trkpt lat="44.55663" lon="6.33393">
        <ele>1275</ele>
        <time>2021-06-10T09:56:47.000Z</time>
      </trkpt>
      <trkpt lat="44.55664" lon="6.33383">
        <ele>1274.8000488281</ele>
        <time>2021-06-10T09:56:49.000Z</time>
      </trkpt>
      <trkpt lat="44.55661" lon="6.33376">
        <ele>1274.5999755859</ele>
        <time>2021-06-10T09:56:52.000Z</time>
      </trkpt>
      <trkpt lat="44.55657" lon="6.33373">
        <ele>1274.1999511719</ele>
        <time>2021-06-10T09:56:54.000Z</time>
      </trkpt>
      <trkpt lat="44.55653" lon="6.33368">
        <ele>1273.8000488281</ele>
        <time>2021-06-10T09:56:56.000Z</time>
      </trkpt>
      <trkpt lat="44.55648" lon="6.33363">
        <ele>1273.8000488281</ele>
        <time>2021-06-10T09:56:58.000Z</time>
      </trkpt>
      <trkpt lat="44.55638" lon="6.33343">
        <ele>1273.8000488281</ele>
        <time>2021-06-10T09:57:03.000Z</time>
      </trkpt>
      <trkpt lat="44.55633" lon="6.33328">
        <ele>1274.1999511719</ele>
        <time>2021-06-10T09:57:07.000Z</time>
      </trkpt>
      <trkpt lat="44.55629" lon="6.33316">
        <ele>1274.4000244141</ele>
        <time>2021-06-10T09:57:09.000Z</time>
      </trkpt>
      <trkpt lat="44.55624" lon="6.33304">
        <ele>1274.4000244141</ele>
        <time>2021-06-10T09:57:11.000Z</time>
      </trkpt>
      <trkpt lat="44.55617" lon="6.33295">
        <ele>1274.4000244141</ele>
        <time>2021-06-10T09:57:13.000Z</time>
      </trkpt>
      <trkpt lat="44.55601" lon="6.3328">
        <ele>1273.5999755859</ele>
        <time>2021-06-10T09:57:17.000Z</time>
      </trkpt>
      <trkpt lat="44.55594" lon="6.33267">
        <ele>1272.1999511719</ele>
        <time>2021-06-10T09:57:19.000Z</time>
      </trkpt>
      <trkpt lat="44.55587" lon="6.33254">
        <ele>1271</ele>
        <time>2021-06-10T09:57:21.000Z</time>
      </trkpt>
      <trkpt lat="44.55579" lon="6.33231">
        <ele>1269.8000488281</ele>
        <time>2021-06-10T09:57:24.000Z</time>
      </trkpt>
      <trkpt lat="44.55573" lon="6.33216">
        <ele>1268.8000488281</ele>
        <time>2021-06-10T09:57:26.000Z</time>
      </trkpt>
      <trkpt lat="44.55569" lon="6.33208">
        <ele>1268.4000244141</ele>
        <time>2021-06-10T09:57:27.000Z</time>
      </trkpt>
      <trkpt lat="44.55562" lon="6.33193">
        <ele>1267.1999511719</ele>
        <time>2021-06-10T09:57:29.000Z</time>
      </trkpt>
      <trkpt lat="44.55559" lon="6.33186">
        <ele>1267</ele>
        <time>2021-06-10T09:57:30.000Z</time>
      </trkpt>
      <trkpt lat="44.55552" lon="6.33175">
        <ele>1266.4000244141</ele>
        <time>2021-06-10T09:57:32.000Z</time>
      </trkpt>
      <trkpt lat="44.55549" lon="6.33169">
        <ele>1265.8000488281</ele>
        <time>2021-06-10T09:57:33.000Z</time>
      </trkpt>
      <trkpt lat="44.55546" lon="6.33164">
        <ele>1265.5999755859</ele>
        <time>2021-06-10T09:57:34.000Z</time>
      </trkpt>
      <trkpt lat="44.55543" lon="6.33151">
        <ele>1265.1999511719</ele>
        <time>2021-06-10T09:57:36.000Z</time>
      </trkpt>
      <trkpt lat="44.55542" lon="6.33144">
        <ele>1265</ele>
        <time>2021-06-10T09:57:37.000Z</time>
      </trkpt>
      <trkpt lat="44.55542" lon="6.33129">
        <ele>1264.8000488281</ele>
        <time>2021-06-10T09:57:40.000Z</time>
      </trkpt>
      <trkpt lat="44.55544" lon="6.33118">
        <ele>1264.4000244141</ele>
        <time>2021-06-10T09:57:44.000Z</time>
      </trkpt>
      <trkpt lat="44.55545" lon="6.33103">
        <ele>1264</ele>
        <time>2021-06-10T09:57:49.000Z</time>
      </trkpt>
      <trkpt lat="44.55547" lon="6.33081">
        <ele>1263.4000244141</ele>
        <time>2021-06-10T09:57:54.000Z</time>
      </trkpt>
      <trkpt lat="44.55547" lon="6.33062">
        <ele>1263</ele>
        <time>2021-06-10T09:58:00.000Z</time>
      </trkpt>
      <trkpt lat="44.55546" lon="6.3306">
        <ele>1262.8000488281</ele>
        <time>2021-06-10T09:58:01.000Z</time>
      </trkpt>
      <trkpt lat="44.55542" lon="6.33045">
        <ele>1262.8000488281</ele>
        <time>2021-06-10T09:58:06.000Z</time>
      </trkpt>
      <trkpt lat="44.55535" lon="6.33025">
        <ele>1263</ele>
        <time>2021-06-10T09:58:12.000Z</time>
      </trkpt>
      <trkpt lat="44.55529" lon="6.33014">
        <ele>1264</ele>
        <time>2021-06-10T09:58:15.000Z</time>
      </trkpt>
      <trkpt lat="44.55523" lon="6.33003">
        <ele>1264.8000488281</ele>
        <time>2021-06-10T09:58:18.000Z</time>
      </trkpt>
      <trkpt lat="44.55522" lon="6.32999">
        <ele>1265.1999511719</ele>
        <time>2021-06-10T09:58:19.000Z</time>
      </trkpt>
      <trkpt lat="44.55517" lon="6.32978">
        <ele>1266</ele>
        <time>2021-06-10T09:58:24.000Z</time>
      </trkpt>
      <trkpt lat="44.55514" lon="6.32955">
        <ele>1266</ele>
        <time>2021-06-10T09:58:29.000Z</time>
      </trkpt>
      <trkpt lat="44.55515" lon="6.32922">
        <ele>1265.8000488281</ele>
        <time>2021-06-10T09:58:35.000Z</time>
      </trkpt>
      <trkpt lat="44.55519" lon="6.329">
        <ele>1265.5999755859</ele>
        <time>2021-06-10T09:58:40.000Z</time>
      </trkpt>
      <trkpt lat="44.55523" lon="6.32867">
        <ele>1265.1999511719</ele>
        <time>2021-06-10T09:58:46.000Z</time>
      </trkpt>
      <trkpt lat="44.55524" lon="6.32832">
        <ele>1265.1999511719</ele>
        <time>2021-06-10T09:58:53.000Z</time>
      </trkpt>
      <trkpt lat="44.55531" lon="6.32804">
        <ele>1265</ele>
        <time>2021-06-10T09:58:58.000Z</time>
      </trkpt>
      <trkpt lat="44.55532" lon="6.32798">
        <ele>1265</ele>
        <time>2021-06-10T09:58:59.000Z</time>
      </trkpt>
      <trkpt lat="44.55536" lon="6.32778">
        <ele>1264.8000488281</ele>
        <time>2021-06-10T09:59:03.000Z</time>
      </trkpt>
      <trkpt lat="44.55538" lon="6.32768">
        <ele>1264.4000244141</ele>
        <time>2021-06-10T09:59:07.000Z</time>
      </trkpt>
      <trkpt lat="44.55537" lon="6.32763">
        <ele>1264.4000244141</ele>
        <time>2021-06-10T09:59:11.000Z</time>
      </trkpt>
      <trkpt lat="44.55537" lon="6.3276">
        <ele>1264.4000244141</ele>
        <time>2021-06-10T09:59:13.000Z</time>
      </trkpt>
      <trkpt lat="44.55538" lon="6.32759">
        <ele>1264.5999755859</ele>
        <time>2021-06-10T09:59:21.000Z</time>
      </trkpt>
      <trkpt lat="44.55539" lon="6.3276">
        <ele>1264.5999755859</ele>
        <time>2021-06-10T09:59:26.000Z</time>
      </trkpt>
      <trkpt lat="44.55539" lon="6.32763">
        <ele>1264.5999755859</ele>
        <time>2021-06-10T09:59:28.000Z</time>
      </trkpt>
      <trkpt lat="44.55539" lon="6.32765">
        <ele>1264.5999755859</ele>
        <time>2021-06-10T09:59:29.000Z</time>
      </trkpt>
      <trkpt lat="44.55545" lon="6.32775">
        <ele>1265.1999511719</ele>
        <time>2021-06-10T09:59:36.000Z</time>
      </trkpt>
      <trkpt lat="44.55549" lon="6.32779">
        <ele>1266.5999755859</ele>
        <time>2021-06-10T09:59:39.000Z</time>
      </trkpt>
      <trkpt lat="44.55552" lon="6.32782">
        <ele>1268</ele>
        <time>2021-06-10T09:59:42.000Z</time>
      </trkpt>
      <trkpt lat="44.55554" lon="6.32785">
        <ele>1268.4000244141</ele>
        <time>2021-06-10T09:59:44.000Z</time>
      </trkpt>
      <trkpt lat="44.55556" lon="6.32788">
        <ele>1269.1999511719</ele>
        <time>2021-06-10T09:59:46.000Z</time>
      </trkpt>
      <trkpt lat="44.5556" lon="6.32793">
        <ele>1270.4000244141</ele>
        <time>2021-06-10T09:59:50.000Z</time>
      </trkpt>
      <trkpt lat="44.55563" lon="6.32797">
        <ele>1271.4000244141</ele>
        <time>2021-06-10T09:59:53.000Z</time>
      </trkpt>
      <trkpt lat="44.55564" lon="6.32798">
        <ele>1271.8000488281</ele>
        <time>2021-06-10T09:59:54.000Z</time>
      </trkpt>
      <trkpt lat="44.55568" lon="6.32803">
        <ele>1273</ele>
        <time>2021-06-10T09:59:58.000Z</time>
      </trkpt>
      <trkpt lat="44.55569" lon="6.32806">
        <ele>1273.8000488281</ele>
        <time>2021-06-10T10:00:00.000Z</time>
      </trkpt>
      <trkpt lat="44.55571" lon="6.32809">
        <ele>1274.4000244141</ele>
        <time>2021-06-10T10:00:02.000Z</time>
      </trkpt>
      <trkpt lat="44.55573" lon="6.32814">
        <ele>1275.8000488281</ele>
        <time>2021-06-10T10:00:05.000Z</time>
      </trkpt>
      <trkpt lat="44.55575" lon="6.32818">
        <ele>1276.8000488281</ele>
        <time>2021-06-10T10:00:08.000Z</time>
      </trkpt>
      <trkpt lat="44.55577" lon="6.32823">
        <ele>1278</ele>
        <time>2021-06-10T10:00:11.000Z</time>
      </trkpt>
      <trkpt lat="44.55581" lon="6.32829">
        <ele>1279.1999511719</ele>
        <time>2021-06-10T10:00:15.000Z</time>
      </trkpt>
      <trkpt lat="44.5559" lon="6.3283">
        <ele>1280.1999511719</ele>
        <time>2021-06-10T10:00:21.000Z</time>
      </trkpt>
      <trkpt lat="44.55601" lon="6.32836">
        <ele>1281</ele>
        <time>2021-06-10T10:00:30.000Z</time>
      </trkpt>
      <trkpt lat="44.55612" lon="6.32839">
        <ele>1281.4000244141</ele>
        <time>2021-06-10T10:00:36.000Z</time>
      </trkpt>
      <trkpt lat="44.55614" lon="6.3284">
        <ele>1281.8000488281</ele>
        <time>2021-06-10T10:00:38.000Z</time>
      </trkpt>
      <trkpt lat="44.55617" lon="6.32842">
        <ele>1282</ele>
        <time>2021-06-10T10:00:40.000Z</time>
      </trkpt>
      <trkpt lat="44.55623" lon="6.32848">
        <ele>1282.1999511719</ele>
        <time>2021-06-10T10:00:44.000Z</time>
      </trkpt>
      <trkpt lat="44.55628" lon="6.32854">
        <ele>1282.8000488281</ele>
        <time>2021-06-10T10:00:48.000Z</time>
      </trkpt>
      <trkpt lat="44.55632" lon="6.32862">
        <ele>1284</ele>
        <time>2021-06-10T10:00:52.000Z</time>
      </trkpt>
      <trkpt lat="44.55633" lon="6.32864">
        <ele>1284.4000244141</ele>
        <time>2021-06-10T10:00:53.000Z</time>
      </trkpt>
      <trkpt lat="44.55634" lon="6.32869">
        <ele>1285</ele>
        <time>2021-06-10T10:00:55.000Z</time>
      </trkpt>
      <trkpt lat="44.55634" lon="6.32878">
        <ele>1286.1999511719</ele>
        <time>2021-06-10T10:00:59.000Z</time>
      </trkpt>
      <trkpt lat="44.55633" lon="6.32881">
        <ele>1286.5999755859</ele>
        <time>2021-06-10T10:01:00.000Z</time>
      </trkpt>
      <trkpt lat="44.55632" lon="6.32888">
        <ele>1287.4000244141</ele>
        <time>2021-06-10T10:01:03.000Z</time>
      </trkpt>
      <trkpt lat="44.55633" lon="6.32896">
        <ele>1289</ele>
        <time>2021-06-10T10:01:07.000Z</time>
      </trkpt>
      <trkpt lat="44.55636" lon="6.32905">
        <ele>1290</ele>
        <time>2021-06-10T10:01:11.000Z</time>
      </trkpt>
      <trkpt lat="44.55642" lon="6.32914">
        <ele>1291</ele>
        <time>2021-06-10T10:01:15.000Z</time>
      </trkpt>
      <trkpt lat="44.55643" lon="6.32916">
        <ele>1291.1999511719</ele>
        <time>2021-06-10T10:01:16.000Z</time>
      </trkpt>
      <trkpt lat="44.5565" lon="6.32924">
        <ele>1292.4000244141</ele>
        <time>2021-06-10T10:01:20.000Z</time>
      </trkpt>
      <trkpt lat="44.55653" lon="6.32928">
        <ele>1292.8000488281</ele>
        <time>2021-06-10T10:01:22.000Z</time>
      </trkpt>
      <trkpt lat="44.55658" lon="6.32933">
        <ele>1293.4000244141</ele>
        <time>2021-06-10T10:01:25.000Z</time>
      </trkpt>
      <trkpt lat="44.55664" lon="6.3294">
        <ele>1294</ele>
        <time>2021-06-10T10:01:29.000Z</time>
      </trkpt>
      <trkpt lat="44.5567" lon="6.32948">
        <ele>1294.8000488281</ele>
        <time>2021-06-10T10:01:34.000Z</time>
      </trkpt>
      <trkpt lat="44.55672" lon="6.3295">
        <ele>1295</ele>
        <time>2021-06-10T10:01:35.000Z</time>
      </trkpt>
      <trkpt lat="44.55673" lon="6.32952">
        <ele>1295.4000244141</ele>
        <time>2021-06-10T10:01:36.000Z</time>
      </trkpt>
      <trkpt lat="44.55675" lon="6.32957">
        <ele>1295.8000488281</ele>
        <time>2021-06-10T10:01:38.000Z</time>
      </trkpt>
      <trkpt lat="44.55678" lon="6.32966">
        <ele>1297</ele>
        <time>2021-06-10T10:01:42.000Z</time>
      </trkpt>
      <trkpt lat="44.55679" lon="6.32974">
        <ele>1297.8000488281</ele>
        <time>2021-06-10T10:01:45.000Z</time>
      </trkpt>
      <trkpt lat="44.55679" lon="6.32977">
        <ele>1298.1999511719</ele>
        <time>2021-06-10T10:01:46.000Z</time>
      </trkpt>
      <trkpt lat="44.55678" lon="6.3299">
        <ele>1299.4000244141</ele>
        <time>2021-06-10T10:01:51.000Z</time>
      </trkpt>
      <trkpt lat="44.55678" lon="6.32998">
        <ele>1300.1999511719</ele>
        <time>2021-06-10T10:01:54.000Z</time>
      </trkpt>
      <trkpt lat="44.55678" lon="6.33">
        <ele>1300.5999755859</ele>
        <time>2021-06-10T10:01:55.000Z</time>
      </trkpt>
      <trkpt lat="44.55681" lon="6.3301">
        <ele>1301.8000488281</ele>
        <time>2021-06-10T10:01:59.000Z</time>
      </trkpt>
      <trkpt lat="44.55682" lon="6.33018">
        <ele>1302.5999755859</ele>
        <time>2021-06-10T10:02:02.000Z</time>
      </trkpt>
      <trkpt lat="44.55683" lon="6.3302">
        <ele>1302.8000488281</ele>
        <time>2021-06-10T10:02:03.000Z</time>
      </trkpt>
      <trkpt lat="44.55684" lon="6.33028">
        <ele>1304</ele>
        <time>2021-06-10T10:02:06.000Z</time>
      </trkpt>
      <trkpt lat="44.55686" lon="6.33039">
        <ele>1305</ele>
        <time>2021-06-10T10:02:10.000Z</time>
      </trkpt>
      <trkpt lat="44.55686" lon="6.33042">
        <ele>1305.4000244141</ele>
        <time>2021-06-10T10:02:11.000Z</time>
      </trkpt>
      <trkpt lat="44.55687" lon="6.33052">
        <ele>1306.1999511719</ele>
        <time>2021-06-10T10:02:15.000Z</time>
      </trkpt>
      <trkpt lat="44.5569" lon="6.33059">
        <ele>1307</ele>
        <time>2021-06-10T10:02:18.000Z</time>
      </trkpt>
      <trkpt lat="44.55691" lon="6.3306">
        <ele>1307.1999511719</ele>
        <time>2021-06-10T10:02:19.000Z</time>
      </trkpt>
      <trkpt lat="44.55695" lon="6.33057">
        <ele>1308.1999511719</ele>
        <time>2021-06-10T10:02:22.000Z</time>
      </trkpt>
      <trkpt lat="44.55695" lon="6.33055">
        <ele>1308.5999755859</ele>
        <time>2021-06-10T10:02:23.000Z</time>
      </trkpt>
      <trkpt lat="44.55696" lon="6.33052">
        <ele>1309</ele>
        <time>2021-06-10T10:02:24.000Z</time>
      </trkpt>
      <trkpt lat="44.55697" lon="6.33047">
        <ele>1309.8000488281</ele>
        <time>2021-06-10T10:02:26.000Z</time>
      </trkpt>
      <trkpt lat="44.557" lon="6.33037">
        <ele>1311.1999511719</ele>
        <time>2021-06-10T10:02:30.000Z</time>
      </trkpt>
      <trkpt lat="44.55702" lon="6.33032">
        <ele>1312.1999511719</ele>
        <time>2021-06-10T10:02:32.000Z</time>
      </trkpt>
      <trkpt lat="44.55705" lon="6.33026">
        <ele>1313.5999755859</ele>
        <time>2021-06-10T10:02:35.000Z</time>
      </trkpt>
      <trkpt lat="44.55707" lon="6.33022">
        <ele>1314</ele>
        <time>2021-06-10T10:02:37.000Z</time>
      </trkpt>
      <trkpt lat="44.55712" lon="6.33017">
        <ele>1314.8000488281</ele>
        <time>2021-06-10T10:02:40.000Z</time>
      </trkpt>
      <trkpt lat="44.55717" lon="6.33011">
        <ele>1315.4000244141</ele>
        <time>2021-06-10T10:02:42.000Z</time>
      </trkpt>
      <trkpt lat="44.5572" lon="6.33007">
        <ele>1315.8000488281</ele>
        <time>2021-06-10T10:02:44.000Z</time>
      </trkpt>
      <trkpt lat="44.55724" lon="6.33001">
        <ele>1316.4000244141</ele>
        <time>2021-06-10T10:02:47.000Z</time>
      </trkpt>
      <trkpt lat="44.55731" lon="6.32992">
        <ele>1317</ele>
        <time>2021-06-10T10:02:50.000Z</time>
      </trkpt>
      <trkpt lat="44.55735" lon="6.32988">
        <ele>1317.4000244141</ele>
        <time>2021-06-10T10:02:52.000Z</time>
      </trkpt>
      <trkpt lat="44.55742" lon="6.3298">
        <ele>1318</ele>
        <time>2021-06-10T10:02:56.000Z</time>
      </trkpt>
      <trkpt lat="44.5575" lon="6.3297">
        <ele>1318.1999511719</ele>
        <time>2021-06-10T10:03:00.000Z</time>
      </trkpt>
      <trkpt lat="44.55759" lon="6.3296">
        <ele>1319.1999511719</ele>
        <time>2021-06-10T10:03:04.000Z</time>
      </trkpt>
      <trkpt lat="44.55763" lon="6.32957">
        <ele>1319.5999755859</ele>
        <time>2021-06-10T10:03:06.000Z</time>
      </trkpt>
      <trkpt lat="44.55769" lon="6.32946">
        <ele>1320.1999511719</ele>
        <time>2021-06-10T10:03:10.000Z</time>
      </trkpt>
      <trkpt lat="44.55771" lon="6.32942">
        <ele>1320.1999511719</ele>
        <time>2021-06-10T10:03:11.000Z</time>
      </trkpt>
      <trkpt lat="44.55774" lon="6.32927">
        <ele>1320.5999755859</ele>
        <time>2021-06-10T10:03:15.000Z</time>
      </trkpt>
      <trkpt lat="44.55778" lon="6.329">
        <ele>1321</ele>
        <time>2021-06-10T10:03:24.000Z</time>
      </trkpt>
      <trkpt lat="44.55778" lon="6.32894">
        <ele>1321.4000244141</ele>
        <time>2021-06-10T10:03:26.000Z</time>
      </trkpt>
      <trkpt lat="44.55779" lon="6.32885">
        <ele>1322.4000244141</ele>
        <time>2021-06-10T10:03:29.000Z</time>
      </trkpt>
      <trkpt lat="44.55779" lon="6.32882">
        <ele>1322.5999755859</ele>
        <time>2021-06-10T10:03:30.000Z</time>
      </trkpt>
      <trkpt lat="44.55778" lon="6.32873">
        <ele>1323.5999755859</ele>
        <time>2021-06-10T10:03:33.000Z</time>
      </trkpt>
      <trkpt lat="44.55778" lon="6.32863">
        <ele>1324.4000244141</ele>
        <time>2021-06-10T10:03:36.000Z</time>
      </trkpt>
      <trkpt lat="44.55779" lon="6.32859">
        <ele>1324.8000488281</ele>
        <time>2021-06-10T10:03:37.000Z</time>
      </trkpt>
      <trkpt lat="44.55783" lon="6.32844">
        <ele>1325.8000488281</ele>
        <time>2021-06-10T10:03:41.000Z</time>
      </trkpt>
      <trkpt lat="44.55785" lon="6.32834">
        <ele>1326.8000488281</ele>
        <time>2021-06-10T10:03:44.000Z</time>
      </trkpt>
      <trkpt lat="44.55788" lon="6.32818">
        <ele>1328</ele>
        <time>2021-06-10T10:03:50.000Z</time>
      </trkpt>
      <trkpt lat="44.55791" lon="6.32802">
        <ele>1329</ele>
        <time>2021-06-10T10:03:56.000Z</time>
      </trkpt>
      <trkpt lat="44.55792" lon="6.328">
        <ele>1329.1999511719</ele>
        <time>2021-06-10T10:03:57.000Z</time>
      </trkpt>
      <trkpt lat="44.55795" lon="6.32783">
        <ele>1330</ele>
        <time>2021-06-10T10:04:02.000Z</time>
      </trkpt>
      <trkpt lat="44.55794" lon="6.32779">
        <ele>1330</ele>
        <time>2021-06-10T10:04:03.000Z</time>
      </trkpt>
      <trkpt lat="44.55794" lon="6.32766">
        <ele>1330</ele>
        <time>2021-06-10T10:04:07.000Z</time>
      </trkpt>
      <trkpt lat="44.55798" lon="6.32748">
        <ele>1329.8000488281</ele>
        <time>2021-06-10T10:04:12.000Z</time>
      </trkpt>
      <trkpt lat="44.55801" lon="6.32736">
        <ele>1329.5999755859</ele>
        <time>2021-06-10T10:04:17.000Z</time>
      </trkpt>
      <trkpt lat="44.55803" lon="6.3273">
        <ele>1329</ele>
        <time>2021-06-10T10:04:19.000Z</time>
      </trkpt>
      <trkpt lat="44.55811" lon="6.32717">
        <ele>1328.1999511719</ele>
        <time>2021-06-10T10:04:23.000Z</time>
      </trkpt>
      <trkpt lat="44.55813" lon="6.32704">
        <ele>1328</ele>
        <time>2021-06-10T10:04:27.000Z</time>
      </trkpt>
      <trkpt lat="44.55816" lon="6.32686">
        <ele>1328.4000244141</ele>
        <time>2021-06-10T10:04:33.000Z</time>
      </trkpt>
      <trkpt lat="44.55822" lon="6.32664">
        <ele>1329.1999511719</ele>
        <time>2021-06-10T10:04:40.000Z</time>
      </trkpt>
      <trkpt lat="44.55826" lon="6.32636">
        <ele>1329.8000488281</ele>
        <time>2021-06-10T10:04:48.000Z</time>
      </trkpt>
      <trkpt lat="44.55828" lon="6.32633">
        <ele>1330</ele>
        <time>2021-06-10T10:04:49.000Z</time>
      </trkpt>
      <trkpt lat="44.55835" lon="6.32617">
        <ele>1331</ele>
        <time>2021-06-10T10:04:55.000Z</time>
      </trkpt>
      <trkpt lat="44.55847" lon="6.32605">
        <ele>1331.8000488281</ele>
        <time>2021-06-10T10:05:00.000Z</time>
      </trkpt>
      <trkpt lat="44.55858" lon="6.32587">
        <ele>1331.8000488281</ele>
        <time>2021-06-10T10:05:05.000Z</time>
      </trkpt>
      <trkpt lat="44.55869" lon="6.32576">
        <ele>1332.4000244141</ele>
        <time>2021-06-10T10:05:11.000Z</time>
      </trkpt>
      <trkpt lat="44.55879" lon="6.32568">
        <ele>1333.1999511719</ele>
        <time>2021-06-10T10:05:17.000Z</time>
      </trkpt>
      <trkpt lat="44.55882" lon="6.32562">
        <ele>1333.4000244141</ele>
        <time>2021-06-10T10:05:19.000Z</time>
      </trkpt>
      <trkpt lat="44.55887" lon="6.32552">
        <ele>1334</ele>
        <time>2021-06-10T10:05:23.000Z</time>
      </trkpt>
      <trkpt lat="44.5589" lon="6.32548">
        <ele>1334.5999755859</ele>
        <time>2021-06-10T10:05:25.000Z</time>
      </trkpt>
      <trkpt lat="44.55897" lon="6.32545">
        <ele>1335</ele>
        <time>2021-06-10T10:05:28.000Z</time>
      </trkpt>
      <trkpt lat="44.55909" lon="6.32541">
        <ele>1335</ele>
        <time>2021-06-10T10:05:33.000Z</time>
      </trkpt>
      <trkpt lat="44.55922" lon="6.32525">
        <ele>1335</ele>
        <time>2021-06-10T10:05:38.000Z</time>
      </trkpt>
      <trkpt lat="44.55932" lon="6.32513">
        <ele>1334.8000488281</ele>
        <time>2021-06-10T10:05:42.000Z</time>
      </trkpt>
      <trkpt lat="44.5595" lon="6.32494">
        <ele>1334.8000488281</ele>
        <time>2021-06-10T10:05:51.000Z</time>
      </trkpt>
      <trkpt lat="44.55958" lon="6.32486">
        <ele>1336.1999511719</ele>
        <time>2021-06-10T10:05:55.000Z</time>
      </trkpt>
      <trkpt lat="44.5596" lon="6.32483">
        <ele>1336.5999755859</ele>
        <time>2021-06-10T10:05:56.000Z</time>
      </trkpt>
      <trkpt lat="44.55963" lon="6.3248">
        <ele>1336.8000488281</ele>
        <time>2021-06-10T10:05:57.000Z</time>
      </trkpt>
      <trkpt lat="44.55972" lon="6.3246">
        <ele>1336.8000488281</ele>
        <time>2021-06-10T10:06:02.000Z</time>
      </trkpt>
      <trkpt lat="44.55979" lon="6.32445">
        <ele>1337.1999511719</ele>
        <time>2021-06-10T10:06:07.000Z</time>
      </trkpt>
      <trkpt lat="44.55981" lon="6.32442">
        <ele>1337.4000244141</ele>
        <time>2021-06-10T10:06:08.000Z</time>
      </trkpt>
      <trkpt lat="44.55992" lon="6.32418">
        <ele>1338</ele>
        <time>2021-06-10T10:06:16.000Z</time>
      </trkpt>
      <trkpt lat="44.55994" lon="6.32415">
        <ele>1338.1999511719</ele>
        <time>2021-06-10T10:06:17.000Z</time>
      </trkpt>
      <trkpt lat="44.56" lon="6.32399">
        <ele>1339.4000244141</ele>
        <time>2021-06-10T10:06:22.000Z</time>
      </trkpt>
      <trkpt lat="44.56003" lon="6.32392">
        <ele>1340.4000244141</ele>
        <time>2021-06-10T10:06:24.000Z</time>
      </trkpt>
      <trkpt lat="44.56004" lon="6.32389">
        <ele>1340.5999755859</ele>
        <time>2021-06-10T10:06:25.000Z</time>
      </trkpt>
      <trkpt lat="44.56009" lon="6.32372">
        <ele>1341.5999755859</ele>
        <time>2021-06-10T10:06:30.000Z</time>
      </trkpt>
      <trkpt lat="44.5601" lon="6.32368">
        <ele>1341.8000488281</ele>
        <time>2021-06-10T10:06:31.000Z</time>
      </trkpt>
      <trkpt lat="44.56012" lon="6.32355">
        <ele>1342.5999755859</ele>
        <time>2021-06-10T10:06:35.000Z</time>
      </trkpt>
      <trkpt lat="44.56014" lon="6.32345">
        <ele>1343.4000244141</ele>
        <time>2021-06-10T10:06:38.000Z</time>
      </trkpt>
      <trkpt lat="44.56015" lon="6.32338">
        <ele>1343.5999755859</ele>
        <time>2021-06-10T10:06:40.000Z</time>
      </trkpt>
      <trkpt lat="44.56016" lon="6.32322">
        <ele>1344.1999511719</ele>
        <time>2021-06-10T10:06:44.000Z</time>
      </trkpt>
      <trkpt lat="44.56018" lon="6.32314">
        <ele>1344.8000488281</ele>
        <time>2021-06-10T10:06:46.000Z</time>
      </trkpt>
      <trkpt lat="44.56024" lon="6.32301">
        <ele>1344.8000488281</ele>
        <time>2021-06-10T10:06:50.000Z</time>
      </trkpt>
      <trkpt lat="44.56039" lon="6.3228">
        <ele>1344.5999755859</ele>
        <time>2021-06-10T10:06:57.000Z</time>
      </trkpt>
      <trkpt lat="44.56051" lon="6.32261">
        <ele>1344.1999511719</ele>
        <time>2021-06-10T10:07:03.000Z</time>
      </trkpt>
      <trkpt lat="44.56066" lon="6.32238">
        <ele>1344.4000244141</ele>
        <time>2021-06-10T10:07:11.000Z</time>
      </trkpt>
      <trkpt lat="44.56073" lon="6.32216">
        <ele>1344.5999755859</ele>
        <time>2021-06-10T10:07:17.000Z</time>
      </trkpt>
      <trkpt lat="44.56077" lon="6.32204">
        <ele>1345.8000488281</ele>
        <time>2021-06-10T10:07:21.000Z</time>
      </trkpt>
      <trkpt lat="44.56078" lon="6.32197">
        <ele>1346</ele>
        <time>2021-06-10T10:07:23.000Z</time>
      </trkpt>
      <trkpt lat="44.56079" lon="6.32182">
        <ele>1347</ele>
        <time>2021-06-10T10:07:27.000Z</time>
      </trkpt>
      <trkpt lat="44.5608" lon="6.32173">
        <ele>1347.4000244141</ele>
        <time>2021-06-10T10:07:29.000Z</time>
      </trkpt>
      <trkpt lat="44.5608" lon="6.32156">
        <ele>1348</ele>
        <time>2021-06-10T10:07:33.000Z</time>
      </trkpt>
      <trkpt lat="44.5608" lon="6.32145">
        <ele>1348.5999755859</ele>
        <time>2021-06-10T10:07:36.000Z</time>
      </trkpt>
      <trkpt lat="44.56078" lon="6.32132">
        <ele>1349</ele>
        <time>2021-06-10T10:07:39.000Z</time>
      </trkpt>
      <trkpt lat="44.56074" lon="6.32119">
        <ele>1349.8000488281</ele>
        <time>2021-06-10T10:07:43.000Z</time>
      </trkpt>
      <trkpt lat="44.56072" lon="6.32112">
        <ele>1350.1999511719</ele>
        <time>2021-06-10T10:07:45.000Z</time>
      </trkpt>
      <trkpt lat="44.56069" lon="6.32101">
        <ele>1350.5999755859</ele>
        <time>2021-06-10T10:07:48.000Z</time>
      </trkpt>
      <trkpt lat="44.56066" lon="6.32092">
        <ele>1351.4000244141</ele>
        <time>2021-06-10T10:07:51.000Z</time>
      </trkpt>
      <trkpt lat="44.56061" lon="6.3208">
        <ele>1352.4000244141</ele>
        <time>2021-06-10T10:07:55.000Z</time>
      </trkpt>
      <trkpt lat="44.5606" lon="6.32076">
        <ele>1352.5999755859</ele>
        <time>2021-06-10T10:07:56.000Z</time>
      </trkpt>
      <trkpt lat="44.56058" lon="6.32063">
        <ele>1353.5999755859</ele>
        <time>2021-06-10T10:07:59.000Z</time>
      </trkpt>
      <trkpt lat="44.56058" lon="6.32054">
        <ele>1354.1999511719</ele>
        <time>2021-06-10T10:08:01.000Z</time>
      </trkpt>
      <trkpt lat="44.56058" lon="6.32047">
        <ele>1354.5999755859</ele>
        <time>2021-06-10T10:08:03.000Z</time>
      </trkpt>
      <trkpt lat="44.56059" lon="6.32035">
        <ele>1355.5999755859</ele>
        <time>2021-06-10T10:08:07.000Z</time>
      </trkpt>
      <trkpt lat="44.5606" lon="6.32032">
        <ele>1355.8000488281</ele>
        <time>2021-06-10T10:08:08.000Z</time>
      </trkpt>
      <trkpt lat="44.56061" lon="6.32023">
        <ele>1356.5999755859</ele>
        <time>2021-06-10T10:08:11.000Z</time>
      </trkpt>
      <trkpt lat="44.56061" lon="6.32014">
        <ele>1357</ele>
        <time>2021-06-10T10:08:13.000Z</time>
      </trkpt>
      <trkpt lat="44.56063" lon="6.32007">
        <ele>1357.4000244141</ele>
        <time>2021-06-10T10:08:15.000Z</time>
      </trkpt>
      <trkpt lat="44.56065" lon="6.31994">
        <ele>1358.1999511719</ele>
        <time>2021-06-10T10:08:19.000Z</time>
      </trkpt>
      <trkpt lat="44.56066" lon="6.31984">
        <ele>1358.4000244141</ele>
        <time>2021-06-10T10:08:22.000Z</time>
      </trkpt>
      <trkpt lat="44.56074" lon="6.31966">
        <ele>1358.8000488281</ele>
        <time>2021-06-10T10:08:27.000Z</time>
      </trkpt>
      <trkpt lat="44.56082" lon="6.31958">
        <ele>1359.1999511719</ele>
        <time>2021-06-10T10:08:30.000Z</time>
      </trkpt>
      <trkpt lat="44.56085" lon="6.31956">
        <ele>1359.4000244141</ele>
        <time>2021-06-10T10:08:32.000Z</time>
      </trkpt>
      <trkpt lat="44.561" lon="6.31959">
        <ele>1359.5999755859</ele>
        <time>2021-06-10T10:08:38.000Z</time>
      </trkpt>
      <trkpt lat="44.56119" lon="6.31969">
        <ele>1359.5999755859</ele>
        <time>2021-06-10T10:08:44.000Z</time>
      </trkpt>
      <trkpt lat="44.56131" lon="6.31966">
        <ele>1359.8000488281</ele>
        <time>2021-06-10T10:08:48.000Z</time>
      </trkpt>
      <trkpt lat="44.56138" lon="6.31951">
        <ele>1360</ele>
        <time>2021-06-10T10:08:52.000Z</time>
      </trkpt>
      <trkpt lat="44.5614" lon="6.3194">
        <ele>1360.4000244141</ele>
        <time>2021-06-10T10:08:54.000Z</time>
      </trkpt>
      <trkpt lat="44.56145" lon="6.31912">
        <ele>1361.4000244141</ele>
        <time>2021-06-10T10:09:00.000Z</time>
      </trkpt>
      <trkpt lat="44.56146" lon="6.31907">
        <ele>1361.4000244141</ele>
        <time>2021-06-10T10:09:01.000Z</time>
      </trkpt>
      <trkpt lat="44.56151" lon="6.31877">
        <ele>1362.1999511719</ele>
        <time>2021-06-10T10:09:08.000Z</time>
      </trkpt>
      <trkpt lat="44.56152" lon="6.31869">
        <ele>1362.8000488281</ele>
        <time>2021-06-10T10:09:10.000Z</time>
      </trkpt>
      <trkpt lat="44.5615" lon="6.31852">
        <ele>1363.8000488281</ele>
        <time>2021-06-10T10:09:14.000Z</time>
      </trkpt>
      <trkpt lat="44.56149" lon="6.31847">
        <ele>1364.1999511719</ele>
        <time>2021-06-10T10:09:15.000Z</time>
      </trkpt>
      <trkpt lat="44.56147" lon="6.31839">
        <ele>1365</ele>
        <time>2021-06-10T10:09:17.000Z</time>
      </trkpt>
      <trkpt lat="44.56142" lon="6.31825">
        <ele>1365.8000488281</ele>
        <time>2021-06-10T10:09:21.000Z</time>
      </trkpt>
      <trkpt lat="44.56141" lon="6.31821">
        <ele>1366</ele>
        <time>2021-06-10T10:09:22.000Z</time>
      </trkpt>
      <trkpt lat="44.56135" lon="6.31805">
        <ele>1367.4000244141</ele>
        <time>2021-06-10T10:09:26.000Z</time>
      </trkpt>
      <trkpt lat="44.56134" lon="6.31801">
        <ele>1367.5999755859</ele>
        <time>2021-06-10T10:09:27.000Z</time>
      </trkpt>
      <trkpt lat="44.56124" lon="6.31773">
        <ele>1368.4000244141</ele>
        <time>2021-06-10T10:09:34.000Z</time>
      </trkpt>
      <trkpt lat="44.56122" lon="6.31766">
        <ele>1368.4000244141</ele>
        <time>2021-06-10T10:09:36.000Z</time>
      </trkpt>
      <trkpt lat="44.56115" lon="6.31738">
        <ele>1369.4000244141</ele>
        <time>2021-06-10T10:09:43.000Z</time>
      </trkpt>
      <trkpt lat="44.56116" lon="6.31716">
        <ele>1370.5999755859</ele>
        <time>2021-06-10T10:09:49.000Z</time>
      </trkpt>
      <trkpt lat="44.56117" lon="6.31713">
        <ele>1370.8000488281</ele>
        <time>2021-06-10T10:09:50.000Z</time>
      </trkpt>
      <trkpt lat="44.56121" lon="6.31705">
        <ele>1371.5999755859</ele>
        <time>2021-06-10T10:09:53.000Z</time>
      </trkpt>
      <trkpt lat="44.56127" lon="6.31698">
        <ele>1372.1999511719</ele>
        <time>2021-06-10T10:09:56.000Z</time>
      </trkpt>
      <trkpt lat="44.56132" lon="6.31695">
        <ele>1372.8000488281</ele>
        <time>2021-06-10T10:09:58.000Z</time>
      </trkpt>
      <trkpt lat="44.56138" lon="6.31691">
        <ele>1374</ele>
        <time>2021-06-10T10:10:01.000Z</time>
      </trkpt>
      <trkpt lat="44.56143" lon="6.31687">
        <ele>1374.8000488281</ele>
        <time>2021-06-10T10:10:04.000Z</time>
      </trkpt>
      <trkpt lat="44.56146" lon="6.31686">
        <ele>1375</ele>
        <time>2021-06-10T10:10:05.000Z</time>
      </trkpt>
      <trkpt lat="44.56152" lon="6.31683">
        <ele>1375.8000488281</ele>
        <time>2021-06-10T10:10:08.000Z</time>
      </trkpt>
      <trkpt lat="44.56153" lon="6.31681">
        <ele>1376.1999511719</ele>
        <time>2021-06-10T10:10:09.000Z</time>
      </trkpt>
      <trkpt lat="44.56152" lon="6.31671">
        <ele>1377.4000244141</ele>
        <time>2021-06-10T10:10:13.000Z</time>
      </trkpt>
      <trkpt lat="44.56138" lon="6.31661">
        <ele>1377.5999755859</ele>
        <time>2021-06-10T10:10:18.000Z</time>
      </trkpt>
      <trkpt lat="44.56122" lon="6.31645">
        <ele>1377.5999755859</ele>
        <time>2021-06-10T10:10:23.000Z</time>
      </trkpt>
      <trkpt lat="44.56111" lon="6.31633">
        <ele>1375.8000488281</ele>
        <time>2021-06-10T10:10:26.000Z</time>
      </trkpt>
      <trkpt lat="44.56108" lon="6.31632">
        <ele>1375.1999511719</ele>
        <time>2021-06-10T10:10:27.000Z</time>
      </trkpt>
      <trkpt lat="44.56104" lon="6.31631">
        <ele>1374.8000488281</ele>
        <time>2021-06-10T10:10:28.000Z</time>
      </trkpt>
      <trkpt lat="44.56096" lon="6.31627">
        <ele>1373.1999511719</ele>
        <time>2021-06-10T10:10:31.000Z</time>
      </trkpt>
      <trkpt lat="44.56093" lon="6.31627">
        <ele>1372.8000488281</ele>
        <time>2021-06-10T10:10:32.000Z</time>
      </trkpt>
      <trkpt lat="44.56087" lon="6.31626">
        <ele>1372</ele>
        <time>2021-06-10T10:10:34.000Z</time>
      </trkpt>
      <trkpt lat="44.56081" lon="6.31624">
        <ele>1370.8000488281</ele>
        <time>2021-06-10T10:10:36.000Z</time>
      </trkpt>
      <trkpt lat="44.56078" lon="6.31622">
        <ele>1370.4000244141</ele>
        <time>2021-06-10T10:10:37.000Z</time>
      </trkpt>
      <trkpt lat="44.56073" lon="6.31614">
        <ele>1369.4000244141</ele>
        <time>2021-06-10T10:10:39.000Z</time>
      </trkpt>
      <trkpt lat="44.56066" lon="6.31608">
        <ele>1368</ele>
        <time>2021-06-10T10:10:41.000Z</time>
      </trkpt>
      <trkpt lat="44.56063" lon="6.31605">
        <ele>1366.8000488281</ele>
        <time>2021-06-10T10:10:42.000Z</time>
      </trkpt>
      <trkpt lat="44.56055" lon="6.31599">
        <ele>1365.5999755859</ele>
        <time>2021-06-10T10:10:44.000Z</time>
      </trkpt>
      <trkpt lat="44.56051" lon="6.31589">
        <ele>1364.4000244141</ele>
        <time>2021-06-10T10:10:46.000Z</time>
      </trkpt>
      <trkpt lat="44.56052" lon="6.31574">
        <ele>1363</ele>
        <time>2021-06-10T10:10:50.000Z</time>
      </trkpt>
      <trkpt lat="44.56055" lon="6.31563">
        <ele>1362</ele>
        <time>2021-06-10T10:10:53.000Z</time>
      </trkpt>
      <trkpt lat="44.56059" lon="6.31546">
        <ele>1361.8000488281</ele>
        <time>2021-06-10T10:10:58.000Z</time>
      </trkpt>
      <trkpt lat="44.56054" lon="6.31532">
        <ele>1362</ele>
        <time>2021-06-10T10:11:02.000Z</time>
      </trkpt>
      <trkpt lat="44.56048" lon="6.31523">
        <ele>1363</ele>
        <time>2021-06-10T10:11:06.000Z</time>
      </trkpt>
      <trkpt lat="44.56045" lon="6.31519">
        <ele>1363.4000244141</ele>
        <time>2021-06-10T10:11:08.000Z</time>
      </trkpt>
      <trkpt lat="44.56033" lon="6.31518">
        <ele>1363.4000244141</ele>
        <time>2021-06-10T10:11:13.000Z</time>
      </trkpt>
      <trkpt lat="44.56023" lon="6.31511">
        <ele>1363</ele>
        <time>2021-06-10T10:11:17.000Z</time>
      </trkpt>
      <trkpt lat="44.56018" lon="6.31509">
        <ele>1362</ele>
        <time>2021-06-10T10:11:19.000Z</time>
      </trkpt>
      <trkpt lat="44.56014" lon="6.31507">
        <ele>1361</ele>
        <time>2021-06-10T10:11:21.000Z</time>
      </trkpt>
      <trkpt lat="44.56009" lon="6.31505">
        <ele>1359.8000488281</ele>
        <time>2021-06-10T10:11:23.000Z</time>
      </trkpt>
      <trkpt lat="44.56006" lon="6.31504">
        <ele>1359</ele>
        <time>2021-06-10T10:11:24.000Z</time>
      </trkpt>
      <trkpt lat="44.56002" lon="6.31503">
        <ele>1358.1999511719</ele>
        <time>2021-06-10T10:11:25.000Z</time>
      </trkpt>
      <trkpt lat="44.55994" lon="6.31502">
        <ele>1356.8000488281</ele>
        <time>2021-06-10T10:11:27.000Z</time>
      </trkpt>
      <trkpt lat="44.55991" lon="6.31503">
        <ele>1356</ele>
        <time>2021-06-10T10:11:28.000Z</time>
      </trkpt>
      <trkpt lat="44.55988" lon="6.31506">
        <ele>1355.1999511719</ele>
        <time>2021-06-10T10:11:29.000Z</time>
      </trkpt>
      <trkpt lat="44.55985" lon="6.31513">
        <ele>1353.4000244141</ele>
        <time>2021-06-10T10:11:31.000Z</time>
      </trkpt>
      <trkpt lat="44.55985" lon="6.31523">
        <ele>1351.4000244141</ele>
        <time>2021-06-10T10:11:33.000Z</time>
      </trkpt>
      <trkpt lat="44.55986" lon="6.3153">
        <ele>1350.1999511719</ele>
        <time>2021-06-10T10:11:34.000Z</time>
      </trkpt>
      <trkpt lat="44.55986" lon="6.31535">
        <ele>1348.8000488281</ele>
        <time>2021-06-10T10:11:35.000Z</time>
      </trkpt>
      <trkpt lat="44.55987" lon="6.3154">
        <ele>1347.8000488281</ele>
        <time>2021-06-10T10:11:36.000Z</time>
      </trkpt>
      <trkpt lat="44.55986" lon="6.31544">
        <ele>1346.8000488281</ele>
        <time>2021-06-10T10:11:37.000Z</time>
      </trkpt>
      <trkpt lat="44.55985" lon="6.31548">
        <ele>1344.5999755859</ele>
        <time>2021-06-10T10:11:39.000Z</time>
      </trkpt>
      <trkpt lat="44.55984" lon="6.3155">
        <ele>1343.5999755859</ele>
        <time>2021-06-10T10:11:41.000Z</time>
      </trkpt>
      <trkpt lat="44.55982" lon="6.31553">
        <ele>1342.4000244141</ele>
        <time>2021-06-10T10:11:43.000Z</time>
      </trkpt>
      <trkpt lat="44.55981" lon="6.31555">
        <ele>1341.4000244141</ele>
        <time>2021-06-10T10:11:45.000Z</time>
      </trkpt>
      <trkpt lat="44.55981" lon="6.31558">
        <ele>1340.1999511719</ele>
        <time>2021-06-10T10:11:49.000Z</time>
      </trkpt>
      <trkpt lat="44.5598" lon="6.31558">
        <ele>1339.8000488281</ele>
        <time>2021-06-10T10:11:51.000Z</time>
      </trkpt>
      <trkpt lat="44.5598" lon="6.3156">
        <ele>1339</ele>
        <time>2021-06-10T10:11:53.000Z</time>
      </trkpt>
      <trkpt lat="44.55979" lon="6.31561">
        <ele>1338</ele>
        <time>2021-06-10T10:11:56.000Z</time>
      </trkpt>
      <trkpt lat="44.5598" lon="6.31566">
        <ele>1337.5999755859</ele>
        <time>2021-06-10T10:12:03.000Z</time>
      </trkpt>
      <trkpt lat="44.55979" lon="6.31571">
        <ele>1337.5999755859</ele>
        <time>2021-06-10T10:12:10.000Z</time>
      </trkpt>
      <trkpt lat="44.55979" lon="6.31572">
        <ele>1337.1999511719</ele>
        <time>2021-06-10T10:12:15.000Z</time>
      </trkpt>
      <trkpt lat="44.55979" lon="6.31572">
        <ele>1337</ele>
        <time>2021-06-10T10:12:17.000Z</time>
      </trkpt>
      <trkpt lat="44.55979" lon="6.31573">
        <ele>1336.4000244141</ele>
        <time>2021-06-10T10:12:19.000Z</time>
      </trkpt>
      <trkpt lat="44.55979" lon="6.31578">
        <ele>1336</ele>
        <time>2021-06-10T10:12:21.000Z</time>
      </trkpt>
      <trkpt lat="44.55979" lon="6.31582">
        <ele>1335.8000488281</ele>
        <time>2021-06-10T10:12:23.000Z</time>
      </trkpt>
      <trkpt lat="44.55979" lon="6.31584">
        <ele>1335.8000488281</ele>
        <time>2021-06-10T10:12:26.000Z</time>
      </trkpt>
      <trkpt lat="44.55979" lon="6.31584">
        <ele>1334.8000488281</ele>
        <time>2021-06-10T10:12:33.000Z</time>
      </trkpt>
      <trkpt lat="44.55979" lon="6.31584">
        <ele>1334.5999755859</ele>
        <time>2021-06-10T10:12:36.000Z</time>
      </trkpt>
      <trkpt lat="44.55978" lon="6.31587">
        <ele>1334.5999755859</ele>
        <time>2021-06-10T10:12:46.000Z</time>
      </trkpt>
      <trkpt lat="44.55977" lon="6.31591">
        <ele>1334.5999755859</ele>
        <time>2021-06-10T10:12:49.000Z</time>
      </trkpt>
      <trkpt lat="44.55972" lon="6.31596">
        <ele>1334.5999755859</ele>
        <time>2021-06-10T10:12:52.000Z</time>
      </trkpt>
      <trkpt lat="44.55959" lon="6.31594">
        <ele>1334.5999755859</ele>
        <time>2021-06-10T10:12:56.000Z</time>
      </trkpt>
      <trkpt lat="44.55947" lon="6.31591">
        <ele>1333.8000488281</ele>
        <time>2021-06-10T10:12:59.000Z</time>
      </trkpt>
      <trkpt lat="44.55941" lon="6.31589">
        <ele>1332.5999755859</ele>
        <time>2021-06-10T10:13:01.000Z</time>
      </trkpt>
      <trkpt lat="44.55938" lon="6.31589">
        <ele>1331.8000488281</ele>
        <time>2021-06-10T10:13:02.000Z</time>
      </trkpt>
      <trkpt lat="44.55936" lon="6.31588">
        <ele>1331</ele>
        <time>2021-06-10T10:13:03.000Z</time>
      </trkpt>
      <trkpt lat="44.55933" lon="6.31588">
        <ele>1329.8000488281</ele>
        <time>2021-06-10T10:13:04.000Z</time>
      </trkpt>
      <trkpt lat="44.5593" lon="6.31587">
        <ele>1328.8000488281</ele>
        <time>2021-06-10T10:13:05.000Z</time>
      </trkpt>
      <trkpt lat="44.55926" lon="6.31588">
        <ele>1326.8000488281</ele>
        <time>2021-06-10T10:13:06.000Z</time>
      </trkpt>
      <trkpt lat="44.55918" lon="6.31589">
        <ele>1325.1999511719</ele>
        <time>2021-06-10T10:13:08.000Z</time>
      </trkpt>
      <trkpt lat="44.55909" lon="6.31591">
        <ele>1323.8000488281</ele>
        <time>2021-06-10T10:13:10.000Z</time>
      </trkpt>
      <trkpt lat="44.559" lon="6.31593">
        <ele>1322.1999511719</ele>
        <time>2021-06-10T10:13:12.000Z</time>
      </trkpt>
      <trkpt lat="44.55896" lon="6.31594">
        <ele>1321.1999511719</ele>
        <time>2021-06-10T10:13:13.000Z</time>
      </trkpt>
      <trkpt lat="44.55891" lon="6.31593">
        <ele>1320.4000244141</ele>
        <time>2021-06-10T10:13:14.000Z</time>
      </trkpt>
      <trkpt lat="44.55887" lon="6.31592">
        <ele>1319.1999511719</ele>
        <time>2021-06-10T10:13:15.000Z</time>
      </trkpt>
      <trkpt lat="44.55884" lon="6.3159">
        <ele>1318</ele>
        <time>2021-06-10T10:13:16.000Z</time>
      </trkpt>
      <trkpt lat="44.5588" lon="6.31589">
        <ele>1316.8000488281</ele>
        <time>2021-06-10T10:13:17.000Z</time>
      </trkpt>
      <trkpt lat="44.55877" lon="6.31588">
        <ele>1315.4000244141</ele>
        <time>2021-06-10T10:13:18.000Z</time>
      </trkpt>
      <trkpt lat="44.55875" lon="6.31588">
        <ele>1314</ele>
        <time>2021-06-10T10:13:19.000Z</time>
      </trkpt>
      <trkpt lat="44.55873" lon="6.31587">
        <ele>1313</ele>
        <time>2021-06-10T10:13:20.000Z</time>
      </trkpt>
      <trkpt lat="44.55872" lon="6.31586">
        <ele>1312</ele>
        <time>2021-06-10T10:13:22.000Z</time>
      </trkpt>
      <trkpt lat="44.55872" lon="6.31586">
        <ele>1311.4000244141</ele>
        <time>2021-06-10T10:13:23.000Z</time>
      </trkpt>
      <trkpt lat="44.55872" lon="6.31587">
        <ele>1310.5999755859</ele>
        <time>2021-06-10T10:13:26.000Z</time>
      </trkpt>
      <trkpt lat="44.5587" lon="6.3159">
        <ele>1310.4000244141</ele>
        <time>2021-06-10T10:13:30.000Z</time>
      </trkpt>
      <trkpt lat="44.55868" lon="6.31592">
        <ele>1310.1999511719</ele>
        <time>2021-06-10T10:13:31.000Z</time>
      </trkpt>
      <trkpt lat="44.55859" lon="6.31592">
        <ele>1310.4000244141</ele>
        <time>2021-06-10T10:13:35.000Z</time>
      </trkpt>
      <trkpt lat="44.55858" lon="6.31581">
        <ele>1310.4000244141</ele>
        <time>2021-06-10T10:13:39.000Z</time>
      </trkpt>
      <trkpt lat="44.55858" lon="6.31576">
        <ele>1309.8000488281</ele>
        <time>2021-06-10T10:13:44.000Z</time>
      </trkpt>
      <trkpt lat="44.55857" lon="6.31575">
        <ele>1309.8000488281</ele>
        <time>2021-06-10T10:13:45.000Z</time>
      </trkpt>
      <trkpt lat="44.55855" lon="6.31574">
        <ele>1309.4000244141</ele>
        <time>2021-06-10T10:13:47.000Z</time>
      </trkpt>
      <trkpt lat="44.55851" lon="6.31575">
        <ele>1308.5999755859</ele>
        <time>2021-06-10T10:13:49.000Z</time>
      </trkpt>
      <trkpt lat="44.55849" lon="6.31575">
        <ele>1308.1999511719</ele>
        <time>2021-06-10T10:13:50.000Z</time>
      </trkpt>
      <trkpt lat="44.55846" lon="6.31576">
        <ele>1308</ele>
        <time>2021-06-10T10:13:51.000Z</time>
      </trkpt>
      <trkpt lat="44.55842" lon="6.31577">
        <ele>1307.8000488281</ele>
        <time>2021-06-10T10:13:52.000Z</time>
      </trkpt>
      <trkpt lat="44.55834" lon="6.31577">
        <ele>1307.5999755859</ele>
        <time>2021-06-10T10:13:54.000Z</time>
      </trkpt>
      <trkpt lat="44.55827" lon="6.31575">
        <ele>1307.5999755859</ele>
        <time>2021-06-10T10:13:56.000Z</time>
      </trkpt>
      <trkpt lat="44.55823" lon="6.31574">
        <ele>1307.4000244141</ele>
        <time>2021-06-10T10:13:57.000Z</time>
      </trkpt>
      <trkpt lat="44.55817" lon="6.31573">
        <ele>1307</ele>
        <time>2021-06-10T10:13:59.000Z</time>
      </trkpt>
      <trkpt lat="44.55813" lon="6.31571">
        <ele>1306.5999755859</ele>
        <time>2021-06-10T10:14:00.000Z</time>
      </trkpt>
      <trkpt lat="44.55809" lon="6.31568">
        <ele>1306.1999511719</ele>
        <time>2021-06-10T10:14:01.000Z</time>
      </trkpt>
      <trkpt lat="44.55807" lon="6.31564">
        <ele>1305</ele>
        <time>2021-06-10T10:14:02.000Z</time>
      </trkpt>
      <trkpt lat="44.55803" lon="6.31555">
        <ele>1303.8000488281</ele>
        <time>2021-06-10T10:14:04.000Z</time>
      </trkpt>
      <trkpt lat="44.55801" lon="6.31547">
        <ele>1302.4000244141</ele>
        <time>2021-06-10T10:14:06.000Z</time>
      </trkpt>
      <trkpt lat="44.55798" lon="6.3154">
        <ele>1301</ele>
        <time>2021-06-10T10:14:08.000Z</time>
      </trkpt>
      <trkpt lat="44.55795" lon="6.31532">
        <ele>1299.5999755859</ele>
        <time>2021-06-10T10:14:10.000Z</time>
      </trkpt>
      <trkpt lat="44.55794" lon="6.31528">
        <ele>1299</ele>
        <time>2021-06-10T10:14:11.000Z</time>
      </trkpt>
      <trkpt lat="44.55793" lon="6.31524">
        <ele>1298.1999511719</ele>
        <time>2021-06-10T10:14:12.000Z</time>
      </trkpt>
      <trkpt lat="44.5579" lon="6.31509">
        <ele>1296.5999755859</ele>
        <time>2021-06-10T10:14:15.000Z</time>
      </trkpt>
      <trkpt lat="44.55788" lon="6.31502">
        <ele>1295.5999755859</ele>
        <time>2021-06-10T10:14:17.000Z</time>
      </trkpt>
      <trkpt lat="44.55786" lon="6.315">
        <ele>1295</ele>
        <time>2021-06-10T10:14:18.000Z</time>
      </trkpt>
      <trkpt lat="44.55786" lon="6.31499">
        <ele>1294.4000244141</ele>
        <time>2021-06-10T10:14:19.000Z</time>
      </trkpt>
      <trkpt lat="44.55786" lon="6.31499">
        <ele>1292.5999755859</ele>
        <time>2021-06-10T10:14:21.000Z</time>
      </trkpt>
      <trkpt lat="44.55785" lon="6.31499">
        <ele>1290.8000488281</ele>
        <time>2021-06-10T10:14:23.000Z</time>
      </trkpt>
      <trkpt lat="44.55785" lon="6.31499">
        <ele>1289.5999755859</ele>
        <time>2021-06-10T10:14:24.000Z</time>
      </trkpt>
      <trkpt lat="44.55786" lon="6.31499">
        <ele>1287.8000488281</ele>
        <time>2021-06-10T10:14:26.000Z</time>
      </trkpt>
      <trkpt lat="44.55785" lon="6.31498">
        <ele>1286.8000488281</ele>
        <time>2021-06-10T10:14:28.000Z</time>
      </trkpt>
      <trkpt lat="44.55787" lon="6.31496">
        <ele>1286.4000244141</ele>
        <time>2021-06-10T10:14:30.000Z</time>
      </trkpt>
      <trkpt lat="44.55795" lon="6.31491">
        <ele>1286.4000244141</ele>
        <time>2021-06-10T10:14:35.000Z</time>
      </trkpt>
      <trkpt lat="44.55795" lon="6.3149">
        <ele>1286.5999755859</ele>
        <time>2021-06-10T10:14:40.000Z</time>
      </trkpt>
      <trkpt lat="44.55795" lon="6.31489">
        <ele>1286.5999755859</ele>
        <time>2021-06-10T10:14:51.000Z</time>
      </trkpt>
      <trkpt lat="44.55795" lon="6.31488">
        <ele>1286.5999755859</ele>
        <time>2021-06-10T10:14:52.000Z</time>
      </trkpt>
      <trkpt lat="44.55791" lon="6.31481">
        <ele>1286.5999755859</ele>
        <time>2021-06-10T10:14:56.000Z</time>
      </trkpt>
      <trkpt lat="44.55787" lon="6.31479">
        <ele>1286.5999755859</ele>
        <time>2021-06-10T10:14:58.000Z</time>
      </trkpt>
      <trkpt lat="44.55781" lon="6.31468">
        <ele>1286.4000244141</ele>
        <time>2021-06-10T10:15:02.000Z</time>
      </trkpt>
      <trkpt lat="44.5578" lon="6.31458">
        <ele>1285.8000488281</ele>
        <time>2021-06-10T10:15:04.000Z</time>
      </trkpt>
      <trkpt lat="44.55782" lon="6.3145">
        <ele>1285.1999511719</ele>
        <time>2021-06-10T10:15:06.000Z</time>
      </trkpt>
      <trkpt lat="44.55785" lon="6.31443">
        <ele>1284.5999755859</ele>
        <time>2021-06-10T10:15:08.000Z</time>
      </trkpt>
      <trkpt lat="44.5579" lon="6.31433">
        <ele>1283.1999511719</ele>
        <time>2021-06-10T10:15:11.000Z</time>
      </trkpt>
      <trkpt lat="44.55798" lon="6.31417">
        <ele>1282.5999755859</ele>
        <time>2021-06-10T10:15:16.000Z</time>
      </trkpt>
      <trkpt lat="44.55804" lon="6.31402">
        <ele>1282.1999511719</ele>
        <time>2021-06-10T10:15:20.000Z</time>
      </trkpt>
      <trkpt lat="44.55806" lon="6.31399">
        <ele>1282.1999511719</ele>
        <time>2021-06-10T10:15:21.000Z</time>
      </trkpt>
      <trkpt lat="44.55813" lon="6.31381">
        <ele>1281.8000488281</ele>
        <time>2021-06-10T10:15:25.000Z</time>
      </trkpt>
      <trkpt lat="44.55815" lon="6.31376">
        <ele>1281</ele>
        <time>2021-06-10T10:15:26.000Z</time>
      </trkpt>
      <trkpt lat="44.55817" lon="6.31369">
        <ele>1280</ele>
        <time>2021-06-10T10:15:28.000Z</time>
      </trkpt>
      <trkpt lat="44.55817" lon="6.31366">
        <ele>1279.4000244141</ele>
        <time>2021-06-10T10:15:29.000Z</time>
      </trkpt>
      <trkpt lat="44.55815" lon="6.3136">
        <ele>1278.8000488281</ele>
        <time>2021-06-10T10:15:32.000Z</time>
      </trkpt>
      <trkpt lat="44.55814" lon="6.31357">
        <ele>1278.5999755859</ele>
        <time>2021-06-10T10:15:33.000Z</time>
      </trkpt>
      <trkpt lat="44.55817" lon="6.31343">
        <ele>1278.1999511719</ele>
        <time>2021-06-10T10:15:37.000Z</time>
      </trkpt>
      <trkpt lat="44.55818" lon="6.3134">
        <ele>1277.8000488281</ele>
        <time>2021-06-10T10:15:38.000Z</time>
      </trkpt>
      <trkpt lat="44.5582" lon="6.31335">
        <ele>1276.5999755859</ele>
        <time>2021-06-10T10:15:40.000Z</time>
      </trkpt>
      <trkpt lat="44.55822" lon="6.31332">
        <ele>1275</ele>
        <time>2021-06-10T10:15:42.000Z</time>
      </trkpt>
      <trkpt lat="44.55824" lon="6.3133">
        <ele>1274</ele>
        <time>2021-06-10T10:15:43.000Z</time>
      </trkpt>
      <trkpt lat="44.55827" lon="6.31325">
        <ele>1272.4000244141</ele>
        <time>2021-06-10T10:15:45.000Z</time>
      </trkpt>
      <trkpt lat="44.55835" lon="6.31315">
        <ele>1271.4000244141</ele>
        <time>2021-06-10T10:15:48.000Z</time>
      </trkpt>
      <trkpt lat="44.5584" lon="6.31308">
        <ele>1271.1999511719</ele>
        <time>2021-06-10T10:15:50.000Z</time>
      </trkpt>
      <trkpt lat="44.55845" lon="6.313">
        <ele>1271.1999511719</ele>
        <time>2021-06-10T10:15:53.000Z</time>
      </trkpt>
      <trkpt lat="44.55851" lon="6.31285">
        <ele>1271.1999511719</ele>
        <time>2021-06-10T10:15:59.000Z</time>
      </trkpt>
      <trkpt lat="44.55852" lon="6.31266">
        <ele>1271.4000244141</ele>
        <time>2021-06-10T10:16:03.000Z</time>
      </trkpt>
      <trkpt lat="44.55852" lon="6.31253">
        <ele>1271.4000244141</ele>
        <time>2021-06-10T10:16:06.000Z</time>
      </trkpt>
      <trkpt lat="44.55849" lon="6.3125">
        <ele>1271.4000244141</ele>
        <time>2021-06-10T10:16:07.000Z</time>
      </trkpt>
      <trkpt lat="44.55833" lon="6.31243">
        <ele>1271.1999511719</ele>
        <time>2021-06-10T10:16:11.000Z</time>
      </trkpt>
      <trkpt lat="44.55826" lon="6.31234">
        <ele>1270.1999511719</ele>
        <time>2021-06-10T10:16:14.000Z</time>
      </trkpt>
      <trkpt lat="44.55821" lon="6.31227">
        <ele>1269.8000488281</ele>
        <time>2021-06-10T10:16:16.000Z</time>
      </trkpt>
      <trkpt lat="44.55816" lon="6.3122">
        <ele>1269.1999511719</ele>
        <time>2021-06-10T10:16:18.000Z</time>
      </trkpt>
      <trkpt lat="44.55808" lon="6.31208">
        <ele>1267.5999755859</ele>
        <time>2021-06-10T10:16:21.000Z</time>
      </trkpt>
      <trkpt lat="44.55805" lon="6.31194">
        <ele>1266.1999511719</ele>
        <time>2021-06-10T10:16:23.000Z</time>
      </trkpt>
      <trkpt lat="44.55805" lon="6.3118">
        <ele>1264.5999755859</ele>
        <time>2021-06-10T10:16:25.000Z</time>
      </trkpt>
      <trkpt lat="44.55805" lon="6.31174">
        <ele>1263</ele>
        <time>2021-06-10T10:16:26.000Z</time>
      </trkpt>
      <trkpt lat="44.55803" lon="6.31168">
        <ele>1262</ele>
        <time>2021-06-10T10:16:27.000Z</time>
      </trkpt>
      <trkpt lat="44.55802" lon="6.31164">
        <ele>1261</ele>
        <time>2021-06-10T10:16:28.000Z</time>
      </trkpt>
      <trkpt lat="44.558" lon="6.31159">
        <ele>1260</ele>
        <time>2021-06-10T10:16:29.000Z</time>
      </trkpt>
      <trkpt lat="44.558" lon="6.31155">
        <ele>1259.1999511719</ele>
        <time>2021-06-10T10:16:30.000Z</time>
      </trkpt>
      <trkpt lat="44.55799" lon="6.31145">
        <ele>1257.5999755859</ele>
        <time>2021-06-10T10:16:32.000Z</time>
      </trkpt>
      <trkpt lat="44.55799" lon="6.31141">
        <ele>1257</ele>
        <time>2021-06-10T10:16:33.000Z</time>
      </trkpt>
      <trkpt lat="44.55798" lon="6.31129">
        <ele>1256.4000244141</ele>
        <time>2021-06-10T10:16:36.000Z</time>
      </trkpt>
      <trkpt lat="44.55797" lon="6.31124">
        <ele>1256</ele>
        <time>2021-06-10T10:16:37.000Z</time>
      </trkpt>
      <trkpt lat="44.558" lon="6.31106">
        <ele>1255.8000488281</ele>
        <time>2021-06-10T10:16:40.000Z</time>
      </trkpt>
      <trkpt lat="44.55807" lon="6.31086">
        <ele>1255.5999755859</ele>
        <time>2021-06-10T10:16:44.000Z</time>
      </trkpt>
      <trkpt lat="44.55811" lon="6.31075">
        <ele>1255.1999511719</ele>
        <time>2021-06-10T10:16:46.000Z</time>
      </trkpt>
      <trkpt lat="44.55815" lon="6.31062">
        <ele>1254.5999755859</ele>
        <time>2021-06-10T10:16:49.000Z</time>
      </trkpt>
      <trkpt lat="44.55823" lon="6.31044">
        <ele>1254.4000244141</ele>
        <time>2021-06-10T10:16:54.000Z</time>
      </trkpt>
      <trkpt lat="44.5583" lon="6.31029">
        <ele>1254.4000244141</ele>
        <time>2021-06-10T10:16:58.000Z</time>
      </trkpt>
      <trkpt lat="44.55838" lon="6.31013">
        <ele>1255.1999511719</ele>
        <time>2021-06-10T10:17:03.000Z</time>
      </trkpt>
      <trkpt lat="44.55839" lon="6.31003">
        <ele>1255.1999511719</ele>
        <time>2021-06-10T10:17:05.000Z</time>
      </trkpt>
      <trkpt lat="44.55841" lon="6.30992">
        <ele>1255.1999511719</ele>
        <time>2021-06-10T10:17:07.000Z</time>
      </trkpt>
      <trkpt lat="44.5585" lon="6.30966">
        <ele>1255.1999511719</ele>
        <time>2021-06-10T10:17:12.000Z</time>
      </trkpt>
      <trkpt lat="44.5585" lon="6.30957">
        <ele>1255.1999511719</ele>
        <time>2021-06-10T10:17:14.000Z</time>
      </trkpt>
      <trkpt lat="44.5585" lon="6.30947">
        <ele>1254.5999755859</ele>
        <time>2021-06-10T10:17:16.000Z</time>
      </trkpt>
      <trkpt lat="44.5585" lon="6.30941">
        <ele>1254.1999511719</ele>
        <time>2021-06-10T10:17:17.000Z</time>
      </trkpt>
      <trkpt lat="44.55852" lon="6.30925">
        <ele>1253.8000488281</ele>
        <time>2021-06-10T10:17:19.000Z</time>
      </trkpt>
      <trkpt lat="44.55853" lon="6.30918">
        <ele>1253.5999755859</ele>
        <time>2021-06-10T10:17:20.000Z</time>
      </trkpt>
      <trkpt lat="44.55855" lon="6.30905">
        <ele>1253</ele>
        <time>2021-06-10T10:17:22.000Z</time>
      </trkpt>
      <trkpt lat="44.55857" lon="6.30895">
        <ele>1251</ele>
        <time>2021-06-10T10:17:24.000Z</time>
      </trkpt>
      <trkpt lat="44.55859" lon="6.30884">
        <ele>1250</ele>
        <time>2021-06-10T10:17:26.000Z</time>
      </trkpt>
      <trkpt lat="44.5586" lon="6.30874">
        <ele>1248.8000488281</ele>
        <time>2021-06-10T10:17:28.000Z</time>
      </trkpt>
      <trkpt lat="44.55861" lon="6.30868">
        <ele>1248</ele>
        <time>2021-06-10T10:17:29.000Z</time>
      </trkpt>
      <trkpt lat="44.55861" lon="6.30862">
        <ele>1247.4000244141</ele>
        <time>2021-06-10T10:17:30.000Z</time>
      </trkpt>
      <trkpt lat="44.55861" lon="6.30851">
        <ele>1246.4000244141</ele>
        <time>2021-06-10T10:17:32.000Z</time>
      </trkpt>
      <trkpt lat="44.55862" lon="6.30838">
        <ele>1245.4000244141</ele>
        <time>2021-06-10T10:17:34.000Z</time>
      </trkpt>
      <trkpt lat="44.55863" lon="6.30833">
        <ele>1245</ele>
        <time>2021-06-10T10:17:35.000Z</time>
      </trkpt>
      <trkpt lat="44.55867" lon="6.30823">
        <ele>1244</ele>
        <time>2021-06-10T10:17:37.000Z</time>
      </trkpt>
      <trkpt lat="44.5587" lon="6.3082">
        <ele>1243.4000244141</ele>
        <time>2021-06-10T10:17:38.000Z</time>
      </trkpt>
      <trkpt lat="44.55873" lon="6.30816">
        <ele>1242.5999755859</ele>
        <time>2021-06-10T10:17:39.000Z</time>
      </trkpt>
      <trkpt lat="44.55881" lon="6.30807">
        <ele>1241.5999755859</ele>
        <time>2021-06-10T10:17:42.000Z</time>
      </trkpt>
      <trkpt lat="44.55886" lon="6.30801">
        <ele>1241.4000244141</ele>
        <time>2021-06-10T10:17:44.000Z</time>
      </trkpt>
      <trkpt lat="44.55902" lon="6.30779">
        <ele>1241.1999511719</ele>
        <time>2021-06-10T10:17:51.000Z</time>
      </trkpt>
      <trkpt lat="44.55901" lon="6.30761">
        <ele>1241.5999755859</ele>
        <time>2021-06-10T10:17:55.000Z</time>
      </trkpt>
      <trkpt lat="44.55901" lon="6.30751">
        <ele>1241.5999755859</ele>
        <time>2021-06-10T10:17:57.000Z</time>
      </trkpt>
      <trkpt lat="44.55898" lon="6.30738">
        <ele>1241.5999755859</ele>
        <time>2021-06-10T10:17:59.000Z</time>
      </trkpt>
      <trkpt lat="44.55896" lon="6.30731">
        <ele>1241.4000244141</ele>
        <time>2021-06-10T10:18:00.000Z</time>
      </trkpt>
      <trkpt lat="44.55886" lon="6.30699">
        <ele>1241.1999511719</ele>
        <time>2021-06-10T10:18:04.000Z</time>
      </trkpt>
      <trkpt lat="44.55882" lon="6.30683">
        <ele>1240.5999755859</ele>
        <time>2021-06-10T10:18:06.000Z</time>
      </trkpt>
      <trkpt lat="44.55879" lon="6.30676">
        <ele>1240.1999511719</ele>
        <time>2021-06-10T10:18:07.000Z</time>
      </trkpt>
      <trkpt lat="44.55876" lon="6.30669">
        <ele>1239.5999755859</ele>
        <time>2021-06-10T10:18:08.000Z</time>
      </trkpt>
      <trkpt lat="44.55874" lon="6.30664">
        <ele>1239</ele>
        <time>2021-06-10T10:18:09.000Z</time>
      </trkpt>
      <trkpt lat="44.5587" lon="6.30654">
        <ele>1237.1999511719</ele>
        <time>2021-06-10T10:18:11.000Z</time>
      </trkpt>
      <trkpt lat="44.55867" lon="6.30649">
        <ele>1236.1999511719</ele>
        <time>2021-06-10T10:18:12.000Z</time>
      </trkpt>
      <trkpt lat="44.55862" lon="6.30642">
        <ele>1235</ele>
        <time>2021-06-10T10:18:14.000Z</time>
      </trkpt>
      <trkpt lat="44.55855" lon="6.30634">
        <ele>1233.8000488281</ele>
        <time>2021-06-10T10:18:16.000Z</time>
      </trkpt>
      <trkpt lat="44.55846" lon="6.30626">
        <ele>1232.5999755859</ele>
        <time>2021-06-10T10:18:18.000Z</time>
      </trkpt>
      <trkpt lat="44.55843" lon="6.30612">
        <ele>1231.4000244141</ele>
        <time>2021-06-10T10:18:20.000Z</time>
      </trkpt>
      <trkpt lat="44.55843" lon="6.30604">
        <ele>1229.5999755859</ele>
        <time>2021-06-10T10:18:21.000Z</time>
      </trkpt>
      <trkpt lat="44.55844" lon="6.30594">
        <ele>1228.8000488281</ele>
        <time>2021-06-10T10:18:22.000Z</time>
      </trkpt>
      <trkpt lat="44.55845" lon="6.30584">
        <ele>1227.8000488281</ele>
        <time>2021-06-10T10:18:23.000Z</time>
      </trkpt>
      <trkpt lat="44.55842" lon="6.30563">
        <ele>1226</ele>
        <time>2021-06-10T10:18:25.000Z</time>
      </trkpt>
      <trkpt lat="44.5584" lon="6.30551">
        <ele>1225</ele>
        <time>2021-06-10T10:18:26.000Z</time>
      </trkpt>
      <trkpt lat="44.55839" lon="6.3054">
        <ele>1224</ele>
        <time>2021-06-10T10:18:27.000Z</time>
      </trkpt>
      <trkpt lat="44.55838" lon="6.30529">
        <ele>1223</ele>
        <time>2021-06-10T10:18:28.000Z</time>
      </trkpt>
      <trkpt lat="44.55839" lon="6.30506">
        <ele>1221.4000244141</ele>
        <time>2021-06-10T10:18:30.000Z</time>
      </trkpt>
      <trkpt lat="44.55844" lon="6.30487">
        <ele>1219.5999755859</ele>
        <time>2021-06-10T10:18:32.000Z</time>
      </trkpt>
      <trkpt lat="44.55847" lon="6.30479">
        <ele>1218.4000244141</ele>
        <time>2021-06-10T10:18:33.000Z</time>
      </trkpt>
      <trkpt lat="44.55849" lon="6.30471">
        <ele>1217.1999511719</ele>
        <time>2021-06-10T10:18:34.000Z</time>
      </trkpt>
      <trkpt lat="44.5585" lon="6.30465">
        <ele>1216.1999511719</ele>
        <time>2021-06-10T10:18:35.000Z</time>
      </trkpt>
      <trkpt lat="44.55849" lon="6.3046">
        <ele>1215.1999511719</ele>
        <time>2021-06-10T10:18:36.000Z</time>
      </trkpt>
      <trkpt lat="44.55845" lon="6.30456">
        <ele>1214.1999511719</ele>
        <time>2021-06-10T10:18:37.000Z</time>
      </trkpt>
      <trkpt lat="44.55835" lon="6.30451">
        <ele>1212.5999755859</ele>
        <time>2021-06-10T10:18:39.000Z</time>
      </trkpt>
      <trkpt lat="44.55829" lon="6.30449">
        <ele>1211.5999755859</ele>
        <time>2021-06-10T10:18:40.000Z</time>
      </trkpt>
      <trkpt lat="44.55824" lon="6.30446">
        <ele>1210.5999755859</ele>
        <time>2021-06-10T10:18:41.000Z</time>
      </trkpt>
      <trkpt lat="44.55815" lon="6.30433">
        <ele>1208.8000488281</ele>
        <time>2021-06-10T10:18:43.000Z</time>
      </trkpt>
      <trkpt lat="44.55814" lon="6.30416">
        <ele>1207.4000244141</ele>
        <time>2021-06-10T10:18:45.000Z</time>
      </trkpt>
      <trkpt lat="44.55814" lon="6.30407">
        <ele>1206.8000488281</ele>
        <time>2021-06-10T10:18:46.000Z</time>
      </trkpt>
      <trkpt lat="44.55814" lon="6.30398">
        <ele>1206.1999511719</ele>
        <time>2021-06-10T10:18:47.000Z</time>
      </trkpt>
      <trkpt lat="44.55814" lon="6.30388">
        <ele>1205.4000244141</ele>
        <time>2021-06-10T10:18:48.000Z</time>
      </trkpt>
      <trkpt lat="44.55813" lon="6.3038">
        <ele>1204</ele>
        <time>2021-06-10T10:18:49.000Z</time>
      </trkpt>
      <trkpt lat="44.55809" lon="6.30364">
        <ele>1202.5999755859</ele>
        <time>2021-06-10T10:18:51.000Z</time>
      </trkpt>
      <trkpt lat="44.55809" lon="6.30349">
        <ele>1200.8000488281</ele>
        <time>2021-06-10T10:18:53.000Z</time>
      </trkpt>
      <trkpt lat="44.55811" lon="6.30333">
        <ele>1198.8000488281</ele>
        <time>2021-06-10T10:18:55.000Z</time>
      </trkpt>
      <trkpt lat="44.55811" lon="6.30326">
        <ele>1197.8000488281</ele>
        <time>2021-06-10T10:18:56.000Z</time>
      </trkpt>
      <trkpt lat="44.55811" lon="6.30319">
        <ele>1197</ele>
        <time>2021-06-10T10:18:57.000Z</time>
      </trkpt>
      <trkpt lat="44.55811" lon="6.30311">
        <ele>1196</ele>
        <time>2021-06-10T10:18:58.000Z</time>
      </trkpt>
      <trkpt lat="44.55813" lon="6.30303">
        <ele>1195.1999511719</ele>
        <time>2021-06-10T10:18:59.000Z</time>
      </trkpt>
      <trkpt lat="44.55821" lon="6.3029">
        <ele>1193.4000244141</ele>
        <time>2021-06-10T10:19:01.000Z</time>
      </trkpt>
      <trkpt lat="44.55832" lon="6.30279">
        <ele>1191.8000488281</ele>
        <time>2021-06-10T10:19:03.000Z</time>
      </trkpt>
      <trkpt lat="44.55842" lon="6.30268">
        <ele>1190.4000244141</ele>
        <time>2021-06-10T10:19:05.000Z</time>
      </trkpt>
      <trkpt lat="44.55846" lon="6.30261">
        <ele>1189.1999511719</ele>
        <time>2021-06-10T10:19:06.000Z</time>
      </trkpt>
      <trkpt lat="44.55851" lon="6.30254">
        <ele>1188.1999511719</ele>
        <time>2021-06-10T10:19:07.000Z</time>
      </trkpt>
      <trkpt lat="44.55857" lon="6.30238">
        <ele>1186.5999755859</ele>
        <time>2021-06-10T10:19:09.000Z</time>
      </trkpt>
      <trkpt lat="44.55859" lon="6.30229">
        <ele>1186</ele>
        <time>2021-06-10T10:19:10.000Z</time>
      </trkpt>
      <trkpt lat="44.55859" lon="6.3022">
        <ele>1185.1999511719</ele>
        <time>2021-06-10T10:19:11.000Z</time>
      </trkpt>
      <trkpt lat="44.55858" lon="6.30203">
        <ele>1184</ele>
        <time>2021-06-10T10:19:13.000Z</time>
      </trkpt>
      <trkpt lat="44.55857" lon="6.30194">
        <ele>1183.4000244141</ele>
        <time>2021-06-10T10:19:14.000Z</time>
      </trkpt>
      <trkpt lat="44.55855" lon="6.30185">
        <ele>1182.8000488281</ele>
        <time>2021-06-10T10:19:15.000Z</time>
      </trkpt>
      <trkpt lat="44.55853" lon="6.30176">
        <ele>1182.4000244141</ele>
        <time>2021-06-10T10:19:16.000Z</time>
      </trkpt>
      <trkpt lat="44.55848" lon="6.30163">
        <ele>1181</ele>
        <time>2021-06-10T10:19:18.000Z</time>
      </trkpt>
      <trkpt lat="44.55837" lon="6.30159">
        <ele>1180</ele>
        <time>2021-06-10T10:19:21.000Z</time>
      </trkpt>
      <trkpt lat="44.55832" lon="6.30172">
        <ele>1179.1999511719</ele>
        <time>2021-06-10T10:19:24.000Z</time>
      </trkpt>
      <trkpt lat="44.55832" lon="6.30178">
        <ele>1178.8000488281</ele>
        <time>2021-06-10T10:19:25.000Z</time>
      </trkpt>
      <trkpt lat="44.55833" lon="6.30185">
        <ele>1178.4000244141</ele>
        <time>2021-06-10T10:19:26.000Z</time>
      </trkpt>
      <trkpt lat="44.55833" lon="6.30192">
        <ele>1177.8000488281</ele>
        <time>2021-06-10T10:19:27.000Z</time>
      </trkpt>
      <trkpt lat="44.55831" lon="6.30198">
        <ele>1177.4000244141</ele>
        <time>2021-06-10T10:19:28.000Z</time>
      </trkpt>
      <trkpt lat="44.55825" lon="6.30207">
        <ele>1176.5999755859</ele>
        <time>2021-06-10T10:19:30.000Z</time>
      </trkpt>
      <trkpt lat="44.55821" lon="6.3021">
        <ele>1176.1999511719</ele>
        <time>2021-06-10T10:19:31.000Z</time>
      </trkpt>
      <trkpt lat="44.55813" lon="6.30214">
        <ele>1175.1999511719</ele>
        <time>2021-06-10T10:19:33.000Z</time>
      </trkpt>
      <trkpt lat="44.55808" lon="6.30215">
        <ele>1174.5999755859</ele>
        <time>2021-06-10T10:19:34.000Z</time>
      </trkpt>
      <trkpt lat="44.55804" lon="6.30216">
        <ele>1173.8000488281</ele>
        <time>2021-06-10T10:19:35.000Z</time>
      </trkpt>
      <trkpt lat="44.55799" lon="6.30216">
        <ele>1173.4000244141</ele>
        <time>2021-06-10T10:19:36.000Z</time>
      </trkpt>
      <trkpt lat="44.55794" lon="6.30216">
        <ele>1173</ele>
        <time>2021-06-10T10:19:37.000Z</time>
      </trkpt>
      <trkpt lat="44.55784" lon="6.30214">
        <ele>1172.4000244141</ele>
        <time>2021-06-10T10:19:39.000Z</time>
      </trkpt>
      <trkpt lat="44.55778" lon="6.30211">
        <ele>1172.1999511719</ele>
        <time>2021-06-10T10:19:40.000Z</time>
      </trkpt>
      <trkpt lat="44.55767" lon="6.30191">
        <ele>1172</ele>
        <time>2021-06-10T10:19:43.000Z</time>
      </trkpt>
      <trkpt lat="44.55764" lon="6.30183">
        <ele>1171.8000488281</ele>
        <time>2021-06-10T10:19:44.000Z</time>
      </trkpt>
      <trkpt lat="44.55761" lon="6.30175">
        <ele>1171.8000488281</ele>
        <time>2021-06-10T10:19:45.000Z</time>
      </trkpt>
      <trkpt lat="44.55757" lon="6.30167">
        <ele>1171.1999511719</ele>
        <time>2021-06-10T10:19:46.000Z</time>
      </trkpt>
      <trkpt lat="44.55752" lon="6.30162">
        <ele>1171</ele>
        <time>2021-06-10T10:19:47.000Z</time>
      </trkpt>
      <trkpt lat="44.55748" lon="6.30157">
        <ele>1170.4000244141</ele>
        <time>2021-06-10T10:19:48.000Z</time>
      </trkpt>
      <trkpt lat="44.55744" lon="6.30152">
        <ele>1169.8000488281</ele>
        <time>2021-06-10T10:19:49.000Z</time>
      </trkpt>
      <trkpt lat="44.55742" lon="6.30146">
        <ele>1169.1999511719</ele>
        <time>2021-06-10T10:19:50.000Z</time>
      </trkpt>
      <trkpt lat="44.55739" lon="6.3013">
        <ele>1168</ele>
        <time>2021-06-10T10:19:53.000Z</time>
      </trkpt>
      <trkpt lat="44.5574" lon="6.30124">
        <ele>1167.1999511719</ele>
        <time>2021-06-10T10:19:54.000Z</time>
      </trkpt>
      <trkpt lat="44.55741" lon="6.30119">
        <ele>1166.5999755859</ele>
        <time>2021-06-10T10:19:55.000Z</time>
      </trkpt>
      <trkpt lat="44.55748" lon="6.30102">
        <ele>1165.1999511719</ele>
        <time>2021-06-10T10:19:58.000Z</time>
      </trkpt>
      <trkpt lat="44.55751" lon="6.30097">
        <ele>1164.5999755859</ele>
        <time>2021-06-10T10:19:59.000Z</time>
      </trkpt>
      <trkpt lat="44.55756" lon="6.30087">
        <ele>1163.8000488281</ele>
        <time>2021-06-10T10:20:01.000Z</time>
      </trkpt>
      <trkpt lat="44.55766" lon="6.30069">
        <ele>1162.4000244141</ele>
        <time>2021-06-10T10:20:05.000Z</time>
      </trkpt>
      <trkpt lat="44.55772" lon="6.30057">
        <ele>1161.1999511719</ele>
        <time>2021-06-10T10:20:08.000Z</time>
      </trkpt>
      <trkpt lat="44.55782" lon="6.30048">
        <ele>1160.1999511719</ele>
        <time>2021-06-10T10:20:11.000Z</time>
      </trkpt>
      <trkpt lat="44.55785" lon="6.30045">
        <ele>1159.8000488281</ele>
        <time>2021-06-10T10:20:12.000Z</time>
      </trkpt>
      <trkpt lat="44.55792" lon="6.30033">
        <ele>1158.5999755859</ele>
        <time>2021-06-10T10:20:15.000Z</time>
      </trkpt>
      <trkpt lat="44.55794" lon="6.30028">
        <ele>1158.1999511719</ele>
        <time>2021-06-10T10:20:16.000Z</time>
      </trkpt>
      <trkpt lat="44.55797" lon="6.30024">
        <ele>1157.5999755859</ele>
        <time>2021-06-10T10:20:17.000Z</time>
      </trkpt>
      <trkpt lat="44.558" lon="6.30021">
        <ele>1157.4000244141</ele>
        <time>2021-06-10T10:20:18.000Z</time>
      </trkpt>
      <trkpt lat="44.55804" lon="6.30014">
        <ele>1156.5999755859</ele>
        <time>2021-06-10T10:20:20.000Z</time>
      </trkpt>
      <trkpt lat="44.55804" lon="6.3001">
        <ele>1156.4000244141</ele>
        <time>2021-06-10T10:20:21.000Z</time>
      </trkpt>
      <trkpt lat="44.55804" lon="6.30007">
        <ele>1156</ele>
        <time>2021-06-10T10:20:22.000Z</time>
      </trkpt>
      <trkpt lat="44.55804" lon="6.30006">
        <ele>1155.8000488281</ele>
        <time>2021-06-10T10:20:23.000Z</time>
      </trkpt>
      <trkpt lat="44.55808" lon="6.29997">
        <ele>1154.8000488281</ele>
        <time>2021-06-10T10:20:27.000Z</time>
      </trkpt>
      <trkpt lat="44.55809" lon="6.29996">
        <ele>1154.5999755859</ele>
        <time>2021-06-10T10:20:28.000Z</time>
      </trkpt>
      <trkpt lat="44.55811" lon="6.29995">
        <ele>1154.4000244141</ele>
        <time>2021-06-10T10:20:29.000Z</time>
      </trkpt>
      <trkpt lat="44.55815" lon="6.29987">
        <ele>1153.8000488281</ele>
        <time>2021-06-10T10:20:33.000Z</time>
      </trkpt>
      <trkpt lat="44.55815" lon="6.29985">
        <ele>1153.5999755859</ele>
        <time>2021-06-10T10:20:34.000Z</time>
      </trkpt>
      <trkpt lat="44.55813" lon="6.29974">
        <ele>1153.5999755859</ele>
        <time>2021-06-10T10:20:38.000Z</time>
      </trkpt>
      <trkpt lat="44.55806" lon="6.29963">
        <ele>1153.4000244141</ele>
        <time>2021-06-10T10:20:42.000Z</time>
      </trkpt>
      <trkpt lat="44.55797" lon="6.29958">
        <ele>1152.4000244141</ele>
        <time>2021-06-10T10:20:46.000Z</time>
      </trkpt>
      <trkpt lat="44.55796" lon="6.29957">
        <ele>1152</ele>
        <time>2021-06-10T10:20:47.000Z</time>
      </trkpt>
      <trkpt lat="44.55794" lon="6.29954">
        <ele>1151</ele>
        <time>2021-06-10T10:20:49.000Z</time>
      </trkpt>
      <trkpt lat="44.55791" lon="6.29947">
        <ele>1150</ele>
        <time>2021-06-10T10:20:52.000Z</time>
      </trkpt>
      <trkpt lat="44.55788" lon="6.2994">
        <ele>1148.8000488281</ele>
        <time>2021-06-10T10:20:55.000Z</time>
      </trkpt>
      <trkpt lat="44.55785" lon="6.29933">
        <ele>1147.4000244141</ele>
        <time>2021-06-10T10:20:58.000Z</time>
      </trkpt>
      <trkpt lat="44.55781" lon="6.29928">
        <ele>1146</ele>
        <time>2021-06-10T10:21:01.000Z</time>
      </trkpt>
      <trkpt lat="44.55778" lon="6.29923">
        <ele>1144.5999755859</ele>
        <time>2021-06-10T10:21:04.000Z</time>
      </trkpt>
      <trkpt lat="44.55777" lon="6.29921">
        <ele>1144</ele>
        <time>2021-06-10T10:21:05.000Z</time>
      </trkpt>
      <trkpt lat="44.55774" lon="6.29917">
        <ele>1143.1999511719</ele>
        <time>2021-06-10T10:21:07.000Z</time>
      </trkpt>
      <trkpt lat="44.55769" lon="6.29908">
        <ele>1142.4000244141</ele>
        <time>2021-06-10T10:21:10.000Z</time>
      </trkpt>
      <trkpt lat="44.55766" lon="6.29905">
        <ele>1142.1999511719</ele>
        <time>2021-06-10T10:21:11.000Z</time>
      </trkpt>
      <trkpt lat="44.5576" lon="6.29899">
        <ele>1141.1999511719</ele>
        <time>2021-06-10T10:21:13.000Z</time>
      </trkpt>
      <trkpt lat="44.55755" lon="6.29894">
        <ele>1140.1999511719</ele>
        <time>2021-06-10T10:21:15.000Z</time>
      </trkpt>
      <trkpt lat="44.55752" lon="6.2989">
        <ele>1139.5999755859</ele>
        <time>2021-06-10T10:21:16.000Z</time>
      </trkpt>
      <trkpt lat="44.55749" lon="6.29887">
        <ele>1139</ele>
        <time>2021-06-10T10:21:17.000Z</time>
      </trkpt>
      <trkpt lat="44.55744" lon="6.29882">
        <ele>1137.1999511719</ele>
        <time>2021-06-10T10:21:19.000Z</time>
      </trkpt>
      <trkpt lat="44.55743" lon="6.2988">
        <ele>1136.4000244141</ele>
        <time>2021-06-10T10:21:20.000Z</time>
      </trkpt>
      <trkpt lat="44.55743" lon="6.29877">
        <ele>1135.8000488281</ele>
        <time>2021-06-10T10:21:21.000Z</time>
      </trkpt>
      <trkpt lat="44.55746" lon="6.29871">
        <ele>1134.1999511719</ele>
        <time>2021-06-10T10:21:23.000Z</time>
      </trkpt>
      <trkpt lat="44.55752" lon="6.29861">
        <ele>1132.8000488281</ele>
        <time>2021-06-10T10:21:25.000Z</time>
      </trkpt>
      <trkpt lat="44.55761" lon="6.29849">
        <ele>1131.5999755859</ele>
        <time>2021-06-10T10:21:27.000Z</time>
      </trkpt>
      <trkpt lat="44.55772" lon="6.29833">
        <ele>1130.1999511719</ele>
        <time>2021-06-10T10:21:30.000Z</time>
      </trkpt>
      <trkpt lat="44.55776" lon="6.29823">
        <ele>1128.5999755859</ele>
        <time>2021-06-10T10:21:33.000Z</time>
      </trkpt>
      <trkpt lat="44.55776" lon="6.29818">
        <ele>1127.1999511719</ele>
        <time>2021-06-10T10:21:35.000Z</time>
      </trkpt>
      <trkpt lat="44.55775" lon="6.29811">
        <ele>1126.1999511719</ele>
        <time>2021-06-10T10:21:38.000Z</time>
      </trkpt>
      <trkpt lat="44.55772" lon="6.29804">
        <ele>1124.1999511719</ele>
        <time>2021-06-10T10:21:41.000Z</time>
      </trkpt>
      <trkpt lat="44.55768" lon="6.29796">
        <ele>1123</ele>
        <time>2021-06-10T10:21:44.000Z</time>
      </trkpt>
      <trkpt lat="44.55763" lon="6.29788">
        <ele>1121.5999755859</ele>
        <time>2021-06-10T10:21:47.000Z</time>
      </trkpt>
      <trkpt lat="44.5576" lon="6.29778">
        <ele>1120.1999511719</ele>
        <time>2021-06-10T10:21:50.000Z</time>
      </trkpt>
      <trkpt lat="44.55759" lon="6.29765">
        <ele>1118.5999755859</ele>
        <time>2021-06-10T10:21:53.000Z</time>
      </trkpt>
      <trkpt lat="44.55758" lon="6.29758">
        <ele>1117.1999511719</ele>
        <time>2021-06-10T10:21:55.000Z</time>
      </trkpt>
      <trkpt lat="44.55756" lon="6.29748">
        <ele>1116.1999511719</ele>
        <time>2021-06-10T10:21:57.000Z</time>
      </trkpt>
      <trkpt lat="44.55755" lon="6.29739">
        <ele>1115</ele>
        <time>2021-06-10T10:21:59.000Z</time>
      </trkpt>
      <trkpt lat="44.55753" lon="6.2973">
        <ele>1114</ele>
        <time>2021-06-10T10:22:01.000Z</time>
      </trkpt>
      <trkpt lat="44.55752" lon="6.29722">
        <ele>1112.8000488281</ele>
        <time>2021-06-10T10:22:03.000Z</time>
      </trkpt>
      <trkpt lat="44.55751" lon="6.29712">
        <ele>1111.1999511719</ele>
        <time>2021-06-10T10:22:06.000Z</time>
      </trkpt>
      <trkpt lat="44.55749" lon="6.29705">
        <ele>1109.8000488281</ele>
        <time>2021-06-10T10:22:08.000Z</time>
      </trkpt>
      <trkpt lat="44.55746" lon="6.29698">
        <ele>1108</ele>
        <time>2021-06-10T10:22:10.000Z</time>
      </trkpt>
      <trkpt lat="44.55742" lon="6.29692">
        <ele>1107</ele>
        <time>2021-06-10T10:22:12.000Z</time>
      </trkpt>
      <trkpt lat="44.55736" lon="6.29681">
        <ele>1105.5999755859</ele>
        <time>2021-06-10T10:22:15.000Z</time>
      </trkpt>
      <trkpt lat="44.55731" lon="6.2967">
        <ele>1104.1999511719</ele>
        <time>2021-06-10T10:22:18.000Z</time>
      </trkpt>
      <trkpt lat="44.55728" lon="6.29659">
        <ele>1103.1999511719</ele>
        <time>2021-06-10T10:22:20.000Z</time>
      </trkpt>
      <trkpt lat="44.55727" lon="6.29649">
        <ele>1102</ele>
        <time>2021-06-10T10:22:22.000Z</time>
      </trkpt>
      <trkpt lat="44.55726" lon="6.29641">
        <ele>1100.5999755859</ele>
        <time>2021-06-10T10:22:24.000Z</time>
      </trkpt>
      <trkpt lat="44.55727" lon="6.29633">
        <ele>1099</ele>
        <time>2021-06-10T10:22:26.000Z</time>
      </trkpt>
      <trkpt lat="44.55728" lon="6.29631">
        <ele>1098</ele>
        <time>2021-06-10T10:22:27.000Z</time>
      </trkpt>
      <trkpt lat="44.55729" lon="6.29629">
        <ele>1097.1999511719</ele>
        <time>2021-06-10T10:22:28.000Z</time>
      </trkpt>
      <trkpt lat="44.5573" lon="6.29625">
        <ele>1095.4000244141</ele>
        <time>2021-06-10T10:22:30.000Z</time>
      </trkpt>
      <trkpt lat="44.55729" lon="6.29623">
        <ele>1094.5999755859</ele>
        <time>2021-06-10T10:22:31.000Z</time>
      </trkpt>
      <trkpt lat="44.55727" lon="6.29621">
        <ele>1094</ele>
        <time>2021-06-10T10:22:32.000Z</time>
      </trkpt>
      <trkpt lat="44.55722" lon="6.29617">
        <ele>1092.8000488281</ele>
        <time>2021-06-10T10:22:34.000Z</time>
      </trkpt>
      <trkpt lat="44.55719" lon="6.29612">
        <ele>1091.4000244141</ele>
        <time>2021-06-10T10:22:36.000Z</time>
      </trkpt>
      <trkpt lat="44.5571" lon="6.296">
        <ele>1090</ele>
        <time>2021-06-10T10:22:39.000Z</time>
      </trkpt>
      <trkpt lat="44.55706" lon="6.29594">
        <ele>1089.5999755859</ele>
        <time>2021-06-10T10:22:40.000Z</time>
      </trkpt>
      <trkpt lat="44.55695" lon="6.29579">
        <ele>1088.8000488281</ele>
        <time>2021-06-10T10:22:43.000Z</time>
      </trkpt>
      <trkpt lat="44.55691" lon="6.29574">
        <ele>1088.1999511719</ele>
        <time>2021-06-10T10:22:44.000Z</time>
      </trkpt>
      <trkpt lat="44.55687" lon="6.29569">
        <ele>1087.5999755859</ele>
        <time>2021-06-10T10:22:45.000Z</time>
      </trkpt>
      <trkpt lat="44.55678" lon="6.29559">
        <ele>1086.4000244141</ele>
        <time>2021-06-10T10:22:47.000Z</time>
      </trkpt>
      <trkpt lat="44.55671" lon="6.29551">
        <ele>1085</ele>
        <time>2021-06-10T10:22:49.000Z</time>
      </trkpt>
      <trkpt lat="44.55663" lon="6.2954">
        <ele>1083.5999755859</ele>
        <time>2021-06-10T10:22:51.000Z</time>
      </trkpt>
      <trkpt lat="44.55653" lon="6.29525">
        <ele>1082.5999755859</ele>
        <time>2021-06-10T10:22:53.000Z</time>
      </trkpt>
      <trkpt lat="44.55646" lon="6.29517">
        <ele>1082.1999511719</ele>
        <time>2021-06-10T10:22:54.000Z</time>
      </trkpt>
      <trkpt lat="44.55641" lon="6.29509">
        <ele>1081.5999755859</ele>
        <time>2021-06-10T10:22:55.000Z</time>
      </trkpt>
      <trkpt lat="44.55635" lon="6.295">
        <ele>1081.1999511719</ele>
        <time>2021-06-10T10:22:56.000Z</time>
      </trkpt>
      <trkpt lat="44.55628" lon="6.29484">
        <ele>1080</ele>
        <time>2021-06-10T10:22:58.000Z</time>
      </trkpt>
      <trkpt lat="44.55625" lon="6.29475">
        <ele>1079.5999755859</ele>
        <time>2021-06-10T10:22:59.000Z</time>
      </trkpt>
      <trkpt lat="44.55614" lon="6.29442">
        <ele>1078.5999755859</ele>
        <time>2021-06-10T10:23:02.000Z</time>
      </trkpt>
      <trkpt lat="44.55611" lon="6.2943">
        <ele>1077.8000488281</ele>
        <time>2021-06-10T10:23:03.000Z</time>
      </trkpt>
      <trkpt lat="44.55607" lon="6.29419">
        <ele>1077</ele>
        <time>2021-06-10T10:23:04.000Z</time>
      </trkpt>
      <trkpt lat="44.55598" lon="6.29406">
        <ele>1075.4000244141</ele>
        <time>2021-06-10T10:23:06.000Z</time>
      </trkpt>
      <trkpt lat="44.55587" lon="6.29395">
        <ele>1072.5999755859</ele>
        <time>2021-06-10T10:23:08.000Z</time>
      </trkpt>
      <trkpt lat="44.55582" lon="6.29388">
        <ele>1071.5999755859</ele>
        <time>2021-06-10T10:23:09.000Z</time>
      </trkpt>
      <trkpt lat="44.55577" lon="6.2938">
        <ele>1070.4000244141</ele>
        <time>2021-06-10T10:23:10.000Z</time>
      </trkpt>
      <trkpt lat="44.55571" lon="6.2937">
        <ele>1068.4000244141</ele>
        <time>2021-06-10T10:23:12.000Z</time>
      </trkpt>
      <trkpt lat="44.55567" lon="6.29367">
        <ele>1067.5999755859</ele>
        <time>2021-06-10T10:23:13.000Z</time>
      </trkpt>
      <trkpt lat="44.55563" lon="6.29366">
        <ele>1066.8000488281</ele>
        <time>2021-06-10T10:23:14.000Z</time>
      </trkpt>
      <trkpt lat="44.55555" lon="6.2936">
        <ele>1065.4000244141</ele>
        <time>2021-06-10T10:23:16.000Z</time>
      </trkpt>
      <trkpt lat="44.55544" lon="6.29338">
        <ele>1063.5999755859</ele>
        <time>2021-06-10T10:23:19.000Z</time>
      </trkpt>
      <trkpt lat="44.55537" lon="6.29333">
        <ele>1062.5999755859</ele>
        <time>2021-06-10T10:23:21.000Z</time>
      </trkpt>
      <trkpt lat="44.55535" lon="6.29331">
        <ele>1062.1999511719</ele>
        <time>2021-06-10T10:23:22.000Z</time>
      </trkpt>
      <trkpt lat="44.55531" lon="6.29327">
        <ele>1061.1999511719</ele>
        <time>2021-06-10T10:23:24.000Z</time>
      </trkpt>
      <trkpt lat="44.55525" lon="6.29323">
        <ele>1059.8000488281</ele>
        <time>2021-06-10T10:23:26.000Z</time>
      </trkpt>
      <trkpt lat="44.55521" lon="6.2932">
        <ele>1059.1999511719</ele>
        <time>2021-06-10T10:23:27.000Z</time>
      </trkpt>
      <trkpt lat="44.55518" lon="6.29318">
        <ele>1058.4000244141</ele>
        <time>2021-06-10T10:23:28.000Z</time>
      </trkpt>
      <trkpt lat="44.55511" lon="6.29316">
        <ele>1057.4000244141</ele>
        <time>2021-06-10T10:23:30.000Z</time>
      </trkpt>
      <trkpt lat="44.55508" lon="6.29316">
        <ele>1057</ele>
        <time>2021-06-10T10:23:31.000Z</time>
      </trkpt>
      <trkpt lat="44.555" lon="6.29311">
        <ele>1056.1999511719</ele>
        <time>2021-06-10T10:23:34.000Z</time>
      </trkpt>
      <trkpt lat="44.55499" lon="6.29308">
        <ele>1055.5999755859</ele>
        <time>2021-06-10T10:23:35.000Z</time>
      </trkpt>
      <trkpt lat="44.55499" lon="6.29306">
        <ele>1055</ele>
        <time>2021-06-10T10:23:36.000Z</time>
      </trkpt>
      <trkpt lat="44.55499" lon="6.29302">
        <ele>1053.1999511719</ele>
        <time>2021-06-10T10:23:37.000Z</time>
      </trkpt>
      <trkpt lat="44.55501" lon="6.29296">
        <ele>1051.8000488281</ele>
        <time>2021-06-10T10:23:39.000Z</time>
      </trkpt>
      <trkpt lat="44.55503" lon="6.29293">
        <ele>1051</ele>
        <time>2021-06-10T10:23:40.000Z</time>
      </trkpt>
      <trkpt lat="44.55504" lon="6.29289">
        <ele>1050.1999511719</ele>
        <time>2021-06-10T10:23:41.000Z</time>
      </trkpt>
      <trkpt lat="44.55506" lon="6.29283">
        <ele>1048.8000488281</ele>
        <time>2021-06-10T10:23:43.000Z</time>
      </trkpt>
      <trkpt lat="44.55507" lon="6.29275">
        <ele>1047.8000488281</ele>
        <time>2021-06-10T10:23:45.000Z</time>
      </trkpt>
      <trkpt lat="44.55505" lon="6.29264">
        <ele>1046.8000488281</ele>
        <time>2021-06-10T10:23:47.000Z</time>
      </trkpt>
      <trkpt lat="44.55503" lon="6.29258">
        <ele>1046.5999755859</ele>
        <time>2021-06-10T10:23:48.000Z</time>
      </trkpt>
      <trkpt lat="44.55499" lon="6.29247">
        <ele>1045.4000244141</ele>
        <time>2021-06-10T10:23:50.000Z</time>
      </trkpt>
      <trkpt lat="44.55497" lon="6.29241">
        <ele>1044.5999755859</ele>
        <time>2021-06-10T10:23:51.000Z</time>
      </trkpt>
      <trkpt lat="44.55494" lon="6.29237">
        <ele>1044</ele>
        <time>2021-06-10T10:23:52.000Z</time>
      </trkpt>
      <trkpt lat="44.55487" lon="6.29233">
        <ele>1042.5999755859</ele>
        <time>2021-06-10T10:23:54.000Z</time>
      </trkpt>
      <trkpt lat="44.5548" lon="6.29234">
        <ele>1041.1999511719</ele>
        <time>2021-06-10T10:23:56.000Z</time>
      </trkpt>
      <trkpt lat="44.55475" lon="6.29234">
        <ele>1040</ele>
        <time>2021-06-10T10:23:58.000Z</time>
      </trkpt>
      <trkpt lat="44.55472" lon="6.29228">
        <ele>1038.1999511719</ele>
        <time>2021-06-10T10:24:00.000Z</time>
      </trkpt>
      <trkpt lat="44.5547" lon="6.29225">
        <ele>1037.1999511719</ele>
        <time>2021-06-10T10:24:01.000Z</time>
      </trkpt>
      <trkpt lat="44.55465" lon="6.29221">
        <ele>1036.1999511719</ele>
        <time>2021-06-10T10:24:02.000Z</time>
      </trkpt>
      <trkpt lat="44.55461" lon="6.29218">
        <ele>1035.1999511719</ele>
        <time>2021-06-10T10:24:03.000Z</time>
      </trkpt>
      <trkpt lat="44.55456" lon="6.29217">
        <ele>1034.4000244141</ele>
        <time>2021-06-10T10:24:04.000Z</time>
      </trkpt>
      <trkpt lat="44.55452" lon="6.29218">
        <ele>1032.8000488281</ele>
        <time>2021-06-10T10:24:05.000Z</time>
      </trkpt>
      <trkpt lat="44.55446" lon="6.29219">
        <ele>1031.5999755859</ele>
        <time>2021-06-10T10:24:07.000Z</time>
      </trkpt>
      <trkpt lat="44.55442" lon="6.2922">
        <ele>1031.1999511719</ele>
        <time>2021-06-10T10:24:08.000Z</time>
      </trkpt>
      <trkpt lat="44.55438" lon="6.29219">
        <ele>1030.4000244141</ele>
        <time>2021-06-10T10:24:09.000Z</time>
      </trkpt>
      <trkpt lat="44.55434" lon="6.29217">
        <ele>1029.5999755859</ele>
        <time>2021-06-10T10:24:10.000Z</time>
      </trkpt>
      <trkpt lat="44.5543" lon="6.29215">
        <ele>1029</ele>
        <time>2021-06-10T10:24:11.000Z</time>
      </trkpt>
      <trkpt lat="44.55426" lon="6.29212">
        <ele>1028.4000244141</ele>
        <time>2021-06-10T10:24:12.000Z</time>
      </trkpt>
      <trkpt lat="44.55422" lon="6.29209">
        <ele>1027.8000488281</ele>
        <time>2021-06-10T10:24:13.000Z</time>
      </trkpt>
      <trkpt lat="44.55416" lon="6.29205">
        <ele>1027</ele>
        <time>2021-06-10T10:24:15.000Z</time>
      </trkpt>
      <trkpt lat="44.5541" lon="6.292">
        <ele>1025.1999511719</ele>
        <time>2021-06-10T10:24:17.000Z</time>
      </trkpt>
      <trkpt lat="44.55407" lon="6.29197">
        <ele>1024</ele>
        <time>2021-06-10T10:24:18.000Z</time>
      </trkpt>
      <trkpt lat="44.55405" lon="6.29193">
        <ele>1022.799987793</ele>
        <time>2021-06-10T10:24:19.000Z</time>
      </trkpt>
      <trkpt lat="44.55403" lon="6.29185">
        <ele>1020.799987793</ele>
        <time>2021-06-10T10:24:21.000Z</time>
      </trkpt>
      <trkpt lat="44.55402" lon="6.29182">
        <ele>1019.799987793</ele>
        <time>2021-06-10T10:24:22.000Z</time>
      </trkpt>
      <trkpt lat="44.55401" lon="6.29178">
        <ele>1018.799987793</ele>
        <time>2021-06-10T10:24:23.000Z</time>
      </trkpt>
      <trkpt lat="44.55401" lon="6.29169">
        <ele>1017</ele>
        <time>2021-06-10T10:24:25.000Z</time>
      </trkpt>
      <trkpt lat="44.55401" lon="6.29164">
        <ele>1016.200012207</ele>
        <time>2021-06-10T10:24:26.000Z</time>
      </trkpt>
      <trkpt lat="44.554" lon="6.29159">
        <ele>1015.200012207</ele>
        <time>2021-06-10T10:24:27.000Z</time>
      </trkpt>
      <trkpt lat="44.55398" lon="6.29146">
        <ele>1013.4000244141</ele>
        <time>2021-06-10T10:24:29.000Z</time>
      </trkpt>
      <trkpt lat="44.55397" lon="6.29134">
        <ele>1012.200012207</ele>
        <time>2021-06-10T10:24:31.000Z</time>
      </trkpt>
      <trkpt lat="44.55398" lon="6.29121">
        <ele>1010.5999755859</ele>
        <time>2021-06-10T10:24:33.000Z</time>
      </trkpt>
      <trkpt lat="44.55399" lon="6.29113">
        <ele>1009</ele>
        <time>2021-06-10T10:24:34.000Z</time>
      </trkpt>
      <trkpt lat="44.55399" lon="6.29106">
        <ele>1008.200012207</ele>
        <time>2021-06-10T10:24:35.000Z</time>
      </trkpt>
      <trkpt lat="44.554" lon="6.29099">
        <ele>1007.5999755859</ele>
        <time>2021-06-10T10:24:36.000Z</time>
      </trkpt>
      <trkpt lat="44.55401" lon="6.29092">
        <ele>1006.799987793</ele>
        <time>2021-06-10T10:24:37.000Z</time>
      </trkpt>
      <trkpt lat="44.55402" lon="6.29084">
        <ele>1005.799987793</ele>
        <time>2021-06-10T10:24:38.000Z</time>
      </trkpt>
      <trkpt lat="44.55403" lon="6.29077">
        <ele>1004.5999755859</ele>
        <time>2021-06-10T10:24:39.000Z</time>
      </trkpt>
      <trkpt lat="44.55403" lon="6.2907">
        <ele>1003.4000244141</ele>
        <time>2021-06-10T10:24:40.000Z</time>
      </trkpt>
      <trkpt lat="44.554" lon="6.29062">
        <ele>1002.4000244141</ele>
        <time>2021-06-10T10:24:41.000Z</time>
      </trkpt>
      <trkpt lat="44.55398" lon="6.29055">
        <ele>1001.799987793</ele>
        <time>2021-06-10T10:24:42.000Z</time>
      </trkpt>
      <trkpt lat="44.5539" lon="6.2904">
        <ele>1000.799987793</ele>
        <time>2021-06-10T10:24:44.000Z</time>
      </trkpt>
      <trkpt lat="44.55386" lon="6.29035">
        <ele>1000.4000244141</ele>
        <time>2021-06-10T10:24:45.000Z</time>
      </trkpt>
      <trkpt lat="44.55381" lon="6.29029">
        <ele>999.79998779297</ele>
        <time>2021-06-10T10:24:46.000Z</time>
      </trkpt>
      <trkpt lat="44.55376" lon="6.29024">
        <ele>999</ele>
        <time>2021-06-10T10:24:47.000Z</time>
      </trkpt>
      <trkpt lat="44.55372" lon="6.29017">
        <ele>998</ele>
        <time>2021-06-10T10:24:48.000Z</time>
      </trkpt>
      <trkpt lat="44.55364" lon="6.29001">
        <ele>996</ele>
        <time>2021-06-10T10:24:50.000Z</time>
      </trkpt>
      <trkpt lat="44.55357" lon="6.28986">
        <ele>994.40002441406</ele>
        <time>2021-06-10T10:24:52.000Z</time>
      </trkpt>
      <trkpt lat="44.55355" lon="6.28978">
        <ele>993.40002441406</ele>
        <time>2021-06-10T10:24:53.000Z</time>
      </trkpt>
      <trkpt lat="44.55352" lon="6.28971">
        <ele>992.40002441406</ele>
        <time>2021-06-10T10:24:54.000Z</time>
      </trkpt>
      <trkpt lat="44.5535" lon="6.28963">
        <ele>991.40002441406</ele>
        <time>2021-06-10T10:24:55.000Z</time>
      </trkpt>
      <trkpt lat="44.55348" lon="6.28954">
        <ele>990.40002441406</ele>
        <time>2021-06-10T10:24:56.000Z</time>
      </trkpt>
      <trkpt lat="44.55342" lon="6.28937">
        <ele>988.59997558594</ele>
        <time>2021-06-10T10:24:58.000Z</time>
      </trkpt>
      <trkpt lat="44.55338" lon="6.28928">
        <ele>987.59997558594</ele>
        <time>2021-06-10T10:24:59.000Z</time>
      </trkpt>
      <trkpt lat="44.55332" lon="6.2892">
        <ele>986.40002441406</ele>
        <time>2021-06-10T10:25:00.000Z</time>
      </trkpt>
      <trkpt lat="44.55325" lon="6.28912">
        <ele>985.20001220703</ele>
        <time>2021-06-10T10:25:01.000Z</time>
      </trkpt>
      <trkpt lat="44.55318" lon="6.28904">
        <ele>982.59997558594</ele>
        <time>2021-06-10T10:25:02.000Z</time>
      </trkpt>
      <trkpt lat="44.55311" lon="6.28897">
        <ele>981.40002441406</ele>
        <time>2021-06-10T10:25:03.000Z</time>
      </trkpt>
      <trkpt lat="44.55304" lon="6.2889">
        <ele>980</ele>
        <time>2021-06-10T10:25:04.000Z</time>
      </trkpt>
      <trkpt lat="44.55297" lon="6.28884">
        <ele>978.79998779297</ele>
        <time>2021-06-10T10:25:05.000Z</time>
      </trkpt>
      <trkpt lat="44.5529" lon="6.28878">
        <ele>977.59997558594</ele>
        <time>2021-06-10T10:25:06.000Z</time>
      </trkpt>
      <trkpt lat="44.55283" lon="6.28872">
        <ele>976.59997558594</ele>
        <time>2021-06-10T10:25:07.000Z</time>
      </trkpt>
      <trkpt lat="44.55277" lon="6.28866">
        <ele>975.59997558594</ele>
        <time>2021-06-10T10:25:08.000Z</time>
      </trkpt>
      <trkpt lat="44.5527" lon="6.2886">
        <ele>975</ele>
        <time>2021-06-10T10:25:09.000Z</time>
      </trkpt>
      <trkpt lat="44.55263" lon="6.28853">
        <ele>973.79998779297</ele>
        <time>2021-06-10T10:25:10.000Z</time>
      </trkpt>
      <trkpt lat="44.55256" lon="6.28848">
        <ele>972.79998779297</ele>
        <time>2021-06-10T10:25:11.000Z</time>
      </trkpt>
      <trkpt lat="44.55244" lon="6.28837">
        <ele>971.40002441406</ele>
        <time>2021-06-10T10:25:13.000Z</time>
      </trkpt>
      <trkpt lat="44.55235" lon="6.28828">
        <ele>970.20001220703</ele>
        <time>2021-06-10T10:25:15.000Z</time>
      </trkpt>
      <trkpt lat="44.55221" lon="6.28815">
        <ele>969</ele>
        <time>2021-06-10T10:25:18.000Z</time>
      </trkpt>
      <trkpt lat="44.55218" lon="6.28811">
        <ele>969</ele>
        <time>2021-06-10T10:25:19.000Z</time>
      </trkpt>
      <trkpt lat="44.55201" lon="6.28793">
        <ele>968.40002441406</ele>
        <time>2021-06-10T10:25:24.000Z</time>
      </trkpt>
      <trkpt lat="44.55176" lon="6.28767">
        <ele>968.20001220703</ele>
        <time>2021-06-10T10:25:30.000Z</time>
      </trkpt>
      <trkpt lat="44.55155" lon="6.28735">
        <ele>968.20001220703</ele>
        <time>2021-06-10T10:25:36.000Z</time>
      </trkpt>
      <trkpt lat="44.55145" lon="6.28709">
        <ele>968.20001220703</ele>
        <time>2021-06-10T10:25:40.000Z</time>
      </trkpt>
      <trkpt lat="44.5514" lon="6.28686">
        <ele>968</ele>
        <time>2021-06-10T10:25:43.000Z</time>
      </trkpt>
      <trkpt lat="44.55139" lon="6.28678">
        <ele>967.79998779297</ele>
        <time>2021-06-10T10:25:44.000Z</time>
      </trkpt>
      <trkpt lat="44.5514" lon="6.28654">
        <ele>967.20001220703</ele>
        <time>2021-06-10T10:25:47.000Z</time>
      </trkpt>
      <trkpt lat="44.55139" lon="6.2863">
        <ele>966.40002441406</ele>
        <time>2021-06-10T10:25:50.000Z</time>
      </trkpt>
      <trkpt lat="44.55136" lon="6.28623">
        <ele>966</ele>
        <time>2021-06-10T10:25:51.000Z</time>
      </trkpt>
      <trkpt lat="44.55124" lon="6.28603">
        <ele>965</ele>
        <time>2021-06-10T10:25:54.000Z</time>
      </trkpt>
      <trkpt lat="44.55118" lon="6.28598">
        <ele>964.20001220703</ele>
        <time>2021-06-10T10:25:55.000Z</time>
      </trkpt>
      <trkpt lat="44.55113" lon="6.28594">
        <ele>963.79998779297</ele>
        <time>2021-06-10T10:25:56.000Z</time>
      </trkpt>
      <trkpt lat="44.55107" lon="6.28591">
        <ele>963.20001220703</ele>
        <time>2021-06-10T10:25:57.000Z</time>
      </trkpt>
      <trkpt lat="44.55101" lon="6.28588">
        <ele>962.59997558594</ele>
        <time>2021-06-10T10:25:58.000Z</time>
      </trkpt>
      <trkpt lat="44.55089" lon="6.2858">
        <ele>960.59997558594</ele>
        <time>2021-06-10T10:26:00.000Z</time>
      </trkpt>
      <trkpt lat="44.55084" lon="6.28577">
        <ele>960</ele>
        <time>2021-06-10T10:26:01.000Z</time>
      </trkpt>
      <trkpt lat="44.55079" lon="6.28567">
        <ele>959</ele>
        <time>2021-06-10T10:26:03.000Z</time>
      </trkpt>
      <trkpt lat="44.55081" lon="6.28553">
        <ele>958</ele>
        <time>2021-06-10T10:26:05.000Z</time>
      </trkpt>
      <trkpt lat="44.55083" lon="6.28545">
        <ele>957.40002441406</ele>
        <time>2021-06-10T10:26:06.000Z</time>
      </trkpt>
      <trkpt lat="44.55086" lon="6.28536">
        <ele>957</ele>
        <time>2021-06-10T10:26:07.000Z</time>
      </trkpt>
      <trkpt lat="44.55092" lon="6.28518">
        <ele>956</ele>
        <time>2021-06-10T10:26:09.000Z</time>
      </trkpt>
      <trkpt lat="44.55094" lon="6.28509">
        <ele>955.59997558594</ele>
        <time>2021-06-10T10:26:10.000Z</time>
      </trkpt>
      <trkpt lat="44.55097" lon="6.2849">
        <ele>954.79998779297</ele>
        <time>2021-06-10T10:26:12.000Z</time>
      </trkpt>
      <trkpt lat="44.55096" lon="6.28471">
        <ele>953.79998779297</ele>
        <time>2021-06-10T10:26:14.000Z</time>
      </trkpt>
      <trkpt lat="44.55094" lon="6.28462">
        <ele>953.20001220703</ele>
        <time>2021-06-10T10:26:15.000Z</time>
      </trkpt>
      <trkpt lat="44.55088" lon="6.28446">
        <ele>951.40002441406</ele>
        <time>2021-06-10T10:26:17.000Z</time>
      </trkpt>
      <trkpt lat="44.5508" lon="6.28434">
        <ele>950.20001220703</ele>
        <time>2021-06-10T10:26:19.000Z</time>
      </trkpt>
      <trkpt lat="44.55076" lon="6.28425">
        <ele>949</ele>
        <time>2021-06-10T10:26:21.000Z</time>
      </trkpt>
      <trkpt lat="44.55075" lon="6.28421">
        <ele>948.59997558594</ele>
        <time>2021-06-10T10:26:22.000Z</time>
      </trkpt>
      <trkpt lat="44.55076" lon="6.28416">
        <ele>948</ele>
        <time>2021-06-10T10:26:23.000Z</time>
      </trkpt>
      <trkpt lat="44.5508" lon="6.28413">
        <ele>947.20001220703</ele>
        <time>2021-06-10T10:26:24.000Z</time>
      </trkpt>
      <trkpt lat="44.55084" lon="6.2841">
        <ele>946.59997558594</ele>
        <time>2021-06-10T10:26:25.000Z</time>
      </trkpt>
      <trkpt lat="44.55094" lon="6.28408">
        <ele>945.20001220703</ele>
        <time>2021-06-10T10:26:27.000Z</time>
      </trkpt>
      <trkpt lat="44.55099" lon="6.28408">
        <ele>944</ele>
        <time>2021-06-10T10:26:28.000Z</time>
      </trkpt>
      <trkpt lat="44.55112" lon="6.28416">
        <ele>942.59997558594</ele>
        <time>2021-06-10T10:26:31.000Z</time>
      </trkpt>
      <trkpt lat="44.55124" lon="6.2843">
        <ele>941</ele>
        <time>2021-06-10T10:26:34.000Z</time>
      </trkpt>
      <trkpt lat="44.55132" lon="6.28437">
        <ele>939.79998779297</ele>
        <time>2021-06-10T10:26:36.000Z</time>
      </trkpt>
      <trkpt lat="44.55139" lon="6.2844">
        <ele>938.40002441406</ele>
        <time>2021-06-10T10:26:38.000Z</time>
      </trkpt>
      <trkpt lat="44.55149" lon="6.28439">
        <ele>937.40002441406</ele>
        <time>2021-06-10T10:26:40.000Z</time>
      </trkpt>
      <trkpt lat="44.5516" lon="6.28434">
        <ele>936.59997558594</ele>
        <time>2021-06-10T10:26:42.000Z</time>
      </trkpt>
      <trkpt lat="44.55167" lon="6.28432">
        <ele>936.20001220703</ele>
        <time>2021-06-10T10:26:43.000Z</time>
      </trkpt>
      <trkpt lat="44.55174" lon="6.28431">
        <ele>935.59997558594</ele>
        <time>2021-06-10T10:26:44.000Z</time>
      </trkpt>
      <trkpt lat="44.55181" lon="6.28429">
        <ele>935</ele>
        <time>2021-06-10T10:26:45.000Z</time>
      </trkpt>
      <trkpt lat="44.55201" lon="6.28427">
        <ele>933.79998779297</ele>
        <time>2021-06-10T10:26:48.000Z</time>
      </trkpt>
      <trkpt lat="44.5522" lon="6.28426">
        <ele>932.40002441406</ele>
        <time>2021-06-10T10:26:51.000Z</time>
      </trkpt>
      <trkpt lat="44.55225" lon="6.28423">
        <ele>931.79998779297</ele>
        <time>2021-06-10T10:26:52.000Z</time>
      </trkpt>
      <trkpt lat="44.5523" lon="6.28419">
        <ele>931.20001220703</ele>
        <time>2021-06-10T10:26:53.000Z</time>
      </trkpt>
      <trkpt lat="44.55238" lon="6.28408">
        <ele>930.40002441406</ele>
        <time>2021-06-10T10:26:55.000Z</time>
      </trkpt>
      <trkpt lat="44.55244" lon="6.28396">
        <ele>930</ele>
        <time>2021-06-10T10:26:57.000Z</time>
      </trkpt>
      <trkpt lat="44.55244" lon="6.28384">
        <ele>930</ele>
        <time>2021-06-10T10:26:59.000Z</time>
      </trkpt>
      <trkpt lat="44.55234" lon="6.28373">
        <ele>930</ele>
        <time>2021-06-10T10:27:02.000Z</time>
      </trkpt>
      <trkpt lat="44.55226" lon="6.28365">
        <ele>929.79998779297</ele>
        <time>2021-06-10T10:27:04.000Z</time>
      </trkpt>
      <trkpt lat="44.55218" lon="6.28349">
        <ele>929.79998779297</ele>
        <time>2021-06-10T10:27:07.000Z</time>
      </trkpt>
      <trkpt lat="44.55223" lon="6.28335">
        <ele>929.79998779297</ele>
        <time>2021-06-10T10:27:10.000Z</time>
      </trkpt>
      <trkpt lat="44.55227" lon="6.28332">
        <ele>929.59997558594</ele>
        <time>2021-06-10T10:27:11.000Z</time>
      </trkpt>
      <trkpt lat="44.5523" lon="6.28328">
        <ele>929.59997558594</ele>
        <time>2021-06-10T10:27:12.000Z</time>
      </trkpt>
      <trkpt lat="44.55231" lon="6.28323">
        <ele>929.40002441406</ele>
        <time>2021-06-10T10:27:13.000Z</time>
      </trkpt>
      <trkpt lat="44.55222" lon="6.28315">
        <ele>929</ele>
        <time>2021-06-10T10:27:15.000Z</time>
      </trkpt>
      <trkpt lat="44.5521" lon="6.2831">
        <ele>928.40002441406</ele>
        <time>2021-06-10T10:27:17.000Z</time>
      </trkpt>
      <trkpt lat="44.55203" lon="6.28308">
        <ele>928</ele>
        <time>2021-06-10T10:27:18.000Z</time>
      </trkpt>
      <trkpt lat="44.55195" lon="6.28306">
        <ele>927.40002441406</ele>
        <time>2021-06-10T10:27:19.000Z</time>
      </trkpt>
      <trkpt lat="44.55188" lon="6.28303">
        <ele>927</ele>
        <time>2021-06-10T10:27:20.000Z</time>
      </trkpt>
      <trkpt lat="44.55174" lon="6.28298">
        <ele>925.79998779297</ele>
        <time>2021-06-10T10:27:22.000Z</time>
      </trkpt>
      <trkpt lat="44.5516" lon="6.28292">
        <ele>924.59997558594</ele>
        <time>2021-06-10T10:27:24.000Z</time>
      </trkpt>
      <trkpt lat="44.55154" lon="6.28289">
        <ele>923.40002441406</ele>
        <time>2021-06-10T10:27:25.000Z</time>
      </trkpt>
      <trkpt lat="44.55141" lon="6.28283">
        <ele>922.40002441406</ele>
        <time>2021-06-10T10:27:27.000Z</time>
      </trkpt>
      <trkpt lat="44.55113" lon="6.2827">
        <ele>921.20001220703</ele>
        <time>2021-06-10T10:27:31.000Z</time>
      </trkpt>
      <trkpt lat="44.55099" lon="6.28261">
        <ele>919.59997558594</ele>
        <time>2021-06-10T10:27:33.000Z</time>
      </trkpt>
      <trkpt lat="44.55086" lon="6.2825">
        <ele>918.20001220703</ele>
        <time>2021-06-10T10:27:35.000Z</time>
      </trkpt>
      <trkpt lat="44.55081" lon="6.28243">
        <ele>917.59997558594</ele>
        <time>2021-06-10T10:27:36.000Z</time>
      </trkpt>
      <trkpt lat="44.55076" lon="6.28235">
        <ele>916.79998779297</ele>
        <time>2021-06-10T10:27:37.000Z</time>
      </trkpt>
      <trkpt lat="44.55066" lon="6.28219">
        <ele>915.79998779297</ele>
        <time>2021-06-10T10:27:39.000Z</time>
      </trkpt>
      <trkpt lat="44.55055" lon="6.28202">
        <ele>915</ele>
        <time>2021-06-10T10:27:41.000Z</time>
      </trkpt>
      <trkpt lat="44.55049" lon="6.28193">
        <ele>914.40002441406</ele>
        <time>2021-06-10T10:27:42.000Z</time>
      </trkpt>
      <trkpt lat="44.55031" lon="6.28169">
        <ele>913</ele>
        <time>2021-06-10T10:27:45.000Z</time>
      </trkpt>
      <trkpt lat="44.55013" lon="6.28147">
        <ele>911.59997558594</ele>
        <time>2021-06-10T10:27:48.000Z</time>
      </trkpt>
      <trkpt lat="44.55007" lon="6.28141">
        <ele>911</ele>
        <time>2021-06-10T10:27:49.000Z</time>
      </trkpt>
      <trkpt lat="44.55001" lon="6.28134">
        <ele>910.59997558594</ele>
        <time>2021-06-10T10:27:50.000Z</time>
      </trkpt>
      <trkpt lat="44.54989" lon="6.28121">
        <ele>909.40002441406</ele>
        <time>2021-06-10T10:27:52.000Z</time>
      </trkpt>
      <trkpt lat="44.54976" lon="6.28108">
        <ele>907.59997558594</ele>
        <time>2021-06-10T10:27:54.000Z</time>
      </trkpt>
      <trkpt lat="44.54964" lon="6.28095">
        <ele>906.59997558594</ele>
        <time>2021-06-10T10:27:56.000Z</time>
      </trkpt>
      <trkpt lat="44.54952" lon="6.28082">
        <ele>905.40002441406</ele>
        <time>2021-06-10T10:27:58.000Z</time>
      </trkpt>
      <trkpt lat="44.54941" lon="6.28069">
        <ele>904</ele>
        <time>2021-06-10T10:28:00.000Z</time>
      </trkpt>
      <trkpt lat="44.54929" lon="6.28057">
        <ele>902.79998779297</ele>
        <time>2021-06-10T10:28:02.000Z</time>
      </trkpt>
      <trkpt lat="44.54918" lon="6.28044">
        <ele>901.59997558594</ele>
        <time>2021-06-10T10:28:04.000Z</time>
      </trkpt>
      <trkpt lat="44.54906" lon="6.28033">
        <ele>900.40002441406</ele>
        <time>2021-06-10T10:28:06.000Z</time>
      </trkpt>
      <trkpt lat="44.54894" lon="6.2802">
        <ele>899.20001220703</ele>
        <time>2021-06-10T10:28:08.000Z</time>
      </trkpt>
      <trkpt lat="44.54881" lon="6.28007">
        <ele>898.40002441406</ele>
        <time>2021-06-10T10:28:10.000Z</time>
      </trkpt>
      <trkpt lat="44.54868" lon="6.27993">
        <ele>897.20001220703</ele>
        <time>2021-06-10T10:28:12.000Z</time>
      </trkpt>
      <trkpt lat="44.54856" lon="6.27979">
        <ele>896</ele>
        <time>2021-06-10T10:28:14.000Z</time>
      </trkpt>
      <trkpt lat="44.54843" lon="6.27964">
        <ele>894.79998779297</ele>
        <time>2021-06-10T10:28:16.000Z</time>
      </trkpt>
      <trkpt lat="44.5483" lon="6.27951">
        <ele>893.59997558594</ele>
        <time>2021-06-10T10:28:18.000Z</time>
      </trkpt>
      <trkpt lat="44.5481" lon="6.27931">
        <ele>892.40002441406</ele>
        <time>2021-06-10T10:28:21.000Z</time>
      </trkpt>
      <trkpt lat="44.54797" lon="6.27919">
        <ele>891</ele>
        <time>2021-06-10T10:28:23.000Z</time>
      </trkpt>
      <trkpt lat="44.5479" lon="6.27914">
        <ele>890.40002441406</ele>
        <time>2021-06-10T10:28:24.000Z</time>
      </trkpt>
      <trkpt lat="44.54783" lon="6.2791">
        <ele>889.79998779297</ele>
        <time>2021-06-10T10:28:25.000Z</time>
      </trkpt>
      <trkpt lat="44.54776" lon="6.27907">
        <ele>889.20001220703</ele>
        <time>2021-06-10T10:28:26.000Z</time>
      </trkpt>
      <trkpt lat="44.54769" lon="6.27905">
        <ele>888.59997558594</ele>
        <time>2021-06-10T10:28:27.000Z</time>
      </trkpt>
      <trkpt lat="44.54761" lon="6.27903">
        <ele>888</ele>
        <time>2021-06-10T10:28:28.000Z</time>
      </trkpt>
      <trkpt lat="44.54753" lon="6.27901">
        <ele>887.40002441406</ele>
        <time>2021-06-10T10:28:29.000Z</time>
      </trkpt>
      <trkpt lat="44.54738" lon="6.27898">
        <ele>886.20001220703</ele>
        <time>2021-06-10T10:28:31.000Z</time>
      </trkpt>
      <trkpt lat="44.54723" lon="6.27894">
        <ele>885.20001220703</ele>
        <time>2021-06-10T10:28:33.000Z</time>
      </trkpt>
      <trkpt lat="44.54712" lon="6.27888">
        <ele>884.40002441406</ele>
        <time>2021-06-10T10:28:35.000Z</time>
      </trkpt>
      <trkpt lat="44.5471" lon="6.27882">
        <ele>884</ele>
        <time>2021-06-10T10:28:36.000Z</time>
      </trkpt>
      <trkpt lat="44.54708" lon="6.27858">
        <ele>882.59997558594</ele>
        <time>2021-06-10T10:28:39.000Z</time>
      </trkpt>
      <trkpt lat="44.54713" lon="6.27831">
        <ele>881.40002441406</ele>
        <time>2021-06-10T10:28:42.000Z</time>
      </trkpt>
      <trkpt lat="44.54715" lon="6.27824">
        <ele>881</ele>
        <time>2021-06-10T10:28:43.000Z</time>
      </trkpt>
      <trkpt lat="44.54717" lon="6.27816">
        <ele>880.59997558594</ele>
        <time>2021-06-10T10:28:44.000Z</time>
      </trkpt>
      <trkpt lat="44.5472" lon="6.27808">
        <ele>880.20001220703</ele>
        <time>2021-06-10T10:28:45.000Z</time>
      </trkpt>
      <trkpt lat="44.54723" lon="6.27801">
        <ele>880</ele>
        <time>2021-06-10T10:28:46.000Z</time>
      </trkpt>
      <trkpt lat="44.54731" lon="6.27781">
        <ele>879</ele>
        <time>2021-06-10T10:28:49.000Z</time>
      </trkpt>
      <trkpt lat="44.54732" lon="6.27763">
        <ele>878.59997558594</ele>
        <time>2021-06-10T10:28:52.000Z</time>
      </trkpt>
      <trkpt lat="44.54723" lon="6.27757">
        <ele>878.20001220703</ele>
        <time>2021-06-10T10:28:54.000Z</time>
      </trkpt>
      <trkpt lat="44.54718" lon="6.27756">
        <ele>878.20001220703</ele>
        <time>2021-06-10T10:28:55.000Z</time>
      </trkpt>
      <trkpt lat="44.54705" lon="6.27744">
        <ele>877.79998779297</ele>
        <time>2021-06-10T10:28:58.000Z</time>
      </trkpt>
      <trkpt lat="44.547" lon="6.2774">
        <ele>877.79998779297</ele>
        <time>2021-06-10T10:28:59.000Z</time>
      </trkpt>
      <trkpt lat="44.54677" lon="6.27724">
        <ele>877.40002441406</ele>
        <time>2021-06-10T10:29:03.000Z</time>
      </trkpt>
      <trkpt lat="44.54671" lon="6.2772">
        <ele>877.20001220703</ele>
        <time>2021-06-10T10:29:04.000Z</time>
      </trkpt>
      <trkpt lat="44.54641" lon="6.27699">
        <ele>876.20001220703</ele>
        <time>2021-06-10T10:29:09.000Z</time>
      </trkpt>
      <trkpt lat="44.5461" lon="6.27677">
        <ele>875.20001220703</ele>
        <time>2021-06-10T10:29:14.000Z</time>
      </trkpt>
      <trkpt lat="44.54592" lon="6.27667">
        <ele>874.59997558594</ele>
        <time>2021-06-10T10:29:17.000Z</time>
      </trkpt>
      <trkpt lat="44.54584" lon="6.27662">
        <ele>874</ele>
        <time>2021-06-10T10:29:19.000Z</time>
      </trkpt>
      <trkpt lat="44.54576" lon="6.2766">
        <ele>873.40002441406</ele>
        <time>2021-06-10T10:29:21.000Z</time>
      </trkpt>
      <trkpt lat="44.54569" lon="6.2766">
        <ele>872.79998779297</ele>
        <time>2021-06-10T10:29:23.000Z</time>
      </trkpt>
      <trkpt lat="44.5456" lon="6.27663">
        <ele>872</ele>
        <time>2021-06-10T10:29:26.000Z</time>
      </trkpt>
      <trkpt lat="44.54558" lon="6.27665">
        <ele>871.79998779297</ele>
        <time>2021-06-10T10:29:27.000Z</time>
      </trkpt>
      <trkpt lat="44.54552" lon="6.27664">
        <ele>871.20001220703</ele>
        <time>2021-06-10T10:29:30.000Z</time>
      </trkpt>
      <trkpt lat="44.54552" lon="6.27663">
        <ele>871.20001220703</ele>
        <time>2021-06-10T10:29:31.000Z</time>
      </trkpt>
      <trkpt lat="44.54554" lon="6.27659">
        <ele>870.79998779297</ele>
        <time>2021-06-10T10:29:33.000Z</time>
      </trkpt>
      <trkpt lat="44.54556" lon="6.27657">
        <ele>870.59997558594</ele>
        <time>2021-06-10T10:29:34.000Z</time>
      </trkpt>
      <trkpt lat="44.54563" lon="6.27636">
        <ele>870.20001220703</ele>
        <time>2021-06-10T10:29:39.000Z</time>
      </trkpt>
      <trkpt lat="44.54567" lon="6.27605">
        <ele>870.20001220703</ele>
        <time>2021-06-10T10:29:44.000Z</time>
      </trkpt>
      <trkpt lat="44.54575" lon="6.27571">
        <ele>870</ele>
        <time>2021-06-10T10:29:50.000Z</time>
      </trkpt>
      <trkpt lat="44.54577" lon="6.27537">
        <ele>870</ele>
        <time>2021-06-10T10:29:56.000Z</time>
      </trkpt>
      <trkpt lat="44.54577" lon="6.27518">
        <ele>870</ele>
        <time>2021-06-10T10:29:59.000Z</time>
      </trkpt>
      <trkpt lat="44.54578" lon="6.27505">
        <ele>870</ele>
        <time>2021-06-10T10:30:01.000Z</time>
      </trkpt>
      <trkpt lat="44.54581" lon="6.27494">
        <ele>870</ele>
        <time>2021-06-10T10:30:03.000Z</time>
      </trkpt>
      <trkpt lat="44.54585" lon="6.27476">
        <ele>869.79998779297</ele>
        <time>2021-06-10T10:30:06.000Z</time>
      </trkpt>
      <trkpt lat="44.54589" lon="6.27458">
        <ele>869.40002441406</ele>
        <time>2021-06-10T10:30:10.000Z</time>
      </trkpt>
      <trkpt lat="44.5459" lon="6.27455">
        <ele>869</ele>
        <time>2021-06-10T10:30:14.000Z</time>
      </trkpt>
      <trkpt lat="44.54589" lon="6.27454">
        <ele>868.79998779297</ele>
        <time>2021-06-10T10:30:16.000Z</time>
      </trkpt>
      <trkpt lat="44.54589" lon="6.27453">
        <ele>868.59997558594</ele>
        <time>2021-06-10T10:30:24.000Z</time>
      </trkpt>
      <trkpt lat="44.54594" lon="6.27453">
        <ele>868.40002441406</ele>
        <time>2021-06-10T10:30:31.000Z</time>
      </trkpt>
      <trkpt lat="44.54597" lon="6.27453">
        <ele>868.40002441406</ele>
        <time>2021-06-10T10:30:36.000Z</time>
      </trkpt>
      <trkpt lat="44.54598" lon="6.27451">
        <ele>868.79998779297</ele>
        <time>2021-06-10T10:30:41.000Z</time>
      </trkpt>
      <trkpt lat="44.54599" lon="6.2745">
        <ele>868.79998779297</ele>
        <time>2021-06-10T10:30:55.000Z</time>
      </trkpt>
      <trkpt lat="44.54599" lon="6.27449">
        <ele>868.79998779297</ele>
        <time>2021-06-10T10:30:59.000Z</time>
      </trkpt>
      <trkpt lat="44.54599" lon="6.27449">
        <ele>868.59997558594</ele>
        <time>2021-06-10T10:31:37.000Z</time>
      </trkpt>
      <trkpt lat="44.54599" lon="6.27449">
        <ele>868.59997558594</ele>
        <time>2021-06-10T10:31:45.000Z</time>
      </trkpt>
      <trkpt lat="44.54599" lon="6.27449">
        <ele>868.40002441406</ele>
        <time>2021-06-10T10:31:59.000Z</time>
      </trkpt>
      <trkpt lat="44.54599" lon="6.27449">
        <ele>868.59997558594</ele>
        <time>2021-06-10T10:32:17.000Z</time>
      </trkpt>
      <trkpt lat="44.54601" lon="6.2745">
        <ele>868.40002441406</ele>
        <time>2021-06-10T10:32:43.000Z</time>
      </trkpt>
      <trkpt lat="44.54595" lon="6.27446">
        <ele>868.40002441406</ele>
        <time>2021-06-10T10:32:51.000Z</time>
      </trkpt>
      <trkpt lat="44.54595" lon="6.27446">
        <ele>868.79998779297</ele>
        <time>2021-06-10T10:33:00.000Z</time>
      </trkpt>
      <trkpt lat="44.54595" lon="6.27446">
        <ele>868.59997558594</ele>
        <time>2021-06-10T10:33:32.000Z</time>
      </trkpt>
      <trkpt lat="44.54595" lon="6.27446">
        <ele>868.59997558594</ele>
        <time>2021-06-10T10:33:38.000Z</time>
      </trkpt>
      <trkpt lat="44.54595" lon="6.27446">
        <ele>868.40002441406</ele>
        <time>2021-06-10T10:33:45.000Z</time>
      </trkpt>
      <trkpt lat="44.54595" lon="6.27446">
        <ele>868.20001220703</ele>
        <time>2021-06-10T10:33:56.000Z</time>
      </trkpt>
      <trkpt lat="44.54595" lon="6.27446">
        <ele>868.40002441406</ele>
        <time>2021-06-10T10:34:59.000Z</time>
      </trkpt>
      <trkpt lat="44.54595" lon="6.27446">
        <ele>868.20001220703</ele>
        <time>2021-06-10T10:35:13.000Z</time>
      </trkpt>
      <trkpt lat="44.54595" lon="6.27446">
        <ele>868.20001220703</ele>
        <time>2021-06-10T10:35:45.000Z</time>
      </trkpt>
      <trkpt lat="44.54595" lon="6.27446">
        <ele>868.20001220703</ele>
        <time>2021-06-10T10:35:46.000Z</time>
      </trkpt>
      <trkpt lat="44.54595" lon="6.27446">
        <ele>868</ele>
        <time>2021-06-10T10:36:14.000Z</time>
      </trkpt>
      <trkpt lat="44.54595" lon="6.27446">
        <ele>868.20001220703</ele>
        <time>2021-06-10T10:36:26.000Z</time>
      </trkpt>
      <trkpt lat="44.54595" lon="6.27447">
        <ele>868</ele>
        <time>2021-06-10T10:36:49.000Z</time>
      </trkpt>
      <trkpt lat="44.54595" lon="6.27447">
        <ele>868.40002441406</ele>
        <time>2021-06-10T10:37:05.000Z</time>
      </trkpt>
      <trkpt lat="44.54595" lon="6.27447">
        <ele>868.20001220703</ele>
        <time>2021-06-10T10:37:39.000Z</time>
      </trkpt>
      <trkpt lat="44.54595" lon="6.27447">
        <ele>868.20001220703</ele>
        <time>2021-06-10T10:37:41.000Z</time>
      </trkpt>
      <trkpt lat="44.54595" lon="6.27447">
        <ele>868.20001220703</ele>
        <time>2021-06-10T10:37:47.000Z</time>
      </trkpt>
      <trkpt lat="44.54595" lon="6.27447">
        <ele>868.59997558594</ele>
        <time>2021-06-10T10:38:08.000Z</time>
      </trkpt>
      <trkpt lat="44.54596" lon="6.27446">
        <ele>868.59997558594</ele>
        <time>2021-06-10T10:38:21.000Z</time>
      </trkpt>
      <trkpt lat="44.54596" lon="6.27446">
        <ele>868.40002441406</ele>
        <time>2021-06-10T10:38:30.000Z</time>
      </trkpt>
      <trkpt lat="44.54596" lon="6.27446">
        <ele>868.40002441406</ele>
        <time>2021-06-10T10:38:40.000Z</time>
      </trkpt>
      <trkpt lat="44.54596" lon="6.27446">
        <ele>868.59997558594</ele>
        <time>2021-06-10T10:38:56.000Z</time>
      </trkpt>
      <trkpt lat="44.54596" lon="6.27446">
        <ele>868.59997558594</ele>
        <time>2021-06-10T10:39:22.000Z</time>
      </trkpt>
      <trkpt lat="44.54596" lon="6.27446">
        <ele>868.59997558594</ele>
        <time>2021-06-10T10:40:13.000Z</time>
      </trkpt>
      <trkpt lat="44.54596" lon="6.27446">
        <ele>868.40002441406</ele>
        <time>2021-06-10T10:40:28.000Z</time>
      </trkpt>
      <trkpt lat="44.54596" lon="6.27446">
        <ele>868.59997558594</ele>
        <time>2021-06-10T10:41:10.000Z</time>
      </trkpt>
      <trkpt lat="44.54596" lon="6.27446">
        <ele>868.79998779297</ele>
        <time>2021-06-10T10:41:46.000Z</time>
      </trkpt>
      <trkpt lat="44.54596" lon="6.27446">
        <ele>868.59997558594</ele>
        <time>2021-06-10T10:42:25.000Z</time>
      </trkpt>
      <trkpt lat="44.54596" lon="6.27447">
        <ele>868.40002441406</ele>
        <time>2021-06-10T10:42:54.000Z</time>
      </trkpt>
      <trkpt lat="44.54596" lon="6.27447">
        <ele>868.40002441406</ele>
        <time>2021-06-10T10:42:56.000Z</time>
      </trkpt>
      <trkpt lat="44.54596" lon="6.27447">
        <ele>868.59997558594</ele>
        <time>2021-06-10T10:43:16.000Z</time>
      </trkpt>
      <trkpt lat="44.54596" lon="6.27447">
        <ele>868.59997558594</ele>
        <time>2021-06-10T10:43:30.000Z</time>
      </trkpt>
      <trkpt lat="44.54595" lon="6.27447">
        <ele>869</ele>
        <time>2021-06-10T10:44:16.000Z</time>
      </trkpt>
      <trkpt lat="44.54595" lon="6.27447">
        <ele>869</ele>
        <time>2021-06-10T10:44:24.000Z</time>
      </trkpt>
      <trkpt lat="44.54595" lon="6.27448">
        <ele>868.59997558594</ele>
        <time>2021-06-10T10:44:31.000Z</time>
      </trkpt>
      <trkpt lat="44.54593" lon="6.27448">
        <ele>868.59997558594</ele>
        <time>2021-06-10T10:44:45.000Z</time>
      </trkpt>
      <trkpt lat="44.54593" lon="6.27448">
        <ele>868.59997558594</ele>
        <time>2021-06-10T10:45:02.000Z</time>
      </trkpt>
      <trkpt lat="44.54591" lon="6.27447">
        <ele>868.20001220703</ele>
        <time>2021-06-10T10:45:19.000Z</time>
      </trkpt>
      <trkpt lat="44.54588" lon="6.27444">
        <ele>868.40002441406</ele>
        <time>2021-06-10T10:45:41.000Z</time>
      </trkpt>
      <trkpt lat="44.54588" lon="6.27444">
        <ele>868.40002441406</ele>
        <time>2021-06-10T10:46:13.000Z</time>
      </trkpt>
      <trkpt lat="44.54588" lon="6.27444">
        <ele>868.20001220703</ele>
        <time>2021-06-10T10:46:59.000Z</time>
      </trkpt>
      <trkpt lat="44.54588" lon="6.27444">
        <ele>868.40002441406</ele>
        <time>2021-06-10T10:47:54.000Z</time>
      </trkpt>
      <trkpt lat="44.54589" lon="6.27443">
        <ele>868.40002441406</ele>
        <time>2021-06-10T10:48:07.000Z</time>
      </trkpt>
      <trkpt lat="44.54589" lon="6.27443">
        <ele>868.40002441406</ele>
        <time>2021-06-10T10:48:32.000Z</time>
      </trkpt>
      <trkpt lat="44.54589" lon="6.27443">
        <ele>868.40002441406</ele>
        <time>2021-06-10T10:48:39.000Z</time>
      </trkpt>
      <trkpt lat="44.54589" lon="6.27443">
        <ele>868.40002441406</ele>
        <time>2021-06-10T10:48:49.000Z</time>
      </trkpt>
      <trkpt lat="44.54589" lon="6.27443">
        <ele>868</ele>
        <time>2021-06-10T10:49:17.000Z</time>
      </trkpt>
      <trkpt lat="44.54589" lon="6.27442">
        <ele>868.59997558594</ele>
        <time>2021-06-10T10:50:10.000Z</time>
      </trkpt>
      <trkpt lat="44.54589" lon="6.27442">
        <ele>868.40002441406</ele>
        <time>2021-06-10T10:50:16.000Z</time>
      </trkpt>
      <trkpt lat="44.5459" lon="6.27442">
        <ele>868.59997558594</ele>
        <time>2021-06-10T10:51:14.000Z</time>
      </trkpt>
      <trkpt lat="44.54589" lon="6.2744">
        <ele>868.79998779297</ele>
        <time>2021-06-10T10:51:53.000Z</time>
      </trkpt>
      <trkpt lat="44.54588" lon="6.27437">
        <ele>868.59997558594</ele>
        <time>2021-06-10T10:51:58.000Z</time>
      </trkpt>
      <trkpt lat="44.54589" lon="6.27435">
        <ele>868.59997558594</ele>
        <time>2021-06-10T10:52:00.000Z</time>
      </trkpt>
      <trkpt lat="44.54593" lon="6.27425">
        <ele>868.40002441406</ele>
        <time>2021-06-10T10:52:08.000Z</time>
      </trkpt>
      <trkpt lat="44.54598" lon="6.27415">
        <ele>868.40002441406</ele>
        <time>2021-06-10T10:52:16.000Z</time>
      </trkpt>
      <trkpt lat="44.54599" lon="6.27402">
        <ele>868.40002441406</ele>
        <time>2021-06-10T10:52:23.000Z</time>
      </trkpt>
      <trkpt lat="44.546" lon="6.27394">
        <ele>868.40002441406</ele>
        <time>2021-06-10T10:52:28.000Z</time>
      </trkpt>
      <trkpt lat="44.54602" lon="6.27385">
        <ele>868.20001220703</ele>
        <time>2021-06-10T10:52:34.000Z</time>
      </trkpt>
      <trkpt lat="44.54601" lon="6.27384">
        <ele>868</ele>
        <time>2021-06-10T10:52:37.000Z</time>
      </trkpt>
      <trkpt lat="44.54601" lon="6.27384">
        <ele>868</ele>
        <time>2021-06-10T10:52:40.000Z</time>
      </trkpt>
      <trkpt lat="44.54601" lon="6.27384">
        <ele>867.79998779297</ele>
        <time>2021-06-10T10:52:45.000Z</time>
      </trkpt>
    </trkseg>
  </trk>
</gpx>